<?xml version="1.0" encoding="UTF-8" standalone="no" ?>
<gpx xmlns="http://www.topografix.com/GPX/1/1" xmlns:xsi="http://www.w3.org/2001/XMLSchema-instance" xsi:schemaLocation="http://www.topografix.com/GPX/1/1 http://www.topografix.com/GPX/1/1/gpx.xsd" version="1.1" creator="VisuGPX - https://www.visugpx.com">
  <metadata>
    <name>lundi 2015 03 16</name>
    <desc><![CDATA[rando du lundi]]></desc>
  </metadata>
  <trk>
    <name><![CDATA[16/03/2015 20:20]]></name>
    <desc><![CDATA[]]></desc>
    <trkseg>
      <trkpt lat="48.85741" lon="2.34738">
        <ele>84.3</ele>
        <time>2015-03-16T19:20:35.951Z</time>
      </trkpt>
      <trkpt lat="48.85741" lon="2.34724">
        <ele>82.9</ele>
        <time>2015-03-16T19:21:12.909Z</time>
      </trkpt>
      <trkpt lat="48.85741" lon="2.34722">
        <ele>82.8</ele>
        <time>2015-03-16T19:21:13.917Z</time>
      </trkpt>
      <trkpt lat="48.85742" lon="2.3471">
        <ele>82.2</ele>
        <time>2015-03-16T19:21:17.977Z</time>
      </trkpt>
      <trkpt lat="48.85742" lon="2.34707">
        <ele>82.1</ele>
        <time>2015-03-16T19:21:18.978Z</time>
      </trkpt>
      <trkpt lat="48.85742" lon="2.34701">
        <ele>81.5</ele>
        <time>2015-03-16T19:21:22.890Z</time>
      </trkpt>
      <trkpt lat="48.85741" lon="2.34701">
        <ele>81.4</ele>
        <time>2015-03-16T19:21:23.899Z</time>
      </trkpt>
      <trkpt lat="48.85741" lon="2.34699">
        <ele>81</ele>
        <time>2015-03-16T19:21:44.926Z</time>
      </trkpt>
      <trkpt lat="48.8574" lon="2.34696">
        <ele>82.2</ele>
        <time>2015-03-16T19:21:45.937Z</time>
      </trkpt>
      <trkpt lat="48.85732" lon="2.3469">
        <ele>82</ele>
        <time>2015-03-16T19:21:51.067Z</time>
      </trkpt>
      <trkpt lat="48.85729" lon="2.3469">
        <ele>82.3</ele>
        <time>2015-03-16T19:21:51.900Z</time>
      </trkpt>
      <trkpt lat="48.85721" lon="2.3469">
        <ele>82</ele>
        <time>2015-03-16T19:21:54.887Z</time>
      </trkpt>
      <trkpt lat="48.85719" lon="2.3469">
        <ele>81.9</ele>
        <time>2015-03-16T19:21:55.882Z</time>
      </trkpt>
      <trkpt lat="48.85713" lon="2.3469">
        <ele>81.9</ele>
        <time>2015-03-16T19:21:57.909Z</time>
      </trkpt>
      <trkpt lat="48.8571" lon="2.3469">
        <ele>82.1</ele>
        <time>2015-03-16T19:21:58.928Z</time>
      </trkpt>
      <trkpt lat="48.85704" lon="2.34686">
        <ele>82.1</ele>
        <time>2015-03-16T19:22:00.881Z</time>
      </trkpt>
      <trkpt lat="48.85701" lon="2.34684">
        <ele>82</ele>
        <time>2015-03-16T19:22:01.899Z</time>
      </trkpt>
      <trkpt lat="48.85695" lon="2.34679">
        <ele>82.2</ele>
        <time>2015-03-16T19:22:03.927Z</time>
      </trkpt>
      <trkpt lat="48.85692" lon="2.34677">
        <ele>82.3</ele>
        <time>2015-03-16T19:22:04.939Z</time>
      </trkpt>
      <trkpt lat="48.85685" lon="2.34672">
        <ele>82.7</ele>
        <time>2015-03-16T19:22:06.976Z</time>
      </trkpt>
      <trkpt lat="48.85682" lon="2.3467">
        <ele>82.8</ele>
        <time>2015-03-16T19:22:07.881Z</time>
      </trkpt>
      <trkpt lat="48.85675" lon="2.34666">
        <ele>83</ele>
        <time>2015-03-16T19:22:09.914Z</time>
      </trkpt>
      <trkpt lat="48.85672" lon="2.34664">
        <ele>83.2</ele>
        <time>2015-03-16T19:22:10.944Z</time>
      </trkpt>
      <trkpt lat="48.85665" lon="2.3466">
        <ele>83.2</ele>
        <time>2015-03-16T19:22:12.950Z</time>
      </trkpt>
      <trkpt lat="48.85661" lon="2.34658">
        <ele>83.3</ele>
        <time>2015-03-16T19:22:13.968Z</time>
      </trkpt>
      <trkpt lat="48.85654" lon="2.34655">
        <ele>83.4</ele>
        <time>2015-03-16T19:22:15.888Z</time>
      </trkpt>
      <trkpt lat="48.8565" lon="2.34653">
        <ele>83.4</ele>
        <time>2015-03-16T19:22:16.898Z</time>
      </trkpt>
      <trkpt lat="48.85644" lon="2.34648">
        <ele>83.4</ele>
        <time>2015-03-16T19:22:18.931Z</time>
      </trkpt>
      <trkpt lat="48.85641" lon="2.34646">
        <ele>83.4</ele>
        <time>2015-03-16T19:22:19.953Z</time>
      </trkpt>
      <trkpt lat="48.85635" lon="2.34641">
        <ele>83.4</ele>
        <time>2015-03-16T19:22:21.898Z</time>
      </trkpt>
      <trkpt lat="48.85632" lon="2.34639">
        <ele>83.3</ele>
        <time>2015-03-16T19:22:22.920Z</time>
      </trkpt>
      <trkpt lat="48.85624" lon="2.34634">
        <ele>83.4</ele>
        <time>2015-03-16T19:22:25.944Z</time>
      </trkpt>
      <trkpt lat="48.85621" lon="2.34634">
        <ele>83.3</ele>
        <time>2015-03-16T19:22:26.971Z</time>
      </trkpt>
      <trkpt lat="48.85615" lon="2.3463">
        <ele>83.1</ele>
        <time>2015-03-16T19:22:28.901Z</time>
      </trkpt>
      <trkpt lat="48.85612" lon="2.34627">
        <ele>83.2</ele>
        <time>2015-03-16T19:22:29.919Z</time>
      </trkpt>
      <trkpt lat="48.85606" lon="2.3462">
        <ele>83.3</ele>
        <time>2015-03-16T19:22:31.868Z</time>
      </trkpt>
      <trkpt lat="48.85602" lon="2.34618">
        <ele>83.5</ele>
        <time>2015-03-16T19:22:32.873Z</time>
      </trkpt>
      <trkpt lat="48.85595" lon="2.34613">
        <ele>83.9</ele>
        <time>2015-03-16T19:22:34.902Z</time>
      </trkpt>
      <trkpt lat="48.85592" lon="2.3461">
        <ele>84</ele>
        <time>2015-03-16T19:22:35.913Z</time>
      </trkpt>
      <trkpt lat="48.85586" lon="2.34602">
        <ele>84.3</ele>
        <time>2015-03-16T19:22:37.866Z</time>
      </trkpt>
      <trkpt lat="48.85583" lon="2.34598">
        <ele>84.1</ele>
        <time>2015-03-16T19:22:38.861Z</time>
      </trkpt>
      <trkpt lat="48.85577" lon="2.34589">
        <ele>84.2</ele>
        <time>2015-03-16T19:22:40.899Z</time>
      </trkpt>
      <trkpt lat="48.85574" lon="2.34584">
        <ele>84.2</ele>
        <time>2015-03-16T19:22:41.945Z</time>
      </trkpt>
      <trkpt lat="48.85566" lon="2.34577">
        <ele>84.2</ele>
        <time>2015-03-16T19:22:43.897Z</time>
      </trkpt>
      <trkpt lat="48.85563" lon="2.34575">
        <ele>84.3</ele>
        <time>2015-03-16T19:22:44.873Z</time>
      </trkpt>
      <trkpt lat="48.85556" lon="2.34569">
        <ele>84.5</ele>
        <time>2015-03-16T19:22:46.888Z</time>
      </trkpt>
      <trkpt lat="48.85553" lon="2.34566">
        <ele>84.7</ele>
        <time>2015-03-16T19:22:47.898Z</time>
      </trkpt>
      <trkpt lat="48.85545" lon="2.34559">
        <ele>85</ele>
        <time>2015-03-16T19:22:49.930Z</time>
      </trkpt>
      <trkpt lat="48.85541" lon="2.34556">
        <ele>85.2</ele>
        <time>2015-03-16T19:22:50.942Z</time>
      </trkpt>
      <trkpt lat="48.85534" lon="2.34554">
        <ele>85.6</ele>
        <time>2015-03-16T19:22:51.869Z</time>
      </trkpt>
      <trkpt lat="48.85531" lon="2.34553">
        <ele>85.6</ele>
        <time>2015-03-16T19:22:52.844Z</time>
      </trkpt>
      <trkpt lat="48.85523" lon="2.3455">
        <ele>85.8</ele>
        <time>2015-03-16T19:22:54.909Z</time>
      </trkpt>
      <trkpt lat="48.8552" lon="2.34548">
        <ele>85.8</ele>
        <time>2015-03-16T19:22:55.897Z</time>
      </trkpt>
      <trkpt lat="48.85514" lon="2.34542">
        <ele>86</ele>
        <time>2015-03-16T19:22:57.865Z</time>
      </trkpt>
      <trkpt lat="48.85511" lon="2.34539">
        <ele>86.2</ele>
        <time>2015-03-16T19:22:58.846Z</time>
      </trkpt>
      <trkpt lat="48.85505" lon="2.34532">
        <ele>86.2</ele>
        <time>2015-03-16T19:23:00.934Z</time>
      </trkpt>
      <trkpt lat="48.85502" lon="2.34529">
        <ele>86.2</ele>
        <time>2015-03-16T19:23:01.978Z</time>
      </trkpt>
      <trkpt lat="48.85496" lon="2.34524">
        <ele>86.1</ele>
        <time>2015-03-16T19:23:03.859Z</time>
      </trkpt>
      <trkpt lat="48.85492" lon="2.34521">
        <ele>86</ele>
        <time>2015-03-16T19:23:04.899Z</time>
      </trkpt>
      <trkpt lat="48.85488" lon="2.34518">
        <ele>85.8</ele>
        <time>2015-03-16T19:23:05.927Z</time>
      </trkpt>
      <trkpt lat="48.85484" lon="2.34514">
        <ele>85.5</ele>
        <time>2015-03-16T19:23:06.964Z</time>
      </trkpt>
      <trkpt lat="48.8548" lon="2.34509">
        <ele>85.1</ele>
        <time>2015-03-16T19:23:07.852Z</time>
      </trkpt>
      <trkpt lat="48.85476" lon="2.34504">
        <ele>84.2</ele>
        <time>2015-03-16T19:23:08.874Z</time>
      </trkpt>
      <trkpt lat="48.85472" lon="2.34498">
        <ele>83.7</ele>
        <time>2015-03-16T19:23:09.895Z</time>
      </trkpt>
      <trkpt lat="48.85467" lon="2.34493">
        <ele>83.3</ele>
        <time>2015-03-16T19:23:10.914Z</time>
      </trkpt>
      <trkpt lat="48.85462" lon="2.34488">
        <ele>82.7</ele>
        <time>2015-03-16T19:23:11.923Z</time>
      </trkpt>
      <trkpt lat="48.85455" lon="2.34484">
        <ele>81.5</ele>
        <time>2015-03-16T19:23:12.928Z</time>
      </trkpt>
      <trkpt lat="48.85448" lon="2.34479">
        <ele>80.6</ele>
        <time>2015-03-16T19:23:13.943Z</time>
      </trkpt>
      <trkpt lat="48.85441" lon="2.34474">
        <ele>80.3</ele>
        <time>2015-03-16T19:23:14.952Z</time>
      </trkpt>
      <trkpt lat="48.85435" lon="2.3447">
        <ele>80.1</ele>
        <time>2015-03-16T19:23:15.863Z</time>
      </trkpt>
      <trkpt lat="48.85428" lon="2.34466">
        <ele>79.7</ele>
        <time>2015-03-16T19:23:16.862Z</time>
      </trkpt>
      <trkpt lat="48.85421" lon="2.3446">
        <ele>79.5</ele>
        <time>2015-03-16T19:23:18.909Z</time>
      </trkpt>
      <trkpt lat="48.85418" lon="2.34457">
        <ele>79.5</ele>
        <time>2015-03-16T19:23:19.918Z</time>
      </trkpt>
      <trkpt lat="48.85412" lon="2.34452">
        <ele>79.7</ele>
        <time>2015-03-16T19:23:21.941Z</time>
      </trkpt>
      <trkpt lat="48.8541" lon="2.34449">
        <ele>79.6</ele>
        <time>2015-03-16T19:23:22.877Z</time>
      </trkpt>
      <trkpt lat="48.85405" lon="2.34442">
        <ele>79.5</ele>
        <time>2015-03-16T19:23:25.963Z</time>
      </trkpt>
      <trkpt lat="48.85403" lon="2.34439">
        <ele>79.4</ele>
        <time>2015-03-16T19:23:26.872Z</time>
      </trkpt>
      <trkpt lat="48.85396" lon="2.34435">
        <ele>80</ele>
        <time>2015-03-16T19:23:33.901Z</time>
      </trkpt>
      <trkpt lat="48.85396" lon="2.34435">
        <ele>80.2</ele>
        <time>2015-03-16T19:23:34.892Z</time>
      </trkpt>
      <trkpt lat="48.85396" lon="2.34435">
        <ele>80.3</ele>
        <time>2015-03-16T19:23:42.916Z</time>
      </trkpt>
      <trkpt lat="48.85396" lon="2.34434">
        <ele>80.7</ele>
        <time>2015-03-16T19:23:43.946Z</time>
      </trkpt>
      <trkpt lat="48.85395" lon="2.34434">
        <ele>80.8</ele>
        <time>2015-03-16T19:23:44.918Z</time>
      </trkpt>
      <trkpt lat="48.85396" lon="2.34434">
        <ele>80.8</ele>
        <time>2015-03-16T19:23:45.932Z</time>
      </trkpt>
      <trkpt lat="48.85396" lon="2.34434">
        <ele>80.7</ele>
        <time>2015-03-16T19:23:56.910Z</time>
      </trkpt>
      <trkpt lat="48.85394" lon="2.34437">
        <ele>81.5</ele>
        <time>2015-03-16T19:23:57.920Z</time>
      </trkpt>
      <trkpt lat="48.85392" lon="2.34438">
        <ele>81.9</ele>
        <time>2015-03-16T19:24:01.897Z</time>
      </trkpt>
      <trkpt lat="48.85392" lon="2.34438">
        <ele>82.1</ele>
        <time>2015-03-16T19:24:02.919Z</time>
      </trkpt>
      <trkpt lat="48.85392" lon="2.34437">
        <ele>82.3</ele>
        <time>2015-03-16T19:24:06.895Z</time>
      </trkpt>
      <trkpt lat="48.85392" lon="2.34437">
        <ele>82.3</ele>
        <time>2015-03-16T19:24:07.895Z</time>
      </trkpt>
      <trkpt lat="48.85384" lon="2.34435">
        <ele>83.8</ele>
        <time>2015-03-16T19:24:26.949Z</time>
      </trkpt>
      <trkpt lat="48.85383" lon="2.34431">
        <ele>83.5</ele>
        <time>2015-03-16T19:24:27.907Z</time>
      </trkpt>
      <trkpt lat="48.85384" lon="2.34418">
        <ele>83</ele>
        <time>2015-03-16T19:24:30.957Z</time>
      </trkpt>
      <trkpt lat="48.85387" lon="2.34412">
        <ele>83</ele>
        <time>2015-03-16T19:24:31.874Z</time>
      </trkpt>
      <trkpt lat="48.85391" lon="2.34403">
        <ele>83.2</ele>
        <time>2015-03-16T19:24:33.927Z</time>
      </trkpt>
      <trkpt lat="48.85394" lon="2.34397">
        <ele>83.3</ele>
        <time>2015-03-16T19:24:34.846Z</time>
      </trkpt>
      <trkpt lat="48.85397" lon="2.34391">
        <ele>83.4</ele>
        <time>2015-03-16T19:24:35.873Z</time>
      </trkpt>
      <trkpt lat="48.85401" lon="2.34385">
        <ele>83.5</ele>
        <time>2015-03-16T19:24:36.934Z</time>
      </trkpt>
      <trkpt lat="48.85404" lon="2.3438">
        <ele>83.7</ele>
        <time>2015-03-16T19:24:37.966Z</time>
      </trkpt>
      <trkpt lat="48.85407" lon="2.34374">
        <ele>83.8</ele>
        <time>2015-03-16T19:24:38.864Z</time>
      </trkpt>
      <trkpt lat="48.85412" lon="2.34369">
        <ele>84</ele>
        <time>2015-03-16T19:24:39.889Z</time>
      </trkpt>
      <trkpt lat="48.85416" lon="2.34363">
        <ele>84.1</ele>
        <time>2015-03-16T19:24:40.897Z</time>
      </trkpt>
      <trkpt lat="48.8542" lon="2.34356">
        <ele>84.3</ele>
        <time>2015-03-16T19:24:41.923Z</time>
      </trkpt>
      <trkpt lat="48.85424" lon="2.34347">
        <ele>84.6</ele>
        <time>2015-03-16T19:24:42.956Z</time>
      </trkpt>
      <trkpt lat="48.85428" lon="2.3434">
        <ele>84.8</ele>
        <time>2015-03-16T19:24:43.952Z</time>
      </trkpt>
      <trkpt lat="48.85432" lon="2.34333">
        <ele>85.1</ele>
        <time>2015-03-16T19:24:44.866Z</time>
      </trkpt>
      <trkpt lat="48.85436" lon="2.34326">
        <ele>85.4</ele>
        <time>2015-03-16T19:24:45.874Z</time>
      </trkpt>
      <trkpt lat="48.85439" lon="2.34318">
        <ele>85.6</ele>
        <time>2015-03-16T19:24:46.884Z</time>
      </trkpt>
      <trkpt lat="48.85443" lon="2.34311">
        <ele>85.8</ele>
        <time>2015-03-16T19:24:47.891Z</time>
      </trkpt>
      <trkpt lat="48.85446" lon="2.34305">
        <ele>86</ele>
        <time>2015-03-16T19:24:48.906Z</time>
      </trkpt>
      <trkpt lat="48.8545" lon="2.343">
        <ele>86.2</ele>
        <time>2015-03-16T19:24:49.927Z</time>
      </trkpt>
      <trkpt lat="48.85455" lon="2.34296">
        <ele>86.3</ele>
        <time>2015-03-16T19:24:50.948Z</time>
      </trkpt>
      <trkpt lat="48.85459" lon="2.34291">
        <ele>86.5</ele>
        <time>2015-03-16T19:24:51.878Z</time>
      </trkpt>
      <trkpt lat="48.85463" lon="2.34286">
        <ele>86.6</ele>
        <time>2015-03-16T19:24:52.860Z</time>
      </trkpt>
      <trkpt lat="48.85466" lon="2.3428">
        <ele>86.7</ele>
        <time>2015-03-16T19:24:53.888Z</time>
      </trkpt>
      <trkpt lat="48.85469" lon="2.34274">
        <ele>86.8</ele>
        <time>2015-03-16T19:24:54.905Z</time>
      </trkpt>
      <trkpt lat="48.85473" lon="2.34267">
        <ele>86.8</ele>
        <time>2015-03-16T19:24:55.925Z</time>
      </trkpt>
      <trkpt lat="48.85477" lon="2.34261">
        <ele>86.9</ele>
        <time>2015-03-16T19:24:56.946Z</time>
      </trkpt>
      <trkpt lat="48.85481" lon="2.34255">
        <ele>86.9</ele>
        <time>2015-03-16T19:24:57.865Z</time>
      </trkpt>
      <trkpt lat="48.85485" lon="2.34249">
        <ele>87</ele>
        <time>2015-03-16T19:24:58.872Z</time>
      </trkpt>
      <trkpt lat="48.85489" lon="2.34243">
        <ele>87</ele>
        <time>2015-03-16T19:24:59.879Z</time>
      </trkpt>
      <trkpt lat="48.85492" lon="2.34236">
        <ele>87.2</ele>
        <time>2015-03-16T19:25:00.933Z</time>
      </trkpt>
      <trkpt lat="48.85494" lon="2.34227">
        <ele>88</ele>
        <time>2015-03-16T19:25:01.933Z</time>
      </trkpt>
      <trkpt lat="48.85495" lon="2.34218">
        <ele>88.6</ele>
        <time>2015-03-16T19:25:02.855Z</time>
      </trkpt>
      <trkpt lat="48.85499" lon="2.34211">
        <ele>88.8</ele>
        <time>2015-03-16T19:25:03.887Z</time>
      </trkpt>
      <trkpt lat="48.85503" lon="2.34205">
        <ele>88.8</ele>
        <time>2015-03-16T19:25:04.871Z</time>
      </trkpt>
      <trkpt lat="48.85507" lon="2.34199">
        <ele>88.7</ele>
        <time>2015-03-16T19:25:05.887Z</time>
      </trkpt>
      <trkpt lat="48.85511" lon="2.34193">
        <ele>88.5</ele>
        <time>2015-03-16T19:25:06.921Z</time>
      </trkpt>
      <trkpt lat="48.85515" lon="2.34188">
        <ele>88.4</ele>
        <time>2015-03-16T19:25:07.879Z</time>
      </trkpt>
      <trkpt lat="48.85519" lon="2.34183">
        <ele>88.2</ele>
        <time>2015-03-16T19:25:08.867Z</time>
      </trkpt>
      <trkpt lat="48.85523" lon="2.34178">
        <ele>88.2</ele>
        <time>2015-03-16T19:25:09.889Z</time>
      </trkpt>
      <trkpt lat="48.85527" lon="2.34174">
        <ele>88.2</ele>
        <time>2015-03-16T19:25:10.916Z</time>
      </trkpt>
      <trkpt lat="48.85532" lon="2.34166">
        <ele>88.2</ele>
        <time>2015-03-16T19:25:12.955Z</time>
      </trkpt>
      <trkpt lat="48.85534" lon="2.34163">
        <ele>88.3</ele>
        <time>2015-03-16T19:25:13.908Z</time>
      </trkpt>
      <trkpt lat="48.85533" lon="2.34155">
        <ele>88.3</ele>
        <time>2015-03-16T19:25:15.869Z</time>
      </trkpt>
      <trkpt lat="48.85531" lon="2.34149">
        <ele>88.2</ele>
        <time>2015-03-16T19:25:16.892Z</time>
      </trkpt>
      <trkpt lat="48.85528" lon="2.34143">
        <ele>88</ele>
        <time>2015-03-16T19:25:17.936Z</time>
      </trkpt>
      <trkpt lat="48.85524" lon="2.34139">
        <ele>87.7</ele>
        <time>2015-03-16T19:25:18.962Z</time>
      </trkpt>
      <trkpt lat="48.8552" lon="2.34136">
        <ele>87.6</ele>
        <time>2015-03-16T19:25:19.863Z</time>
      </trkpt>
      <trkpt lat="48.85508" lon="2.34123">
        <ele>87</ele>
        <time>2015-03-16T19:25:22.900Z</time>
      </trkpt>
      <trkpt lat="48.85502" lon="2.34116">
        <ele>86.5</ele>
        <time>2015-03-16T19:25:24.940Z</time>
      </trkpt>
      <trkpt lat="48.85499" lon="2.34113">
        <ele>86.2</ele>
        <time>2015-03-16T19:25:25.950Z</time>
      </trkpt>
      <trkpt lat="48.85494" lon="2.34111">
        <ele>85.7</ele>
        <time>2015-03-16T19:25:26.862Z</time>
      </trkpt>
      <trkpt lat="48.8549" lon="2.34109">
        <ele>85.2</ele>
        <time>2015-03-16T19:25:27.892Z</time>
      </trkpt>
      <trkpt lat="48.85483" lon="2.34103">
        <ele>85.3</ele>
        <time>2015-03-16T19:25:30.921Z</time>
      </trkpt>
      <trkpt lat="48.8548" lon="2.34102">
        <ele>85.4</ele>
        <time>2015-03-16T19:25:31.927Z</time>
      </trkpt>
      <trkpt lat="48.85473" lon="2.34105">
        <ele>85.5</ele>
        <time>2015-03-16T19:25:35.897Z</time>
      </trkpt>
      <trkpt lat="48.85471" lon="2.34106">
        <ele>85.4</ele>
        <time>2015-03-16T19:25:36.903Z</time>
      </trkpt>
      <trkpt lat="48.85464" lon="2.34106">
        <ele>85.1</ele>
        <time>2015-03-16T19:25:38.861Z</time>
      </trkpt>
      <trkpt lat="48.8546" lon="2.34106">
        <ele>85</ele>
        <time>2015-03-16T19:25:39.905Z</time>
      </trkpt>
      <trkpt lat="48.85452" lon="2.34104">
        <ele>84.6</ele>
        <time>2015-03-16T19:25:41.939Z</time>
      </trkpt>
      <trkpt lat="48.85449" lon="2.34102">
        <ele>85</ele>
        <time>2015-03-16T19:25:42.964Z</time>
      </trkpt>
      <trkpt lat="48.85441" lon="2.34099">
        <ele>85.2</ele>
        <time>2015-03-16T19:25:44.877Z</time>
      </trkpt>
      <trkpt lat="48.85436" lon="2.34099">
        <ele>85.1</ele>
        <time>2015-03-16T19:25:45.909Z</time>
      </trkpt>
      <trkpt lat="48.85432" lon="2.34097">
        <ele>84.9</ele>
        <time>2015-03-16T19:25:46.935Z</time>
      </trkpt>
      <trkpt lat="48.85427" lon="2.34094">
        <ele>84.7</ele>
        <time>2015-03-16T19:25:47.856Z</time>
      </trkpt>
      <trkpt lat="48.85422" lon="2.34091">
        <ele>84.6</ele>
        <time>2015-03-16T19:25:48.893Z</time>
      </trkpt>
      <trkpt lat="48.85418" lon="2.34088">
        <ele>84.5</ele>
        <time>2015-03-16T19:25:49.903Z</time>
      </trkpt>
      <trkpt lat="48.85412" lon="2.34085">
        <ele>84.4</ele>
        <time>2015-03-16T19:25:50.914Z</time>
      </trkpt>
      <trkpt lat="48.85407" lon="2.3408">
        <ele>84.2</ele>
        <time>2015-03-16T19:25:51.916Z</time>
      </trkpt>
      <trkpt lat="48.85342" lon="2.34027">
        <ele>84.7</ele>
        <time>2015-03-16T19:26:07.874Z</time>
      </trkpt>
      <trkpt lat="48.8534" lon="2.34018">
        <ele>84.9</ele>
        <time>2015-03-16T19:26:10.876Z</time>
      </trkpt>
      <trkpt lat="48.85342" lon="2.34012">
        <ele>84.9</ele>
        <time>2015-03-16T19:26:11.892Z</time>
      </trkpt>
      <trkpt lat="48.85344" lon="2.34005">
        <ele>84.9</ele>
        <time>2015-03-16T19:26:12.927Z</time>
      </trkpt>
      <trkpt lat="48.85346" lon="2.33996">
        <ele>84.9</ele>
        <time>2015-03-16T19:26:13.851Z</time>
      </trkpt>
      <trkpt lat="48.85347" lon="2.33983">
        <ele>84.9</ele>
        <time>2015-03-16T19:26:15.905Z</time>
      </trkpt>
      <trkpt lat="48.85348" lon="2.33976">
        <ele>85</ele>
        <time>2015-03-16T19:26:16.851Z</time>
      </trkpt>
      <trkpt lat="48.85349" lon="2.33964">
        <ele>85.7</ele>
        <time>2015-03-16T19:26:17.855Z</time>
      </trkpt>
      <trkpt lat="48.85349" lon="2.33955">
        <ele>86.1</ele>
        <time>2015-03-16T19:26:18.910Z</time>
      </trkpt>
      <trkpt lat="48.85349" lon="2.33944">
        <ele>86.1</ele>
        <time>2015-03-16T19:26:20.944Z</time>
      </trkpt>
      <trkpt lat="48.85349" lon="2.33939">
        <ele>86.1</ele>
        <time>2015-03-16T19:26:21.878Z</time>
      </trkpt>
      <trkpt lat="48.85351" lon="2.33926">
        <ele>86</ele>
        <time>2015-03-16T19:26:23.883Z</time>
      </trkpt>
      <trkpt lat="48.8535" lon="2.33921">
        <ele>86</ele>
        <time>2015-03-16T19:26:24.895Z</time>
      </trkpt>
      <trkpt lat="48.85351" lon="2.33909">
        <ele>86.1</ele>
        <time>2015-03-16T19:26:27.884Z</time>
      </trkpt>
      <trkpt lat="48.85352" lon="2.33904">
        <ele>86.1</ele>
        <time>2015-03-16T19:26:28.898Z</time>
      </trkpt>
      <trkpt lat="48.85357" lon="2.33895">
        <ele>86.1</ele>
        <time>2015-03-16T19:26:31.845Z</time>
      </trkpt>
      <trkpt lat="48.85358" lon="2.33892">
        <ele>86.2</ele>
        <time>2015-03-16T19:26:32.872Z</time>
      </trkpt>
      <trkpt lat="48.85361" lon="2.33885">
        <ele>86.3</ele>
        <time>2015-03-16T19:26:34.869Z</time>
      </trkpt>
      <trkpt lat="48.85364" lon="2.3388">
        <ele>86.4</ele>
        <time>2015-03-16T19:26:35.855Z</time>
      </trkpt>
      <trkpt lat="48.85367" lon="2.33874">
        <ele>86.8</ele>
        <time>2015-03-16T19:26:36.858Z</time>
      </trkpt>
      <trkpt lat="48.8537" lon="2.33867">
        <ele>87.2</ele>
        <time>2015-03-16T19:26:37.869Z</time>
      </trkpt>
      <trkpt lat="48.85375" lon="2.33856">
        <ele>87.9</ele>
        <time>2015-03-16T19:26:39.977Z</time>
      </trkpt>
      <trkpt lat="48.85376" lon="2.33851">
        <ele>88.3</ele>
        <time>2015-03-16T19:26:40.854Z</time>
      </trkpt>
      <trkpt lat="48.85382" lon="2.33841">
        <ele>88.7</ele>
        <time>2015-03-16T19:26:45.934Z</time>
      </trkpt>
      <trkpt lat="48.85382" lon="2.33838">
        <ele>88.8</ele>
        <time>2015-03-16T19:26:46.930Z</time>
      </trkpt>
      <trkpt lat="48.85383" lon="2.33828">
        <ele>88.9</ele>
        <time>2015-03-16T19:26:49.901Z</time>
      </trkpt>
      <trkpt lat="48.85383" lon="2.33825">
        <ele>89.1</ele>
        <time>2015-03-16T19:26:50.919Z</time>
      </trkpt>
      <trkpt lat="48.85383" lon="2.33814">
        <ele>89.1</ele>
        <time>2015-03-16T19:26:53.839Z</time>
      </trkpt>
      <trkpt lat="48.85383" lon="2.3381">
        <ele>89.2</ele>
        <time>2015-03-16T19:26:54.880Z</time>
      </trkpt>
      <trkpt lat="48.85385" lon="2.338">
        <ele>89.2</ele>
        <time>2015-03-16T19:26:56.912Z</time>
      </trkpt>
      <trkpt lat="48.85387" lon="2.33795">
        <ele>89.2</ele>
        <time>2015-03-16T19:26:57.915Z</time>
      </trkpt>
      <trkpt lat="48.85389" lon="2.33784">
        <ele>89.2</ele>
        <time>2015-03-16T19:26:59.863Z</time>
      </trkpt>
      <trkpt lat="48.8539" lon="2.33778">
        <ele>89.3</ele>
        <time>2015-03-16T19:27:00.882Z</time>
      </trkpt>
      <trkpt lat="48.8539" lon="2.3377">
        <ele>89.3</ele>
        <time>2015-03-16T19:27:01.908Z</time>
      </trkpt>
      <trkpt lat="48.8539" lon="2.33762">
        <ele>89.3</ele>
        <time>2015-03-16T19:27:02.923Z</time>
      </trkpt>
      <trkpt lat="48.8539" lon="2.33755">
        <ele>89.2</ele>
        <time>2015-03-16T19:27:03.854Z</time>
      </trkpt>
      <trkpt lat="48.8539" lon="2.33748">
        <ele>89.2</ele>
        <time>2015-03-16T19:27:04.866Z</time>
      </trkpt>
      <trkpt lat="48.8539" lon="2.33741">
        <ele>89</ele>
        <time>2015-03-16T19:27:05.870Z</time>
      </trkpt>
      <trkpt lat="48.85389" lon="2.33734">
        <ele>88.6</ele>
        <time>2015-03-16T19:27:06.895Z</time>
      </trkpt>
      <trkpt lat="48.85385" lon="2.33722">
        <ele>88</ele>
        <time>2015-03-16T19:27:08.911Z</time>
      </trkpt>
      <trkpt lat="48.85382" lon="2.33714">
        <ele>86.8</ele>
        <time>2015-03-16T19:27:09.933Z</time>
      </trkpt>
      <trkpt lat="48.8538" lon="2.33707">
        <ele>85.9</ele>
        <time>2015-03-16T19:27:10.852Z</time>
      </trkpt>
      <trkpt lat="48.85377" lon="2.337">
        <ele>85</ele>
        <time>2015-03-16T19:27:11.879Z</time>
      </trkpt>
      <trkpt lat="48.85373" lon="2.3369">
        <ele>84.3</ele>
        <time>2015-03-16T19:27:13.912Z</time>
      </trkpt>
      <trkpt lat="48.8537" lon="2.33684">
        <ele>84.1</ele>
        <time>2015-03-16T19:27:14.928Z</time>
      </trkpt>
      <trkpt lat="48.85367" lon="2.33677">
        <ele>84.2</ele>
        <time>2015-03-16T19:27:15.865Z</time>
      </trkpt>
      <trkpt lat="48.85365" lon="2.33671">
        <ele>84.3</ele>
        <time>2015-03-16T19:27:16.898Z</time>
      </trkpt>
      <trkpt lat="48.8536" lon="2.3366">
        <ele>84.3</ele>
        <time>2015-03-16T19:27:18.949Z</time>
      </trkpt>
      <trkpt lat="48.85358" lon="2.33656">
        <ele>84.6</ele>
        <time>2015-03-16T19:27:19.899Z</time>
      </trkpt>
      <trkpt lat="48.85354" lon="2.33645">
        <ele>84.7</ele>
        <time>2015-03-16T19:27:22.920Z</time>
      </trkpt>
      <trkpt lat="48.85353" lon="2.33642">
        <ele>85.3</ele>
        <time>2015-03-16T19:27:23.863Z</time>
      </trkpt>
      <trkpt lat="48.8535" lon="2.33629">
        <ele>85.8</ele>
        <time>2015-03-16T19:27:27.942Z</time>
      </trkpt>
      <trkpt lat="48.85348" lon="2.33628">
        <ele>85.9</ele>
        <time>2015-03-16T19:27:28.887Z</time>
      </trkpt>
      <trkpt lat="48.85342" lon="2.33622">
        <ele>85.9</ele>
        <time>2015-03-16T19:27:30.899Z</time>
      </trkpt>
      <trkpt lat="48.85338" lon="2.33618">
        <ele>85.3</ele>
        <time>2015-03-16T19:27:31.889Z</time>
      </trkpt>
      <trkpt lat="48.85333" lon="2.33611">
        <ele>84.6</ele>
        <time>2015-03-16T19:27:33.866Z</time>
      </trkpt>
      <trkpt lat="48.8533" lon="2.33608">
        <ele>84.6</ele>
        <time>2015-03-16T19:27:34.900Z</time>
      </trkpt>
      <trkpt lat="48.85325" lon="2.33598">
        <ele>85.1</ele>
        <time>2015-03-16T19:27:37.859Z</time>
      </trkpt>
      <trkpt lat="48.85323" lon="2.33595">
        <ele>85.7</ele>
        <time>2015-03-16T19:27:38.882Z</time>
      </trkpt>
      <trkpt lat="48.85322" lon="2.33592">
        <ele>87.8</ele>
        <time>2015-03-16T19:27:40.917Z</time>
      </trkpt>
      <trkpt lat="48.85321" lon="2.33591">
        <ele>88</ele>
        <time>2015-03-16T19:27:41.892Z</time>
      </trkpt>
      <trkpt lat="48.85322" lon="2.33589">
        <ele>88.4</ele>
        <time>2015-03-16T19:27:44.904Z</time>
      </trkpt>
      <trkpt lat="48.85321" lon="2.33587">
        <ele>89.3</ele>
        <time>2015-03-16T19:27:45.960Z</time>
      </trkpt>
      <trkpt lat="48.85317" lon="2.33586">
        <ele>92.4</ele>
        <time>2015-03-16T19:27:53.905Z</time>
      </trkpt>
      <trkpt lat="48.85312" lon="2.33588">
        <ele>93.3</ele>
        <time>2015-03-16T19:27:54.914Z</time>
      </trkpt>
      <trkpt lat="48.85304" lon="2.33585">
        <ele>92.6</ele>
        <time>2015-03-16T19:27:59.881Z</time>
      </trkpt>
      <trkpt lat="48.85303" lon="2.33584">
        <ele>92.4</ele>
        <time>2015-03-16T19:28:00.928Z</time>
      </trkpt>
      <trkpt lat="48.85295" lon="2.33582">
        <ele>91.4</ele>
        <time>2015-03-16T19:28:05.870Z</time>
      </trkpt>
      <trkpt lat="48.85293" lon="2.33583">
        <ele>91.4</ele>
        <time>2015-03-16T19:28:06.888Z</time>
      </trkpt>
      <trkpt lat="48.85285" lon="2.33586">
        <ele>91.6</ele>
        <time>2015-03-16T19:28:09.889Z</time>
      </trkpt>
      <trkpt lat="48.85283" lon="2.33588">
        <ele>91.6</ele>
        <time>2015-03-16T19:28:10.899Z</time>
      </trkpt>
      <trkpt lat="48.85274" lon="2.33591">
        <ele>91.6</ele>
        <time>2015-03-16T19:28:14.858Z</time>
      </trkpt>
      <trkpt lat="48.85271" lon="2.33592">
        <ele>91.5</ele>
        <time>2015-03-16T19:28:15.901Z</time>
      </trkpt>
      <trkpt lat="48.85264" lon="2.33596">
        <ele>91.2</ele>
        <time>2015-03-16T19:28:20.879Z</time>
      </trkpt>
      <trkpt lat="48.85262" lon="2.33598">
        <ele>91.2</ele>
        <time>2015-03-16T19:28:21.924Z</time>
      </trkpt>
      <trkpt lat="48.85259" lon="2.33608">
        <ele>90.3</ele>
        <time>2015-03-16T19:28:24.878Z</time>
      </trkpt>
      <trkpt lat="48.85257" lon="2.33613">
        <ele>90.1</ele>
        <time>2015-03-16T19:28:25.877Z</time>
      </trkpt>
      <trkpt lat="48.85255" lon="2.33624">
        <ele>89.6</ele>
        <time>2015-03-16T19:28:27.912Z</time>
      </trkpt>
      <trkpt lat="48.85254" lon="2.33629">
        <ele>89.4</ele>
        <time>2015-03-16T19:28:28.933Z</time>
      </trkpt>
      <trkpt lat="48.85253" lon="2.33641">
        <ele>89.2</ele>
        <time>2015-03-16T19:28:30.920Z</time>
      </trkpt>
      <trkpt lat="48.85252" lon="2.33646">
        <ele>89</ele>
        <time>2015-03-16T19:28:31.827Z</time>
      </trkpt>
      <trkpt lat="48.85251" lon="2.33658">
        <ele>88.5</ele>
        <time>2015-03-16T19:28:34.887Z</time>
      </trkpt>
      <trkpt lat="48.8525" lon="2.33661">
        <ele>88.5</ele>
        <time>2015-03-16T19:28:35.911Z</time>
      </trkpt>
      <trkpt lat="48.85222" lon="2.33672">
        <ele>88.8</ele>
        <time>2015-03-16T19:28:46.910Z</time>
      </trkpt>
      <trkpt lat="48.85212" lon="2.33672">
        <ele>88.9</ele>
        <time>2015-03-16T19:28:49.884Z</time>
      </trkpt>
      <trkpt lat="48.85192" lon="2.33672">
        <ele>89.1</ele>
        <time>2015-03-16T19:28:55.913Z</time>
      </trkpt>
      <trkpt lat="48.85184" lon="2.3367">
        <ele>89.2</ele>
        <time>2015-03-16T19:28:58.944Z</time>
      </trkpt>
      <trkpt lat="48.85182" lon="2.33668">
        <ele>89.2</ele>
        <time>2015-03-16T19:28:59.858Z</time>
      </trkpt>
      <trkpt lat="48.85181" lon="2.33659">
        <ele>89.2</ele>
        <time>2015-03-16T19:29:01.862Z</time>
      </trkpt>
      <trkpt lat="48.85181" lon="2.33654">
        <ele>89.1</ele>
        <time>2015-03-16T19:29:02.879Z</time>
      </trkpt>
      <trkpt lat="48.85183" lon="2.33641">
        <ele>89</ele>
        <time>2015-03-16T19:29:05.845Z</time>
      </trkpt>
      <trkpt lat="48.85183" lon="2.33636">
        <ele>88.9</ele>
        <time>2015-03-16T19:29:06.946Z</time>
      </trkpt>
      <trkpt lat="48.85182" lon="2.33627">
        <ele>89</ele>
        <time>2015-03-16T19:29:08.855Z</time>
      </trkpt>
      <trkpt lat="48.85181" lon="2.33623">
        <ele>89</ele>
        <time>2015-03-16T19:29:09.862Z</time>
      </trkpt>
      <trkpt lat="48.85181" lon="2.33614">
        <ele>89</ele>
        <time>2015-03-16T19:29:11.894Z</time>
      </trkpt>
      <trkpt lat="48.85182" lon="2.33609">
        <ele>89</ele>
        <time>2015-03-16T19:29:12.922Z</time>
      </trkpt>
      <trkpt lat="48.85182" lon="2.33596">
        <ele>89.1</ele>
        <time>2015-03-16T19:29:14.851Z</time>
      </trkpt>
      <trkpt lat="48.85181" lon="2.3359">
        <ele>89.1</ele>
        <time>2015-03-16T19:29:15.902Z</time>
      </trkpt>
      <trkpt lat="48.85179" lon="2.33581">
        <ele>89.2</ele>
        <time>2015-03-16T19:29:17.861Z</time>
      </trkpt>
      <trkpt lat="48.85178" lon="2.33577">
        <ele>89.3</ele>
        <time>2015-03-16T19:29:18.879Z</time>
      </trkpt>
      <trkpt lat="48.85177" lon="2.33569">
        <ele>89.6</ele>
        <time>2015-03-16T19:29:20.910Z</time>
      </trkpt>
      <trkpt lat="48.85175" lon="2.33564">
        <ele>89.7</ele>
        <time>2015-03-16T19:29:21.931Z</time>
      </trkpt>
      <trkpt lat="48.85169" lon="2.33554">
        <ele>90.5</ele>
        <time>2015-03-16T19:29:24.962Z</time>
      </trkpt>
      <trkpt lat="48.85168" lon="2.33551">
        <ele>90.7</ele>
        <time>2015-03-16T19:29:25.832Z</time>
      </trkpt>
      <trkpt lat="48.85176" lon="2.33547">
        <ele>91.1</ele>
        <time>2015-03-16T19:29:28.914Z</time>
      </trkpt>
      <trkpt lat="48.8518" lon="2.33545">
        <ele>91</ele>
        <time>2015-03-16T19:29:29.923Z</time>
      </trkpt>
      <trkpt lat="48.85184" lon="2.33534">
        <ele>90.7</ele>
        <time>2015-03-16T19:29:35.565Z</time>
      </trkpt>
      <trkpt lat="48.85184" lon="2.33526">
        <ele>90.6</ele>
        <time>2015-03-16T19:29:35.855Z</time>
      </trkpt>
      <trkpt lat="48.85184" lon="2.33514">
        <ele>90.3</ele>
        <time>2015-03-16T19:29:37.908Z</time>
      </trkpt>
      <trkpt lat="48.85184" lon="2.33508">
        <ele>90.2</ele>
        <time>2015-03-16T19:29:38.925Z</time>
      </trkpt>
      <trkpt lat="48.85186" lon="2.33499">
        <ele>90.1</ele>
        <time>2015-03-16T19:29:39.926Z</time>
      </trkpt>
      <trkpt lat="48.85187" lon="2.33489">
        <ele>90.2</ele>
        <time>2015-03-16T19:29:40.849Z</time>
      </trkpt>
      <trkpt lat="48.85187" lon="2.33481">
        <ele>90.1</ele>
        <time>2015-03-16T19:29:41.857Z</time>
      </trkpt>
      <trkpt lat="48.85188" lon="2.33475">
        <ele>90.1</ele>
        <time>2015-03-16T19:29:42.869Z</time>
      </trkpt>
      <trkpt lat="48.8519" lon="2.33463">
        <ele>89.9</ele>
        <time>2015-03-16T19:29:44.895Z</time>
      </trkpt>
      <trkpt lat="48.85192" lon="2.33458">
        <ele>89.9</ele>
        <time>2015-03-16T19:29:45.901Z</time>
      </trkpt>
      <trkpt lat="48.85197" lon="2.3345">
        <ele>89.7</ele>
        <time>2015-03-16T19:29:47.923Z</time>
      </trkpt>
      <trkpt lat="48.85199" lon="2.33445">
        <ele>89.6</ele>
        <time>2015-03-16T19:29:48.923Z</time>
      </trkpt>
      <trkpt lat="48.85201" lon="2.33432">
        <ele>89.6</ele>
        <time>2015-03-16T19:29:51.844Z</time>
      </trkpt>
      <trkpt lat="48.85202" lon="2.33428">
        <ele>89.6</ele>
        <time>2015-03-16T19:29:52.877Z</time>
      </trkpt>
      <trkpt lat="48.85202" lon="2.33414">
        <ele>90.1</ele>
        <time>2015-03-16T19:29:56.743Z</time>
      </trkpt>
      <trkpt lat="48.852" lon="2.33411">
        <ele>90.2</ele>
        <time>2015-03-16T19:29:56.835Z</time>
      </trkpt>
      <trkpt lat="48.85194" lon="2.33402">
        <ele>90.5</ele>
        <time>2015-03-16T19:29:58.859Z</time>
      </trkpt>
      <trkpt lat="48.85187" lon="2.33372">
        <ele>90.1</ele>
        <time>2015-03-16T19:30:05.856Z</time>
      </trkpt>
      <trkpt lat="48.85186" lon="2.3336">
        <ele>89.7</ele>
        <time>2015-03-16T19:30:10.885Z</time>
      </trkpt>
      <trkpt lat="48.85181" lon="2.33358">
        <ele>89</ele>
        <time>2015-03-16T19:30:11.959Z</time>
      </trkpt>
      <trkpt lat="48.85176" lon="2.33358">
        <ele>88.1</ele>
        <time>2015-03-16T19:30:13.873Z</time>
      </trkpt>
      <trkpt lat="48.85173" lon="2.33359">
        <ele>88.1</ele>
        <time>2015-03-16T19:30:14.878Z</time>
      </trkpt>
      <trkpt lat="48.85169" lon="2.3336">
        <ele>88.3</ele>
        <time>2015-03-16T19:30:15.892Z</time>
      </trkpt>
      <trkpt lat="48.85167" lon="2.33361">
        <ele>88.6</ele>
        <time>2015-03-16T19:30:18.891Z</time>
      </trkpt>
      <trkpt lat="48.85159" lon="2.33363">
        <ele>88</ele>
        <time>2015-03-16T19:30:19.892Z</time>
      </trkpt>
      <trkpt lat="48.85159" lon="2.33363">
        <ele>88</ele>
        <time>2015-03-16T19:30:20.589Z</time>
      </trkpt>
      <trkpt lat="48.85157" lon="2.33363">
        <ele>87.5</ele>
        <time>2015-03-16T19:30:20.918Z</time>
      </trkpt>
      <trkpt lat="48.85156" lon="2.33364">
        <ele>87.2</ele>
        <time>2015-03-16T19:30:22.850Z</time>
      </trkpt>
      <trkpt lat="48.85154" lon="2.33364">
        <ele>86.8</ele>
        <time>2015-03-16T19:30:24.044Z</time>
      </trkpt>
      <trkpt lat="48.85153" lon="2.33364">
        <ele>86.4</ele>
        <time>2015-03-16T19:30:24.889Z</time>
      </trkpt>
      <trkpt lat="48.8515" lon="2.33365">
        <ele>86.1</ele>
        <time>2015-03-16T19:30:25.888Z</time>
      </trkpt>
      <trkpt lat="48.85146" lon="2.33367">
        <ele>85.5</ele>
        <time>2015-03-16T19:30:41.938Z</time>
      </trkpt>
      <trkpt lat="48.85138" lon="2.33372">
        <ele>85.2</ele>
        <time>2015-03-16T19:30:42.993Z</time>
      </trkpt>
      <trkpt lat="48.85132" lon="2.33365">
        <ele>84.4</ele>
        <time>2015-03-16T19:30:48.065Z</time>
      </trkpt>
      <trkpt lat="48.8513" lon="2.33363">
        <ele>84.4</ele>
        <time>2015-03-16T19:30:48.912Z</time>
      </trkpt>
      <trkpt lat="48.85126" lon="2.33356">
        <ele>84.7</ele>
        <time>2015-03-16T19:30:52.848Z</time>
      </trkpt>
      <trkpt lat="48.85124" lon="2.33353">
        <ele>84.8</ele>
        <time>2015-03-16T19:30:53.871Z</time>
      </trkpt>
      <trkpt lat="48.85119" lon="2.33344">
        <ele>84.1</ele>
        <time>2015-03-16T19:30:56.177Z</time>
      </trkpt>
      <trkpt lat="48.85111" lon="2.33331">
        <ele>83.1</ele>
        <time>2015-03-16T19:30:58.845Z</time>
      </trkpt>
      <trkpt lat="48.85108" lon="2.33318">
        <ele>82.7</ele>
        <time>2015-03-16T19:31:01.891Z</time>
      </trkpt>
      <trkpt lat="48.85107" lon="2.33313">
        <ele>82.8</ele>
        <time>2015-03-16T19:31:02.899Z</time>
      </trkpt>
      <trkpt lat="48.85103" lon="2.33305">
        <ele>82.6</ele>
        <time>2015-03-16T19:31:04.925Z</time>
      </trkpt>
      <trkpt lat="48.851" lon="2.33303">
        <ele>82.5</ele>
        <time>2015-03-16T19:31:05.852Z</time>
      </trkpt>
      <trkpt lat="48.85092" lon="2.33308">
        <ele>81.6</ele>
        <time>2015-03-16T19:31:09.817Z</time>
      </trkpt>
      <trkpt lat="48.8509" lon="2.33312">
        <ele>81.4</ele>
        <time>2015-03-16T19:31:10.925Z</time>
      </trkpt>
      <trkpt lat="48.85086" lon="2.33323">
        <ele>81.6</ele>
        <time>2015-03-16T19:31:12.885Z</time>
      </trkpt>
      <trkpt lat="48.85085" lon="2.33328">
        <ele>81.7</ele>
        <time>2015-03-16T19:31:13.900Z</time>
      </trkpt>
      <trkpt lat="48.85081" lon="2.33338">
        <ele>81.8</ele>
        <time>2015-03-16T19:31:16.374Z</time>
      </trkpt>
      <trkpt lat="48.85079" lon="2.33342">
        <ele>81.9</ele>
        <time>2015-03-16T19:31:16.836Z</time>
      </trkpt>
      <trkpt lat="48.85078" lon="2.33351">
        <ele>81.5</ele>
        <time>2015-03-16T19:31:18.887Z</time>
      </trkpt>
      <trkpt lat="48.85076" lon="2.33355">
        <ele>81.3</ele>
        <time>2015-03-16T19:31:19.912Z</time>
      </trkpt>
      <trkpt lat="48.85073" lon="2.33365">
        <ele>80.6</ele>
        <time>2015-03-16T19:31:21.827Z</time>
      </trkpt>
      <trkpt lat="48.85071" lon="2.33369">
        <ele>80.7</ele>
        <time>2015-03-16T19:31:22.853Z</time>
      </trkpt>
      <trkpt lat="48.85067" lon="2.33376">
        <ele>80.6</ele>
        <time>2015-03-16T19:31:24.897Z</time>
      </trkpt>
      <trkpt lat="48.85064" lon="2.3338">
        <ele>80.7</ele>
        <time>2015-03-16T19:31:25.911Z</time>
      </trkpt>
      <trkpt lat="48.85058" lon="2.33387">
        <ele>80.7</ele>
        <time>2015-03-16T19:31:27.854Z</time>
      </trkpt>
      <trkpt lat="48.85054" lon="2.33391">
        <ele>80.6</ele>
        <time>2015-03-16T19:31:28.864Z</time>
      </trkpt>
      <trkpt lat="48.85049" lon="2.33394">
        <ele>80.8</ele>
        <time>2015-03-16T19:31:29.864Z</time>
      </trkpt>
      <trkpt lat="48.85045" lon="2.33396">
        <ele>81</ele>
        <time>2015-03-16T19:31:30.898Z</time>
      </trkpt>
      <trkpt lat="48.85039" lon="2.33396">
        <ele>81.6</ele>
        <time>2015-03-16T19:31:32.906Z</time>
      </trkpt>
      <trkpt lat="48.85035" lon="2.33396">
        <ele>81.8</ele>
        <time>2015-03-16T19:31:33.925Z</time>
      </trkpt>
      <trkpt lat="48.85026" lon="2.33397">
        <ele>82.1</ele>
        <time>2015-03-16T19:31:36.887Z</time>
      </trkpt>
      <trkpt lat="48.85023" lon="2.33397">
        <ele>82.2</ele>
        <time>2015-03-16T19:31:37.872Z</time>
      </trkpt>
      <trkpt lat="48.85023" lon="2.33397">
        <ele>82.2</ele>
        <time>2015-03-16T19:31:38.247Z</time>
      </trkpt>
      <trkpt lat="48.85014" lon="2.33394">
        <ele>82.3</ele>
        <time>2015-03-16T19:31:40.863Z</time>
      </trkpt>
      <trkpt lat="48.85007" lon="2.33392">
        <ele>82.4</ele>
        <time>2015-03-16T19:31:43.954Z</time>
      </trkpt>
      <trkpt lat="48.85005" lon="2.33392">
        <ele>82.5</ele>
        <time>2015-03-16T19:31:44.860Z</time>
      </trkpt>
      <trkpt lat="48.84966" lon="2.33395">
        <ele>81.6</ele>
        <time>2015-03-16T19:31:57.960Z</time>
      </trkpt>
      <trkpt lat="48.8496" lon="2.33396">
        <ele>81.3</ele>
        <time>2015-03-16T19:31:58.870Z</time>
      </trkpt>
      <trkpt lat="48.84954" lon="2.33396">
        <ele>81</ele>
        <time>2015-03-16T19:31:59.882Z</time>
      </trkpt>
      <trkpt lat="48.8494" lon="2.33393">
        <ele>81.6</ele>
        <time>2015-03-16T19:32:02.936Z</time>
      </trkpt>
      <trkpt lat="48.84934" lon="2.33394">
        <ele>82.2</ele>
        <time>2015-03-16T19:32:03.851Z</time>
      </trkpt>
      <trkpt lat="48.84923" lon="2.33404">
        <ele>81.6</ele>
        <time>2015-03-16T19:32:04.855Z</time>
      </trkpt>
      <trkpt lat="48.84916" lon="2.33409">
        <ele>82.5</ele>
        <time>2015-03-16T19:32:06.864Z</time>
      </trkpt>
      <trkpt lat="48.84912" lon="2.33414">
        <ele>83.2</ele>
        <time>2015-03-16T19:32:07.873Z</time>
      </trkpt>
      <trkpt lat="48.84907" lon="2.33414">
        <ele>81.6</ele>
        <time>2015-03-16T19:32:12.888Z</time>
      </trkpt>
      <trkpt lat="48.84906" lon="2.33414">
        <ele>83.1</ele>
        <time>2015-03-16T19:32:13.895Z</time>
      </trkpt>
      <trkpt lat="48.84905" lon="2.33414">
        <ele>83.5</ele>
        <time>2015-03-16T19:32:14.854Z</time>
      </trkpt>
      <trkpt lat="48.84902" lon="2.33415">
        <ele>85.4</ele>
        <time>2015-03-16T19:32:16.878Z</time>
      </trkpt>
      <trkpt lat="48.84902" lon="2.33416">
        <ele>86.7</ele>
        <time>2015-03-16T19:32:17.889Z</time>
      </trkpt>
      <trkpt lat="48.849" lon="2.33416">
        <ele>86.8</ele>
        <time>2015-03-16T19:32:18.898Z</time>
      </trkpt>
      <trkpt lat="48.84901" lon="2.33416">
        <ele>89.2</ele>
        <time>2015-03-16T19:32:26.821Z</time>
      </trkpt>
      <trkpt lat="48.84901" lon="2.33416">
        <ele>89.3</ele>
        <time>2015-03-16T19:32:27.851Z</time>
      </trkpt>
      <trkpt lat="48.84901" lon="2.33416">
        <ele>89.5</ele>
        <time>2015-03-16T19:32:28.868Z</time>
      </trkpt>
      <trkpt lat="48.84902" lon="2.33418">
        <ele>89</ele>
        <time>2015-03-16T19:32:36.078Z</time>
      </trkpt>
      <trkpt lat="48.84902" lon="2.33418">
        <ele>88.8</ele>
        <time>2015-03-16T19:32:36.888Z</time>
      </trkpt>
      <trkpt lat="48.84902" lon="2.33417">
        <ele>88.2</ele>
        <time>2015-03-16T19:32:42.876Z</time>
      </trkpt>
      <trkpt lat="48.84897" lon="2.33418">
        <ele>88.7</ele>
        <time>2015-03-16T19:32:43.935Z</time>
      </trkpt>
      <trkpt lat="48.84892" lon="2.33409">
        <ele>88.2</ele>
        <time>2015-03-16T19:32:47.872Z</time>
      </trkpt>
      <trkpt lat="48.8489" lon="2.33404">
        <ele>88</ele>
        <time>2015-03-16T19:32:48.886Z</time>
      </trkpt>
      <trkpt lat="48.84891" lon="2.33391">
        <ele>88</ele>
        <time>2015-03-16T19:32:51.185Z</time>
      </trkpt>
      <trkpt lat="48.84891" lon="2.33385">
        <ele>87.9</ele>
        <time>2015-03-16T19:32:51.908Z</time>
      </trkpt>
      <trkpt lat="48.84889" lon="2.33373">
        <ele>87.8</ele>
        <time>2015-03-16T19:32:53.933Z</time>
      </trkpt>
      <trkpt lat="48.84888" lon="2.33366">
        <ele>87.3</ele>
        <time>2015-03-16T19:32:54.947Z</time>
      </trkpt>
      <trkpt lat="48.84886" lon="2.33353">
        <ele>86.8</ele>
        <time>2015-03-16T19:32:56.877Z</time>
      </trkpt>
      <trkpt lat="48.84886" lon="2.33346">
        <ele>86.9</ele>
        <time>2015-03-16T19:32:57.878Z</time>
      </trkpt>
      <trkpt lat="48.84885" lon="2.33339">
        <ele>86.7</ele>
        <time>2015-03-16T19:32:58.889Z</time>
      </trkpt>
      <trkpt lat="48.84883" lon="2.33332">
        <ele>86.4</ele>
        <time>2015-03-16T19:32:59.902Z</time>
      </trkpt>
      <trkpt lat="48.84882" lon="2.33324">
        <ele>86.2</ele>
        <time>2015-03-16T19:33:01.253Z</time>
      </trkpt>
      <trkpt lat="48.8488" lon="2.33318">
        <ele>86</ele>
        <time>2015-03-16T19:33:01.942Z</time>
      </trkpt>
      <trkpt lat="48.84879" lon="2.3331">
        <ele>86.2</ele>
        <time>2015-03-16T19:33:02.854Z</time>
      </trkpt>
      <trkpt lat="48.84879" lon="2.33304">
        <ele>86.3</ele>
        <time>2015-03-16T19:33:03.877Z</time>
      </trkpt>
      <trkpt lat="48.84878" lon="2.33293">
        <ele>86.5</ele>
        <time>2015-03-16T19:33:06.340Z</time>
      </trkpt>
      <trkpt lat="48.84877" lon="2.33289">
        <ele>86.7</ele>
        <time>2015-03-16T19:33:06.969Z</time>
      </trkpt>
      <trkpt lat="48.84871" lon="2.3328">
        <ele>87.7</ele>
        <time>2015-03-16T19:33:09.905Z</time>
      </trkpt>
      <trkpt lat="48.84869" lon="2.33276">
        <ele>88.3</ele>
        <time>2015-03-16T19:33:10.906Z</time>
      </trkpt>
      <trkpt lat="48.84864" lon="2.33266">
        <ele>89.4</ele>
        <time>2015-03-16T19:33:13.891Z</time>
      </trkpt>
      <trkpt lat="48.84862" lon="2.33262">
        <ele>89.9</ele>
        <time>2015-03-16T19:33:14.902Z</time>
      </trkpt>
      <trkpt lat="48.84857" lon="2.33255">
        <ele>90.6</ele>
        <time>2015-03-16T19:33:16.856Z</time>
      </trkpt>
      <trkpt lat="48.84852" lon="2.33254">
        <ele>90.4</ele>
        <time>2015-03-16T19:33:17.872Z</time>
      </trkpt>
      <trkpt lat="48.84844" lon="2.33252">
        <ele>90.3</ele>
        <time>2015-03-16T19:33:19.890Z</time>
      </trkpt>
      <trkpt lat="48.84839" lon="2.33251">
        <ele>90.6</ele>
        <time>2015-03-16T19:33:20.965Z</time>
      </trkpt>
      <trkpt lat="48.84833" lon="2.33252">
        <ele>91</ele>
        <time>2015-03-16T19:33:21.853Z</time>
      </trkpt>
      <trkpt lat="48.84828" lon="2.33252">
        <ele>91.3</ele>
        <time>2015-03-16T19:33:22.870Z</time>
      </trkpt>
      <trkpt lat="48.84823" lon="2.33252">
        <ele>91.6</ele>
        <time>2015-03-16T19:33:23.897Z</time>
      </trkpt>
      <trkpt lat="48.84818" lon="2.33253">
        <ele>91.7</ele>
        <time>2015-03-16T19:33:24.904Z</time>
      </trkpt>
      <trkpt lat="48.84813" lon="2.33254">
        <ele>91.7</ele>
        <time>2015-03-16T19:33:25.924Z</time>
      </trkpt>
      <trkpt lat="48.84808" lon="2.33253">
        <ele>91.8</ele>
        <time>2015-03-16T19:33:26.948Z</time>
      </trkpt>
      <trkpt lat="48.84803" lon="2.33252">
        <ele>91.9</ele>
        <time>2015-03-16T19:33:27.850Z</time>
      </trkpt>
      <trkpt lat="48.84798" lon="2.33252">
        <ele>91.7</ele>
        <time>2015-03-16T19:33:28.849Z</time>
      </trkpt>
      <trkpt lat="48.84793" lon="2.33252">
        <ele>91.8</ele>
        <time>2015-03-16T19:33:29.867Z</time>
      </trkpt>
      <trkpt lat="48.84789" lon="2.3325">
        <ele>92</ele>
        <time>2015-03-16T19:33:30.887Z</time>
      </trkpt>
      <trkpt lat="48.84784" lon="2.33247">
        <ele>92.3</ele>
        <time>2015-03-16T19:33:31.892Z</time>
      </trkpt>
      <trkpt lat="48.8478" lon="2.33245">
        <ele>92.5</ele>
        <time>2015-03-16T19:33:32.897Z</time>
      </trkpt>
      <trkpt lat="48.84771" lon="2.3324">
        <ele>92.7</ele>
        <time>2015-03-16T19:33:34.917Z</time>
      </trkpt>
      <trkpt lat="48.84768" lon="2.33237">
        <ele>92.9</ele>
        <time>2015-03-16T19:33:35.924Z</time>
      </trkpt>
      <trkpt lat="48.84761" lon="2.33233">
        <ele>93.3</ele>
        <time>2015-03-16T19:33:38.480Z</time>
      </trkpt>
      <trkpt lat="48.84756" lon="2.33232">
        <ele>93.5</ele>
        <time>2015-03-16T19:33:38.849Z</time>
      </trkpt>
      <trkpt lat="48.84749" lon="2.33229">
        <ele>94.2</ele>
        <time>2015-03-16T19:33:41.240Z</time>
      </trkpt>
      <trkpt lat="48.84746" lon="2.33227">
        <ele>94.7</ele>
        <time>2015-03-16T19:33:41.871Z</time>
      </trkpt>
      <trkpt lat="48.84738" lon="2.33226">
        <ele>96</ele>
        <time>2015-03-16T19:33:44.854Z</time>
      </trkpt>
      <trkpt lat="48.84737" lon="2.33226">
        <ele>96.3</ele>
        <time>2015-03-16T19:33:45.874Z</time>
      </trkpt>
      <trkpt lat="48.84732" lon="2.3323">
        <ele>96.5</ele>
        <time>2015-03-16T19:33:49.920Z</time>
      </trkpt>
      <trkpt lat="48.84731" lon="2.33231">
        <ele>96.7</ele>
        <time>2015-03-16T19:33:50.934Z</time>
      </trkpt>
      <trkpt lat="48.84729" lon="2.33233">
        <ele>96.6</ele>
        <time>2015-03-16T19:33:58.931Z</time>
      </trkpt>
      <trkpt lat="48.84724" lon="2.3324">
        <ele>97.2</ele>
        <time>2015-03-16T19:33:59.941Z</time>
      </trkpt>
      <trkpt lat="48.84718" lon="2.3324">
        <ele>97.8</ele>
        <time>2015-03-16T19:34:02.869Z</time>
      </trkpt>
      <trkpt lat="48.84714" lon="2.33241">
        <ele>98.1</ele>
        <time>2015-03-16T19:34:03.874Z</time>
      </trkpt>
      <trkpt lat="48.84705" lon="2.33242">
        <ele>98.3</ele>
        <time>2015-03-16T19:34:06.851Z</time>
      </trkpt>
      <trkpt lat="48.84701" lon="2.33242">
        <ele>98.4</ele>
        <time>2015-03-16T19:34:06.907Z</time>
      </trkpt>
      <trkpt lat="48.84696" lon="2.33242">
        <ele>98.5</ele>
        <time>2015-03-16T19:34:07.916Z</time>
      </trkpt>
      <trkpt lat="48.8469" lon="2.33242">
        <ele>98.6</ele>
        <time>2015-03-16T19:34:08.945Z</time>
      </trkpt>
      <trkpt lat="48.84684" lon="2.33241">
        <ele>98.6</ele>
        <time>2015-03-16T19:34:09.936Z</time>
      </trkpt>
      <trkpt lat="48.84678" lon="2.3324">
        <ele>98.6</ele>
        <time>2015-03-16T19:34:10.939Z</time>
      </trkpt>
      <trkpt lat="48.84672" lon="2.33239">
        <ele>98.7</ele>
        <time>2015-03-16T19:34:11.982Z</time>
      </trkpt>
      <trkpt lat="48.84662" lon="2.33239">
        <ele>98.9</ele>
        <time>2015-03-16T19:34:13.071Z</time>
      </trkpt>
      <trkpt lat="48.84656" lon="2.33238">
        <ele>99.1</ele>
        <time>2015-03-16T19:34:13.837Z</time>
      </trkpt>
      <trkpt lat="48.84651" lon="2.33237">
        <ele>99.3</ele>
        <time>2015-03-16T19:34:14.860Z</time>
      </trkpt>
      <trkpt lat="48.84646" lon="2.33237">
        <ele>99.3</ele>
        <time>2015-03-16T19:34:15.869Z</time>
      </trkpt>
      <trkpt lat="48.8464" lon="2.33236">
        <ele>99.3</ele>
        <time>2015-03-16T19:34:16.916Z</time>
      </trkpt>
      <trkpt lat="48.84634" lon="2.33234">
        <ele>99.3</ele>
        <time>2015-03-16T19:34:17.889Z</time>
      </trkpt>
      <trkpt lat="48.84629" lon="2.33232">
        <ele>99.4</ele>
        <time>2015-03-16T19:34:18.902Z</time>
      </trkpt>
      <trkpt lat="48.84623" lon="2.3323">
        <ele>99.6</ele>
        <time>2015-03-16T19:34:19.903Z</time>
      </trkpt>
      <trkpt lat="48.84617" lon="2.3323">
        <ele>99.8</ele>
        <time>2015-03-16T19:34:20.919Z</time>
      </trkpt>
      <trkpt lat="48.84612" lon="2.33229">
        <ele>100</ele>
        <time>2015-03-16T19:34:22.094Z</time>
      </trkpt>
      <trkpt lat="48.84607" lon="2.33229">
        <ele>100.3</ele>
        <time>2015-03-16T19:34:22.850Z</time>
      </trkpt>
      <trkpt lat="48.84603" lon="2.33228">
        <ele>100.4</ele>
        <time>2015-03-16T19:34:23.863Z</time>
      </trkpt>
      <trkpt lat="48.84598" lon="2.33227">
        <ele>100.4</ele>
        <time>2015-03-16T19:34:24.883Z</time>
      </trkpt>
      <trkpt lat="48.84593" lon="2.33225">
        <ele>100.6</ele>
        <time>2015-03-16T19:34:25.887Z</time>
      </trkpt>
      <trkpt lat="48.84587" lon="2.33223">
        <ele>100.7</ele>
        <time>2015-03-16T19:34:26.905Z</time>
      </trkpt>
      <trkpt lat="48.84582" lon="2.33222">
        <ele>101</ele>
        <time>2015-03-16T19:34:27.907Z</time>
      </trkpt>
      <trkpt lat="48.84577" lon="2.3322">
        <ele>101.3</ele>
        <time>2015-03-16T19:34:28.916Z</time>
      </trkpt>
      <trkpt lat="48.84572" lon="2.33219">
        <ele>101.6</ele>
        <time>2015-03-16T19:34:29.935Z</time>
      </trkpt>
      <trkpt lat="48.84566" lon="2.33217">
        <ele>102.1</ele>
        <time>2015-03-16T19:34:30.951Z</time>
      </trkpt>
      <trkpt lat="48.8456" lon="2.33215">
        <ele>102.5</ele>
        <time>2015-03-16T19:34:31.858Z</time>
      </trkpt>
      <trkpt lat="48.84554" lon="2.33215">
        <ele>102.7</ele>
        <time>2015-03-16T19:34:32.874Z</time>
      </trkpt>
      <trkpt lat="48.84548" lon="2.33215">
        <ele>103.2</ele>
        <time>2015-03-16T19:34:33.884Z</time>
      </trkpt>
      <trkpt lat="48.84542" lon="2.33215">
        <ele>103.7</ele>
        <time>2015-03-16T19:34:34.889Z</time>
      </trkpt>
      <trkpt lat="48.84537" lon="2.33215">
        <ele>104.2</ele>
        <time>2015-03-16T19:34:35.902Z</time>
      </trkpt>
      <trkpt lat="48.84533" lon="2.33217">
        <ele>104.1</ele>
        <time>2015-03-16T19:34:36.912Z</time>
      </trkpt>
      <trkpt lat="48.84525" lon="2.33221">
        <ele>103.6</ele>
        <time>2015-03-16T19:34:38.859Z</time>
      </trkpt>
      <trkpt lat="48.84522" lon="2.33223">
        <ele>103.5</ele>
        <time>2015-03-16T19:34:39.850Z</time>
      </trkpt>
      <trkpt lat="48.84515" lon="2.33227">
        <ele>103.4</ele>
        <time>2015-03-16T19:34:41.870Z</time>
      </trkpt>
      <trkpt lat="48.84512" lon="2.33228">
        <ele>102.7</ele>
        <time>2015-03-16T19:34:42.894Z</time>
      </trkpt>
      <trkpt lat="48.84505" lon="2.33226">
        <ele>101</ele>
        <time>2015-03-16T19:34:44.910Z</time>
      </trkpt>
      <trkpt lat="48.84503" lon="2.33224">
        <ele>100.6</ele>
        <time>2015-03-16T19:34:45.918Z</time>
      </trkpt>
      <trkpt lat="48.84499" lon="2.33214">
        <ele>99.2</ele>
        <time>2015-03-16T19:34:48.961Z</time>
      </trkpt>
      <trkpt lat="48.84497" lon="2.33211">
        <ele>98.7</ele>
        <time>2015-03-16T19:34:49.841Z</time>
      </trkpt>
      <trkpt lat="48.84493" lon="2.33203">
        <ele>98.2</ele>
        <time>2015-03-16T19:34:51.857Z</time>
      </trkpt>
      <trkpt lat="48.84491" lon="2.33199">
        <ele>97.8</ele>
        <time>2015-03-16T19:34:52.869Z</time>
      </trkpt>
      <trkpt lat="48.84485" lon="2.3319">
        <ele>97.2</ele>
        <time>2015-03-16T19:34:54.915Z</time>
      </trkpt>
      <trkpt lat="48.84483" lon="2.33185">
        <ele>97.1</ele>
        <time>2015-03-16T19:34:55.929Z</time>
      </trkpt>
      <trkpt lat="48.84478" lon="2.33176">
        <ele>96.8</ele>
        <time>2015-03-16T19:34:57.884Z</time>
      </trkpt>
      <trkpt lat="48.84475" lon="2.33171">
        <ele>96.6</ele>
        <time>2015-03-16T19:34:58.870Z</time>
      </trkpt>
      <trkpt lat="48.8447" lon="2.33161">
        <ele>96.3</ele>
        <time>2015-03-16T19:35:01.454Z</time>
      </trkpt>
      <trkpt lat="48.84467" lon="2.33157">
        <ele>96.3</ele>
        <time>2015-03-16T19:35:01.925Z</time>
      </trkpt>
      <trkpt lat="48.8446" lon="2.33149">
        <ele>96.2</ele>
        <time>2015-03-16T19:35:03.854Z</time>
      </trkpt>
      <trkpt lat="48.84457" lon="2.33145">
        <ele>95.9</ele>
        <time>2015-03-16T19:35:04.956Z</time>
      </trkpt>
      <trkpt lat="48.84452" lon="2.33138">
        <ele>96.1</ele>
        <time>2015-03-16T19:35:06.875Z</time>
      </trkpt>
      <trkpt lat="48.8445" lon="2.33134">
        <ele>95.9</ele>
        <time>2015-03-16T19:35:07.861Z</time>
      </trkpt>
      <trkpt lat="48.84444" lon="2.33127">
        <ele>95.8</ele>
        <time>2015-03-16T19:35:09.882Z</time>
      </trkpt>
      <trkpt lat="48.84441" lon="2.33121">
        <ele>95.6</ele>
        <time>2015-03-16T19:35:10.890Z</time>
      </trkpt>
      <trkpt lat="48.84436" lon="2.3311">
        <ele>95.4</ele>
        <time>2015-03-16T19:35:12.930Z</time>
      </trkpt>
      <trkpt lat="48.84434" lon="2.33104">
        <ele>95.3</ele>
        <time>2015-03-16T19:35:13.932Z</time>
      </trkpt>
      <trkpt lat="48.84431" lon="2.33093">
        <ele>95.1</ele>
        <time>2015-03-16T19:35:16.832Z</time>
      </trkpt>
      <trkpt lat="48.84429" lon="2.33087">
        <ele>95</ele>
        <time>2015-03-16T19:35:16.855Z</time>
      </trkpt>
      <trkpt lat="48.84428" lon="2.3308">
        <ele>94.9</ele>
        <time>2015-03-16T19:35:17.866Z</time>
      </trkpt>
      <trkpt lat="48.84426" lon="2.33073">
        <ele>94.7</ele>
        <time>2015-03-16T19:35:18.880Z</time>
      </trkpt>
      <trkpt lat="48.84424" lon="2.33067">
        <ele>94.7</ele>
        <time>2015-03-16T19:35:19.887Z</time>
      </trkpt>
      <trkpt lat="48.84417" lon="2.33065">
        <ele>94.8</ele>
        <time>2015-03-16T19:35:20.905Z</time>
      </trkpt>
      <trkpt lat="48.8441" lon="2.33064">
        <ele>94.9</ele>
        <time>2015-03-16T19:35:21.902Z</time>
      </trkpt>
      <trkpt lat="48.84406" lon="2.33062">
        <ele>95.2</ele>
        <time>2015-03-16T19:35:22.922Z</time>
      </trkpt>
      <trkpt lat="48.84399" lon="2.33054">
        <ele>95.4</ele>
        <time>2015-03-16T19:35:27.841Z</time>
      </trkpt>
      <trkpt lat="48.84399" lon="2.33054">
        <ele>95.2</ele>
        <time>2015-03-16T19:35:28.836Z</time>
      </trkpt>
      <trkpt lat="48.84405" lon="2.33051">
        <ele>95.1</ele>
        <time>2015-03-16T19:35:32.875Z</time>
      </trkpt>
      <trkpt lat="48.84409" lon="2.3305">
        <ele>95.2</ele>
        <time>2015-03-16T19:35:33.877Z</time>
      </trkpt>
      <trkpt lat="48.84415" lon="2.33044">
        <ele>95.1</ele>
        <time>2015-03-16T19:35:35.914Z</time>
      </trkpt>
      <trkpt lat="48.84419" lon="2.33042">
        <ele>95.1</ele>
        <time>2015-03-16T19:35:36.929Z</time>
      </trkpt>
      <trkpt lat="48.84426" lon="2.33037">
        <ele>95</ele>
        <time>2015-03-16T19:35:38.884Z</time>
      </trkpt>
      <trkpt lat="48.84429" lon="2.33033">
        <ele>95</ele>
        <time>2015-03-16T19:35:39.917Z</time>
      </trkpt>
      <trkpt lat="48.84436" lon="2.33027">
        <ele>95.2</ele>
        <time>2015-03-16T19:35:41.967Z</time>
      </trkpt>
      <trkpt lat="48.84439" lon="2.33023">
        <ele>95.4</ele>
        <time>2015-03-16T19:35:42.871Z</time>
      </trkpt>
      <trkpt lat="48.84446" lon="2.33014">
        <ele>95.6</ele>
        <time>2015-03-16T19:35:44.940Z</time>
      </trkpt>
      <trkpt lat="48.84448" lon="2.33009">
        <ele>95.7</ele>
        <time>2015-03-16T19:35:45.950Z</time>
      </trkpt>
      <trkpt lat="48.84455" lon="2.33002">
        <ele>96.1</ele>
        <time>2015-03-16T19:35:47.858Z</time>
      </trkpt>
      <trkpt lat="48.84459" lon="2.32997">
        <ele>96.3</ele>
        <time>2015-03-16T19:35:48.915Z</time>
      </trkpt>
      <trkpt lat="48.84465" lon="2.32989">
        <ele>96.6</ele>
        <time>2015-03-16T19:35:50.849Z</time>
      </trkpt>
      <trkpt lat="48.84469" lon="2.32985">
        <ele>96.8</ele>
        <time>2015-03-16T19:35:51.846Z</time>
      </trkpt>
      <trkpt lat="48.84474" lon="2.32983">
        <ele>96.9</ele>
        <time>2015-03-16T19:35:52.868Z</time>
      </trkpt>
      <trkpt lat="48.84478" lon="2.3298">
        <ele>97</ele>
        <time>2015-03-16T19:35:53.880Z</time>
      </trkpt>
      <trkpt lat="48.84482" lon="2.32977">
        <ele>97.1</ele>
        <time>2015-03-16T19:35:54.936Z</time>
      </trkpt>
      <trkpt lat="48.84487" lon="2.32974">
        <ele>97.3</ele>
        <time>2015-03-16T19:35:55.823Z</time>
      </trkpt>
      <trkpt lat="48.84493" lon="2.32965">
        <ele>97.3</ele>
        <time>2015-03-16T19:35:57.856Z</time>
      </trkpt>
      <trkpt lat="48.84494" lon="2.3296">
        <ele>97.2</ele>
        <time>2015-03-16T19:35:58.882Z</time>
      </trkpt>
      <trkpt lat="48.84494" lon="2.32952">
        <ele>96.9</ele>
        <time>2015-03-16T19:35:59.847Z</time>
      </trkpt>
      <trkpt lat="48.84495" lon="2.32944">
        <ele>96.8</ele>
        <time>2015-03-16T19:36:00.894Z</time>
      </trkpt>
      <trkpt lat="48.84494" lon="2.32935">
        <ele>96.4</ele>
        <time>2015-03-16T19:36:01.896Z</time>
      </trkpt>
      <trkpt lat="48.84495" lon="2.32927">
        <ele>96.5</ele>
        <time>2015-03-16T19:36:02.903Z</time>
      </trkpt>
      <trkpt lat="48.845" lon="2.32915">
        <ele>97.1</ele>
        <time>2015-03-16T19:36:04.933Z</time>
      </trkpt>
      <trkpt lat="48.84502" lon="2.32911">
        <ele>97.8</ele>
        <time>2015-03-16T19:36:05.882Z</time>
      </trkpt>
      <trkpt lat="48.84506" lon="2.32904">
        <ele>98.8</ele>
        <time>2015-03-16T19:36:07.907Z</time>
      </trkpt>
      <trkpt lat="48.84508" lon="2.329">
        <ele>99.5</ele>
        <time>2015-03-16T19:36:08.929Z</time>
      </trkpt>
      <trkpt lat="48.84512" lon="2.32888">
        <ele>102.9</ele>
        <time>2015-03-16T19:36:11.896Z</time>
      </trkpt>
      <trkpt lat="48.84514" lon="2.32885">
        <ele>103.9</ele>
        <time>2015-03-16T19:36:12.921Z</time>
      </trkpt>
      <trkpt lat="48.84518" lon="2.32877">
        <ele>105.8</ele>
        <time>2015-03-16T19:36:14.877Z</time>
      </trkpt>
      <trkpt lat="48.8452" lon="2.32873">
        <ele>106.7</ele>
        <time>2015-03-16T19:36:15.963Z</time>
      </trkpt>
      <trkpt lat="48.84528" lon="2.32865">
        <ele>108.1</ele>
        <time>2015-03-16T19:36:18.930Z</time>
      </trkpt>
      <trkpt lat="48.84531" lon="2.32863">
        <ele>108.4</ele>
        <time>2015-03-16T19:36:19.853Z</time>
      </trkpt>
      <trkpt lat="48.84538" lon="2.32861">
        <ele>108.5</ele>
        <time>2015-03-16T19:36:21.841Z</time>
      </trkpt>
      <trkpt lat="48.84542" lon="2.32859">
        <ele>108.6</ele>
        <time>2015-03-16T19:36:22.864Z</time>
      </trkpt>
      <trkpt lat="48.84546" lon="2.32853">
        <ele>109.6</ele>
        <time>2015-03-16T19:36:24.911Z</time>
      </trkpt>
      <trkpt lat="48.84547" lon="2.32849">
        <ele>110.1</ele>
        <time>2015-03-16T19:36:25.839Z</time>
      </trkpt>
      <trkpt lat="48.84543" lon="2.32838">
        <ele>111.2</ele>
        <time>2015-03-16T19:36:30.949Z</time>
      </trkpt>
      <trkpt lat="48.84542" lon="2.32837">
        <ele>111.1</ele>
        <time>2015-03-16T19:36:31.938Z</time>
      </trkpt>
      <trkpt lat="48.84536" lon="2.32831">
        <ele>110.9</ele>
        <time>2015-03-16T19:36:35.897Z</time>
      </trkpt>
      <trkpt lat="48.84533" lon="2.32829">
        <ele>110.7</ele>
        <time>2015-03-16T19:36:36.903Z</time>
      </trkpt>
      <trkpt lat="48.84525" lon="2.32825">
        <ele>110.3</ele>
        <time>2015-03-16T19:36:39.879Z</time>
      </trkpt>
      <trkpt lat="48.84522" lon="2.32823">
        <ele>110.3</ele>
        <time>2015-03-16T19:36:40.852Z</time>
      </trkpt>
      <trkpt lat="48.84517" lon="2.32822">
        <ele>110.1</ele>
        <time>2015-03-16T19:36:41.861Z</time>
      </trkpt>
      <trkpt lat="48.84512" lon="2.32821">
        <ele>109.8</ele>
        <time>2015-03-16T19:36:42.895Z</time>
      </trkpt>
      <trkpt lat="48.84507" lon="2.32819">
        <ele>109.5</ele>
        <time>2015-03-16T19:36:43.842Z</time>
      </trkpt>
      <trkpt lat="48.84502" lon="2.32816">
        <ele>109.3</ele>
        <time>2015-03-16T19:36:44.837Z</time>
      </trkpt>
      <trkpt lat="48.84496" lon="2.32814">
        <ele>109.1</ele>
        <time>2015-03-16T19:36:45.840Z</time>
      </trkpt>
      <trkpt lat="48.8449" lon="2.32813">
        <ele>108.9</ele>
        <time>2015-03-16T19:36:46.847Z</time>
      </trkpt>
      <trkpt lat="48.84485" lon="2.32812">
        <ele>108.8</ele>
        <time>2015-03-16T19:36:47.861Z</time>
      </trkpt>
      <trkpt lat="48.8448" lon="2.32811">
        <ele>108.8</ele>
        <time>2015-03-16T19:36:48.875Z</time>
      </trkpt>
      <trkpt lat="48.84475" lon="2.3281">
        <ele>108.8</ele>
        <time>2015-03-16T19:36:49.887Z</time>
      </trkpt>
      <trkpt lat="48.8447" lon="2.3281">
        <ele>108.7</ele>
        <time>2015-03-16T19:36:50.901Z</time>
      </trkpt>
      <trkpt lat="48.84464" lon="2.32811">
        <ele>108.7</ele>
        <time>2015-03-16T19:36:51.912Z</time>
      </trkpt>
      <trkpt lat="48.84459" lon="2.32811">
        <ele>108.6</ele>
        <time>2015-03-16T19:36:52.924Z</time>
      </trkpt>
      <trkpt lat="48.84453" lon="2.32812">
        <ele>108.6</ele>
        <time>2015-03-16T19:36:53.836Z</time>
      </trkpt>
      <trkpt lat="48.84447" lon="2.32814">
        <ele>108.5</ele>
        <time>2015-03-16T19:36:54.868Z</time>
      </trkpt>
      <trkpt lat="48.84442" lon="2.32814">
        <ele>108.1</ele>
        <time>2015-03-16T19:36:55.870Z</time>
      </trkpt>
      <trkpt lat="48.84435" lon="2.32813">
        <ele>106.8</ele>
        <time>2015-03-16T19:36:56.880Z</time>
      </trkpt>
      <trkpt lat="48.84428" lon="2.32811">
        <ele>105.4</ele>
        <time>2015-03-16T19:36:57.887Z</time>
      </trkpt>
      <trkpt lat="48.84423" lon="2.32806">
        <ele>103</ele>
        <time>2015-03-16T19:36:58.894Z</time>
      </trkpt>
      <trkpt lat="48.84417" lon="2.32801">
        <ele>100.8</ele>
        <time>2015-03-16T19:36:59.942Z</time>
      </trkpt>
      <trkpt lat="48.84415" lon="2.32795">
        <ele>99.9</ele>
        <time>2015-03-16T19:37:00.946Z</time>
      </trkpt>
      <trkpt lat="48.84413" lon="2.32787">
        <ele>98.7</ele>
        <time>2015-03-16T19:37:01.846Z</time>
      </trkpt>
      <trkpt lat="48.84411" lon="2.32777">
        <ele>97.1</ele>
        <time>2015-03-16T19:37:02.857Z</time>
      </trkpt>
      <trkpt lat="48.84406" lon="2.32769">
        <ele>95.3</ele>
        <time>2015-03-16T19:37:03.867Z</time>
      </trkpt>
      <trkpt lat="48.84406" lon="2.32763">
        <ele>95.2</ele>
        <time>2015-03-16T19:37:04.887Z</time>
      </trkpt>
      <trkpt lat="48.844" lon="2.32763">
        <ele>95.7</ele>
        <time>2015-03-16T19:37:10.844Z</time>
      </trkpt>
      <trkpt lat="48.84394" lon="2.32775">
        <ele>95.9</ele>
        <time>2015-03-16T19:37:14.904Z</time>
      </trkpt>
      <trkpt lat="48.84393" lon="2.32787">
        <ele>97.1</ele>
        <time>2015-03-16T19:37:17.851Z</time>
      </trkpt>
      <trkpt lat="48.84391" lon="2.32789">
        <ele>97.2</ele>
        <time>2015-03-16T19:37:18.868Z</time>
      </trkpt>
      <trkpt lat="48.84384" lon="2.3279">
        <ele>97.2</ele>
        <time>2015-03-16T19:37:20.837Z</time>
      </trkpt>
      <trkpt lat="48.84381" lon="2.3279">
        <ele>97.3</ele>
        <time>2015-03-16T19:37:21.841Z</time>
      </trkpt>
      <trkpt lat="48.84375" lon="2.32785">
        <ele>97.4</ele>
        <time>2015-03-16T19:37:23.854Z</time>
      </trkpt>
      <trkpt lat="48.84371" lon="2.32782">
        <ele>97.2</ele>
        <time>2015-03-16T19:37:24.873Z</time>
      </trkpt>
      <trkpt lat="48.84366" lon="2.32779">
        <ele>97</ele>
        <time>2015-03-16T19:37:26.646Z</time>
      </trkpt>
      <trkpt lat="48.84363" lon="2.32775">
        <ele>97</ele>
        <time>2015-03-16T19:37:26.811Z</time>
      </trkpt>
      <trkpt lat="48.84359" lon="2.32771">
        <ele>97.1</ele>
        <time>2015-03-16T19:37:27.845Z</time>
      </trkpt>
      <trkpt lat="48.84355" lon="2.32767">
        <ele>97.3</ele>
        <time>2015-03-16T19:37:28.879Z</time>
      </trkpt>
      <trkpt lat="48.84348" lon="2.32759">
        <ele>97.8</ele>
        <time>2015-03-16T19:37:30.902Z</time>
      </trkpt>
      <trkpt lat="48.84344" lon="2.32757">
        <ele>97.9</ele>
        <time>2015-03-16T19:37:31.913Z</time>
      </trkpt>
      <trkpt lat="48.84336" lon="2.32761">
        <ele>99.2</ele>
        <time>2015-03-16T19:37:39.069Z</time>
      </trkpt>
      <trkpt lat="48.84335" lon="2.32763">
        <ele>99.4</ele>
        <time>2015-03-16T19:37:39.871Z</time>
      </trkpt>
      <trkpt lat="48.84328" lon="2.32771">
        <ele>100.3</ele>
        <time>2015-03-16T19:37:42.903Z</time>
      </trkpt>
      <trkpt lat="48.84326" lon="2.32774">
        <ele>100.6</ele>
        <time>2015-03-16T19:37:43.886Z</time>
      </trkpt>
      <trkpt lat="48.84319" lon="2.32779">
        <ele>101.3</ele>
        <time>2015-03-16T19:37:46.923Z</time>
      </trkpt>
      <trkpt lat="48.84316" lon="2.32779">
        <ele>101.3</ele>
        <time>2015-03-16T19:37:47.931Z</time>
      </trkpt>
      <trkpt lat="48.84309" lon="2.32772">
        <ele>101.4</ele>
        <time>2015-03-16T19:37:51.196Z</time>
      </trkpt>
      <trkpt lat="48.84307" lon="2.32769">
        <ele>101.3</ele>
        <time>2015-03-16T19:37:51.876Z</time>
      </trkpt>
      <trkpt lat="48.84304" lon="2.32761">
        <ele>101.8</ele>
        <time>2015-03-16T19:37:53.896Z</time>
      </trkpt>
      <trkpt lat="48.84301" lon="2.32756">
        <ele>103.7</ele>
        <time>2015-03-16T19:37:54.901Z</time>
      </trkpt>
      <trkpt lat="48.84294" lon="2.32747">
        <ele>108.8</ele>
        <time>2015-03-16T19:38:00.393Z</time>
      </trkpt>
      <trkpt lat="48.84291" lon="2.32751">
        <ele>108.9</ele>
        <time>2015-03-16T19:38:01.418Z</time>
      </trkpt>
      <trkpt lat="48.84288" lon="2.32753">
        <ele>109.1</ele>
        <time>2015-03-16T19:38:02.443Z</time>
      </trkpt>
      <trkpt lat="48.84286" lon="2.32754">
        <ele>109.4</ele>
        <time>2015-03-16T19:38:03.360Z</time>
      </trkpt>
      <trkpt lat="48.84285" lon="2.32754">
        <ele>110.3</ele>
        <time>2015-03-16T19:38:18.368Z</time>
      </trkpt>
      <trkpt lat="48.84281" lon="2.32756">
        <ele>112.1</ele>
        <time>2015-03-16T19:38:19.365Z</time>
      </trkpt>
      <trkpt lat="48.8428" lon="2.32756">
        <ele>112.8</ele>
        <time>2015-03-16T19:38:20.371Z</time>
      </trkpt>
      <trkpt lat="48.84279" lon="2.32755">
        <ele>113.8</ele>
        <time>2015-03-16T19:38:21.398Z</time>
      </trkpt>
      <trkpt lat="48.84278" lon="2.32755">
        <ele>114.6</ele>
        <time>2015-03-16T19:38:22.342Z</time>
      </trkpt>
      <trkpt lat="48.84277" lon="2.32755">
        <ele>115.3</ele>
        <time>2015-03-16T19:38:23.394Z</time>
      </trkpt>
      <trkpt lat="48.84275" lon="2.32754">
        <ele>116.5</ele>
        <time>2015-03-16T19:38:24.343Z</time>
      </trkpt>
      <trkpt lat="48.84273" lon="2.32753">
        <ele>117.5</ele>
        <time>2015-03-16T19:38:25.326Z</time>
      </trkpt>
      <trkpt lat="48.84273" lon="2.32753">
        <ele>117.5</ele>
        <time>2015-03-16T19:38:48.384Z</time>
      </trkpt>
      <trkpt lat="48.84271" lon="2.32752">
        <ele>123.8</ele>
        <time>2015-03-16T19:38:49.407Z</time>
      </trkpt>
      <trkpt lat="48.8427" lon="2.32765">
        <ele>123.7</ele>
        <time>2015-03-16T19:38:58.148Z</time>
      </trkpt>
      <trkpt lat="48.84269" lon="2.32768">
        <ele>122.9</ele>
        <time>2015-03-16T19:38:58.355Z</time>
      </trkpt>
      <trkpt lat="48.84267" lon="2.32777">
        <ele>120.6</ele>
        <time>2015-03-16T19:39:01.398Z</time>
      </trkpt>
      <trkpt lat="48.84267" lon="2.32782">
        <ele>120.1</ele>
        <time>2015-03-16T19:39:02.419Z</time>
      </trkpt>
      <trkpt lat="48.84266" lon="2.32794">
        <ele>119.6</ele>
        <time>2015-03-16T19:39:05.336Z</time>
      </trkpt>
      <trkpt lat="48.84265" lon="2.32798">
        <ele>119.5</ele>
        <time>2015-03-16T19:39:06.357Z</time>
      </trkpt>
      <trkpt lat="48.84262" lon="2.32809">
        <ele>118.6</ele>
        <time>2015-03-16T19:39:08.393Z</time>
      </trkpt>
      <trkpt lat="48.84262" lon="2.32813">
        <ele>118.2</ele>
        <time>2015-03-16T19:39:09.386Z</time>
      </trkpt>
      <trkpt lat="48.84256" lon="2.32823">
        <ele>117.6</ele>
        <time>2015-03-16T19:39:11.416Z</time>
      </trkpt>
      <trkpt lat="48.84253" lon="2.32828">
        <ele>117.3</ele>
        <time>2015-03-16T19:39:12.426Z</time>
      </trkpt>
      <trkpt lat="48.84249" lon="2.32834">
        <ele>117</ele>
        <time>2015-03-16T19:39:13.437Z</time>
      </trkpt>
      <trkpt lat="48.84246" lon="2.32841">
        <ele>116.5</ele>
        <time>2015-03-16T19:39:14.352Z</time>
      </trkpt>
      <trkpt lat="48.84243" lon="2.32847">
        <ele>116.1</ele>
        <time>2015-03-16T19:39:15.370Z</time>
      </trkpt>
      <trkpt lat="48.84242" lon="2.32854">
        <ele>116</ele>
        <time>2015-03-16T19:39:16.374Z</time>
      </trkpt>
      <trkpt lat="48.84239" lon="2.32865">
        <ele>115.7</ele>
        <time>2015-03-16T19:39:18.320Z</time>
      </trkpt>
      <trkpt lat="48.84237" lon="2.3287">
        <ele>115.3</ele>
        <time>2015-03-16T19:39:19.343Z</time>
      </trkpt>
      <trkpt lat="48.84235" lon="2.32882">
        <ele>114.7</ele>
        <time>2015-03-16T19:39:21.322Z</time>
      </trkpt>
      <trkpt lat="48.84234" lon="2.32888">
        <ele>114.4</ele>
        <time>2015-03-16T19:39:22.329Z</time>
      </trkpt>
      <trkpt lat="48.84229" lon="2.32899">
        <ele>114.1</ele>
        <time>2015-03-16T19:39:25.364Z</time>
      </trkpt>
      <trkpt lat="48.84226" lon="2.32905">
        <ele>114</ele>
        <time>2015-03-16T19:39:25.404Z</time>
      </trkpt>
      <trkpt lat="48.84224" lon="2.3291">
        <ele>113.9</ele>
        <time>2015-03-16T19:39:26.431Z</time>
      </trkpt>
      <trkpt lat="48.8422" lon="2.32915">
        <ele>113.9</ele>
        <time>2015-03-16T19:39:27.333Z</time>
      </trkpt>
      <trkpt lat="48.84216" lon="2.32921">
        <ele>113.9</ele>
        <time>2015-03-16T19:39:28.367Z</time>
      </trkpt>
      <trkpt lat="48.84212" lon="2.32925">
        <ele>113.9</ele>
        <time>2015-03-16T19:39:29.365Z</time>
      </trkpt>
      <trkpt lat="48.84204" lon="2.32929">
        <ele>113.5</ele>
        <time>2015-03-16T19:39:31.363Z</time>
      </trkpt>
      <trkpt lat="48.84201" lon="2.32928">
        <ele>113.3</ele>
        <time>2015-03-16T19:39:32.391Z</time>
      </trkpt>
      <trkpt lat="48.84195" lon="2.32921">
        <ele>113.8</ele>
        <time>2015-03-16T19:39:35.595Z</time>
      </trkpt>
      <trkpt lat="48.84195" lon="2.32918">
        <ele>113.7</ele>
        <time>2015-03-16T19:39:36.405Z</time>
      </trkpt>
      <trkpt lat="48.84193" lon="2.32909">
        <ele>113.4</ele>
        <time>2015-03-16T19:39:38.395Z</time>
      </trkpt>
      <trkpt lat="48.84191" lon="2.32904">
        <ele>113.2</ele>
        <time>2015-03-16T19:39:39.403Z</time>
      </trkpt>
      <trkpt lat="48.84188" lon="2.32894">
        <ele>113.3</ele>
        <time>2015-03-16T19:39:41.330Z</time>
      </trkpt>
      <trkpt lat="48.84187" lon="2.3289">
        <ele>113.3</ele>
        <time>2015-03-16T19:39:42.443Z</time>
      </trkpt>
      <trkpt lat="48.84184" lon="2.32878">
        <ele>112.9</ele>
        <time>2015-03-16T19:39:45.363Z</time>
      </trkpt>
      <trkpt lat="48.84184" lon="2.32875">
        <ele>112.7</ele>
        <time>2015-03-16T19:39:46.366Z</time>
      </trkpt>
      <trkpt lat="48.84183" lon="2.32862">
        <ele>112.4</ele>
        <time>2015-03-16T19:39:50.410Z</time>
      </trkpt>
      <trkpt lat="48.84182" lon="2.32856">
        <ele>112.6</ele>
        <time>2015-03-16T19:39:51.322Z</time>
      </trkpt>
      <trkpt lat="48.84182" lon="2.32845">
        <ele>113</ele>
        <time>2015-03-16T19:39:53.468Z</time>
      </trkpt>
      <trkpt lat="48.8418" lon="2.32841">
        <ele>113.2</ele>
        <time>2015-03-16T19:39:54.352Z</time>
      </trkpt>
      <trkpt lat="48.8418" lon="2.32832">
        <ele>113.1</ele>
        <time>2015-03-16T19:39:56.380Z</time>
      </trkpt>
      <trkpt lat="48.84179" lon="2.32826">
        <ele>113.1</ele>
        <time>2015-03-16T19:39:57.422Z</time>
      </trkpt>
      <trkpt lat="48.84177" lon="2.32817">
        <ele>113.1</ele>
        <time>2015-03-16T19:39:59.317Z</time>
      </trkpt>
      <trkpt lat="48.84177" lon="2.32812">
        <ele>113</ele>
        <time>2015-03-16T19:40:00.332Z</time>
      </trkpt>
      <trkpt lat="48.84175" lon="2.32801">
        <ele>112.8</ele>
        <time>2015-03-16T19:40:02.374Z</time>
      </trkpt>
      <trkpt lat="48.84174" lon="2.32796">
        <ele>112.9</ele>
        <time>2015-03-16T19:40:03.411Z</time>
      </trkpt>
      <trkpt lat="48.84172" lon="2.32786">
        <ele>112.7</ele>
        <time>2015-03-16T19:40:05.320Z</time>
      </trkpt>
      <trkpt lat="48.84172" lon="2.32781">
        <ele>112.8</ele>
        <time>2015-03-16T19:40:06.339Z</time>
      </trkpt>
      <trkpt lat="48.8417" lon="2.32768">
        <ele>113.2</ele>
        <time>2015-03-16T19:40:09.374Z</time>
      </trkpt>
      <trkpt lat="48.84169" lon="2.32763">
        <ele>113.1</ele>
        <time>2015-03-16T19:40:10.369Z</time>
      </trkpt>
      <trkpt lat="48.84165" lon="2.32755">
        <ele>113.1</ele>
        <time>2015-03-16T19:40:12.392Z</time>
      </trkpt>
      <trkpt lat="48.84163" lon="2.32752">
        <ele>112.9</ele>
        <time>2015-03-16T19:40:13.390Z</time>
      </trkpt>
      <trkpt lat="48.84157" lon="2.32747">
        <ele>112.9</ele>
        <time>2015-03-16T19:40:15.406Z</time>
      </trkpt>
      <trkpt lat="48.84154" lon="2.32745">
        <ele>113.1</ele>
        <time>2015-03-16T19:40:16.372Z</time>
      </trkpt>
      <trkpt lat="48.84146" lon="2.32741">
        <ele>112.5</ele>
        <time>2015-03-16T19:40:20.420Z</time>
      </trkpt>
      <trkpt lat="48.84144" lon="2.3274">
        <ele>112.3</ele>
        <time>2015-03-16T19:40:21.421Z</time>
      </trkpt>
      <trkpt lat="48.84136" lon="2.32745">
        <ele>112.3</ele>
        <time>2015-03-16T19:40:27.343Z</time>
      </trkpt>
      <trkpt lat="48.84135" lon="2.32748">
        <ele>112.5</ele>
        <time>2015-03-16T19:40:28.365Z</time>
      </trkpt>
      <trkpt lat="48.84132" lon="2.32753">
        <ele>112.5</ele>
        <time>2015-03-16T19:40:30.442Z</time>
      </trkpt>
      <trkpt lat="48.84125" lon="2.32756">
        <ele>112.7</ele>
        <time>2015-03-16T19:40:31.340Z</time>
      </trkpt>
      <trkpt lat="48.84118" lon="2.32762">
        <ele>112.7</ele>
        <time>2015-03-16T19:40:33.396Z</time>
      </trkpt>
      <trkpt lat="48.84115" lon="2.32762">
        <ele>113.1</ele>
        <time>2015-03-16T19:40:34.413Z</time>
      </trkpt>
      <trkpt lat="48.84108" lon="2.32761">
        <ele>113.2</ele>
        <time>2015-03-16T19:40:36.427Z</time>
      </trkpt>
      <trkpt lat="48.84105" lon="2.3276">
        <ele>113.1</ele>
        <time>2015-03-16T19:40:37.378Z</time>
      </trkpt>
      <trkpt lat="48.84102" lon="2.32758">
        <ele>113</ele>
        <time>2015-03-16T19:40:38.386Z</time>
      </trkpt>
      <trkpt lat="48.84096" lon="2.32755">
        <ele>112.2</ele>
        <time>2015-03-16T19:40:39.395Z</time>
      </trkpt>
      <trkpt lat="48.84091" lon="2.32753">
        <ele>111.6</ele>
        <time>2015-03-16T19:40:40.333Z</time>
      </trkpt>
      <trkpt lat="48.84086" lon="2.32753">
        <ele>111.3</ele>
        <time>2015-03-16T19:40:41.343Z</time>
      </trkpt>
      <trkpt lat="48.84078" lon="2.32751">
        <ele>110.6</ele>
        <time>2015-03-16T19:40:43.374Z</time>
      </trkpt>
      <trkpt lat="48.84076" lon="2.3275">
        <ele>110.6</ele>
        <time>2015-03-16T19:40:44.437Z</time>
      </trkpt>
      <trkpt lat="48.84068" lon="2.32753">
        <ele>110.6</ele>
        <time>2015-03-16T19:40:47.415Z</time>
      </trkpt>
      <trkpt lat="48.84065" lon="2.32755">
        <ele>110.2</ele>
        <time>2015-03-16T19:40:48.419Z</time>
      </trkpt>
      <trkpt lat="48.84061" lon="2.32756">
        <ele>110</ele>
        <time>2015-03-16T19:40:49.359Z</time>
      </trkpt>
      <trkpt lat="48.84056" lon="2.32758">
        <ele>109.7</ele>
        <time>2015-03-16T19:40:50.390Z</time>
      </trkpt>
      <trkpt lat="48.84049" lon="2.3276">
        <ele>109.4</ele>
        <time>2015-03-16T19:40:52.397Z</time>
      </trkpt>
      <trkpt lat="48.84045" lon="2.32762">
        <ele>109.1</ele>
        <time>2015-03-16T19:40:53.425Z</time>
      </trkpt>
      <trkpt lat="48.84037" lon="2.32768">
        <ele>108.4</ele>
        <time>2015-03-16T19:40:56.425Z</time>
      </trkpt>
      <trkpt lat="48.84035" lon="2.32769">
        <ele>108.1</ele>
        <time>2015-03-16T19:40:57.483Z</time>
      </trkpt>
      <trkpt lat="48.84028" lon="2.3277">
        <ele>106.7</ele>
        <time>2015-03-16T19:40:59.353Z</time>
      </trkpt>
      <trkpt lat="48.84024" lon="2.32769">
        <ele>106.1</ele>
        <time>2015-03-16T19:41:00.370Z</time>
      </trkpt>
      <trkpt lat="48.84017" lon="2.32777">
        <ele>104.8</ele>
        <time>2015-03-16T19:41:14.402Z</time>
      </trkpt>
      <trkpt lat="48.84016" lon="2.3278">
        <ele>104.5</ele>
        <time>2015-03-16T19:41:15.347Z</time>
      </trkpt>
      <trkpt lat="48.84012" lon="2.3279">
        <ele>104.1</ele>
        <time>2015-03-16T19:41:17.378Z</time>
      </trkpt>
      <trkpt lat="48.8401" lon="2.32796">
        <ele>103.8</ele>
        <time>2015-03-16T19:41:18.405Z</time>
      </trkpt>
      <trkpt lat="48.84008" lon="2.32803">
        <ele>103.7</ele>
        <time>2015-03-16T19:41:19.426Z</time>
      </trkpt>
      <trkpt lat="48.84006" lon="2.32809">
        <ele>103.5</ele>
        <time>2015-03-16T19:41:20.453Z</time>
      </trkpt>
      <trkpt lat="48.84002" lon="2.32816">
        <ele>103.4</ele>
        <time>2015-03-16T19:41:21.390Z</time>
      </trkpt>
      <trkpt lat="48.83999" lon="2.32822">
        <ele>103.3</ele>
        <time>2015-03-16T19:41:22.370Z</time>
      </trkpt>
      <trkpt lat="48.83996" lon="2.32828">
        <ele>103.4</ele>
        <time>2015-03-16T19:41:23.384Z</time>
      </trkpt>
      <trkpt lat="48.83993" lon="2.32835">
        <ele>103.3</ele>
        <time>2015-03-16T19:41:24.389Z</time>
      </trkpt>
      <trkpt lat="48.83991" lon="2.32841">
        <ele>103.3</ele>
        <time>2015-03-16T19:41:25.406Z</time>
      </trkpt>
      <trkpt lat="48.83989" lon="2.32848">
        <ele>103.3</ele>
        <time>2015-03-16T19:41:26.421Z</time>
      </trkpt>
      <trkpt lat="48.83987" lon="2.32856">
        <ele>103.3</ele>
        <time>2015-03-16T19:41:27.426Z</time>
      </trkpt>
      <trkpt lat="48.83984" lon="2.32864">
        <ele>103.3</ele>
        <time>2015-03-16T19:41:28.441Z</time>
      </trkpt>
      <trkpt lat="48.83982" lon="2.32873">
        <ele>103.1</ele>
        <time>2015-03-16T19:41:29.360Z</time>
      </trkpt>
      <trkpt lat="48.83977" lon="2.32882">
        <ele>103.1</ele>
        <time>2015-03-16T19:41:30.361Z</time>
      </trkpt>
      <trkpt lat="48.83974" lon="2.3289">
        <ele>103</ele>
        <time>2015-03-16T19:41:31.385Z</time>
      </trkpt>
      <trkpt lat="48.83971" lon="2.32898">
        <ele>102.8</ele>
        <time>2015-03-16T19:41:32.399Z</time>
      </trkpt>
      <trkpt lat="48.83968" lon="2.32905">
        <ele>102.8</ele>
        <time>2015-03-16T19:41:33.420Z</time>
      </trkpt>
      <trkpt lat="48.83965" lon="2.32914">
        <ele>102.8</ele>
        <time>2015-03-16T19:41:34.431Z</time>
      </trkpt>
      <trkpt lat="48.83962" lon="2.32922">
        <ele>102.5</ele>
        <time>2015-03-16T19:41:35.384Z</time>
      </trkpt>
      <trkpt lat="48.83959" lon="2.3293">
        <ele>102.4</ele>
        <time>2015-03-16T19:41:36.412Z</time>
      </trkpt>
      <trkpt lat="48.83959" lon="2.32939">
        <ele>103.3</ele>
        <time>2015-03-16T19:41:37.422Z</time>
      </trkpt>
      <trkpt lat="48.8396" lon="2.3295">
        <ele>104.7</ele>
        <time>2015-03-16T19:41:38.442Z</time>
      </trkpt>
      <trkpt lat="48.83957" lon="2.32957">
        <ele>104.6</ele>
        <time>2015-03-16T19:41:39.454Z</time>
      </trkpt>
      <trkpt lat="48.83954" lon="2.32963">
        <ele>104.5</ele>
        <time>2015-03-16T19:41:40.359Z</time>
      </trkpt>
      <trkpt lat="48.83951" lon="2.3297">
        <ele>104.5</ele>
        <time>2015-03-16T19:41:41.369Z</time>
      </trkpt>
      <trkpt lat="48.83947" lon="2.32976">
        <ele>104.4</ele>
        <time>2015-03-16T19:41:42.376Z</time>
      </trkpt>
      <trkpt lat="48.83942" lon="2.32985">
        <ele>104</ele>
        <time>2015-03-16T19:41:44.414Z</time>
      </trkpt>
      <trkpt lat="48.83939" lon="2.32991">
        <ele>103.7</ele>
        <time>2015-03-16T19:41:45.429Z</time>
      </trkpt>
      <trkpt lat="48.83934" lon="2.33">
        <ele>103.3</ele>
        <time>2015-03-16T19:41:47.389Z</time>
      </trkpt>
      <trkpt lat="48.8393" lon="2.33003">
        <ele>103.3</ele>
        <time>2015-03-16T19:41:48.420Z</time>
      </trkpt>
      <trkpt lat="48.83923" lon="2.33">
        <ele>102.9</ele>
        <time>2015-03-16T19:41:50.407Z</time>
      </trkpt>
      <trkpt lat="48.83919" lon="2.32996">
        <ele>102.6</ele>
        <time>2015-03-16T19:41:51.407Z</time>
      </trkpt>
      <trkpt lat="48.83915" lon="2.32993">
        <ele>102.8</ele>
        <time>2015-03-16T19:41:52.322Z</time>
      </trkpt>
      <trkpt lat="48.83903" lon="2.3298">
        <ele>102.6</ele>
        <time>2015-03-16T19:41:56.376Z</time>
      </trkpt>
      <trkpt lat="48.83889" lon="2.3296">
        <ele>101</ele>
        <time>2015-03-16T19:42:03.392Z</time>
      </trkpt>
      <trkpt lat="48.83881" lon="2.32954">
        <ele>100.5</ele>
        <time>2015-03-16T19:42:05.396Z</time>
      </trkpt>
      <trkpt lat="48.83877" lon="2.32949">
        <ele>100.5</ele>
        <time>2015-03-16T19:42:06.403Z</time>
      </trkpt>
      <trkpt lat="48.83873" lon="2.32945">
        <ele>100.4</ele>
        <time>2015-03-16T19:42:07.418Z</time>
      </trkpt>
      <trkpt lat="48.83869" lon="2.32941">
        <ele>100.5</ele>
        <time>2015-03-16T19:42:08.450Z</time>
      </trkpt>
      <trkpt lat="48.83863" lon="2.32935">
        <ele>100.4</ele>
        <time>2015-03-16T19:42:10.465Z</time>
      </trkpt>
      <trkpt lat="48.83859" lon="2.32932">
        <ele>100.3</ele>
        <time>2015-03-16T19:42:11.405Z</time>
      </trkpt>
      <trkpt lat="48.83854" lon="2.32924">
        <ele>100.5</ele>
        <time>2015-03-16T19:42:13.781Z</time>
      </trkpt>
      <trkpt lat="48.8385" lon="2.32919">
        <ele>100.8</ele>
        <time>2015-03-16T19:42:14.387Z</time>
      </trkpt>
      <trkpt lat="48.83846" lon="2.32915">
        <ele>100.8</ele>
        <time>2015-03-16T19:42:15.314Z</time>
      </trkpt>
      <trkpt lat="48.83842" lon="2.3291">
        <ele>100.8</ele>
        <time>2015-03-16T19:42:16.322Z</time>
      </trkpt>
      <trkpt lat="48.83837" lon="2.32902">
        <ele>100.4</ele>
        <time>2015-03-16T19:42:18.865Z</time>
      </trkpt>
      <trkpt lat="48.83834" lon="2.32898">
        <ele>100.3</ele>
        <time>2015-03-16T19:42:19.367Z</time>
      </trkpt>
      <trkpt lat="48.83828" lon="2.3289">
        <ele>100.2</ele>
        <time>2015-03-16T19:42:21.384Z</time>
      </trkpt>
      <trkpt lat="48.83825" lon="2.32885">
        <ele>99.9</ele>
        <time>2015-03-16T19:42:22.391Z</time>
      </trkpt>
      <trkpt lat="48.83819" lon="2.32876">
        <ele>99.1</ele>
        <time>2015-03-16T19:42:24.416Z</time>
      </trkpt>
      <trkpt lat="48.83816" lon="2.32872">
        <ele>99.1</ele>
        <time>2015-03-16T19:42:25.421Z</time>
      </trkpt>
      <trkpt lat="48.83809" lon="2.32866">
        <ele>98.9</ele>
        <time>2015-03-16T19:42:27.351Z</time>
      </trkpt>
      <trkpt lat="48.83805" lon="2.32861">
        <ele>99</ele>
        <time>2015-03-16T19:42:28.352Z</time>
      </trkpt>
      <trkpt lat="48.838" lon="2.32858">
        <ele>98.8</ele>
        <time>2015-03-16T19:42:29.363Z</time>
      </trkpt>
      <trkpt lat="48.83796" lon="2.32855">
        <ele>98.6</ele>
        <time>2015-03-16T19:42:30.382Z</time>
      </trkpt>
      <trkpt lat="48.83789" lon="2.32846">
        <ele>98.7</ele>
        <time>2015-03-16T19:42:32.395Z</time>
      </trkpt>
      <trkpt lat="48.83786" lon="2.32842">
        <ele>98.7</ele>
        <time>2015-03-16T19:42:33.422Z</time>
      </trkpt>
      <trkpt lat="48.83783" lon="2.32838">
        <ele>98.8</ele>
        <time>2015-03-16T19:42:34.436Z</time>
      </trkpt>
      <trkpt lat="48.83778" lon="2.32835">
        <ele>98.9</ele>
        <time>2015-03-16T19:42:35.341Z</time>
      </trkpt>
      <trkpt lat="48.83774" lon="2.32832">
        <ele>99.1</ele>
        <time>2015-03-16T19:42:36.354Z</time>
      </trkpt>
      <trkpt lat="48.8377" lon="2.32829">
        <ele>99.2</ele>
        <time>2015-03-16T19:42:37.359Z</time>
      </trkpt>
      <trkpt lat="48.83766" lon="2.32826">
        <ele>99.4</ele>
        <time>2015-03-16T19:42:38.365Z</time>
      </trkpt>
      <trkpt lat="48.83761" lon="2.32823">
        <ele>99.5</ele>
        <time>2015-03-16T19:42:39.384Z</time>
      </trkpt>
      <trkpt lat="48.83757" lon="2.32819">
        <ele>99.5</ele>
        <time>2015-03-16T19:42:40.391Z</time>
      </trkpt>
      <trkpt lat="48.83752" lon="2.32815">
        <ele>99.2</ele>
        <time>2015-03-16T19:42:41.401Z</time>
      </trkpt>
      <trkpt lat="48.83744" lon="2.32809">
        <ele>97.9</ele>
        <time>2015-03-16T19:42:42.763Z</time>
      </trkpt>
      <trkpt lat="48.83738" lon="2.32806">
        <ele>97.6</ele>
        <time>2015-03-16T19:42:43.419Z</time>
      </trkpt>
      <trkpt lat="48.83732" lon="2.32803">
        <ele>97.4</ele>
        <time>2015-03-16T19:42:44.474Z</time>
      </trkpt>
      <trkpt lat="48.83725" lon="2.328">
        <ele>97.1</ele>
        <time>2015-03-16T19:42:45.359Z</time>
      </trkpt>
      <trkpt lat="48.83719" lon="2.32797">
        <ele>97.2</ele>
        <time>2015-03-16T19:42:46.348Z</time>
      </trkpt>
      <trkpt lat="48.83713" lon="2.32795">
        <ele>97.1</ele>
        <time>2015-03-16T19:42:47.359Z</time>
      </trkpt>
      <trkpt lat="48.83709" lon="2.32792">
        <ele>97.2</ele>
        <time>2015-03-16T19:42:48.457Z</time>
      </trkpt>
      <trkpt lat="48.83701" lon="2.3279">
        <ele>97.4</ele>
        <time>2015-03-16T19:42:49.444Z</time>
      </trkpt>
      <trkpt lat="48.83696" lon="2.32786">
        <ele>97.4</ele>
        <time>2015-03-16T19:42:50.407Z</time>
      </trkpt>
      <trkpt lat="48.83691" lon="2.32782">
        <ele>97.5</ele>
        <time>2015-03-16T19:42:51.411Z</time>
      </trkpt>
      <trkpt lat="48.83686" lon="2.32779">
        <ele>98.1</ele>
        <time>2015-03-16T19:42:52.927Z</time>
      </trkpt>
      <trkpt lat="48.8368" lon="2.32778">
        <ele>98.5</ele>
        <time>2015-03-16T19:42:53.324Z</time>
      </trkpt>
      <trkpt lat="48.83675" lon="2.32778">
        <ele>98.8</ele>
        <time>2015-03-16T19:42:54.342Z</time>
      </trkpt>
      <trkpt lat="48.8367" lon="2.32776">
        <ele>99.2</ele>
        <time>2015-03-16T19:42:55.355Z</time>
      </trkpt>
      <trkpt lat="48.83665" lon="2.32775">
        <ele>99.9</ele>
        <time>2015-03-16T19:42:56.365Z</time>
      </trkpt>
      <trkpt lat="48.83661" lon="2.32773">
        <ele>100.4</ele>
        <time>2015-03-16T19:42:57.384Z</time>
      </trkpt>
      <trkpt lat="48.83653" lon="2.3277">
        <ele>101.5</ele>
        <time>2015-03-16T19:43:00.318Z</time>
      </trkpt>
      <trkpt lat="48.8365" lon="2.32768">
        <ele>102.2</ele>
        <time>2015-03-16T19:43:01.328Z</time>
      </trkpt>
      <trkpt lat="48.83643" lon="2.32767">
        <ele>103.5</ele>
        <time>2015-03-16T19:43:04.382Z</time>
      </trkpt>
      <trkpt lat="48.8364" lon="2.32768">
        <ele>103.9</ele>
        <time>2015-03-16T19:43:05.396Z</time>
      </trkpt>
      <trkpt lat="48.8364" lon="2.32769">
        <ele>103.5</ele>
        <time>2015-03-16T19:43:35.419Z</time>
      </trkpt>
      <trkpt lat="48.83621" lon="2.32764">
        <ele>105.4</ele>
        <time>2015-03-16T19:43:36.432Z</time>
      </trkpt>
      <trkpt lat="48.8362" lon="2.32764">
        <ele>105.6</ele>
        <time>2015-03-16T19:43:37.477Z</time>
      </trkpt>
      <trkpt lat="48.8362" lon="2.32764">
        <ele>105.6</ele>
        <time>2015-03-16T19:44:04.427Z</time>
      </trkpt>
      <trkpt lat="48.83611" lon="2.32752">
        <ele>107</ele>
        <time>2015-03-16T19:44:05.331Z</time>
      </trkpt>
      <trkpt lat="48.8361" lon="2.32751">
        <ele>107.2</ele>
        <time>2015-03-16T19:44:06.366Z</time>
      </trkpt>
      <trkpt lat="48.83609" lon="2.3275">
        <ele>107.4</ele>
        <time>2015-03-16T19:44:07.375Z</time>
      </trkpt>
      <trkpt lat="48.83609" lon="2.32749">
        <ele>107.6</ele>
        <time>2015-03-16T19:44:27.454Z</time>
      </trkpt>
      <trkpt lat="48.83608" lon="2.32748">
        <ele>108.5</ele>
        <time>2015-03-16T19:44:28.361Z</time>
      </trkpt>
      <trkpt lat="48.83608" lon="2.32749">
        <ele>108.5</ele>
        <time>2015-03-16T19:44:29.404Z</time>
      </trkpt>
      <trkpt lat="48.83609" lon="2.32749">
        <ele>108.5</ele>
        <time>2015-03-16T19:44:30.453Z</time>
      </trkpt>
      <trkpt lat="48.83609" lon="2.32749">
        <ele>108.5</ele>
        <time>2015-03-16T19:44:34.341Z</time>
      </trkpt>
      <trkpt lat="48.83609" lon="2.32749">
        <ele>108.5</ele>
        <time>2015-03-16T19:44:35.366Z</time>
      </trkpt>
      <trkpt lat="48.8361" lon="2.32749">
        <ele>108.7</ele>
        <time>2015-03-16T19:44:36.404Z</time>
      </trkpt>
      <trkpt lat="48.83609" lon="2.32749">
        <ele>108.9</ele>
        <time>2015-03-16T19:44:37.418Z</time>
      </trkpt>
      <trkpt lat="48.83609" lon="2.32749">
        <ele>109</ele>
        <time>2015-03-16T19:45:26.396Z</time>
      </trkpt>
      <trkpt lat="48.83609" lon="2.32748">
        <ele>112.7</ele>
        <time>2015-03-16T19:45:27.415Z</time>
      </trkpt>
      <trkpt lat="48.83609" lon="2.32748">
        <ele>112.7</ele>
        <time>2015-03-16T19:45:28.560Z</time>
      </trkpt>
      <trkpt lat="48.83609" lon="2.32749">
        <ele>112.8</ele>
        <time>2015-03-16T19:45:29.351Z</time>
      </trkpt>
      <trkpt lat="48.83609" lon="2.32748">
        <ele>112.8</ele>
        <time>2015-03-16T19:45:30.370Z</time>
      </trkpt>
      <trkpt lat="48.83609" lon="2.32751">
        <ele>112.7</ele>
        <time>2015-03-16T19:45:35.417Z</time>
      </trkpt>
      <trkpt lat="48.83609" lon="2.32752">
        <ele>112.7</ele>
        <time>2015-03-16T19:45:37.463Z</time>
      </trkpt>
      <trkpt lat="48.83609" lon="2.32752">
        <ele>113.1</ele>
        <time>2015-03-16T19:45:58.390Z</time>
      </trkpt>
      <trkpt lat="48.83609" lon="2.32754">
        <ele>115.3</ele>
        <time>2015-03-16T19:45:59.408Z</time>
      </trkpt>
      <trkpt lat="48.83601" lon="2.32756">
        <ele>114.3</ele>
        <time>2015-03-16T19:46:44.394Z</time>
      </trkpt>
      <trkpt lat="48.83599" lon="2.32755">
        <ele>114.2</ele>
        <time>2015-03-16T19:46:45.418Z</time>
      </trkpt>
      <trkpt lat="48.83595" lon="2.32752">
        <ele>114</ele>
        <time>2015-03-16T19:46:47.753Z</time>
      </trkpt>
      <trkpt lat="48.83584" lon="2.32743">
        <ele>113.3</ele>
        <time>2015-03-16T19:46:51.382Z</time>
      </trkpt>
      <trkpt lat="48.83552" lon="2.32711">
        <ele>112.1</ele>
        <time>2015-03-16T19:47:00.403Z</time>
      </trkpt>
      <trkpt lat="48.83547" lon="2.32708">
        <ele>112</ele>
        <time>2015-03-16T19:47:01.407Z</time>
      </trkpt>
      <trkpt lat="48.83543" lon="2.32705">
        <ele>112</ele>
        <time>2015-03-16T19:47:02.452Z</time>
      </trkpt>
      <trkpt lat="48.83539" lon="2.32702">
        <ele>112.1</ele>
        <time>2015-03-16T19:47:03.356Z</time>
      </trkpt>
      <trkpt lat="48.83534" lon="2.32698">
        <ele>112</ele>
        <time>2015-03-16T19:47:04.359Z</time>
      </trkpt>
      <trkpt lat="48.8353" lon="2.32696">
        <ele>111.9</ele>
        <time>2015-03-16T19:47:05.378Z</time>
      </trkpt>
      <trkpt lat="48.83522" lon="2.32692">
        <ele>110.5</ele>
        <time>2015-03-16T19:47:06.384Z</time>
      </trkpt>
      <trkpt lat="48.83517" lon="2.32689">
        <ele>110.5</ele>
        <time>2015-03-16T19:47:07.951Z</time>
      </trkpt>
      <trkpt lat="48.83512" lon="2.32686">
        <ele>110.7</ele>
        <time>2015-03-16T19:47:08.414Z</time>
      </trkpt>
      <trkpt lat="48.83509" lon="2.32674">
        <ele>111.1</ele>
        <time>2015-03-16T19:47:11.356Z</time>
      </trkpt>
      <trkpt lat="48.83513" lon="2.32664">
        <ele>111.2</ele>
        <time>2015-03-16T19:47:13.332Z</time>
      </trkpt>
      <trkpt lat="48.83515" lon="2.32658">
        <ele>111.5</ele>
        <time>2015-03-16T19:47:14.399Z</time>
      </trkpt>
      <trkpt lat="48.83519" lon="2.32653">
        <ele>111.6</ele>
        <time>2015-03-16T19:47:15.395Z</time>
      </trkpt>
      <trkpt lat="48.83524" lon="2.32643">
        <ele>111.8</ele>
        <time>2015-03-16T19:47:18.171Z</time>
      </trkpt>
      <trkpt lat="48.83527" lon="2.32638">
        <ele>111.9</ele>
        <time>2015-03-16T19:47:18.367Z</time>
      </trkpt>
      <trkpt lat="48.83529" lon="2.32632">
        <ele>111.9</ele>
        <time>2015-03-16T19:47:19.376Z</time>
      </trkpt>
      <trkpt lat="48.83532" lon="2.32626">
        <ele>112.1</ele>
        <time>2015-03-16T19:47:20.376Z</time>
      </trkpt>
      <trkpt lat="48.83536" lon="2.32622">
        <ele>112.2</ele>
        <time>2015-03-16T19:47:21.379Z</time>
      </trkpt>
      <trkpt lat="48.83541" lon="2.32619">
        <ele>112.4</ele>
        <time>2015-03-16T19:47:22.383Z</time>
      </trkpt>
      <trkpt lat="48.83547" lon="2.32616">
        <ele>112.6</ele>
        <time>2015-03-16T19:47:23.319Z</time>
      </trkpt>
      <trkpt lat="48.83551" lon="2.32612">
        <ele>112.7</ele>
        <time>2015-03-16T19:47:24.359Z</time>
      </trkpt>
      <trkpt lat="48.83556" lon="2.32602">
        <ele>113</ele>
        <time>2015-03-16T19:47:26.407Z</time>
      </trkpt>
      <trkpt lat="48.83548" lon="2.32591">
        <ele>111.8</ele>
        <time>2015-03-16T19:47:27.466Z</time>
      </trkpt>
      <trkpt lat="48.8355" lon="2.32585">
        <ele>111.8</ele>
        <time>2015-03-16T19:47:28.369Z</time>
      </trkpt>
      <trkpt lat="48.83552" lon="2.32578">
        <ele>112.8</ele>
        <time>2015-03-16T19:47:29.378Z</time>
      </trkpt>
      <trkpt lat="48.83559" lon="2.32572">
        <ele>113.6</ele>
        <time>2015-03-16T19:47:31.420Z</time>
      </trkpt>
      <trkpt lat="48.83563" lon="2.32568">
        <ele>114</ele>
        <time>2015-03-16T19:47:32.455Z</time>
      </trkpt>
      <trkpt lat="48.83568" lon="2.32564">
        <ele>114.2</ele>
        <time>2015-03-16T19:47:33.358Z</time>
      </trkpt>
      <trkpt lat="48.83571" lon="2.32561">
        <ele>114.5</ele>
        <time>2015-03-16T19:47:34.430Z</time>
      </trkpt>
      <trkpt lat="48.83574" lon="2.32556">
        <ele>114.7</ele>
        <time>2015-03-16T19:47:35.354Z</time>
      </trkpt>
      <trkpt lat="48.83579" lon="2.32551">
        <ele>114.9</ele>
        <time>2015-03-16T19:47:36.357Z</time>
      </trkpt>
      <trkpt lat="48.83581" lon="2.32546">
        <ele>115.2</ele>
        <time>2015-03-16T19:47:37.724Z</time>
      </trkpt>
      <trkpt lat="48.8358" lon="2.32534">
        <ele>116.4</ele>
        <time>2015-03-16T19:47:38.453Z</time>
      </trkpt>
      <trkpt lat="48.83585" lon="2.32521">
        <ele>116.8</ele>
        <time>2015-03-16T19:47:40.333Z</time>
      </trkpt>
      <trkpt lat="48.83586" lon="2.32512">
        <ele>117.2</ele>
        <time>2015-03-16T19:47:41.376Z</time>
      </trkpt>
      <trkpt lat="48.83589" lon="2.32506">
        <ele>117.3</ele>
        <time>2015-03-16T19:47:42.424Z</time>
      </trkpt>
      <trkpt lat="48.83588" lon="2.32495">
        <ele>117.8</ele>
        <time>2015-03-16T19:47:43.448Z</time>
      </trkpt>
      <trkpt lat="48.8359" lon="2.32486">
        <ele>117.9</ele>
        <time>2015-03-16T19:47:44.461Z</time>
      </trkpt>
      <trkpt lat="48.83593" lon="2.32478">
        <ele>118</ele>
        <time>2015-03-16T19:47:45.355Z</time>
      </trkpt>
      <trkpt lat="48.83597" lon="2.32471">
        <ele>118</ele>
        <time>2015-03-16T19:47:46.378Z</time>
      </trkpt>
      <trkpt lat="48.83602" lon="2.32465">
        <ele>118.1</ele>
        <time>2015-03-16T19:47:47.356Z</time>
      </trkpt>
      <trkpt lat="48.83606" lon="2.32458">
        <ele>118.3</ele>
        <time>2015-03-16T19:47:48.347Z</time>
      </trkpt>
      <trkpt lat="48.83609" lon="2.32451">
        <ele>118.4</ele>
        <time>2015-03-16T19:47:49.371Z</time>
      </trkpt>
      <trkpt lat="48.83621" lon="2.32431">
        <ele>118.6</ele>
        <time>2015-03-16T19:47:52.379Z</time>
      </trkpt>
      <trkpt lat="48.83619" lon="2.32413">
        <ele>118.4</ele>
        <time>2015-03-16T19:47:54.426Z</time>
      </trkpt>
      <trkpt lat="48.83619" lon="2.32404">
        <ele>118.5</ele>
        <time>2015-03-16T19:47:55.367Z</time>
      </trkpt>
      <trkpt lat="48.83619" lon="2.32396">
        <ele>118.6</ele>
        <time>2015-03-16T19:47:56.415Z</time>
      </trkpt>
      <trkpt lat="48.83616" lon="2.32385">
        <ele>118.8</ele>
        <time>2015-03-16T19:47:57.428Z</time>
      </trkpt>
      <trkpt lat="48.83613" lon="2.32374">
        <ele>119.1</ele>
        <time>2015-03-16T19:47:58.446Z</time>
      </trkpt>
      <trkpt lat="48.83608" lon="2.32364">
        <ele>119.4</ele>
        <time>2015-03-16T19:47:59.330Z</time>
      </trkpt>
      <trkpt lat="48.83606" lon="2.32357">
        <ele>119.8</ele>
        <time>2015-03-16T19:48:00.326Z</time>
      </trkpt>
      <trkpt lat="48.83609" lon="2.32346">
        <ele>121.4</ele>
        <time>2015-03-16T19:48:02.426Z</time>
      </trkpt>
      <trkpt lat="48.83609" lon="2.32342">
        <ele>121.9</ele>
        <time>2015-03-16T19:48:03.451Z</time>
      </trkpt>
      <trkpt lat="48.83614" lon="2.32342">
        <ele>123.5</ele>
        <time>2015-03-16T19:48:08.430Z</time>
      </trkpt>
      <trkpt lat="48.83613" lon="2.32342">
        <ele>123.7</ele>
        <time>2015-03-16T19:48:09.452Z</time>
      </trkpt>
      <trkpt lat="48.83613" lon="2.32343">
        <ele>123.9</ele>
        <time>2015-03-16T19:48:10.411Z</time>
      </trkpt>
      <trkpt lat="48.83613" lon="2.32343">
        <ele>124.2</ele>
        <time>2015-03-16T19:48:12.329Z</time>
      </trkpt>
      <trkpt lat="48.83612" lon="2.32343">
        <ele>124.6</ele>
        <time>2015-03-16T19:48:13.457Z</time>
      </trkpt>
      <trkpt lat="48.83612" lon="2.32343">
        <ele>124.9</ele>
        <time>2015-03-16T19:48:14.450Z</time>
      </trkpt>
      <trkpt lat="48.83611" lon="2.32343">
        <ele>125.4</ele>
        <time>2015-03-16T19:48:15.339Z</time>
      </trkpt>
      <trkpt lat="48.83611" lon="2.32343">
        <ele>125.8</ele>
        <time>2015-03-16T19:48:16.351Z</time>
      </trkpt>
      <trkpt lat="48.83612" lon="2.32343">
        <ele>126.3</ele>
        <time>2015-03-16T19:48:17.380Z</time>
      </trkpt>
      <trkpt lat="48.8361" lon="2.32342">
        <ele>133.5</ele>
        <time>2015-03-16T19:48:32.467Z</time>
      </trkpt>
      <trkpt lat="48.8361" lon="2.32342">
        <ele>133.7</ele>
        <time>2015-03-16T19:48:33.317Z</time>
      </trkpt>
      <trkpt lat="48.8361" lon="2.32341">
        <ele>134.2</ele>
        <time>2015-03-16T19:48:43.372Z</time>
      </trkpt>
      <trkpt lat="48.83614" lon="2.32341">
        <ele>138.2</ele>
        <time>2015-03-16T19:48:44.416Z</time>
      </trkpt>
      <trkpt lat="48.83614" lon="2.32341">
        <ele>138.6</ele>
        <time>2015-03-16T19:48:45.353Z</time>
      </trkpt>
      <trkpt lat="48.83614" lon="2.32342">
        <ele>139</ele>
        <time>2015-03-16T19:48:46.361Z</time>
      </trkpt>
      <trkpt lat="48.83614" lon="2.32342">
        <ele>139.1</ele>
        <time>2015-03-16T19:48:47.371Z</time>
      </trkpt>
      <trkpt lat="48.83615" lon="2.3234">
        <ele>139.2</ele>
        <time>2015-03-16T19:48:49.404Z</time>
      </trkpt>
      <trkpt lat="48.83614" lon="2.3234">
        <ele>139.2</ele>
        <time>2015-03-16T19:48:50.424Z</time>
      </trkpt>
      <trkpt lat="48.83613" lon="2.32341">
        <ele>139.5</ele>
        <time>2015-03-16T19:48:51.351Z</time>
      </trkpt>
      <trkpt lat="48.83612" lon="2.32342">
        <ele>139.7</ele>
        <time>2015-03-16T19:48:53.380Z</time>
      </trkpt>
      <trkpt lat="48.8361" lon="2.32343">
        <ele>139.9</ele>
        <time>2015-03-16T19:48:54.427Z</time>
      </trkpt>
      <trkpt lat="48.83609" lon="2.32344">
        <ele>140</ele>
        <time>2015-03-16T19:48:55.418Z</time>
      </trkpt>
      <trkpt lat="48.83609" lon="2.32344">
        <ele>140</ele>
        <time>2015-03-16T19:48:56.464Z</time>
      </trkpt>
      <trkpt lat="48.83609" lon="2.32345">
        <ele>140.1</ele>
        <time>2015-03-16T19:48:57.381Z</time>
      </trkpt>
      <trkpt lat="48.83609" lon="2.32344">
        <ele>140.2</ele>
        <time>2015-03-16T19:49:04.361Z</time>
      </trkpt>
      <trkpt lat="48.83609" lon="2.32345">
        <ele>140.9</ele>
        <time>2015-03-16T19:49:05.380Z</time>
      </trkpt>
      <trkpt lat="48.83609" lon="2.32346">
        <ele>141</ele>
        <time>2015-03-16T19:49:06.396Z</time>
      </trkpt>
      <trkpt lat="48.8361" lon="2.32346">
        <ele>141</ele>
        <time>2015-03-16T19:49:07.402Z</time>
      </trkpt>
      <trkpt lat="48.8361" lon="2.32346">
        <ele>141</ele>
        <time>2015-03-16T19:49:08.433Z</time>
      </trkpt>
      <trkpt lat="48.83615" lon="2.32348">
        <ele>141.8</ele>
        <time>2015-03-16T19:49:13.444Z</time>
      </trkpt>
      <trkpt lat="48.83615" lon="2.32348">
        <ele>141.9</ele>
        <time>2015-03-16T19:49:14.510Z</time>
      </trkpt>
      <trkpt lat="48.83614" lon="2.32348">
        <ele>142.1</ele>
        <time>2015-03-16T19:49:15.353Z</time>
      </trkpt>
      <trkpt lat="48.83612" lon="2.32348">
        <ele>143.7</ele>
        <time>2015-03-16T19:49:21.363Z</time>
      </trkpt>
      <trkpt lat="48.83612" lon="2.32349">
        <ele>144</ele>
        <time>2015-03-16T19:49:22.364Z</time>
      </trkpt>
      <trkpt lat="48.83611" lon="2.32348">
        <ele>144.2</ele>
        <time>2015-03-16T19:49:23.372Z</time>
      </trkpt>
      <trkpt lat="48.8361" lon="2.32344">
        <ele>145.5</ele>
        <time>2015-03-16T19:49:27.433Z</time>
      </trkpt>
      <trkpt lat="48.83609" lon="2.32344">
        <ele>145.7</ele>
        <time>2015-03-16T19:49:28.325Z</time>
      </trkpt>
      <trkpt lat="48.83609" lon="2.32345">
        <ele>145.8</ele>
        <time>2015-03-16T19:49:29.360Z</time>
      </trkpt>
      <trkpt lat="48.83607" lon="2.32347">
        <ele>146.2</ele>
        <time>2015-03-16T19:49:32.416Z</time>
      </trkpt>
      <trkpt lat="48.83607" lon="2.32346">
        <ele>146.4</ele>
        <time>2015-03-16T19:49:33.421Z</time>
      </trkpt>
      <trkpt lat="48.83608" lon="2.32346">
        <ele>146.7</ele>
        <time>2015-03-16T19:49:34.340Z</time>
      </trkpt>
      <trkpt lat="48.83609" lon="2.32344">
        <ele>147.4</ele>
        <time>2015-03-16T19:49:36.374Z</time>
      </trkpt>
      <trkpt lat="48.83609" lon="2.32344">
        <ele>147.5</ele>
        <time>2015-03-16T19:49:37.391Z</time>
      </trkpt>
      <trkpt lat="48.8361" lon="2.32344">
        <ele>147.6</ele>
        <time>2015-03-16T19:49:38.411Z</time>
      </trkpt>
      <trkpt lat="48.83613" lon="2.3235">
        <ele>147.9</ele>
        <time>2015-03-16T19:49:48.382Z</time>
      </trkpt>
      <trkpt lat="48.83613" lon="2.3235">
        <ele>148</ele>
        <time>2015-03-16T19:49:49.397Z</time>
      </trkpt>
      <trkpt lat="48.83614" lon="2.32349">
        <ele>148.3</ele>
        <time>2015-03-16T19:49:53.368Z</time>
      </trkpt>
      <trkpt lat="48.83615" lon="2.32348">
        <ele>148.8</ele>
        <time>2015-03-16T19:49:54.569Z</time>
      </trkpt>
      <trkpt lat="48.83615" lon="2.32347">
        <ele>148.7</ele>
        <time>2015-03-16T19:49:55.351Z</time>
      </trkpt>
      <trkpt lat="48.83614" lon="2.32347">
        <ele>148.8</ele>
        <time>2015-03-16T19:49:56.374Z</time>
      </trkpt>
      <trkpt lat="48.83612" lon="2.32347">
        <ele>149</ele>
        <time>2015-03-16T19:49:58.386Z</time>
      </trkpt>
      <trkpt lat="48.83611" lon="2.32347">
        <ele>149.2</ele>
        <time>2015-03-16T19:49:59.401Z</time>
      </trkpt>
      <trkpt lat="48.8361" lon="2.32347">
        <ele>149.8</ele>
        <time>2015-03-16T19:50:06.373Z</time>
      </trkpt>
      <trkpt lat="48.83612" lon="2.32346">
        <ele>151.7</ele>
        <time>2015-03-16T19:50:07.420Z</time>
      </trkpt>
      <trkpt lat="48.83618" lon="2.32337">
        <ele>158.6</ele>
        <time>2015-03-16T19:50:34.380Z</time>
      </trkpt>
      <trkpt lat="48.8362" lon="2.32335">
        <ele>158.4</ele>
        <time>2015-03-16T19:50:35.406Z</time>
      </trkpt>
      <trkpt lat="48.83627" lon="2.32331">
        <ele>158.5</ele>
        <time>2015-03-16T19:50:37.429Z</time>
      </trkpt>
      <trkpt lat="48.8363" lon="2.32329">
        <ele>158.6</ele>
        <time>2015-03-16T19:50:38.463Z</time>
      </trkpt>
      <trkpt lat="48.83638" lon="2.32326">
        <ele>158.7</ele>
        <time>2015-03-16T19:50:40.382Z</time>
      </trkpt>
      <trkpt lat="48.83641" lon="2.32324">
        <ele>158.8</ele>
        <time>2015-03-16T19:50:41.392Z</time>
      </trkpt>
      <trkpt lat="48.83648" lon="2.3232">
        <ele>158.8</ele>
        <time>2015-03-16T19:50:43.420Z</time>
      </trkpt>
      <trkpt lat="48.83652" lon="2.32318">
        <ele>158.7</ele>
        <time>2015-03-16T19:50:44.434Z</time>
      </trkpt>
      <trkpt lat="48.83659" lon="2.32316">
        <ele>158.5</ele>
        <time>2015-03-16T19:50:46.350Z</time>
      </trkpt>
      <trkpt lat="48.83663" lon="2.32315">
        <ele>158.2</ele>
        <time>2015-03-16T19:50:47.396Z</time>
      </trkpt>
      <trkpt lat="48.8367" lon="2.32314">
        <ele>158.1</ele>
        <time>2015-03-16T19:50:49.347Z</time>
      </trkpt>
      <trkpt lat="48.83672" lon="2.32314">
        <ele>158.1</ele>
        <time>2015-03-16T19:50:50.375Z</time>
      </trkpt>
      <trkpt lat="48.83679" lon="2.32312">
        <ele>158.7</ele>
        <time>2015-03-16T19:50:56.376Z</time>
      </trkpt>
      <trkpt lat="48.83681" lon="2.32312">
        <ele>158.7</ele>
        <time>2015-03-16T19:50:57.405Z</time>
      </trkpt>
      <trkpt lat="48.8368" lon="2.32312">
        <ele>158.7</ele>
        <time>2015-03-16T19:51:04.346Z</time>
      </trkpt>
      <trkpt lat="48.83679" lon="2.32307">
        <ele>154.3</ele>
        <time>2015-03-16T19:51:05.355Z</time>
      </trkpt>
      <trkpt lat="48.83672" lon="2.32299">
        <ele>145.4</ele>
        <time>2015-03-16T19:51:12.351Z</time>
      </trkpt>
      <trkpt lat="48.8367" lon="2.32296">
        <ele>144.6</ele>
        <time>2015-03-16T19:51:13.416Z</time>
      </trkpt>
      <trkpt lat="48.83667" lon="2.32283">
        <ele>142.1</ele>
        <time>2015-03-16T19:51:16.343Z</time>
      </trkpt>
      <trkpt lat="48.83666" lon="2.3228">
        <ele>141.9</ele>
        <time>2015-03-16T19:51:17.360Z</time>
      </trkpt>
      <trkpt lat="48.83659" lon="2.32277">
        <ele>140.8</ele>
        <time>2015-03-16T19:51:19.408Z</time>
      </trkpt>
      <trkpt lat="48.83655" lon="2.32275">
        <ele>140.5</ele>
        <time>2015-03-16T19:51:20.415Z</time>
      </trkpt>
      <trkpt lat="48.83647" lon="2.32272">
        <ele>139.8</ele>
        <time>2015-03-16T19:51:22.347Z</time>
      </trkpt>
      <trkpt lat="48.83645" lon="2.32269">
        <ele>139.7</ele>
        <time>2015-03-16T19:51:23.373Z</time>
      </trkpt>
      <trkpt lat="48.8364" lon="2.32261">
        <ele>139.5</ele>
        <time>2015-03-16T19:51:25.340Z</time>
      </trkpt>
      <trkpt lat="48.83638" lon="2.32258">
        <ele>139.5</ele>
        <time>2015-03-16T19:51:26.473Z</time>
      </trkpt>
      <trkpt lat="48.83633" lon="2.32251">
        <ele>139</ele>
        <time>2015-03-16T19:51:28.342Z</time>
      </trkpt>
      <trkpt lat="48.8363" lon="2.32246">
        <ele>137.9</ele>
        <time>2015-03-16T19:51:29.379Z</time>
      </trkpt>
      <trkpt lat="48.83626" lon="2.32236">
        <ele>137.3</ele>
        <time>2015-03-16T19:51:31.352Z</time>
      </trkpt>
      <trkpt lat="48.83624" lon="2.32233">
        <ele>137.1</ele>
        <time>2015-03-16T19:51:32.447Z</time>
      </trkpt>
      <trkpt lat="48.83618" lon="2.32223">
        <ele>136</ele>
        <time>2015-03-16T19:51:35.367Z</time>
      </trkpt>
      <trkpt lat="48.83615" lon="2.32222">
        <ele>135.5</ele>
        <time>2015-03-16T19:51:36.401Z</time>
      </trkpt>
      <trkpt lat="48.83613" lon="2.32209">
        <ele>134.2</ele>
        <time>2015-03-16T19:51:41.354Z</time>
      </trkpt>
      <trkpt lat="48.83612" lon="2.32206">
        <ele>134</ele>
        <time>2015-03-16T19:51:42.351Z</time>
      </trkpt>
      <trkpt lat="48.83606" lon="2.32199">
        <ele>132.1</ele>
        <time>2015-03-16T19:51:46.442Z</time>
      </trkpt>
      <trkpt lat="48.83605" lon="2.32196">
        <ele>131.6</ele>
        <time>2015-03-16T19:51:47.440Z</time>
      </trkpt>
      <trkpt lat="48.83601" lon="2.32186">
        <ele>130</ele>
        <time>2015-03-16T19:51:51.377Z</time>
      </trkpt>
      <trkpt lat="48.83601" lon="2.32183">
        <ele>129.6</ele>
        <time>2015-03-16T19:51:52.407Z</time>
      </trkpt>
      <trkpt lat="48.83599" lon="2.3217">
        <ele>129</ele>
        <time>2015-03-16T19:51:56.392Z</time>
      </trkpt>
      <trkpt lat="48.836" lon="2.32168">
        <ele>129</ele>
        <time>2015-03-16T19:51:57.458Z</time>
      </trkpt>
      <trkpt lat="48.83603" lon="2.32166">
        <ele>128.8</ele>
        <time>2015-03-16T19:51:59.405Z</time>
      </trkpt>
      <trkpt lat="48.83618" lon="2.32155">
        <ele>128.7</ele>
        <time>2015-03-16T19:52:04.370Z</time>
      </trkpt>
      <trkpt lat="48.83656" lon="2.3212">
        <ele>129</ele>
        <time>2015-03-16T19:52:14.453Z</time>
      </trkpt>
      <trkpt lat="48.83659" lon="2.32115">
        <ele>129</ele>
        <time>2015-03-16T19:52:15.348Z</time>
      </trkpt>
      <trkpt lat="48.83663" lon="2.32111">
        <ele>129.1</ele>
        <time>2015-03-16T19:52:16.352Z</time>
      </trkpt>
      <trkpt lat="48.83668" lon="2.32103">
        <ele>129.5</ele>
        <time>2015-03-16T19:52:18.394Z</time>
      </trkpt>
      <trkpt lat="48.8367" lon="2.32098">
        <ele>129.9</ele>
        <time>2015-03-16T19:52:19.419Z</time>
      </trkpt>
      <trkpt lat="48.83676" lon="2.32092">
        <ele>130.1</ele>
        <time>2015-03-16T19:52:21.346Z</time>
      </trkpt>
      <trkpt lat="48.83679" lon="2.3209">
        <ele>130.2</ele>
        <time>2015-03-16T19:52:22.366Z</time>
      </trkpt>
      <trkpt lat="48.83675" lon="2.32079">
        <ele>129.1</ele>
        <time>2015-03-16T19:52:25.363Z</time>
      </trkpt>
      <trkpt lat="48.83673" lon="2.32075">
        <ele>128.1</ele>
        <time>2015-03-16T19:52:26.400Z</time>
      </trkpt>
      <trkpt lat="48.83669" lon="2.32071">
        <ele>126.4</ele>
        <time>2015-03-16T19:52:27.408Z</time>
      </trkpt>
      <trkpt lat="48.83666" lon="2.32066">
        <ele>124.2</ele>
        <time>2015-03-16T19:52:28.322Z</time>
      </trkpt>
      <trkpt lat="48.83662" lon="2.32053">
        <ele>124.1</ele>
        <time>2015-03-16T19:52:30.363Z</time>
      </trkpt>
      <trkpt lat="48.83659" lon="2.32048">
        <ele>122.5</ele>
        <time>2015-03-16T19:52:31.388Z</time>
      </trkpt>
      <trkpt lat="48.83654" lon="2.3204">
        <ele>121.9</ele>
        <time>2015-03-16T19:52:32.419Z</time>
      </trkpt>
      <trkpt lat="48.83653" lon="2.32033">
        <ele>122.4</ele>
        <time>2015-03-16T19:52:33.339Z</time>
      </trkpt>
      <trkpt lat="48.83649" lon="2.32023">
        <ele>121.6</ele>
        <time>2015-03-16T19:52:35.344Z</time>
      </trkpt>
      <trkpt lat="48.83647" lon="2.32017">
        <ele>120.6</ele>
        <time>2015-03-16T19:52:36.369Z</time>
      </trkpt>
      <trkpt lat="48.83644" lon="2.32007">
        <ele>119.1</ele>
        <time>2015-03-16T19:52:38.454Z</time>
      </trkpt>
      <trkpt lat="48.83642" lon="2.32002">
        <ele>118.4</ele>
        <time>2015-03-16T19:52:39.423Z</time>
      </trkpt>
      <trkpt lat="48.83639" lon="2.31995">
        <ele>118</ele>
        <time>2015-03-16T19:52:40.353Z</time>
      </trkpt>
      <trkpt lat="48.83637" lon="2.3199">
        <ele>116.5</ele>
        <time>2015-03-16T19:52:41.359Z</time>
      </trkpt>
      <trkpt lat="48.83632" lon="2.31981">
        <ele>116.5</ele>
        <time>2015-03-16T19:52:43.367Z</time>
      </trkpt>
      <trkpt lat="48.83631" lon="2.31975">
        <ele>116.3</ele>
        <time>2015-03-16T19:52:44.373Z</time>
      </trkpt>
      <trkpt lat="48.83624" lon="2.31967">
        <ele>116.1</ele>
        <time>2015-03-16T19:52:52.383Z</time>
      </trkpt>
      <trkpt lat="48.83623" lon="2.31967">
        <ele>116</ele>
        <time>2015-03-16T19:52:53.334Z</time>
      </trkpt>
      <trkpt lat="48.83762" lon="2.31885">
        <ele>133.7</ele>
        <time>2015-03-16T19:53:50.486Z</time>
      </trkpt>
      <trkpt lat="48.83763" lon="2.31885">
        <ele>137.6</ele>
        <time>2015-03-16T19:53:51.370Z</time>
      </trkpt>
      <trkpt lat="48.83778" lon="2.31889">
        <ele>146.4</ele>
        <time>2015-03-16T19:53:52.385Z</time>
      </trkpt>
      <trkpt lat="48.83778" lon="2.31878">
        <ele>162.8</ele>
        <time>2015-03-16T19:53:57.444Z</time>
      </trkpt>
      <trkpt lat="48.83777" lon="2.31875">
        <ele>165.4</ele>
        <time>2015-03-16T19:53:58.360Z</time>
      </trkpt>
      <trkpt lat="48.83775" lon="2.31871">
        <ele>165.8</ele>
        <time>2015-03-16T19:53:59.389Z</time>
      </trkpt>
      <trkpt lat="48.8377" lon="2.31864">
        <ele>163.4</ele>
        <time>2015-03-16T19:54:00.528Z</time>
      </trkpt>
      <trkpt lat="48.83763" lon="2.31858">
        <ele>158.5</ele>
        <time>2015-03-16T19:54:01.370Z</time>
      </trkpt>
      <trkpt lat="48.8376" lon="2.31853">
        <ele>156</ele>
        <time>2015-03-16T19:54:02.414Z</time>
      </trkpt>
      <trkpt lat="48.83758" lon="2.31842">
        <ele>152</ele>
        <time>2015-03-16T19:54:04.357Z</time>
      </trkpt>
      <trkpt lat="48.83758" lon="2.31837">
        <ele>150.3</ele>
        <time>2015-03-16T19:54:05.352Z</time>
      </trkpt>
      <trkpt lat="48.83754" lon="2.31829">
        <ele>143.7</ele>
        <time>2015-03-16T19:54:07.406Z</time>
      </trkpt>
      <trkpt lat="48.83753" lon="2.31823">
        <ele>140.2</ele>
        <time>2015-03-16T19:54:08.478Z</time>
      </trkpt>
      <trkpt lat="48.83753" lon="2.31812">
        <ele>134.4</ele>
        <time>2015-03-16T19:54:10.353Z</time>
      </trkpt>
      <trkpt lat="48.83753" lon="2.31807">
        <ele>133.4</ele>
        <time>2015-03-16T19:54:11.359Z</time>
      </trkpt>
      <trkpt lat="48.83755" lon="2.31798">
        <ele>133.2</ele>
        <time>2015-03-16T19:54:13.722Z</time>
      </trkpt>
      <trkpt lat="48.83756" lon="2.31793">
        <ele>132.5</ele>
        <time>2015-03-16T19:54:14.383Z</time>
      </trkpt>
      <trkpt lat="48.83764" lon="2.31793">
        <ele>129.9</ele>
        <time>2015-03-16T19:54:44.448Z</time>
      </trkpt>
      <trkpt lat="48.83767" lon="2.31791">
        <ele>129.6</ele>
        <time>2015-03-16T19:54:45.333Z</time>
      </trkpt>
      <trkpt lat="48.83773" lon="2.31784">
        <ele>128.2</ele>
        <time>2015-03-16T19:54:48.417Z</time>
      </trkpt>
      <trkpt lat="48.83776" lon="2.31782">
        <ele>128.1</ele>
        <time>2015-03-16T19:54:49.435Z</time>
      </trkpt>
      <trkpt lat="48.83781" lon="2.31774">
        <ele>127.1</ele>
        <time>2015-03-16T19:54:53.347Z</time>
      </trkpt>
      <trkpt lat="48.83783" lon="2.31773">
        <ele>127.4</ele>
        <time>2015-03-16T19:54:54.358Z</time>
      </trkpt>
      <trkpt lat="48.8379" lon="2.31767">
        <ele>128.4</ele>
        <time>2015-03-16T19:54:57.880Z</time>
      </trkpt>
      <trkpt lat="48.83793" lon="2.31764">
        <ele>128.9</ele>
        <time>2015-03-16T19:54:58.466Z</time>
      </trkpt>
      <trkpt lat="48.83798" lon="2.31759">
        <ele>131.5</ele>
        <time>2015-03-16T19:55:00.325Z</time>
      </trkpt>
      <trkpt lat="48.83805" lon="2.31749">
        <ele>131.8</ele>
        <time>2015-03-16T19:55:01.342Z</time>
      </trkpt>
      <trkpt lat="48.83809" lon="2.31741">
        <ele>132.3</ele>
        <time>2015-03-16T19:55:03.003Z</time>
      </trkpt>
      <trkpt lat="48.83814" lon="2.31734">
        <ele>132.8</ele>
        <time>2015-03-16T19:55:03.378Z</time>
      </trkpt>
      <trkpt lat="48.83816" lon="2.31728">
        <ele>133.6</ele>
        <time>2015-03-16T19:55:04.409Z</time>
      </trkpt>
      <trkpt lat="48.83821" lon="2.31723">
        <ele>134.6</ele>
        <time>2015-03-16T19:55:05.458Z</time>
      </trkpt>
      <trkpt lat="48.83826" lon="2.31714">
        <ele>136.4</ele>
        <time>2015-03-16T19:55:06.357Z</time>
      </trkpt>
      <trkpt lat="48.83831" lon="2.31708">
        <ele>137.6</ele>
        <time>2015-03-16T19:55:07.374Z</time>
      </trkpt>
      <trkpt lat="48.83838" lon="2.317">
        <ele>139.6</ele>
        <time>2015-03-16T19:55:08.397Z</time>
      </trkpt>
      <trkpt lat="48.83841" lon="2.31693">
        <ele>140.5</ele>
        <time>2015-03-16T19:55:09.405Z</time>
      </trkpt>
      <trkpt lat="48.83846" lon="2.31693">
        <ele>141.7</ele>
        <time>2015-03-16T19:55:10.402Z</time>
      </trkpt>
      <trkpt lat="48.83851" lon="2.31693">
        <ele>142.6</ele>
        <time>2015-03-16T19:55:11.418Z</time>
      </trkpt>
      <trkpt lat="48.83859" lon="2.31692">
        <ele>144.3</ele>
        <time>2015-03-16T19:55:13.329Z</time>
      </trkpt>
      <trkpt lat="48.83861" lon="2.31692">
        <ele>145.1</ele>
        <time>2015-03-16T19:55:14.392Z</time>
      </trkpt>
      <trkpt lat="48.83869" lon="2.31687">
        <ele>148.4</ele>
        <time>2015-03-16T19:55:19.425Z</time>
      </trkpt>
      <trkpt lat="48.83873" lon="2.31685">
        <ele>148.8</ele>
        <time>2015-03-16T19:55:20.439Z</time>
      </trkpt>
      <trkpt lat="48.83877" lon="2.31685">
        <ele>149.2</ele>
        <time>2015-03-16T19:55:21.356Z</time>
      </trkpt>
      <trkpt lat="48.83882" lon="2.31684">
        <ele>149.5</ele>
        <time>2015-03-16T19:55:22.363Z</time>
      </trkpt>
      <trkpt lat="48.83889" lon="2.31681">
        <ele>149.7</ele>
        <time>2015-03-16T19:55:23.374Z</time>
      </trkpt>
      <trkpt lat="48.83898" lon="2.31676">
        <ele>149.9</ele>
        <time>2015-03-16T19:55:24.411Z</time>
      </trkpt>
      <trkpt lat="48.83905" lon="2.31673">
        <ele>150.2</ele>
        <time>2015-03-16T19:55:25.404Z</time>
      </trkpt>
      <trkpt lat="48.8391" lon="2.31669">
        <ele>150.9</ele>
        <time>2015-03-16T19:55:26.439Z</time>
      </trkpt>
      <trkpt lat="48.83916" lon="2.31662">
        <ele>151.3</ele>
        <time>2015-03-16T19:55:28.351Z</time>
      </trkpt>
      <trkpt lat="48.83918" lon="2.31658">
        <ele>151.7</ele>
        <time>2015-03-16T19:55:29.381Z</time>
      </trkpt>
      <trkpt lat="48.83924" lon="2.3165">
        <ele>152.9</ele>
        <time>2015-03-16T19:55:32.467Z</time>
      </trkpt>
      <trkpt lat="48.83928" lon="2.31649">
        <ele>154</ele>
        <time>2015-03-16T19:55:33.372Z</time>
      </trkpt>
      <trkpt lat="48.83925" lon="2.31639">
        <ele>156.9</ele>
        <time>2015-03-16T19:55:36.345Z</time>
      </trkpt>
      <trkpt lat="48.83924" lon="2.31634">
        <ele>157.2</ele>
        <time>2015-03-16T19:55:37.351Z</time>
      </trkpt>
      <trkpt lat="48.83928" lon="2.31626">
        <ele>158.9</ele>
        <time>2015-03-16T19:55:39.398Z</time>
      </trkpt>
      <trkpt lat="48.83931" lon="2.31622">
        <ele>159.6</ele>
        <time>2015-03-16T19:55:40.467Z</time>
      </trkpt>
      <trkpt lat="48.83935" lon="2.31617">
        <ele>160.7</ele>
        <time>2015-03-16T19:55:41.346Z</time>
      </trkpt>
      <trkpt lat="48.83938" lon="2.31611">
        <ele>161.7</ele>
        <time>2015-03-16T19:55:42.350Z</time>
      </trkpt>
      <trkpt lat="48.83943" lon="2.31603">
        <ele>162.2</ele>
        <time>2015-03-16T19:55:44.390Z</time>
      </trkpt>
      <trkpt lat="48.83944" lon="2.31598">
        <ele>163.1</ele>
        <time>2015-03-16T19:55:45.394Z</time>
      </trkpt>
      <trkpt lat="48.83949" lon="2.31591">
        <ele>164.8</ele>
        <time>2015-03-16T19:55:47.442Z</time>
      </trkpt>
      <trkpt lat="48.83949" lon="2.31586">
        <ele>165.3</ele>
        <time>2015-03-16T19:55:48.337Z</time>
      </trkpt>
      <trkpt lat="48.83947" lon="2.31574">
        <ele>165.5</ele>
        <time>2015-03-16T19:55:50.383Z</time>
      </trkpt>
      <trkpt lat="48.83947" lon="2.31567">
        <ele>165.5</ele>
        <time>2015-03-16T19:55:51.395Z</time>
      </trkpt>
      <trkpt lat="48.83946" lon="2.3156">
        <ele>165</ele>
        <time>2015-03-16T19:55:52.332Z</time>
      </trkpt>
      <trkpt lat="48.83941" lon="2.31551">
        <ele>163</ele>
        <time>2015-03-16T19:55:53.333Z</time>
      </trkpt>
      <trkpt lat="48.83936" lon="2.31543">
        <ele>161.3</ele>
        <time>2015-03-16T19:55:54.334Z</time>
      </trkpt>
      <trkpt lat="48.83933" lon="2.31536">
        <ele>160.3</ele>
        <time>2015-03-16T19:55:55.356Z</time>
      </trkpt>
      <trkpt lat="48.83929" lon="2.31523">
        <ele>159.4</ele>
        <time>2015-03-16T19:55:58.464Z</time>
      </trkpt>
      <trkpt lat="48.83929" lon="2.3152">
        <ele>159.1</ele>
        <time>2015-03-16T19:55:59.343Z</time>
      </trkpt>
      <trkpt lat="48.83929" lon="2.31508">
        <ele>157.6</ele>
        <time>2015-03-16T19:56:02.407Z</time>
      </trkpt>
      <trkpt lat="48.83927" lon="2.31506">
        <ele>156.9</ele>
        <time>2015-03-16T19:56:03.362Z</time>
      </trkpt>
      <trkpt lat="48.8392" lon="2.315">
        <ele>155.2</ele>
        <time>2015-03-16T19:56:07.397Z</time>
      </trkpt>
      <trkpt lat="48.83918" lon="2.31498">
        <ele>155.1</ele>
        <time>2015-03-16T19:56:08.444Z</time>
      </trkpt>
      <trkpt lat="48.8391" lon="2.31492">
        <ele>152.1</ele>
        <time>2015-03-16T19:56:10.361Z</time>
      </trkpt>
      <trkpt lat="48.83904" lon="2.31488">
        <ele>149.6</ele>
        <time>2015-03-16T19:56:11.378Z</time>
      </trkpt>
      <trkpt lat="48.83897" lon="2.31483">
        <ele>147.4</ele>
        <time>2015-03-16T19:56:12.416Z</time>
      </trkpt>
      <trkpt lat="48.8389" lon="2.31477">
        <ele>144.8</ele>
        <time>2015-03-16T19:56:13.329Z</time>
      </trkpt>
      <trkpt lat="48.83884" lon="2.31471">
        <ele>142.9</ele>
        <time>2015-03-16T19:56:14.365Z</time>
      </trkpt>
      <trkpt lat="48.83877" lon="2.31466">
        <ele>141.2</ele>
        <time>2015-03-16T19:56:15.381Z</time>
      </trkpt>
      <trkpt lat="48.83871" lon="2.31459">
        <ele>139.7</ele>
        <time>2015-03-16T19:56:16.393Z</time>
      </trkpt>
      <trkpt lat="48.83866" lon="2.31453">
        <ele>138.4</ele>
        <time>2015-03-16T19:56:17.413Z</time>
      </trkpt>
      <trkpt lat="48.83862" lon="2.31447">
        <ele>137.1</ele>
        <time>2015-03-16T19:56:18.342Z</time>
      </trkpt>
      <trkpt lat="48.83858" lon="2.31441">
        <ele>135.8</ele>
        <time>2015-03-16T19:56:19.338Z</time>
      </trkpt>
      <trkpt lat="48.83856" lon="2.31434">
        <ele>134.7</ele>
        <time>2015-03-16T19:56:20.369Z</time>
      </trkpt>
      <trkpt lat="48.83855" lon="2.31428">
        <ele>134.1</ele>
        <time>2015-03-16T19:56:21.384Z</time>
      </trkpt>
      <trkpt lat="48.83858" lon="2.31419">
        <ele>134.3</ele>
        <time>2015-03-16T19:56:22.399Z</time>
      </trkpt>
      <trkpt lat="48.83855" lon="2.31411">
        <ele>133.7</ele>
        <time>2015-03-16T19:56:23.405Z</time>
      </trkpt>
      <trkpt lat="48.83852" lon="2.31404">
        <ele>133.1</ele>
        <time>2015-03-16T19:56:24.329Z</time>
      </trkpt>
      <trkpt lat="48.83849" lon="2.31398">
        <ele>132.4</ele>
        <time>2015-03-16T19:56:25.344Z</time>
      </trkpt>
      <trkpt lat="48.83847" lon="2.31391">
        <ele>131.8</ele>
        <time>2015-03-16T19:56:26.370Z</time>
      </trkpt>
      <trkpt lat="48.83846" lon="2.31385">
        <ele>131.8</ele>
        <time>2015-03-16T19:56:27.380Z</time>
      </trkpt>
      <trkpt lat="48.83845" lon="2.31379">
        <ele>131.4</ele>
        <time>2015-03-16T19:56:28.395Z</time>
      </trkpt>
      <trkpt lat="48.83842" lon="2.31372">
        <ele>130.2</ele>
        <time>2015-03-16T19:56:29.394Z</time>
      </trkpt>
      <trkpt lat="48.83841" lon="2.31361">
        <ele>130</ele>
        <time>2015-03-16T19:56:31.423Z</time>
      </trkpt>
      <trkpt lat="48.83842" lon="2.31356">
        <ele>130.1</ele>
        <time>2015-03-16T19:56:32.439Z</time>
      </trkpt>
      <trkpt lat="48.83845" lon="2.3135">
        <ele>129.9</ele>
        <time>2015-03-16T19:56:33.342Z</time>
      </trkpt>
      <trkpt lat="48.83847" lon="2.31344">
        <ele>129.6</ele>
        <time>2015-03-16T19:56:34.361Z</time>
      </trkpt>
      <trkpt lat="48.83851" lon="2.31332">
        <ele>129.3</ele>
        <time>2015-03-16T19:56:36.387Z</time>
      </trkpt>
      <trkpt lat="48.83852" lon="2.31326">
        <ele>129.2</ele>
        <time>2015-03-16T19:56:37.413Z</time>
      </trkpt>
      <trkpt lat="48.83855" lon="2.31313">
        <ele>128.8</ele>
        <time>2015-03-16T19:56:39.339Z</time>
      </trkpt>
      <trkpt lat="48.83856" lon="2.31307">
        <ele>128.7</ele>
        <time>2015-03-16T19:56:40.345Z</time>
      </trkpt>
      <trkpt lat="48.83856" lon="2.313">
        <ele>128.7</ele>
        <time>2015-03-16T19:56:41.355Z</time>
      </trkpt>
      <trkpt lat="48.83856" lon="2.31293">
        <ele>128.4</ele>
        <time>2015-03-16T19:56:42.426Z</time>
      </trkpt>
      <trkpt lat="48.83855" lon="2.31286">
        <ele>128.3</ele>
        <time>2015-03-16T19:56:43.340Z</time>
      </trkpt>
      <trkpt lat="48.83854" lon="2.31278">
        <ele>128.1</ele>
        <time>2015-03-16T19:56:44.372Z</time>
      </trkpt>
      <trkpt lat="48.83855" lon="2.31255">
        <ele>127.3</ele>
        <time>2015-03-16T19:56:47.467Z</time>
      </trkpt>
      <trkpt lat="48.83855" lon="2.31247">
        <ele>127.3</ele>
        <time>2015-03-16T19:56:48.337Z</time>
      </trkpt>
      <trkpt lat="48.83854" lon="2.3124">
        <ele>127.4</ele>
        <time>2015-03-16T19:56:49.332Z</time>
      </trkpt>
      <trkpt lat="48.83853" lon="2.31233">
        <ele>127.4</ele>
        <time>2015-03-16T19:56:50.369Z</time>
      </trkpt>
      <trkpt lat="48.83853" lon="2.31226">
        <ele>127.2</ele>
        <time>2015-03-16T19:56:51.451Z</time>
      </trkpt>
      <trkpt lat="48.83853" lon="2.3122">
        <ele>127.1</ele>
        <time>2015-03-16T19:56:52.392Z</time>
      </trkpt>
      <trkpt lat="48.83855" lon="2.31213">
        <ele>126.3</ele>
        <time>2015-03-16T19:56:53.402Z</time>
      </trkpt>
      <trkpt lat="48.83854" lon="2.312">
        <ele>126.1</ele>
        <time>2015-03-16T19:56:55.310Z</time>
      </trkpt>
      <trkpt lat="48.83853" lon="2.31195">
        <ele>126</ele>
        <time>2015-03-16T19:56:56.346Z</time>
      </trkpt>
      <trkpt lat="48.83852" lon="2.31184">
        <ele>126.1</ele>
        <time>2015-03-16T19:56:58.348Z</time>
      </trkpt>
      <trkpt lat="48.83851" lon="2.31179">
        <ele>126.1</ele>
        <time>2015-03-16T19:56:59.367Z</time>
      </trkpt>
      <trkpt lat="48.83854" lon="2.31167">
        <ele>125.9</ele>
        <time>2015-03-16T19:57:02.386Z</time>
      </trkpt>
      <trkpt lat="48.83856" lon="2.31162">
        <ele>125.8</ele>
        <time>2015-03-16T19:57:03.392Z</time>
      </trkpt>
      <trkpt lat="48.8386" lon="2.31154">
        <ele>126.2</ele>
        <time>2015-03-16T19:57:05.421Z</time>
      </trkpt>
      <trkpt lat="48.83863" lon="2.31149">
        <ele>126.1</ele>
        <time>2015-03-16T19:57:06.366Z</time>
      </trkpt>
      <trkpt lat="48.83866" lon="2.31143">
        <ele>126</ele>
        <time>2015-03-16T19:57:07.342Z</time>
      </trkpt>
      <trkpt lat="48.83869" lon="2.31138">
        <ele>125.8</ele>
        <time>2015-03-16T19:57:08.373Z</time>
      </trkpt>
      <trkpt lat="48.83872" lon="2.31133">
        <ele>125.6</ele>
        <time>2015-03-16T19:57:09.377Z</time>
      </trkpt>
      <trkpt lat="48.83876" lon="2.31127">
        <ele>125.4</ele>
        <time>2015-03-16T19:57:10.384Z</time>
      </trkpt>
      <trkpt lat="48.83879" lon="2.31122">
        <ele>125.5</ele>
        <time>2015-03-16T19:57:11.389Z</time>
      </trkpt>
      <trkpt lat="48.83883" lon="2.31117">
        <ele>125.6</ele>
        <time>2015-03-16T19:57:12.392Z</time>
      </trkpt>
      <trkpt lat="48.83888" lon="2.31112">
        <ele>125.7</ele>
        <time>2015-03-16T19:57:13.334Z</time>
      </trkpt>
      <trkpt lat="48.83892" lon="2.31107">
        <ele>125.7</ele>
        <time>2015-03-16T19:57:14.372Z</time>
      </trkpt>
      <trkpt lat="48.83897" lon="2.31102">
        <ele>125.8</ele>
        <time>2015-03-16T19:57:15.362Z</time>
      </trkpt>
      <trkpt lat="48.83901" lon="2.31098">
        <ele>125.8</ele>
        <time>2015-03-16T19:57:16.377Z</time>
      </trkpt>
      <trkpt lat="48.83905" lon="2.31093">
        <ele>125.8</ele>
        <time>2015-03-16T19:57:17.310Z</time>
      </trkpt>
      <trkpt lat="48.83909" lon="2.31087">
        <ele>125.8</ele>
        <time>2015-03-16T19:57:18.379Z</time>
      </trkpt>
      <trkpt lat="48.83914" lon="2.31081">
        <ele>125.8</ele>
        <time>2015-03-16T19:57:19.408Z</time>
      </trkpt>
      <trkpt lat="48.83918" lon="2.31075">
        <ele>125.8</ele>
        <time>2015-03-16T19:57:20.412Z</time>
      </trkpt>
      <trkpt lat="48.83923" lon="2.31069">
        <ele>125.8</ele>
        <time>2015-03-16T19:57:21.338Z</time>
      </trkpt>
      <trkpt lat="48.83928" lon="2.31063">
        <ele>125.8</ele>
        <time>2015-03-16T19:57:22.332Z</time>
      </trkpt>
      <trkpt lat="48.83932" lon="2.31058">
        <ele>126</ele>
        <time>2015-03-16T19:57:23.363Z</time>
      </trkpt>
      <trkpt lat="48.83937" lon="2.31052">
        <ele>126.1</ele>
        <time>2015-03-16T19:57:24.383Z</time>
      </trkpt>
      <trkpt lat="48.83953" lon="2.31038">
        <ele>126.3</ele>
        <time>2015-03-16T19:57:27.359Z</time>
      </trkpt>
      <trkpt lat="48.83957" lon="2.31033">
        <ele>126.4</ele>
        <time>2015-03-16T19:57:28.389Z</time>
      </trkpt>
      <trkpt lat="48.83961" lon="2.31028">
        <ele>126.5</ele>
        <time>2015-03-16T19:57:29.418Z</time>
      </trkpt>
      <trkpt lat="48.83965" lon="2.31023">
        <ele>126.6</ele>
        <time>2015-03-16T19:57:30.333Z</time>
      </trkpt>
      <trkpt lat="48.8397" lon="2.31018">
        <ele>126.8</ele>
        <time>2015-03-16T19:57:31.351Z</time>
      </trkpt>
      <trkpt lat="48.83974" lon="2.31007">
        <ele>127.2</ele>
        <time>2015-03-16T19:57:33.366Z</time>
      </trkpt>
      <trkpt lat="48.83974" lon="2.31">
        <ele>127.5</ele>
        <time>2015-03-16T19:57:34.369Z</time>
      </trkpt>
      <trkpt lat="48.83977" lon="2.3099">
        <ele>128</ele>
        <time>2015-03-16T19:57:36.395Z</time>
      </trkpt>
      <trkpt lat="48.83982" lon="2.30987">
        <ele>128.4</ele>
        <time>2015-03-16T19:57:37.416Z</time>
      </trkpt>
      <trkpt lat="48.83987" lon="2.30984">
        <ele>128.8</ele>
        <time>2015-03-16T19:57:38.420Z</time>
      </trkpt>
      <trkpt lat="48.83994" lon="2.30981">
        <ele>130.2</ele>
        <time>2015-03-16T19:57:39.326Z</time>
      </trkpt>
      <trkpt lat="48.83999" lon="2.30979">
        <ele>130.9</ele>
        <time>2015-03-16T19:57:40.361Z</time>
      </trkpt>
      <trkpt lat="48.84004" lon="2.30978">
        <ele>130.8</ele>
        <time>2015-03-16T19:57:41.351Z</time>
      </trkpt>
      <trkpt lat="48.8401" lon="2.30975">
        <ele>130.7</ele>
        <time>2015-03-16T19:57:43.370Z</time>
      </trkpt>
      <trkpt lat="48.84015" lon="2.30974">
        <ele>130.8</ele>
        <time>2015-03-16T19:57:44.399Z</time>
      </trkpt>
      <trkpt lat="48.84016" lon="2.30963">
        <ele>128.5</ele>
        <time>2015-03-16T19:57:47.349Z</time>
      </trkpt>
      <trkpt lat="48.84018" lon="2.30958">
        <ele>127.8</ele>
        <time>2015-03-16T19:57:48.358Z</time>
      </trkpt>
      <trkpt lat="48.84019" lon="2.30947">
        <ele>126.8</ele>
        <time>2015-03-16T19:57:50.368Z</time>
      </trkpt>
      <trkpt lat="48.84019" lon="2.30941">
        <ele>126.5</ele>
        <time>2015-03-16T19:57:51.395Z</time>
      </trkpt>
      <trkpt lat="48.84021" lon="2.3093">
        <ele>125.9</ele>
        <time>2015-03-16T19:57:53.351Z</time>
      </trkpt>
      <trkpt lat="48.84024" lon="2.30925">
        <ele>125.5</ele>
        <time>2015-03-16T19:57:54.401Z</time>
      </trkpt>
      <trkpt lat="48.84031" lon="2.30918">
        <ele>124.9</ele>
        <time>2015-03-16T19:57:56.448Z</time>
      </trkpt>
      <trkpt lat="48.84034" lon="2.30916">
        <ele>124.8</ele>
        <time>2015-03-16T19:57:57.358Z</time>
      </trkpt>
      <trkpt lat="48.8404" lon="2.3091">
        <ele>124.2</ele>
        <time>2015-03-16T19:57:59.387Z</time>
      </trkpt>
      <trkpt lat="48.84043" lon="2.30905">
        <ele>123.8</ele>
        <time>2015-03-16T19:58:00.399Z</time>
      </trkpt>
      <trkpt lat="48.84051" lon="2.309">
        <ele>123.1</ele>
        <time>2015-03-16T19:58:02.456Z</time>
      </trkpt>
      <trkpt lat="48.84055" lon="2.30896">
        <ele>122.8</ele>
        <time>2015-03-16T19:58:03.367Z</time>
      </trkpt>
      <trkpt lat="48.84059" lon="2.30885">
        <ele>122.6</ele>
        <time>2015-03-16T19:58:05.397Z</time>
      </trkpt>
      <trkpt lat="48.84063" lon="2.3088">
        <ele>122.8</ele>
        <time>2015-03-16T19:58:06.414Z</time>
      </trkpt>
      <trkpt lat="48.84068" lon="2.30874">
        <ele>123.1</ele>
        <time>2015-03-16T19:58:07.331Z</time>
      </trkpt>
      <trkpt lat="48.84072" lon="2.30869">
        <ele>123.1</ele>
        <time>2015-03-16T19:58:08.362Z</time>
      </trkpt>
      <trkpt lat="48.84077" lon="2.30865">
        <ele>123</ele>
        <time>2015-03-16T19:58:09.366Z</time>
      </trkpt>
      <trkpt lat="48.84082" lon="2.30861">
        <ele>122.7</ele>
        <time>2015-03-16T19:58:10.367Z</time>
      </trkpt>
      <trkpt lat="48.84088" lon="2.30858">
        <ele>122.6</ele>
        <time>2015-03-16T19:58:11.387Z</time>
      </trkpt>
      <trkpt lat="48.84167" lon="2.30819">
        <ele>123.3</ele>
        <time>2015-03-16T19:58:26.420Z</time>
      </trkpt>
      <trkpt lat="48.84173" lon="2.30812">
        <ele>124</ele>
        <time>2015-03-16T19:58:28.329Z</time>
      </trkpt>
      <trkpt lat="48.84176" lon="2.3081">
        <ele>124.5</ele>
        <time>2015-03-16T19:58:29.373Z</time>
      </trkpt>
      <trkpt lat="48.84171" lon="2.30805">
        <ele>124</ele>
        <time>2015-03-16T19:58:31.406Z</time>
      </trkpt>
      <trkpt lat="48.84167" lon="2.30804">
        <ele>123.8</ele>
        <time>2015-03-16T19:58:32.419Z</time>
      </trkpt>
      <trkpt lat="48.84164" lon="2.30801">
        <ele>123.5</ele>
        <time>2015-03-16T19:58:34.366Z</time>
      </trkpt>
      <trkpt lat="48.84162" lon="2.30799">
        <ele>123.5</ele>
        <time>2015-03-16T19:58:35.385Z</time>
      </trkpt>
      <trkpt lat="48.84164" lon="2.30799">
        <ele>123.5</ele>
        <time>2015-03-16T19:58:36.425Z</time>
      </trkpt>
      <trkpt lat="48.84161" lon="2.308">
        <ele>122.3</ele>
        <time>2015-03-16T19:58:45.344Z</time>
      </trkpt>
      <trkpt lat="48.84161" lon="2.308">
        <ele>122.2</ele>
        <time>2015-03-16T19:58:46.358Z</time>
      </trkpt>
      <trkpt lat="48.84161" lon="2.308">
        <ele>122.2</ele>
        <time>2015-03-16T19:58:58.339Z</time>
      </trkpt>
      <trkpt lat="48.84159" lon="2.30794">
        <ele>122.2</ele>
        <time>2015-03-16T19:58:59.334Z</time>
      </trkpt>
      <trkpt lat="48.84165" lon="2.30787">
        <ele>121.9</ele>
        <time>2015-03-16T19:59:05.327Z</time>
      </trkpt>
      <trkpt lat="48.84167" lon="2.30786">
        <ele>121.9</ele>
        <time>2015-03-16T19:59:06.371Z</time>
      </trkpt>
      <trkpt lat="48.84172" lon="2.30783">
        <ele>121.8</ele>
        <time>2015-03-16T19:59:08.432Z</time>
      </trkpt>
      <trkpt lat="48.84175" lon="2.30781">
        <ele>121.8</ele>
        <time>2015-03-16T19:59:09.340Z</time>
      </trkpt>
      <trkpt lat="48.84177" lon="2.3078">
        <ele>121.8</ele>
        <time>2015-03-16T19:59:10.349Z</time>
      </trkpt>
      <trkpt lat="48.84198" lon="2.30769">
        <ele>121.7</ele>
        <time>2015-03-16T19:59:17.350Z</time>
      </trkpt>
      <trkpt lat="48.84203" lon="2.30767">
        <ele>121.7</ele>
        <time>2015-03-16T19:59:18.378Z</time>
      </trkpt>
      <trkpt lat="48.84208" lon="2.30765">
        <ele>121.7</ele>
        <time>2015-03-16T19:59:19.387Z</time>
      </trkpt>
      <trkpt lat="48.84212" lon="2.30763">
        <ele>121.7</ele>
        <time>2015-03-16T19:59:20.408Z</time>
      </trkpt>
      <trkpt lat="48.84217" lon="2.30761">
        <ele>121.6</ele>
        <time>2015-03-16T19:59:21.300Z</time>
      </trkpt>
      <trkpt lat="48.84221" lon="2.30758">
        <ele>121.7</ele>
        <time>2015-03-16T19:59:22.318Z</time>
      </trkpt>
      <trkpt lat="48.84225" lon="2.30755">
        <ele>121.7</ele>
        <time>2015-03-16T19:59:23.322Z</time>
      </trkpt>
      <trkpt lat="48.84229" lon="2.30752">
        <ele>121.7</ele>
        <time>2015-03-16T19:59:24.354Z</time>
      </trkpt>
      <trkpt lat="48.84236" lon="2.30749">
        <ele>121.6</ele>
        <time>2015-03-16T19:59:25.364Z</time>
      </trkpt>
      <trkpt lat="48.84244" lon="2.30741">
        <ele>121.3</ele>
        <time>2015-03-16T19:59:26.370Z</time>
      </trkpt>
      <trkpt lat="48.84251" lon="2.30739">
        <ele>121.1</ele>
        <time>2015-03-16T19:59:29.297Z</time>
      </trkpt>
      <trkpt lat="48.84254" lon="2.30739">
        <ele>121</ele>
        <time>2015-03-16T19:59:30.362Z</time>
      </trkpt>
      <trkpt lat="48.84262" lon="2.3074">
        <ele>120.8</ele>
        <time>2015-03-16T19:59:33.302Z</time>
      </trkpt>
      <trkpt lat="48.84266" lon="2.30739">
        <ele>120.8</ele>
        <time>2015-03-16T19:59:34.344Z</time>
      </trkpt>
      <trkpt lat="48.84269" lon="2.30738">
        <ele>120.8</ele>
        <time>2015-03-16T19:59:35.359Z</time>
      </trkpt>
      <trkpt lat="48.8428" lon="2.30729">
        <ele>120.6</ele>
        <time>2015-03-16T19:59:38.385Z</time>
      </trkpt>
      <trkpt lat="48.84289" lon="2.3072">
        <ele>120.3</ele>
        <time>2015-03-16T19:59:39.293Z</time>
      </trkpt>
      <trkpt lat="48.84296" lon="2.30726">
        <ele>120.3</ele>
        <time>2015-03-16T19:59:42.819Z</time>
      </trkpt>
      <trkpt lat="48.84296" lon="2.30739">
        <ele>120.4</ele>
        <time>2015-03-16T19:59:45.358Z</time>
      </trkpt>
      <trkpt lat="48.84302" lon="2.30742">
        <ele>120.6</ele>
        <time>2015-03-16T19:59:47.318Z</time>
      </trkpt>
      <trkpt lat="48.84307" lon="2.30741">
        <ele>120.6</ele>
        <time>2015-03-16T19:59:48.367Z</time>
      </trkpt>
      <trkpt lat="48.84312" lon="2.30738">
        <ele>120.7</ele>
        <time>2015-03-16T19:59:49.377Z</time>
      </trkpt>
      <trkpt lat="48.84318" lon="2.30735">
        <ele>120.7</ele>
        <time>2015-03-16T19:59:50.422Z</time>
      </trkpt>
      <trkpt lat="48.84323" lon="2.30731">
        <ele>120.7</ele>
        <time>2015-03-16T19:59:51.329Z</time>
      </trkpt>
      <trkpt lat="48.84327" lon="2.30728">
        <ele>120.8</ele>
        <time>2015-03-16T19:59:52.347Z</time>
      </trkpt>
      <trkpt lat="48.84333" lon="2.30724">
        <ele>120.8</ele>
        <time>2015-03-16T19:59:53.850Z</time>
      </trkpt>
      <trkpt lat="48.84347" lon="2.30709">
        <ele>120.4</ele>
        <time>2015-03-16T19:59:54.376Z</time>
      </trkpt>
      <trkpt lat="48.84357" lon="2.30697">
        <ele>120</ele>
        <time>2015-03-16T19:59:55.299Z</time>
      </trkpt>
      <trkpt lat="48.84365" lon="2.30688">
        <ele>119.8</ele>
        <time>2015-03-16T19:59:56.364Z</time>
      </trkpt>
      <trkpt lat="48.8437" lon="2.3068">
        <ele>119.4</ele>
        <time>2015-03-16T19:59:57.413Z</time>
      </trkpt>
      <trkpt lat="48.84376" lon="2.30673">
        <ele>118.9</ele>
        <time>2015-03-16T19:59:58.322Z</time>
      </trkpt>
      <trkpt lat="48.84385" lon="2.30668">
        <ele>115.8</ele>
        <time>2015-03-16T20:00:05.314Z</time>
      </trkpt>
      <trkpt lat="48.84387" lon="2.30667">
        <ele>115.7</ele>
        <time>2015-03-16T20:00:06.361Z</time>
      </trkpt>
      <trkpt lat="48.84402" lon="2.30659">
        <ele>116.5</ele>
        <time>2015-03-16T20:00:12.355Z</time>
      </trkpt>
      <trkpt lat="48.84406" lon="2.30657">
        <ele>116.5</ele>
        <time>2015-03-16T20:00:13.377Z</time>
      </trkpt>
      <trkpt lat="48.84411" lon="2.30657">
        <ele>116.4</ele>
        <time>2015-03-16T20:00:14.447Z</time>
      </trkpt>
      <trkpt lat="48.84416" lon="2.30656">
        <ele>116.4</ele>
        <time>2015-03-16T20:00:15.321Z</time>
      </trkpt>
      <trkpt lat="48.84421" lon="2.30656">
        <ele>116.2</ele>
        <time>2015-03-16T20:00:16.317Z</time>
      </trkpt>
      <trkpt lat="48.84426" lon="2.30655">
        <ele>116.2</ele>
        <time>2015-03-16T20:00:17.336Z</time>
      </trkpt>
      <trkpt lat="48.84433" lon="2.30644">
        <ele>115.5</ele>
        <time>2015-03-16T20:00:18.353Z</time>
      </trkpt>
      <trkpt lat="48.84444" lon="2.30631">
        <ele>115.1</ele>
        <time>2015-03-16T20:00:19.380Z</time>
      </trkpt>
      <trkpt lat="48.84449" lon="2.30626">
        <ele>114.9</ele>
        <time>2015-03-16T20:00:20.382Z</time>
      </trkpt>
      <trkpt lat="48.84453" lon="2.30622">
        <ele>114.8</ele>
        <time>2015-03-16T20:00:21.392Z</time>
      </trkpt>
      <trkpt lat="48.84458" lon="2.30612">
        <ele>114.2</ele>
        <time>2015-03-16T20:00:23.635Z</time>
      </trkpt>
      <trkpt lat="48.84458" lon="2.30606">
        <ele>114</ele>
        <time>2015-03-16T20:00:24.346Z</time>
      </trkpt>
      <trkpt lat="48.84462" lon="2.30597">
        <ele>113.6</ele>
        <time>2015-03-16T20:00:26.382Z</time>
      </trkpt>
      <trkpt lat="48.84464" lon="2.30594">
        <ele>113.5</ele>
        <time>2015-03-16T20:00:27.394Z</time>
      </trkpt>
      <trkpt lat="48.84466" lon="2.3059">
        <ele>113.5</ele>
        <time>2015-03-16T20:00:29.408Z</time>
      </trkpt>
      <trkpt lat="48.84471" lon="2.30586">
        <ele>113.9</ele>
        <time>2015-03-16T20:00:31.326Z</time>
      </trkpt>
      <trkpt lat="48.84475" lon="2.30583">
        <ele>113.7</ele>
        <time>2015-03-16T20:00:32.386Z</time>
      </trkpt>
      <trkpt lat="48.84484" lon="2.30577">
        <ele>113.1</ele>
        <time>2015-03-16T20:00:33.309Z</time>
      </trkpt>
      <trkpt lat="48.84492" lon="2.30573">
        <ele>112.8</ele>
        <time>2015-03-16T20:00:34.337Z</time>
      </trkpt>
      <trkpt lat="48.84498" lon="2.30571">
        <ele>112.7</ele>
        <time>2015-03-16T20:00:35.340Z</time>
      </trkpt>
      <trkpt lat="48.84505" lon="2.30569">
        <ele>112.6</ele>
        <time>2015-03-16T20:00:36.356Z</time>
      </trkpt>
      <trkpt lat="48.84514" lon="2.30566">
        <ele>112.4</ele>
        <time>2015-03-16T20:00:37.359Z</time>
      </trkpt>
      <trkpt lat="48.84522" lon="2.30563">
        <ele>112.3</ele>
        <time>2015-03-16T20:00:38.372Z</time>
      </trkpt>
      <trkpt lat="48.84532" lon="2.30559">
        <ele>112.1</ele>
        <time>2015-03-16T20:00:39.380Z</time>
      </trkpt>
      <trkpt lat="48.84541" lon="2.30557">
        <ele>111.9</ele>
        <time>2015-03-16T20:00:40.385Z</time>
      </trkpt>
      <trkpt lat="48.8455" lon="2.30554">
        <ele>111.7</ele>
        <time>2015-03-16T20:00:41.402Z</time>
      </trkpt>
      <trkpt lat="48.84559" lon="2.30551">
        <ele>111.6</ele>
        <time>2015-03-16T20:00:42.303Z</time>
      </trkpt>
      <trkpt lat="48.84565" lon="2.30548">
        <ele>111.5</ele>
        <time>2015-03-16T20:00:43.341Z</time>
      </trkpt>
      <trkpt lat="48.84572" lon="2.30544">
        <ele>111.4</ele>
        <time>2015-03-16T20:00:44.349Z</time>
      </trkpt>
      <trkpt lat="48.84579" lon="2.30539">
        <ele>111.2</ele>
        <time>2015-03-16T20:00:45.355Z</time>
      </trkpt>
      <trkpt lat="48.84585" lon="2.30535">
        <ele>111.1</ele>
        <time>2015-03-16T20:00:46.360Z</time>
      </trkpt>
      <trkpt lat="48.84592" lon="2.30534">
        <ele>111.1</ele>
        <time>2015-03-16T20:00:47.377Z</time>
      </trkpt>
      <trkpt lat="48.846" lon="2.30532">
        <ele>111</ele>
        <time>2015-03-16T20:00:48.386Z</time>
      </trkpt>
      <trkpt lat="48.84607" lon="2.30531">
        <ele>111</ele>
        <time>2015-03-16T20:00:49.403Z</time>
      </trkpt>
      <trkpt lat="48.84614" lon="2.3053">
        <ele>110.9</ele>
        <time>2015-03-16T20:00:50.415Z</time>
      </trkpt>
      <trkpt lat="48.84621" lon="2.30528">
        <ele>110.9</ele>
        <time>2015-03-16T20:00:51.314Z</time>
      </trkpt>
      <trkpt lat="48.84624" lon="2.30523">
        <ele>110.7</ele>
        <time>2015-03-16T20:00:52.444Z</time>
      </trkpt>
      <trkpt lat="48.84626" lon="2.30512">
        <ele>110.6</ele>
        <time>2015-03-16T20:00:54.346Z</time>
      </trkpt>
      <trkpt lat="48.84627" lon="2.30508">
        <ele>110.7</ele>
        <time>2015-03-16T20:00:55.368Z</time>
      </trkpt>
      <trkpt lat="48.84633" lon="2.30503">
        <ele>110.8</ele>
        <time>2015-03-16T20:00:58.402Z</time>
      </trkpt>
      <trkpt lat="48.84637" lon="2.305">
        <ele>110.5</ele>
        <time>2015-03-16T20:00:59.327Z</time>
      </trkpt>
      <trkpt lat="48.84641" lon="2.30489">
        <ele>110</ele>
        <time>2015-03-16T20:01:02.431Z</time>
      </trkpt>
      <trkpt lat="48.84642" lon="2.30484">
        <ele>109.6</ele>
        <time>2015-03-16T20:01:03.344Z</time>
      </trkpt>
      <trkpt lat="48.84646" lon="2.30479">
        <ele>109.2</ele>
        <time>2015-03-16T20:01:04.363Z</time>
      </trkpt>
      <trkpt lat="48.84649" lon="2.30474">
        <ele>108.9</ele>
        <time>2015-03-16T20:01:05.373Z</time>
      </trkpt>
      <trkpt lat="48.84655" lon="2.30468">
        <ele>108.9</ele>
        <time>2015-03-16T20:01:07.415Z</time>
      </trkpt>
      <trkpt lat="48.84659" lon="2.30466">
        <ele>108.6</ele>
        <time>2015-03-16T20:01:08.332Z</time>
      </trkpt>
      <trkpt lat="48.84664" lon="2.30463">
        <ele>108.6</ele>
        <time>2015-03-16T20:01:09.337Z</time>
      </trkpt>
      <trkpt lat="48.84669" lon="2.3046">
        <ele>108.7</ele>
        <time>2015-03-16T20:01:10.341Z</time>
      </trkpt>
      <trkpt lat="48.84674" lon="2.30456">
        <ele>108.7</ele>
        <time>2015-03-16T20:01:11.345Z</time>
      </trkpt>
      <trkpt lat="48.84679" lon="2.30452">
        <ele>108.8</ele>
        <time>2015-03-16T20:01:12.390Z</time>
      </trkpt>
      <trkpt lat="48.84684" lon="2.30448">
        <ele>108.9</ele>
        <time>2015-03-16T20:01:13.400Z</time>
      </trkpt>
      <trkpt lat="48.84699" lon="2.30435">
        <ele>110.1</ele>
        <time>2015-03-16T20:01:16.315Z</time>
      </trkpt>
      <trkpt lat="48.84704" lon="2.30431">
        <ele>110.6</ele>
        <time>2015-03-16T20:01:17.317Z</time>
      </trkpt>
      <trkpt lat="48.84709" lon="2.30428">
        <ele>110.9</ele>
        <time>2015-03-16T20:01:18.344Z</time>
      </trkpt>
      <trkpt lat="48.84709" lon="2.30428">
        <ele>110.9</ele>
        <time>2015-03-16T20:01:19.307Z</time>
      </trkpt>
      <trkpt lat="48.84719" lon="2.30424">
        <ele>111.5</ele>
        <time>2015-03-16T20:01:20.381Z</time>
      </trkpt>
      <trkpt lat="48.84724" lon="2.30422">
        <ele>111.8</ele>
        <time>2015-03-16T20:01:22.367Z</time>
      </trkpt>
      <trkpt lat="48.8473" lon="2.3042">
        <ele>112.1</ele>
        <time>2015-03-16T20:01:22.396Z</time>
      </trkpt>
      <trkpt lat="48.84726" lon="2.30409">
        <ele>113.6</ele>
        <time>2015-03-16T20:01:25.353Z</time>
      </trkpt>
      <trkpt lat="48.84723" lon="2.30406">
        <ele>114.7</ele>
        <time>2015-03-16T20:01:26.349Z</time>
      </trkpt>
      <trkpt lat="48.84718" lon="2.30398">
        <ele>116.3</ele>
        <time>2015-03-16T20:01:28.393Z</time>
      </trkpt>
      <trkpt lat="48.84716" lon="2.30393">
        <ele>116.7</ele>
        <time>2015-03-16T20:01:29.314Z</time>
      </trkpt>
      <trkpt lat="48.84717" lon="2.30382">
        <ele>117.1</ele>
        <time>2015-03-16T20:01:32.337Z</time>
      </trkpt>
      <trkpt lat="48.84719" lon="2.30379">
        <ele>117</ele>
        <time>2015-03-16T20:01:33.353Z</time>
      </trkpt>
      <trkpt lat="48.84726" lon="2.30373">
        <ele>117</ele>
        <time>2015-03-16T20:01:36.302Z</time>
      </trkpt>
      <trkpt lat="48.84729" lon="2.30372">
        <ele>117</ele>
        <time>2015-03-16T20:01:37.314Z</time>
      </trkpt>
      <trkpt lat="48.84731" lon="2.30371">
        <ele>117.2</ele>
        <time>2015-03-16T20:01:39.321Z</time>
      </trkpt>
      <trkpt lat="48.8473" lon="2.30371">
        <ele>116.7</ele>
        <time>2015-03-16T20:01:40.318Z</time>
      </trkpt>
      <trkpt lat="48.84728" lon="2.30369">
        <ele>116.5</ele>
        <time>2015-03-16T20:01:41.329Z</time>
      </trkpt>
      <trkpt lat="48.84727" lon="2.30359">
        <ele>114.1</ele>
        <time>2015-03-16T20:01:45.516Z</time>
      </trkpt>
      <trkpt lat="48.84731" lon="2.30359">
        <ele>112.8</ele>
        <time>2015-03-16T20:01:46.311Z</time>
      </trkpt>
      <trkpt lat="48.84733" lon="2.30359">
        <ele>112.8</ele>
        <time>2015-03-16T20:01:50.416Z</time>
      </trkpt>
      <trkpt lat="48.84733" lon="2.30357">
        <ele>113</ele>
        <time>2015-03-16T20:01:51.323Z</time>
      </trkpt>
      <trkpt lat="48.84735" lon="2.30355">
        <ele>113.2</ele>
        <time>2015-03-16T20:01:52.323Z</time>
      </trkpt>
      <trkpt lat="48.84733" lon="2.30351">
        <ele>112.6</ele>
        <time>2015-03-16T20:01:59.335Z</time>
      </trkpt>
      <trkpt lat="48.84728" lon="2.30347">
        <ele>111.3</ele>
        <time>2015-03-16T20:02:00.340Z</time>
      </trkpt>
      <trkpt lat="48.84724" lon="2.30339">
        <ele>112.4</ele>
        <time>2015-03-16T20:02:11.300Z</time>
      </trkpt>
      <trkpt lat="48.84724" lon="2.30339">
        <ele>112.3</ele>
        <time>2015-03-16T20:02:12.351Z</time>
      </trkpt>
      <trkpt lat="48.84723" lon="2.3034">
        <ele>112.3</ele>
        <time>2015-03-16T20:02:13.415Z</time>
      </trkpt>
      <trkpt lat="48.84722" lon="2.30347">
        <ele>113.3</ele>
        <time>2015-03-16T20:02:20.426Z</time>
      </trkpt>
      <trkpt lat="48.84722" lon="2.30347">
        <ele>113.4</ele>
        <time>2015-03-16T20:02:21.301Z</time>
      </trkpt>
      <trkpt lat="48.84723" lon="2.30347">
        <ele>113.6</ele>
        <time>2015-03-16T20:02:22.299Z</time>
      </trkpt>
      <trkpt lat="48.84728" lon="2.3034">
        <ele>114.6</ele>
        <time>2015-03-16T20:02:30.374Z</time>
      </trkpt>
      <trkpt lat="48.84729" lon="2.30337">
        <ele>114.6</ele>
        <time>2015-03-16T20:02:31.406Z</time>
      </trkpt>
      <trkpt lat="48.84733" lon="2.30328">
        <ele>114.2</ele>
        <time>2015-03-16T20:02:33.351Z</time>
      </trkpt>
      <trkpt lat="48.84735" lon="2.30322">
        <ele>114.2</ele>
        <time>2015-03-16T20:02:34.640Z</time>
      </trkpt>
      <trkpt lat="48.84737" lon="2.30315">
        <ele>114.4</ele>
        <time>2015-03-16T20:02:35.357Z</time>
      </trkpt>
      <trkpt lat="48.84741" lon="2.30308">
        <ele>114.5</ele>
        <time>2015-03-16T20:02:36.366Z</time>
      </trkpt>
      <trkpt lat="48.84744" lon="2.303">
        <ele>114.7</ele>
        <time>2015-03-16T20:02:37.392Z</time>
      </trkpt>
      <trkpt lat="48.84747" lon="2.30293">
        <ele>114.8</ele>
        <time>2015-03-16T20:02:38.424Z</time>
      </trkpt>
      <trkpt lat="48.84751" lon="2.30285">
        <ele>114.7</ele>
        <time>2015-03-16T20:02:39.296Z</time>
      </trkpt>
      <trkpt lat="48.84755" lon="2.30277">
        <ele>114.5</ele>
        <time>2015-03-16T20:02:40.302Z</time>
      </trkpt>
      <trkpt lat="48.8476" lon="2.30269">
        <ele>114.5</ele>
        <time>2015-03-16T20:02:41.353Z</time>
      </trkpt>
      <trkpt lat="48.84767" lon="2.30262">
        <ele>114.2</ele>
        <time>2015-03-16T20:02:42.380Z</time>
      </trkpt>
      <trkpt lat="48.84772" lon="2.30255">
        <ele>114.1</ele>
        <time>2015-03-16T20:02:43.347Z</time>
      </trkpt>
      <trkpt lat="48.84778" lon="2.30249">
        <ele>114</ele>
        <time>2015-03-16T20:02:44.375Z</time>
      </trkpt>
      <trkpt lat="48.84784" lon="2.30242">
        <ele>113.4</ele>
        <time>2015-03-16T20:02:45.369Z</time>
      </trkpt>
      <trkpt lat="48.84786" lon="2.30236">
        <ele>113.1</ele>
        <time>2015-03-16T20:02:46.388Z</time>
      </trkpt>
      <trkpt lat="48.84783" lon="2.30228">
        <ele>111.3</ele>
        <time>2015-03-16T20:02:47.403Z</time>
      </trkpt>
      <trkpt lat="48.84784" lon="2.30221">
        <ele>111.1</ele>
        <time>2015-03-16T20:02:48.408Z</time>
      </trkpt>
      <trkpt lat="48.84786" lon="2.30214">
        <ele>110.9</ele>
        <time>2015-03-16T20:02:49.345Z</time>
      </trkpt>
      <trkpt lat="48.84788" lon="2.30207">
        <ele>110.7</ele>
        <time>2015-03-16T20:02:50.433Z</time>
      </trkpt>
      <trkpt lat="48.84789" lon="2.30199">
        <ele>110.7</ele>
        <time>2015-03-16T20:02:51.325Z</time>
      </trkpt>
      <trkpt lat="48.84792" lon="2.30192">
        <ele>110.7</ele>
        <time>2015-03-16T20:02:52.326Z</time>
      </trkpt>
      <trkpt lat="48.84795" lon="2.30179">
        <ele>110</ele>
        <time>2015-03-16T20:02:54.373Z</time>
      </trkpt>
      <trkpt lat="48.84797" lon="2.30174">
        <ele>109.6</ele>
        <time>2015-03-16T20:02:55.417Z</time>
      </trkpt>
      <trkpt lat="48.84802" lon="2.30164">
        <ele>109.3</ele>
        <time>2015-03-16T20:02:57.312Z</time>
      </trkpt>
      <trkpt lat="48.84805" lon="2.3016">
        <ele>109.3</ele>
        <time>2015-03-16T20:02:58.359Z</time>
      </trkpt>
      <trkpt lat="48.84811" lon="2.3015">
        <ele>109.1</ele>
        <time>2015-03-16T20:03:00.366Z</time>
      </trkpt>
      <trkpt lat="48.84812" lon="2.30146">
        <ele>108.8</ele>
        <time>2015-03-16T20:03:01.385Z</time>
      </trkpt>
      <trkpt lat="48.84816" lon="2.30137">
        <ele>108.7</ele>
        <time>2015-03-16T20:03:03.407Z</time>
      </trkpt>
      <trkpt lat="48.84819" lon="2.30132">
        <ele>108.7</ele>
        <time>2015-03-16T20:03:04.358Z</time>
      </trkpt>
      <trkpt lat="48.84826" lon="2.30124">
        <ele>108.5</ele>
        <time>2015-03-16T20:03:06.360Z</time>
      </trkpt>
      <trkpt lat="48.8483" lon="2.30119">
        <ele>108.2</ele>
        <time>2015-03-16T20:03:07.394Z</time>
      </trkpt>
      <trkpt lat="48.84833" lon="2.30114">
        <ele>108.1</ele>
        <time>2015-03-16T20:03:08.403Z</time>
      </trkpt>
      <trkpt lat="48.84837" lon="2.3011">
        <ele>107.9</ele>
        <time>2015-03-16T20:03:09.412Z</time>
      </trkpt>
      <trkpt lat="48.84841" lon="2.30105">
        <ele>107.7</ele>
        <time>2015-03-16T20:03:10.419Z</time>
      </trkpt>
      <trkpt lat="48.84847" lon="2.30101">
        <ele>107.5</ele>
        <time>2015-03-16T20:03:11.320Z</time>
      </trkpt>
      <trkpt lat="48.84852" lon="2.30096">
        <ele>107.4</ele>
        <time>2015-03-16T20:03:13.344Z</time>
      </trkpt>
      <trkpt lat="48.84858" lon="2.30092">
        <ele>107.4</ele>
        <time>2015-03-16T20:03:13.377Z</time>
      </trkpt>
      <trkpt lat="48.84864" lon="2.30087">
        <ele>107.3</ele>
        <time>2015-03-16T20:03:14.360Z</time>
      </trkpt>
      <trkpt lat="48.84869" lon="2.30082">
        <ele>107.3</ele>
        <time>2015-03-16T20:03:15.375Z</time>
      </trkpt>
      <trkpt lat="48.84875" lon="2.30079">
        <ele>107.3</ele>
        <time>2015-03-16T20:03:16.388Z</time>
      </trkpt>
      <trkpt lat="48.84882" lon="2.30074">
        <ele>107.1</ele>
        <time>2015-03-16T20:03:17.397Z</time>
      </trkpt>
      <trkpt lat="48.84888" lon="2.3007">
        <ele>107</ele>
        <time>2015-03-16T20:03:18.413Z</time>
      </trkpt>
      <trkpt lat="48.84895" lon="2.30065">
        <ele>106.9</ele>
        <time>2015-03-16T20:03:19.442Z</time>
      </trkpt>
      <trkpt lat="48.84901" lon="2.30059">
        <ele>107</ele>
        <time>2015-03-16T20:03:20.353Z</time>
      </trkpt>
      <trkpt lat="48.84908" lon="2.30053">
        <ele>106.8</ele>
        <time>2015-03-16T20:03:21.377Z</time>
      </trkpt>
      <trkpt lat="48.84914" lon="2.30047">
        <ele>106.8</ele>
        <time>2015-03-16T20:03:22.388Z</time>
      </trkpt>
      <trkpt lat="48.8492" lon="2.30041">
        <ele>106.6</ele>
        <time>2015-03-16T20:03:23.406Z</time>
      </trkpt>
      <trkpt lat="48.84923" lon="2.30035">
        <ele>106.6</ele>
        <time>2015-03-16T20:03:24.337Z</time>
      </trkpt>
      <trkpt lat="48.84929" lon="2.30029">
        <ele>106.4</ele>
        <time>2015-03-16T20:03:25.341Z</time>
      </trkpt>
      <trkpt lat="48.8493" lon="2.30021">
        <ele>106.3</ele>
        <time>2015-03-16T20:03:26.359Z</time>
      </trkpt>
      <trkpt lat="48.84931" lon="2.30012">
        <ele>106.3</ele>
        <time>2015-03-16T20:03:27.372Z</time>
      </trkpt>
      <trkpt lat="48.84934" lon="2.30003">
        <ele>106.2</ele>
        <time>2015-03-16T20:03:28.407Z</time>
      </trkpt>
      <trkpt lat="48.84936" lon="2.29995">
        <ele>106.2</ele>
        <time>2015-03-16T20:03:29.410Z</time>
      </trkpt>
      <trkpt lat="48.84937" lon="2.29982">
        <ele>106</ele>
        <time>2015-03-16T20:03:31.344Z</time>
      </trkpt>
      <trkpt lat="48.84939" lon="2.29975">
        <ele>106.1</ele>
        <time>2015-03-16T20:03:32.358Z</time>
      </trkpt>
      <trkpt lat="48.84938" lon="2.29967">
        <ele>105.9</ele>
        <time>2015-03-16T20:03:33.373Z</time>
      </trkpt>
      <trkpt lat="48.84938" lon="2.29959">
        <ele>105.7</ele>
        <time>2015-03-16T20:03:34.382Z</time>
      </trkpt>
      <trkpt lat="48.84938" lon="2.29951">
        <ele>105.6</ele>
        <time>2015-03-16T20:03:35.306Z</time>
      </trkpt>
      <trkpt lat="48.84939" lon="2.29943">
        <ele>105.5</ele>
        <time>2015-03-16T20:03:36.341Z</time>
      </trkpt>
      <trkpt lat="48.8494" lon="2.29935">
        <ele>105.3</ele>
        <time>2015-03-16T20:03:37.358Z</time>
      </trkpt>
      <trkpt lat="48.84942" lon="2.29926">
        <ele>104.9</ele>
        <time>2015-03-16T20:03:38.369Z</time>
      </trkpt>
      <trkpt lat="48.84943" lon="2.29918">
        <ele>104.7</ele>
        <time>2015-03-16T20:03:39.383Z</time>
      </trkpt>
      <trkpt lat="48.84944" lon="2.2991">
        <ele>104.5</ele>
        <time>2015-03-16T20:03:40.350Z</time>
      </trkpt>
      <trkpt lat="48.84946" lon="2.29903">
        <ele>104.2</ele>
        <time>2015-03-16T20:03:41.356Z</time>
      </trkpt>
      <trkpt lat="48.84947" lon="2.29895">
        <ele>103.9</ele>
        <time>2015-03-16T20:03:42.359Z</time>
      </trkpt>
      <trkpt lat="48.8495" lon="2.29883">
        <ele>103.4</ele>
        <time>2015-03-16T20:03:44.371Z</time>
      </trkpt>
      <trkpt lat="48.84946" lon="2.29873">
        <ele>102.1</ele>
        <time>2015-03-16T20:03:45.376Z</time>
      </trkpt>
      <trkpt lat="48.84931" lon="2.2986">
        <ele>99.5</ele>
        <time>2015-03-16T20:03:46.379Z</time>
      </trkpt>
      <trkpt lat="48.84914" lon="2.29847">
        <ele>96.8</ele>
        <time>2015-03-16T20:03:47.390Z</time>
      </trkpt>
      <trkpt lat="48.84912" lon="2.2984">
        <ele>96.4</ele>
        <time>2015-03-16T20:03:48.401Z</time>
      </trkpt>
      <trkpt lat="48.84915" lon="2.29832">
        <ele>97.1</ele>
        <time>2015-03-16T20:03:49.405Z</time>
      </trkpt>
      <trkpt lat="48.84916" lon="2.29829">
        <ele>97.3</ele>
        <time>2015-03-16T20:03:50.410Z</time>
      </trkpt>
      <trkpt lat="48.84917" lon="2.29827">
        <ele>97.6</ele>
        <time>2015-03-16T20:03:51.437Z</time>
      </trkpt>
      <trkpt lat="48.84916" lon="2.29823">
        <ele>98.6</ele>
        <time>2015-03-16T20:03:53.315Z</time>
      </trkpt>
      <trkpt lat="48.84916" lon="2.29819">
        <ele>99.8</ele>
        <time>2015-03-16T20:03:54.400Z</time>
      </trkpt>
      <trkpt lat="48.84916" lon="2.2981">
        <ele>101.7</ele>
        <time>2015-03-16T20:03:56.418Z</time>
      </trkpt>
      <trkpt lat="48.84917" lon="2.29806">
        <ele>102.5</ele>
        <time>2015-03-16T20:03:57.472Z</time>
      </trkpt>
      <trkpt lat="48.8492" lon="2.29796">
        <ele>104.1</ele>
        <time>2015-03-16T20:03:59.369Z</time>
      </trkpt>
      <trkpt lat="48.84923" lon="2.29792">
        <ele>104.4</ele>
        <time>2015-03-16T20:04:00.377Z</time>
      </trkpt>
      <trkpt lat="48.84931" lon="2.29785">
        <ele>104.7</ele>
        <time>2015-03-16T20:04:02.436Z</time>
      </trkpt>
      <trkpt lat="48.84935" lon="2.2978">
        <ele>104.7</ele>
        <time>2015-03-16T20:04:03.347Z</time>
      </trkpt>
      <trkpt lat="48.84939" lon="2.29773">
        <ele>104.9</ele>
        <time>2015-03-16T20:04:04.372Z</time>
      </trkpt>
      <trkpt lat="48.84944" lon="2.29766">
        <ele>105.1</ele>
        <time>2015-03-16T20:04:05.365Z</time>
      </trkpt>
      <trkpt lat="48.8495" lon="2.29759">
        <ele>105.4</ele>
        <time>2015-03-16T20:04:06.414Z</time>
      </trkpt>
      <trkpt lat="48.84957" lon="2.29752">
        <ele>105.5</ele>
        <time>2015-03-16T20:04:07.393Z</time>
      </trkpt>
      <trkpt lat="48.84964" lon="2.29744">
        <ele>105.7</ele>
        <time>2015-03-16T20:04:08.415Z</time>
      </trkpt>
      <trkpt lat="48.8497" lon="2.29735">
        <ele>105.6</ele>
        <time>2015-03-16T20:04:09.351Z</time>
      </trkpt>
      <trkpt lat="48.84974" lon="2.29725">
        <ele>105.6</ele>
        <time>2015-03-16T20:04:10.359Z</time>
      </trkpt>
      <trkpt lat="48.84977" lon="2.29715">
        <ele>105.6</ele>
        <time>2015-03-16T20:04:11.350Z</time>
      </trkpt>
      <trkpt lat="48.8498" lon="2.29703">
        <ele>105.5</ele>
        <time>2015-03-16T20:04:12.351Z</time>
      </trkpt>
      <trkpt lat="48.84983" lon="2.29692">
        <ele>105.3</ele>
        <time>2015-03-16T20:04:13.368Z</time>
      </trkpt>
      <trkpt lat="48.84988" lon="2.29678">
        <ele>104.1</ele>
        <time>2015-03-16T20:04:14.394Z</time>
      </trkpt>
      <trkpt lat="48.84993" lon="2.29664">
        <ele>102.9</ele>
        <time>2015-03-16T20:04:15.387Z</time>
      </trkpt>
      <trkpt lat="48.84999" lon="2.29652">
        <ele>102.3</ele>
        <time>2015-03-16T20:04:16.341Z</time>
      </trkpt>
      <trkpt lat="48.85008" lon="2.29642">
        <ele>102.1</ele>
        <time>2015-03-16T20:04:17.354Z</time>
      </trkpt>
      <trkpt lat="48.85018" lon="2.29634">
        <ele>102.3</ele>
        <time>2015-03-16T20:04:18.377Z</time>
      </trkpt>
      <trkpt lat="48.8503" lon="2.29626">
        <ele>102.9</ele>
        <time>2015-03-16T20:04:19.386Z</time>
      </trkpt>
      <trkpt lat="48.85042" lon="2.29617">
        <ele>103.7</ele>
        <time>2015-03-16T20:04:20.392Z</time>
      </trkpt>
      <trkpt lat="48.85048" lon="2.2961">
        <ele>105.2</ele>
        <time>2015-03-16T20:04:21.344Z</time>
      </trkpt>
      <trkpt lat="48.85053" lon="2.29602">
        <ele>105.9</ele>
        <time>2015-03-16T20:04:22.394Z</time>
      </trkpt>
      <trkpt lat="48.85055" lon="2.29593">
        <ele>106</ele>
        <time>2015-03-16T20:04:23.399Z</time>
      </trkpt>
      <trkpt lat="48.8506" lon="2.29584">
        <ele>105.5</ele>
        <time>2015-03-16T20:04:24.379Z</time>
      </trkpt>
      <trkpt lat="48.85068" lon="2.29575">
        <ele>106.9</ele>
        <time>2015-03-16T20:04:25.332Z</time>
      </trkpt>
      <trkpt lat="48.85074" lon="2.29565">
        <ele>107.7</ele>
        <time>2015-03-16T20:04:26.397Z</time>
      </trkpt>
      <trkpt lat="48.85081" lon="2.29555">
        <ele>108.3</ele>
        <time>2015-03-16T20:04:27.404Z</time>
      </trkpt>
      <trkpt lat="48.85085" lon="2.29546">
        <ele>108.2</ele>
        <time>2015-03-16T20:04:28.320Z</time>
      </trkpt>
      <trkpt lat="48.85089" lon="2.29537">
        <ele>108.4</ele>
        <time>2015-03-16T20:04:29.378Z</time>
      </trkpt>
      <trkpt lat="48.85094" lon="2.29527">
        <ele>108.7</ele>
        <time>2015-03-16T20:04:30.325Z</time>
      </trkpt>
      <trkpt lat="48.85096" lon="2.29517">
        <ele>109.2</ele>
        <time>2015-03-16T20:04:31.423Z</time>
      </trkpt>
      <trkpt lat="48.85099" lon="2.29507">
        <ele>109</ele>
        <time>2015-03-16T20:04:32.450Z</time>
      </trkpt>
      <trkpt lat="48.851" lon="2.29496">
        <ele>109.3</ele>
        <time>2015-03-16T20:04:33.331Z</time>
      </trkpt>
      <trkpt lat="48.85098" lon="2.29483">
        <ele>108.7</ele>
        <time>2015-03-16T20:04:34.346Z</time>
      </trkpt>
      <trkpt lat="48.85095" lon="2.29471">
        <ele>107.7</ele>
        <time>2015-03-16T20:04:35.355Z</time>
      </trkpt>
      <trkpt lat="48.85094" lon="2.2946">
        <ele>107.4</ele>
        <time>2015-03-16T20:04:36.362Z</time>
      </trkpt>
      <trkpt lat="48.85094" lon="2.29449">
        <ele>107.1</ele>
        <time>2015-03-16T20:04:37.393Z</time>
      </trkpt>
      <trkpt lat="48.85095" lon="2.29439">
        <ele>106.9</ele>
        <time>2015-03-16T20:04:38.420Z</time>
      </trkpt>
      <trkpt lat="48.85093" lon="2.29429">
        <ele>106.5</ele>
        <time>2015-03-16T20:04:39.402Z</time>
      </trkpt>
      <trkpt lat="48.85092" lon="2.29419">
        <ele>106.2</ele>
        <time>2015-03-16T20:04:40.403Z</time>
      </trkpt>
      <trkpt lat="48.85091" lon="2.29406">
        <ele>105.5</ele>
        <time>2015-03-16T20:04:41.420Z</time>
      </trkpt>
      <trkpt lat="48.8509" lon="2.29394">
        <ele>104.8</ele>
        <time>2015-03-16T20:04:42.360Z</time>
      </trkpt>
      <trkpt lat="48.85089" lon="2.29383">
        <ele>103.7</ele>
        <time>2015-03-16T20:04:43.335Z</time>
      </trkpt>
      <trkpt lat="48.85089" lon="2.29373">
        <ele>103.3</ele>
        <time>2015-03-16T20:04:44.369Z</time>
      </trkpt>
      <trkpt lat="48.85091" lon="2.29363">
        <ele>103</ele>
        <time>2015-03-16T20:04:45.412Z</time>
      </trkpt>
      <trkpt lat="48.85092" lon="2.29353">
        <ele>103</ele>
        <time>2015-03-16T20:04:46.336Z</time>
      </trkpt>
      <trkpt lat="48.85093" lon="2.29344">
        <ele>102.6</ele>
        <time>2015-03-16T20:04:47.362Z</time>
      </trkpt>
      <trkpt lat="48.85094" lon="2.29336">
        <ele>102.1</ele>
        <time>2015-03-16T20:04:48.352Z</time>
      </trkpt>
      <trkpt lat="48.85094" lon="2.29327">
        <ele>101.7</ele>
        <time>2015-03-16T20:04:49.375Z</time>
      </trkpt>
      <trkpt lat="48.85095" lon="2.29319">
        <ele>100.9</ele>
        <time>2015-03-16T20:04:50.378Z</time>
      </trkpt>
      <trkpt lat="48.85096" lon="2.29312">
        <ele>100.6</ele>
        <time>2015-03-16T20:04:51.387Z</time>
      </trkpt>
      <trkpt lat="48.85098" lon="2.29306">
        <ele>100.1</ele>
        <time>2015-03-16T20:04:52.394Z</time>
      </trkpt>
      <trkpt lat="48.851" lon="2.293">
        <ele>99.8</ele>
        <time>2015-03-16T20:04:53.437Z</time>
      </trkpt>
      <trkpt lat="48.85101" lon="2.29288">
        <ele>100</ele>
        <time>2015-03-16T20:04:55.321Z</time>
      </trkpt>
      <trkpt lat="48.85101" lon="2.29282">
        <ele>99.9</ele>
        <time>2015-03-16T20:04:56.468Z</time>
      </trkpt>
      <trkpt lat="48.851" lon="2.29271">
        <ele>99.9</ele>
        <time>2015-03-16T20:04:58.349Z</time>
      </trkpt>
      <trkpt lat="48.85098" lon="2.29266">
        <ele>99.7</ele>
        <time>2015-03-16T20:04:59.398Z</time>
      </trkpt>
      <trkpt lat="48.85092" lon="2.29257">
        <ele>99.2</ele>
        <time>2015-03-16T20:05:01.358Z</time>
      </trkpt>
      <trkpt lat="48.85092" lon="2.29255">
        <ele>99.2</ele>
        <time>2015-03-16T20:05:02.471Z</time>
      </trkpt>
      <trkpt lat="48.85089" lon="2.29248">
        <ele>99.5</ele>
        <time>2015-03-16T20:05:12.407Z</time>
      </trkpt>
      <trkpt lat="48.8509" lon="2.29242">
        <ele>99.2</ele>
        <time>2015-03-16T20:05:13.522Z</time>
      </trkpt>
      <trkpt lat="48.85095" lon="2.29235">
        <ele>99.5</ele>
        <time>2015-03-16T20:05:15.395Z</time>
      </trkpt>
      <trkpt lat="48.85097" lon="2.29232">
        <ele>99.8</ele>
        <time>2015-03-16T20:05:16.398Z</time>
      </trkpt>
      <trkpt lat="48.85102" lon="2.29226">
        <ele>99.1</ele>
        <time>2015-03-16T20:05:18.337Z</time>
      </trkpt>
      <trkpt lat="48.85105" lon="2.29223">
        <ele>98.5</ele>
        <time>2015-03-16T20:05:19.361Z</time>
      </trkpt>
      <trkpt lat="48.8511" lon="2.29221">
        <ele>98</ele>
        <time>2015-03-16T20:05:20.443Z</time>
      </trkpt>
      <trkpt lat="48.85116" lon="2.29219">
        <ele>97.6</ele>
        <time>2015-03-16T20:05:21.331Z</time>
      </trkpt>
      <trkpt lat="48.85123" lon="2.29217">
        <ele>97.3</ele>
        <time>2015-03-16T20:05:22.345Z</time>
      </trkpt>
      <trkpt lat="48.85129" lon="2.29213">
        <ele>97.5</ele>
        <time>2015-03-16T20:05:23.371Z</time>
      </trkpt>
      <trkpt lat="48.85132" lon="2.29207">
        <ele>97.9</ele>
        <time>2015-03-16T20:05:24.374Z</time>
      </trkpt>
      <trkpt lat="48.85137" lon="2.29201">
        <ele>98.7</ele>
        <time>2015-03-16T20:05:25.386Z</time>
      </trkpt>
      <trkpt lat="48.85144" lon="2.29194">
        <ele>98.9</ele>
        <time>2015-03-16T20:05:26.427Z</time>
      </trkpt>
      <trkpt lat="48.85152" lon="2.29189">
        <ele>99.1</ele>
        <time>2015-03-16T20:05:27.311Z</time>
      </trkpt>
      <trkpt lat="48.85158" lon="2.29183">
        <ele>98.8</ele>
        <time>2015-03-16T20:05:28.332Z</time>
      </trkpt>
      <trkpt lat="48.85163" lon="2.29176">
        <ele>99</ele>
        <time>2015-03-16T20:05:29.354Z</time>
      </trkpt>
      <trkpt lat="48.85169" lon="2.29169">
        <ele>99.3</ele>
        <time>2015-03-16T20:05:30.387Z</time>
      </trkpt>
      <trkpt lat="48.85171" lon="2.29162">
        <ele>99.9</ele>
        <time>2015-03-16T20:05:31.399Z</time>
      </trkpt>
      <trkpt lat="48.85172" lon="2.29152">
        <ele>100.5</ele>
        <time>2015-03-16T20:05:32.415Z</time>
      </trkpt>
      <trkpt lat="48.85172" lon="2.29144">
        <ele>100.9</ele>
        <time>2015-03-16T20:05:33.455Z</time>
      </trkpt>
      <trkpt lat="48.85171" lon="2.29136">
        <ele>101.4</ele>
        <time>2015-03-16T20:05:34.344Z</time>
      </trkpt>
      <trkpt lat="48.85171" lon="2.29127">
        <ele>102</ele>
        <time>2015-03-16T20:05:35.334Z</time>
      </trkpt>
      <trkpt lat="48.85176" lon="2.29119">
        <ele>102</ele>
        <time>2015-03-16T20:05:36.370Z</time>
      </trkpt>
      <trkpt lat="48.85184" lon="2.29112">
        <ele>102</ele>
        <time>2015-03-16T20:05:37.414Z</time>
      </trkpt>
      <trkpt lat="48.85195" lon="2.29107">
        <ele>102</ele>
        <time>2015-03-16T20:05:38.427Z</time>
      </trkpt>
      <trkpt lat="48.85205" lon="2.291">
        <ele>102.1</ele>
        <time>2015-03-16T20:05:39.355Z</time>
      </trkpt>
      <trkpt lat="48.85212" lon="2.29092">
        <ele>102.4</ele>
        <time>2015-03-16T20:05:40.337Z</time>
      </trkpt>
      <trkpt lat="48.85215" lon="2.29084">
        <ele>102.6</ele>
        <time>2015-03-16T20:05:41.352Z</time>
      </trkpt>
      <trkpt lat="48.85219" lon="2.29077">
        <ele>103.1</ele>
        <time>2015-03-16T20:05:42.385Z</time>
      </trkpt>
      <trkpt lat="48.85224" lon="2.29071">
        <ele>103</ele>
        <time>2015-03-16T20:05:43.361Z</time>
      </trkpt>
      <trkpt lat="48.85225" lon="2.29062">
        <ele>103</ele>
        <time>2015-03-16T20:05:44.375Z</time>
      </trkpt>
      <trkpt lat="48.85223" lon="2.29054">
        <ele>106.2</ele>
        <time>2015-03-16T20:06:02.395Z</time>
      </trkpt>
      <trkpt lat="48.8524" lon="2.29048">
        <ele>109.9</ele>
        <time>2015-03-16T20:06:03.392Z</time>
      </trkpt>
      <trkpt lat="48.85243" lon="2.29039">
        <ele>109.8</ele>
        <time>2015-03-16T20:06:05.374Z</time>
      </trkpt>
      <trkpt lat="48.85245" lon="2.29034">
        <ele>110.3</ele>
        <time>2015-03-16T20:06:06.323Z</time>
      </trkpt>
      <trkpt lat="48.8525" lon="2.29029">
        <ele>110.7</ele>
        <time>2015-03-16T20:06:07.345Z</time>
      </trkpt>
      <trkpt lat="48.85255" lon="2.29025">
        <ele>111</ele>
        <time>2015-03-16T20:06:08.386Z</time>
      </trkpt>
      <trkpt lat="48.85259" lon="2.2902">
        <ele>111.4</ele>
        <time>2015-03-16T20:06:09.321Z</time>
      </trkpt>
      <trkpt lat="48.85262" lon="2.29017">
        <ele>111.5</ele>
        <time>2015-03-16T20:06:10.333Z</time>
      </trkpt>
      <trkpt lat="48.85267" lon="2.29007">
        <ele>111.3</ele>
        <time>2015-03-16T20:06:12.351Z</time>
      </trkpt>
      <trkpt lat="48.85271" lon="2.29002">
        <ele>111.1</ele>
        <time>2015-03-16T20:06:13.375Z</time>
      </trkpt>
      <trkpt lat="48.85277" lon="2.28996">
        <ele>111.3</ele>
        <time>2015-03-16T20:06:14.385Z</time>
      </trkpt>
      <trkpt lat="48.85282" lon="2.2899">
        <ele>111.5</ele>
        <time>2015-03-16T20:06:15.409Z</time>
      </trkpt>
      <trkpt lat="48.85287" lon="2.28984">
        <ele>111.5</ele>
        <time>2015-03-16T20:06:16.328Z</time>
      </trkpt>
      <trkpt lat="48.85294" lon="2.28979">
        <ele>111.7</ele>
        <time>2015-03-16T20:06:17.379Z</time>
      </trkpt>
      <trkpt lat="48.85306" lon="2.28967">
        <ele>110.7</ele>
        <time>2015-03-16T20:06:20.333Z</time>
      </trkpt>
      <trkpt lat="48.85311" lon="2.28959">
        <ele>110.4</ele>
        <time>2015-03-16T20:06:22.330Z</time>
      </trkpt>
      <trkpt lat="48.85313" lon="2.28956">
        <ele>110.1</ele>
        <time>2015-03-16T20:06:23.360Z</time>
      </trkpt>
      <trkpt lat="48.85317" lon="2.28948">
        <ele>109.5</ele>
        <time>2015-03-16T20:06:25.378Z</time>
      </trkpt>
      <trkpt lat="48.8532" lon="2.28944">
        <ele>109.2</ele>
        <time>2015-03-16T20:06:26.382Z</time>
      </trkpt>
      <trkpt lat="48.85324" lon="2.28941">
        <ele>108.8</ele>
        <time>2015-03-16T20:06:27.397Z</time>
      </trkpt>
      <trkpt lat="48.85328" lon="2.28937">
        <ele>108.5</ele>
        <time>2015-03-16T20:06:28.403Z</time>
      </trkpt>
      <trkpt lat="48.85332" lon="2.28935">
        <ele>108</ele>
        <time>2015-03-16T20:06:29.352Z</time>
      </trkpt>
      <trkpt lat="48.85338" lon="2.28932">
        <ele>107.7</ele>
        <time>2015-03-16T20:06:30.362Z</time>
      </trkpt>
      <trkpt lat="48.85346" lon="2.28927">
        <ele>107.1</ele>
        <time>2015-03-16T20:06:31.366Z</time>
      </trkpt>
      <trkpt lat="48.85353" lon="2.28924">
        <ele>106.6</ele>
        <time>2015-03-16T20:06:32.371Z</time>
      </trkpt>
      <trkpt lat="48.85353" lon="2.28924">
        <ele>106.6</ele>
        <time>2015-03-16T20:06:32.468Z</time>
      </trkpt>
      <trkpt lat="48.85427" lon="2.28898">
        <ele>107</ele>
        <time>2015-03-16T20:06:45.371Z</time>
      </trkpt>
      <trkpt lat="48.8543" lon="2.28894">
        <ele>109.1</ele>
        <time>2015-03-16T20:07:27.395Z</time>
      </trkpt>
      <trkpt lat="48.85421" lon="2.28856">
        <ele>122.7</ele>
        <time>2015-03-16T20:07:28.428Z</time>
      </trkpt>
      <trkpt lat="48.85416" lon="2.2885">
        <ele>120.5</ele>
        <time>2015-03-16T20:07:31.379Z</time>
      </trkpt>
      <trkpt lat="48.85415" lon="2.28846">
        <ele>119.8</ele>
        <time>2015-03-16T20:07:32.404Z</time>
      </trkpt>
      <trkpt lat="48.85408" lon="2.2884">
        <ele>117.7</ele>
        <time>2015-03-16T20:07:34.338Z</time>
      </trkpt>
      <trkpt lat="48.85404" lon="2.28836">
        <ele>116.7</ele>
        <time>2015-03-16T20:07:35.366Z</time>
      </trkpt>
      <trkpt lat="48.854" lon="2.28831">
        <ele>115.8</ele>
        <time>2015-03-16T20:07:36.394Z</time>
      </trkpt>
      <trkpt lat="48.85396" lon="2.28826">
        <ele>115.3</ele>
        <time>2015-03-16T20:07:37.410Z</time>
      </trkpt>
      <trkpt lat="48.85393" lon="2.28818">
        <ele>114.5</ele>
        <time>2015-03-16T20:07:38.441Z</time>
      </trkpt>
      <trkpt lat="48.85389" lon="2.28812">
        <ele>113.9</ele>
        <time>2015-03-16T20:07:39.344Z</time>
      </trkpt>
      <trkpt lat="48.85383" lon="2.28807">
        <ele>113</ele>
        <time>2015-03-16T20:07:40.320Z</time>
      </trkpt>
      <trkpt lat="48.85378" lon="2.288">
        <ele>112.8</ele>
        <time>2015-03-16T20:07:41.317Z</time>
      </trkpt>
      <trkpt lat="48.85373" lon="2.28794">
        <ele>112.1</ele>
        <time>2015-03-16T20:07:42.321Z</time>
      </trkpt>
      <trkpt lat="48.85369" lon="2.28786">
        <ele>111.4</ele>
        <time>2015-03-16T20:07:43.339Z</time>
      </trkpt>
      <trkpt lat="48.85366" lon="2.28776">
        <ele>111.1</ele>
        <time>2015-03-16T20:07:44.365Z</time>
      </trkpt>
      <trkpt lat="48.85363" lon="2.28768">
        <ele>109.6</ele>
        <time>2015-03-16T20:07:45.368Z</time>
      </trkpt>
      <trkpt lat="48.85358" lon="2.2876">
        <ele>109.4</ele>
        <time>2015-03-16T20:07:46.400Z</time>
      </trkpt>
      <trkpt lat="48.85353" lon="2.28753">
        <ele>108.9</ele>
        <time>2015-03-16T20:07:47.293Z</time>
      </trkpt>
      <trkpt lat="48.85349" lon="2.28746">
        <ele>107.7</ele>
        <time>2015-03-16T20:07:48.324Z</time>
      </trkpt>
      <trkpt lat="48.8534" lon="2.28731">
        <ele>106.5</ele>
        <time>2015-03-16T20:07:50.374Z</time>
      </trkpt>
      <trkpt lat="48.85335" lon="2.28724">
        <ele>106</ele>
        <time>2015-03-16T20:07:51.417Z</time>
      </trkpt>
      <trkpt lat="48.85331" lon="2.28717">
        <ele>105.5</ele>
        <time>2015-03-16T20:07:52.320Z</time>
      </trkpt>
      <trkpt lat="48.85325" lon="2.28711">
        <ele>105</ele>
        <time>2015-03-16T20:07:53.370Z</time>
      </trkpt>
      <trkpt lat="48.8532" lon="2.28705">
        <ele>104.3</ele>
        <time>2015-03-16T20:07:54.381Z</time>
      </trkpt>
      <trkpt lat="48.85315" lon="2.28698">
        <ele>103.3</ele>
        <time>2015-03-16T20:07:55.366Z</time>
      </trkpt>
      <trkpt lat="48.8531" lon="2.28692">
        <ele>102.6</ele>
        <time>2015-03-16T20:07:56.364Z</time>
      </trkpt>
      <trkpt lat="48.85306" lon="2.28685">
        <ele>102</ele>
        <time>2015-03-16T20:07:57.374Z</time>
      </trkpt>
      <trkpt lat="48.85302" lon="2.28677">
        <ele>101.3</ele>
        <time>2015-03-16T20:07:58.394Z</time>
      </trkpt>
      <trkpt lat="48.85298" lon="2.2867">
        <ele>100.4</ele>
        <time>2015-03-16T20:07:59.297Z</time>
      </trkpt>
      <trkpt lat="48.85293" lon="2.28665">
        <ele>99.6</ele>
        <time>2015-03-16T20:08:00.324Z</time>
      </trkpt>
      <trkpt lat="48.85288" lon="2.2866">
        <ele>98.7</ele>
        <time>2015-03-16T20:08:01.358Z</time>
      </trkpt>
      <trkpt lat="48.85285" lon="2.28652">
        <ele>97.8</ele>
        <time>2015-03-16T20:08:02.371Z</time>
      </trkpt>
      <trkpt lat="48.85281" lon="2.28647">
        <ele>97.4</ele>
        <time>2015-03-16T20:08:03.393Z</time>
      </trkpt>
      <trkpt lat="48.85278" lon="2.2864">
        <ele>96.5</ele>
        <time>2015-03-16T20:08:04.312Z</time>
      </trkpt>
      <trkpt lat="48.85275" lon="2.28634">
        <ele>95.6</ele>
        <time>2015-03-16T20:08:05.324Z</time>
      </trkpt>
      <trkpt lat="48.8527" lon="2.28629">
        <ele>94.9</ele>
        <time>2015-03-16T20:08:06.342Z</time>
      </trkpt>
      <trkpt lat="48.85266" lon="2.28625">
        <ele>94.2</ele>
        <time>2015-03-16T20:08:07.351Z</time>
      </trkpt>
      <trkpt lat="48.85261" lon="2.2862">
        <ele>93.6</ele>
        <time>2015-03-16T20:08:08.364Z</time>
      </trkpt>
      <trkpt lat="48.85254" lon="2.28618">
        <ele>93.4</ele>
        <time>2015-03-16T20:08:09.372Z</time>
      </trkpt>
      <trkpt lat="48.85247" lon="2.28615">
        <ele>93</ele>
        <time>2015-03-16T20:08:10.385Z</time>
      </trkpt>
      <trkpt lat="48.85239" lon="2.28612">
        <ele>92.5</ele>
        <time>2015-03-16T20:08:11.401Z</time>
      </trkpt>
      <trkpt lat="48.85232" lon="2.28607">
        <ele>92</ele>
        <time>2015-03-16T20:08:12.422Z</time>
      </trkpt>
      <trkpt lat="48.85226" lon="2.28602">
        <ele>91.7</ele>
        <time>2015-03-16T20:08:13.319Z</time>
      </trkpt>
      <trkpt lat="48.8522" lon="2.28595">
        <ele>91.6</ele>
        <time>2015-03-16T20:08:14.458Z</time>
      </trkpt>
      <trkpt lat="48.85215" lon="2.28587">
        <ele>91.5</ele>
        <time>2015-03-16T20:08:15.340Z</time>
      </trkpt>
      <trkpt lat="48.8521" lon="2.28578">
        <ele>91.2</ele>
        <time>2015-03-16T20:08:16.350Z</time>
      </trkpt>
      <trkpt lat="48.85204" lon="2.2857">
        <ele>91.2</ele>
        <time>2015-03-16T20:08:17.354Z</time>
      </trkpt>
      <trkpt lat="48.85198" lon="2.28562">
        <ele>90.8</ele>
        <time>2015-03-16T20:08:18.359Z</time>
      </trkpt>
      <trkpt lat="48.8519" lon="2.28556">
        <ele>90.5</ele>
        <time>2015-03-16T20:08:19.363Z</time>
      </trkpt>
      <trkpt lat="48.85182" lon="2.28551">
        <ele>90</ele>
        <time>2015-03-16T20:08:20.408Z</time>
      </trkpt>
      <trkpt lat="48.85177" lon="2.28543">
        <ele>89.6</ele>
        <time>2015-03-16T20:08:21.407Z</time>
      </trkpt>
      <trkpt lat="48.85171" lon="2.28536">
        <ele>89.3</ele>
        <time>2015-03-16T20:08:22.421Z</time>
      </trkpt>
      <trkpt lat="48.85166" lon="2.28528">
        <ele>88.9</ele>
        <time>2015-03-16T20:08:23.320Z</time>
      </trkpt>
      <trkpt lat="48.85164" lon="2.28518">
        <ele>88.6</ele>
        <time>2015-03-16T20:08:24.321Z</time>
      </trkpt>
      <trkpt lat="48.85161" lon="2.28508">
        <ele>88.1</ele>
        <time>2015-03-16T20:08:25.335Z</time>
      </trkpt>
      <trkpt lat="48.85157" lon="2.28498">
        <ele>87.9</ele>
        <time>2015-03-16T20:08:26.357Z</time>
      </trkpt>
      <trkpt lat="48.85153" lon="2.28489">
        <ele>87.4</ele>
        <time>2015-03-16T20:08:27.379Z</time>
      </trkpt>
      <trkpt lat="48.8515" lon="2.2848">
        <ele>86.9</ele>
        <time>2015-03-16T20:08:28.389Z</time>
      </trkpt>
      <trkpt lat="48.85146" lon="2.28471">
        <ele>86.1</ele>
        <time>2015-03-16T20:08:29.321Z</time>
      </trkpt>
      <trkpt lat="48.85142" lon="2.28461">
        <ele>85.4</ele>
        <time>2015-03-16T20:08:30.315Z</time>
      </trkpt>
      <trkpt lat="48.85138" lon="2.28452">
        <ele>85.3</ele>
        <time>2015-03-16T20:08:31.325Z</time>
      </trkpt>
      <trkpt lat="48.85134" lon="2.28443">
        <ele>85.2</ele>
        <time>2015-03-16T20:08:32.346Z</time>
      </trkpt>
      <trkpt lat="48.85129" lon="2.28436">
        <ele>84.8</ele>
        <time>2015-03-16T20:08:33.359Z</time>
      </trkpt>
      <trkpt lat="48.85125" lon="2.28428">
        <ele>84.6</ele>
        <time>2015-03-16T20:08:34.368Z</time>
      </trkpt>
      <trkpt lat="48.8512" lon="2.28419">
        <ele>84.1</ele>
        <time>2015-03-16T20:08:35.373Z</time>
      </trkpt>
      <trkpt lat="48.85115" lon="2.28412">
        <ele>83.5</ele>
        <time>2015-03-16T20:08:36.378Z</time>
      </trkpt>
      <trkpt lat="48.85111" lon="2.28403">
        <ele>83.2</ele>
        <time>2015-03-16T20:08:37.383Z</time>
      </trkpt>
      <trkpt lat="48.85104" lon="2.28396">
        <ele>82.9</ele>
        <time>2015-03-16T20:08:38.397Z</time>
      </trkpt>
      <trkpt lat="48.85098" lon="2.28387">
        <ele>82.7</ele>
        <time>2015-03-16T20:08:39.409Z</time>
      </trkpt>
      <trkpt lat="48.85093" lon="2.28378">
        <ele>83.1</ele>
        <time>2015-03-16T20:08:40.321Z</time>
      </trkpt>
      <trkpt lat="48.85087" lon="2.2837">
        <ele>82.8</ele>
        <time>2015-03-16T20:08:41.335Z</time>
      </trkpt>
      <trkpt lat="48.85082" lon="2.28362">
        <ele>82.4</ele>
        <time>2015-03-16T20:08:42.354Z</time>
      </trkpt>
      <trkpt lat="48.85076" lon="2.28354">
        <ele>82.5</ele>
        <time>2015-03-16T20:08:43.366Z</time>
      </trkpt>
      <trkpt lat="48.8507" lon="2.28347">
        <ele>82.4</ele>
        <time>2015-03-16T20:08:44.377Z</time>
      </trkpt>
      <trkpt lat="48.85065" lon="2.28339">
        <ele>82.8</ele>
        <time>2015-03-16T20:08:45.384Z</time>
      </trkpt>
      <trkpt lat="48.85059" lon="2.28332">
        <ele>82.8</ele>
        <time>2015-03-16T20:08:46.399Z</time>
      </trkpt>
      <trkpt lat="48.85052" lon="2.28327">
        <ele>82.7</ele>
        <time>2015-03-16T20:08:47.315Z</time>
      </trkpt>
      <trkpt lat="48.85046" lon="2.28319">
        <ele>82.4</ele>
        <time>2015-03-16T20:08:48.320Z</time>
      </trkpt>
      <trkpt lat="48.8504" lon="2.28312">
        <ele>82.2</ele>
        <time>2015-03-16T20:08:49.334Z</time>
      </trkpt>
      <trkpt lat="48.85033" lon="2.28307">
        <ele>82</ele>
        <time>2015-03-16T20:08:50.346Z</time>
      </trkpt>
      <trkpt lat="48.85026" lon="2.28302">
        <ele>81.8</ele>
        <time>2015-03-16T20:08:51.356Z</time>
      </trkpt>
      <trkpt lat="48.85019" lon="2.28295">
        <ele>81.9</ele>
        <time>2015-03-16T20:08:52.367Z</time>
      </trkpt>
      <trkpt lat="48.85014" lon="2.28288">
        <ele>81.9</ele>
        <time>2015-03-16T20:08:53.390Z</time>
      </trkpt>
      <trkpt lat="48.85007" lon="2.28282">
        <ele>82</ele>
        <time>2015-03-16T20:08:54.387Z</time>
      </trkpt>
      <trkpt lat="48.85002" lon="2.28276">
        <ele>81.6</ele>
        <time>2015-03-16T20:08:55.328Z</time>
      </trkpt>
      <trkpt lat="48.84998" lon="2.28268">
        <ele>81.8</ele>
        <time>2015-03-16T20:08:56.355Z</time>
      </trkpt>
      <trkpt lat="48.84994" lon="2.28259">
        <ele>81.7</ele>
        <time>2015-03-16T20:08:57.320Z</time>
      </trkpt>
      <trkpt lat="48.84991" lon="2.28251">
        <ele>81.7</ele>
        <time>2015-03-16T20:08:58.323Z</time>
      </trkpt>
      <trkpt lat="48.84988" lon="2.28243">
        <ele>81.3</ele>
        <time>2015-03-16T20:08:59.327Z</time>
      </trkpt>
      <trkpt lat="48.84985" lon="2.28235">
        <ele>81.2</ele>
        <time>2015-03-16T20:09:00.344Z</time>
      </trkpt>
      <trkpt lat="48.84981" lon="2.28228">
        <ele>81.4</ele>
        <time>2015-03-16T20:09:01.407Z</time>
      </trkpt>
      <trkpt lat="48.84978" lon="2.28221">
        <ele>81.6</ele>
        <time>2015-03-16T20:09:02.370Z</time>
      </trkpt>
      <trkpt lat="48.84977" lon="2.28212">
        <ele>81.4</ele>
        <time>2015-03-16T20:09:03.374Z</time>
      </trkpt>
      <trkpt lat="48.84976" lon="2.28203">
        <ele>81.3</ele>
        <time>2015-03-16T20:09:04.388Z</time>
      </trkpt>
      <trkpt lat="48.84973" lon="2.28195">
        <ele>81.1</ele>
        <time>2015-03-16T20:09:05.408Z</time>
      </trkpt>
      <trkpt lat="48.84971" lon="2.28189">
        <ele>80.6</ele>
        <time>2015-03-16T20:09:06.418Z</time>
      </trkpt>
      <trkpt lat="48.84965" lon="2.28179">
        <ele>80.1</ele>
        <time>2015-03-16T20:09:08.389Z</time>
      </trkpt>
      <trkpt lat="48.84963" lon="2.28174">
        <ele>80.3</ele>
        <time>2015-03-16T20:09:09.403Z</time>
      </trkpt>
      <trkpt lat="48.84958" lon="2.28167">
        <ele>80.1</ele>
        <time>2015-03-16T20:09:11.361Z</time>
      </trkpt>
      <trkpt lat="48.84955" lon="2.28164">
        <ele>80.1</ele>
        <time>2015-03-16T20:09:12.369Z</time>
      </trkpt>
      <trkpt lat="48.84955" lon="2.28157">
        <ele>81</ele>
        <time>2015-03-16T20:09:15.536Z</time>
      </trkpt>
      <trkpt lat="48.84955" lon="2.28155">
        <ele>81.8</ele>
        <time>2015-03-16T20:09:16.351Z</time>
      </trkpt>
      <trkpt lat="48.84955" lon="2.28155">
        <ele>81.5</ele>
        <time>2015-03-16T20:10:19.361Z</time>
      </trkpt>
      <trkpt lat="48.84958" lon="2.2815">
        <ele>80.7</ele>
        <time>2015-03-16T20:10:20.375Z</time>
      </trkpt>
      <trkpt lat="48.84962" lon="2.28138">
        <ele>79.7</ele>
        <time>2015-03-16T20:10:24.335Z</time>
      </trkpt>
      <trkpt lat="48.84964" lon="2.28134">
        <ele>79.9</ele>
        <time>2015-03-16T20:10:25.356Z</time>
      </trkpt>
      <trkpt lat="48.84971" lon="2.28125">
        <ele>80.3</ele>
        <time>2015-03-16T20:10:27.322Z</time>
      </trkpt>
      <trkpt lat="48.84975" lon="2.28121">
        <ele>80.3</ele>
        <time>2015-03-16T20:10:28.334Z</time>
      </trkpt>
      <trkpt lat="48.84979" lon="2.28116">
        <ele>80.4</ele>
        <time>2015-03-16T20:10:29.338Z</time>
      </trkpt>
      <trkpt lat="48.84981" lon="2.28111">
        <ele>80.7</ele>
        <time>2015-03-16T20:10:30.367Z</time>
      </trkpt>
      <trkpt lat="48.84985" lon="2.28105">
        <ele>80.9</ele>
        <time>2015-03-16T20:10:31.431Z</time>
      </trkpt>
      <trkpt lat="48.84988" lon="2.281">
        <ele>81.1</ele>
        <time>2015-03-16T20:10:32.336Z</time>
      </trkpt>
      <trkpt lat="48.84991" lon="2.28093">
        <ele>81.3</ele>
        <time>2015-03-16T20:10:33.347Z</time>
      </trkpt>
      <trkpt lat="48.84995" lon="2.28087">
        <ele>81.5</ele>
        <time>2015-03-16T20:10:34.308Z</time>
      </trkpt>
      <trkpt lat="48.85" lon="2.2808">
        <ele>81.5</ele>
        <time>2015-03-16T20:10:35.338Z</time>
      </trkpt>
      <trkpt lat="48.85004" lon="2.28072">
        <ele>81.7</ele>
        <time>2015-03-16T20:10:36.352Z</time>
      </trkpt>
      <trkpt lat="48.85009" lon="2.28064">
        <ele>81.8</ele>
        <time>2015-03-16T20:10:37.366Z</time>
      </trkpt>
      <trkpt lat="48.85014" lon="2.28056">
        <ele>82</ele>
        <time>2015-03-16T20:10:38.436Z</time>
      </trkpt>
      <trkpt lat="48.8502" lon="2.28048">
        <ele>82.4</ele>
        <time>2015-03-16T20:10:39.338Z</time>
      </trkpt>
      <trkpt lat="48.85025" lon="2.2804">
        <ele>82.8</ele>
        <time>2015-03-16T20:10:40.345Z</time>
      </trkpt>
      <trkpt lat="48.85032" lon="2.28032">
        <ele>82.8</ele>
        <time>2015-03-16T20:10:41.346Z</time>
      </trkpt>
      <trkpt lat="48.85037" lon="2.28024">
        <ele>82.7</ele>
        <time>2015-03-16T20:10:42.393Z</time>
      </trkpt>
      <trkpt lat="48.85042" lon="2.28016">
        <ele>82.9</ele>
        <time>2015-03-16T20:10:43.399Z</time>
      </trkpt>
      <trkpt lat="48.85047" lon="2.28009">
        <ele>83.2</ele>
        <time>2015-03-16T20:10:44.404Z</time>
      </trkpt>
      <trkpt lat="48.85052" lon="2.28002">
        <ele>83.4</ele>
        <time>2015-03-16T20:10:45.416Z</time>
      </trkpt>
      <trkpt lat="48.85056" lon="2.27994">
        <ele>83.3</ele>
        <time>2015-03-16T20:10:46.422Z</time>
      </trkpt>
      <trkpt lat="48.8506" lon="2.27987">
        <ele>83.6</ele>
        <time>2015-03-16T20:10:47.343Z</time>
      </trkpt>
      <trkpt lat="48.85063" lon="2.2798">
        <ele>83.7</ele>
        <time>2015-03-16T20:10:48.345Z</time>
      </trkpt>
      <trkpt lat="48.85066" lon="2.27974">
        <ele>83.6</ele>
        <time>2015-03-16T20:10:49.355Z</time>
      </trkpt>
      <trkpt lat="48.85068" lon="2.27968">
        <ele>83.6</ele>
        <time>2015-03-16T20:10:50.398Z</time>
      </trkpt>
      <trkpt lat="48.85071" lon="2.27961">
        <ele>83.5</ele>
        <time>2015-03-16T20:10:51.404Z</time>
      </trkpt>
      <trkpt lat="48.85074" lon="2.27955">
        <ele>83.7</ele>
        <time>2015-03-16T20:10:52.414Z</time>
      </trkpt>
      <trkpt lat="48.85076" lon="2.27948">
        <ele>83.9</ele>
        <time>2015-03-16T20:10:53.351Z</time>
      </trkpt>
      <trkpt lat="48.85079" lon="2.27943">
        <ele>84.1</ele>
        <time>2015-03-16T20:10:54.357Z</time>
      </trkpt>
      <trkpt lat="48.85084" lon="2.27937">
        <ele>84.2</ele>
        <time>2015-03-16T20:10:55.369Z</time>
      </trkpt>
      <trkpt lat="48.85088" lon="2.27932">
        <ele>84.3</ele>
        <time>2015-03-16T20:10:56.410Z</time>
      </trkpt>
      <trkpt lat="48.85092" lon="2.27927">
        <ele>84.3</ele>
        <time>2015-03-16T20:10:57.408Z</time>
      </trkpt>
      <trkpt lat="48.85095" lon="2.2792">
        <ele>84.5</ele>
        <time>2015-03-16T20:10:58.425Z</time>
      </trkpt>
      <trkpt lat="48.85099" lon="2.27914">
        <ele>84.4</ele>
        <time>2015-03-16T20:10:59.350Z</time>
      </trkpt>
      <trkpt lat="48.85102" lon="2.27908">
        <ele>85</ele>
        <time>2015-03-16T20:11:00.341Z</time>
      </trkpt>
      <trkpt lat="48.85104" lon="2.27902">
        <ele>85.7</ele>
        <time>2015-03-16T20:11:01.350Z</time>
      </trkpt>
      <trkpt lat="48.85105" lon="2.27895">
        <ele>87.4</ele>
        <time>2015-03-16T20:11:02.410Z</time>
      </trkpt>
      <trkpt lat="48.85108" lon="2.27883">
        <ele>89.6</ele>
        <time>2015-03-16T20:11:04.423Z</time>
      </trkpt>
      <trkpt lat="48.85108" lon="2.27877">
        <ele>90.8</ele>
        <time>2015-03-16T20:11:05.308Z</time>
      </trkpt>
      <trkpt lat="48.85111" lon="2.27866">
        <ele>93.3</ele>
        <time>2015-03-16T20:11:08.374Z</time>
      </trkpt>
      <trkpt lat="48.85113" lon="2.27863">
        <ele>93.6</ele>
        <time>2015-03-16T20:11:09.371Z</time>
      </trkpt>
      <trkpt lat="48.85119" lon="2.27853">
        <ele>96.6</ele>
        <time>2015-03-16T20:11:39.459Z</time>
      </trkpt>
      <trkpt lat="48.8512" lon="2.27835">
        <ele>94.9</ele>
        <time>2015-03-16T20:11:40.361Z</time>
      </trkpt>
      <trkpt lat="48.85114" lon="2.27827">
        <ele>93.8</ele>
        <time>2015-03-16T20:11:43.356Z</time>
      </trkpt>
      <trkpt lat="48.85111" lon="2.27824">
        <ele>93.2</ele>
        <time>2015-03-16T20:11:44.366Z</time>
      </trkpt>
      <trkpt lat="48.85107" lon="2.2782">
        <ele>92.9</ele>
        <time>2015-03-16T20:11:45.373Z</time>
      </trkpt>
      <trkpt lat="48.85103" lon="2.27815">
        <ele>92.4</ele>
        <time>2015-03-16T20:11:46.390Z</time>
      </trkpt>
      <trkpt lat="48.851" lon="2.27809">
        <ele>92.2</ele>
        <time>2015-03-16T20:11:47.411Z</time>
      </trkpt>
      <trkpt lat="48.85098" lon="2.27802">
        <ele>92</ele>
        <time>2015-03-16T20:11:48.428Z</time>
      </trkpt>
      <trkpt lat="48.85094" lon="2.27796">
        <ele>91.9</ele>
        <time>2015-03-16T20:11:49.389Z</time>
      </trkpt>
      <trkpt lat="48.85091" lon="2.27789">
        <ele>91.8</ele>
        <time>2015-03-16T20:11:50.394Z</time>
      </trkpt>
      <trkpt lat="48.85088" lon="2.27782">
        <ele>91.4</ele>
        <time>2015-03-16T20:11:51.403Z</time>
      </trkpt>
      <trkpt lat="48.85084" lon="2.27775">
        <ele>91.5</ele>
        <time>2015-03-16T20:11:52.351Z</time>
      </trkpt>
      <trkpt lat="48.85081" lon="2.27768">
        <ele>91.4</ele>
        <time>2015-03-16T20:11:53.326Z</time>
      </trkpt>
      <trkpt lat="48.85079" lon="2.27759">
        <ele>91.4</ele>
        <time>2015-03-16T20:11:54.355Z</time>
      </trkpt>
      <trkpt lat="48.85075" lon="2.27751">
        <ele>91.2</ele>
        <time>2015-03-16T20:11:55.382Z</time>
      </trkpt>
      <trkpt lat="48.85071" lon="2.27744">
        <ele>90.8</ele>
        <time>2015-03-16T20:11:56.404Z</time>
      </trkpt>
      <trkpt lat="48.85067" lon="2.27736">
        <ele>90.7</ele>
        <time>2015-03-16T20:11:57.351Z</time>
      </trkpt>
      <trkpt lat="48.85062" lon="2.27729">
        <ele>90.4</ele>
        <time>2015-03-16T20:11:58.336Z</time>
      </trkpt>
      <trkpt lat="48.85057" lon="2.27722">
        <ele>90.1</ele>
        <time>2015-03-16T20:11:59.343Z</time>
      </trkpt>
      <trkpt lat="48.85053" lon="2.27714">
        <ele>89.7</ele>
        <time>2015-03-16T20:12:00.379Z</time>
      </trkpt>
      <trkpt lat="48.8505" lon="2.27707">
        <ele>89.5</ele>
        <time>2015-03-16T20:12:01.331Z</time>
      </trkpt>
      <trkpt lat="48.85045" lon="2.27702">
        <ele>89.3</ele>
        <time>2015-03-16T20:12:02.367Z</time>
      </trkpt>
      <trkpt lat="48.85041" lon="2.27696">
        <ele>89.3</ele>
        <time>2015-03-16T20:12:03.364Z</time>
      </trkpt>
      <trkpt lat="48.85037" lon="2.2769">
        <ele>89.7</ele>
        <time>2015-03-16T20:12:04.373Z</time>
      </trkpt>
      <trkpt lat="48.85034" lon="2.27685">
        <ele>89.4</ele>
        <time>2015-03-16T20:12:05.388Z</time>
      </trkpt>
      <trkpt lat="48.85031" lon="2.2768">
        <ele>89</ele>
        <time>2015-03-16T20:12:06.403Z</time>
      </trkpt>
      <trkpt lat="48.85026" lon="2.27676">
        <ele>88.6</ele>
        <time>2015-03-16T20:12:07.419Z</time>
      </trkpt>
      <trkpt lat="48.85023" lon="2.27672">
        <ele>88</ele>
        <time>2015-03-16T20:12:08.439Z</time>
      </trkpt>
      <trkpt lat="48.85019" lon="2.27661">
        <ele>87.8</ele>
        <time>2015-03-16T20:12:10.318Z</time>
      </trkpt>
      <trkpt lat="48.85017" lon="2.27656">
        <ele>87.7</ele>
        <time>2015-03-16T20:12:11.356Z</time>
      </trkpt>
      <trkpt lat="48.85012" lon="2.27645">
        <ele>88</ele>
        <time>2015-03-16T20:12:13.414Z</time>
      </trkpt>
      <trkpt lat="48.85009" lon="2.27639">
        <ele>88.1</ele>
        <time>2015-03-16T20:12:14.431Z</time>
      </trkpt>
      <trkpt lat="48.85006" lon="2.27634">
        <ele>88.3</ele>
        <time>2015-03-16T20:12:15.328Z</time>
      </trkpt>
      <trkpt lat="48.85002" lon="2.27629">
        <ele>88.3</ele>
        <time>2015-03-16T20:12:16.333Z</time>
      </trkpt>
      <trkpt lat="48.84997" lon="2.27625">
        <ele>88.4</ele>
        <time>2015-03-16T20:12:17.352Z</time>
      </trkpt>
      <trkpt lat="48.84991" lon="2.2762">
        <ele>88.4</ele>
        <time>2015-03-16T20:12:18.362Z</time>
      </trkpt>
      <trkpt lat="48.84986" lon="2.27614">
        <ele>88.4</ele>
        <time>2015-03-16T20:12:19.372Z</time>
      </trkpt>
      <trkpt lat="48.84982" lon="2.27608">
        <ele>88.4</ele>
        <time>2015-03-16T20:12:20.386Z</time>
      </trkpt>
      <trkpt lat="48.84978" lon="2.27603">
        <ele>88.3</ele>
        <time>2015-03-16T20:12:21.402Z</time>
      </trkpt>
      <trkpt lat="48.84973" lon="2.27598">
        <ele>88.3</ele>
        <time>2015-03-16T20:12:22.319Z</time>
      </trkpt>
      <trkpt lat="48.84967" lon="2.27594">
        <ele>88.4</ele>
        <time>2015-03-16T20:12:23.324Z</time>
      </trkpt>
      <trkpt lat="48.84961" lon="2.2759">
        <ele>88.5</ele>
        <time>2015-03-16T20:12:24.332Z</time>
      </trkpt>
      <trkpt lat="48.84955" lon="2.27585">
        <ele>88.4</ele>
        <time>2015-03-16T20:12:25.349Z</time>
      </trkpt>
      <trkpt lat="48.84949" lon="2.27579">
        <ele>88.7</ele>
        <time>2015-03-16T20:12:26.355Z</time>
      </trkpt>
      <trkpt lat="48.84946" lon="2.27571">
        <ele>88.9</ele>
        <time>2015-03-16T20:12:27.366Z</time>
      </trkpt>
      <trkpt lat="48.8494" lon="2.27564">
        <ele>89.2</ele>
        <time>2015-03-16T20:12:28.375Z</time>
      </trkpt>
      <trkpt lat="48.84937" lon="2.27558">
        <ele>89.5</ele>
        <time>2015-03-16T20:12:29.398Z</time>
      </trkpt>
      <trkpt lat="48.84933" lon="2.27552">
        <ele>89.7</ele>
        <time>2015-03-16T20:12:30.316Z</time>
      </trkpt>
      <trkpt lat="48.84927" lon="2.27546">
        <ele>90.1</ele>
        <time>2015-03-16T20:12:31.354Z</time>
      </trkpt>
      <trkpt lat="48.84921" lon="2.27542">
        <ele>90.5</ele>
        <time>2015-03-16T20:12:32.375Z</time>
      </trkpt>
      <trkpt lat="48.84918" lon="2.27536">
        <ele>90.6</ele>
        <time>2015-03-16T20:12:33.388Z</time>
      </trkpt>
      <trkpt lat="48.84915" lon="2.27531">
        <ele>90.8</ele>
        <time>2015-03-16T20:12:34.391Z</time>
      </trkpt>
      <trkpt lat="48.84912" lon="2.27526">
        <ele>91</ele>
        <time>2015-03-16T20:12:35.289Z</time>
      </trkpt>
      <trkpt lat="48.84908" lon="2.27522">
        <ele>91.2</ele>
        <time>2015-03-16T20:12:36.319Z</time>
      </trkpt>
      <trkpt lat="48.84901" lon="2.27514">
        <ele>92.1</ele>
        <time>2015-03-16T20:12:38.334Z</time>
      </trkpt>
      <trkpt lat="48.84899" lon="2.27509">
        <ele>92.3</ele>
        <time>2015-03-16T20:12:39.339Z</time>
      </trkpt>
      <trkpt lat="48.84893" lon="2.27503">
        <ele>93.1</ele>
        <time>2015-03-16T20:12:42.401Z</time>
      </trkpt>
      <trkpt lat="48.84891" lon="2.27503">
        <ele>93.3</ele>
        <time>2015-03-16T20:12:43.309Z</time>
      </trkpt>
      <trkpt lat="48.84884" lon="2.27496">
        <ele>93</ele>
        <time>2015-03-16T20:12:47.422Z</time>
      </trkpt>
      <trkpt lat="48.84881" lon="2.27495">
        <ele>93.2</ele>
        <time>2015-03-16T20:12:48.293Z</time>
      </trkpt>
      <trkpt lat="48.84877" lon="2.27491">
        <ele>93.1</ele>
        <time>2015-03-16T20:12:49.326Z</time>
      </trkpt>
      <trkpt lat="48.84873" lon="2.27487">
        <ele>93</ele>
        <time>2015-03-16T20:12:50.354Z</time>
      </trkpt>
      <trkpt lat="48.84868" lon="2.27483">
        <ele>92.8</ele>
        <time>2015-03-16T20:12:51.365Z</time>
      </trkpt>
      <trkpt lat="48.84863" lon="2.27479">
        <ele>92.6</ele>
        <time>2015-03-16T20:12:52.377Z</time>
      </trkpt>
      <trkpt lat="48.84858" lon="2.27475">
        <ele>92.5</ele>
        <time>2015-03-16T20:12:53.410Z</time>
      </trkpt>
      <trkpt lat="48.84852" lon="2.2747">
        <ele>92.3</ele>
        <time>2015-03-16T20:12:54.299Z</time>
      </trkpt>
      <trkpt lat="48.84846" lon="2.27464">
        <ele>92</ele>
        <time>2015-03-16T20:12:55.309Z</time>
      </trkpt>
      <trkpt lat="48.8484" lon="2.27459">
        <ele>91.6</ele>
        <time>2015-03-16T20:12:56.350Z</time>
      </trkpt>
      <trkpt lat="48.84834" lon="2.27456">
        <ele>91.3</ele>
        <time>2015-03-16T20:12:57.351Z</time>
      </trkpt>
      <trkpt lat="48.84828" lon="2.27453">
        <ele>91</ele>
        <time>2015-03-16T20:12:58.368Z</time>
      </trkpt>
      <trkpt lat="48.84823" lon="2.27449">
        <ele>90.4</ele>
        <time>2015-03-16T20:12:59.386Z</time>
      </trkpt>
      <trkpt lat="48.84819" lon="2.27445">
        <ele>90</ele>
        <time>2015-03-16T20:13:00.289Z</time>
      </trkpt>
      <trkpt lat="48.84812" lon="2.27435">
        <ele>89.3</ele>
        <time>2015-03-16T20:13:02.406Z</time>
      </trkpt>
      <trkpt lat="48.84807" lon="2.27431">
        <ele>89.1</ele>
        <time>2015-03-16T20:13:03.286Z</time>
      </trkpt>
      <trkpt lat="48.84803" lon="2.27426">
        <ele>89.1</ele>
        <time>2015-03-16T20:13:04.321Z</time>
      </trkpt>
      <trkpt lat="48.84798" lon="2.27421">
        <ele>89.1</ele>
        <time>2015-03-16T20:13:05.337Z</time>
      </trkpt>
      <trkpt lat="48.84792" lon="2.27416">
        <ele>88.9</ele>
        <time>2015-03-16T20:13:06.349Z</time>
      </trkpt>
      <trkpt lat="48.84788" lon="2.2741">
        <ele>88.5</ele>
        <time>2015-03-16T20:13:07.360Z</time>
      </trkpt>
      <trkpt lat="48.84784" lon="2.27403">
        <ele>88.5</ele>
        <time>2015-03-16T20:13:08.372Z</time>
      </trkpt>
      <trkpt lat="48.8478" lon="2.27398">
        <ele>88.4</ele>
        <time>2015-03-16T20:13:09.393Z</time>
      </trkpt>
      <trkpt lat="48.84776" lon="2.27392">
        <ele>88.2</ele>
        <time>2015-03-16T20:13:10.312Z</time>
      </trkpt>
      <trkpt lat="48.84773" lon="2.27383">
        <ele>88.3</ele>
        <time>2015-03-16T20:13:11.309Z</time>
      </trkpt>
      <trkpt lat="48.8477" lon="2.27374">
        <ele>88.6</ele>
        <time>2015-03-16T20:13:12.338Z</time>
      </trkpt>
      <trkpt lat="48.84764" lon="2.27367">
        <ele>88.3</ele>
        <time>2015-03-16T20:13:13.360Z</time>
      </trkpt>
      <trkpt lat="48.84758" lon="2.2736">
        <ele>88.3</ele>
        <time>2015-03-16T20:13:14.382Z</time>
      </trkpt>
      <trkpt lat="48.84749" lon="2.27356">
        <ele>88.6</ele>
        <time>2015-03-16T20:13:15.375Z</time>
      </trkpt>
      <trkpt lat="48.84742" lon="2.27354">
        <ele>88</ele>
        <time>2015-03-16T20:13:16.342Z</time>
      </trkpt>
      <trkpt lat="48.84737" lon="2.2735">
        <ele>88.3</ele>
        <time>2015-03-16T20:13:17.317Z</time>
      </trkpt>
      <trkpt lat="48.84732" lon="2.27346">
        <ele>88.6</ele>
        <time>2015-03-16T20:13:18.339Z</time>
      </trkpt>
      <trkpt lat="48.84728" lon="2.27343">
        <ele>88.9</ele>
        <time>2015-03-16T20:13:19.366Z</time>
      </trkpt>
      <trkpt lat="48.84724" lon="2.2734">
        <ele>89.3</ele>
        <time>2015-03-16T20:13:20.438Z</time>
      </trkpt>
      <trkpt lat="48.84717" lon="2.27338">
        <ele>89.9</ele>
        <time>2015-03-16T20:13:21.311Z</time>
      </trkpt>
      <trkpt lat="48.84713" lon="2.27333">
        <ele>90</ele>
        <time>2015-03-16T20:13:22.321Z</time>
      </trkpt>
      <trkpt lat="48.84707" lon="2.27328">
        <ele>90.1</ele>
        <time>2015-03-16T20:13:23.354Z</time>
      </trkpt>
      <trkpt lat="48.84701" lon="2.27324">
        <ele>90.5</ele>
        <time>2015-03-16T20:13:24.373Z</time>
      </trkpt>
      <trkpt lat="48.84696" lon="2.2732">
        <ele>90.6</ele>
        <time>2015-03-16T20:13:25.384Z</time>
      </trkpt>
      <trkpt lat="48.84691" lon="2.27316">
        <ele>90.6</ele>
        <time>2015-03-16T20:13:26.389Z</time>
      </trkpt>
      <trkpt lat="48.84685" lon="2.27312">
        <ele>90.6</ele>
        <time>2015-03-16T20:13:27.399Z</time>
      </trkpt>
      <trkpt lat="48.84679" lon="2.27308">
        <ele>90.2</ele>
        <time>2015-03-16T20:13:28.323Z</time>
      </trkpt>
      <trkpt lat="48.84674" lon="2.27302">
        <ele>90.1</ele>
        <time>2015-03-16T20:13:29.320Z</time>
      </trkpt>
      <trkpt lat="48.8467" lon="2.27295">
        <ele>90.1</ele>
        <time>2015-03-16T20:13:31.050Z</time>
      </trkpt>
      <trkpt lat="48.84666" lon="2.2729">
        <ele>90.2</ele>
        <time>2015-03-16T20:13:31.330Z</time>
      </trkpt>
      <trkpt lat="48.84661" lon="2.27285">
        <ele>90.3</ele>
        <time>2015-03-16T20:13:32.382Z</time>
      </trkpt>
      <trkpt lat="48.84656" lon="2.2728">
        <ele>90.5</ele>
        <time>2015-03-16T20:13:33.395Z</time>
      </trkpt>
      <trkpt lat="48.84651" lon="2.27276">
        <ele>90.5</ele>
        <time>2015-03-16T20:13:34.342Z</time>
      </trkpt>
      <trkpt lat="48.84648" lon="2.27271">
        <ele>90.5</ele>
        <time>2015-03-16T20:13:35.326Z</time>
      </trkpt>
      <trkpt lat="48.84641" lon="2.27262">
        <ele>89.8</ele>
        <time>2015-03-16T20:13:37.324Z</time>
      </trkpt>
      <trkpt lat="48.84638" lon="2.27258">
        <ele>89.6</ele>
        <time>2015-03-16T20:13:38.356Z</time>
      </trkpt>
      <trkpt lat="48.84631" lon="2.2725">
        <ele>89.3</ele>
        <time>2015-03-16T20:13:40.298Z</time>
      </trkpt>
      <trkpt lat="48.84628" lon="2.27247">
        <ele>88.9</ele>
        <time>2015-03-16T20:13:41.332Z</time>
      </trkpt>
      <trkpt lat="48.84623" lon="2.27244">
        <ele>88.4</ele>
        <time>2015-03-16T20:13:42.345Z</time>
      </trkpt>
      <trkpt lat="48.84618" lon="2.27239">
        <ele>87.7</ele>
        <time>2015-03-16T20:13:43.341Z</time>
      </trkpt>
      <trkpt lat="48.84612" lon="2.27233">
        <ele>87.3</ele>
        <time>2015-03-16T20:13:44.346Z</time>
      </trkpt>
      <trkpt lat="48.84607" lon="2.27227">
        <ele>87.1</ele>
        <time>2015-03-16T20:13:45.358Z</time>
      </trkpt>
      <trkpt lat="48.846" lon="2.27221">
        <ele>87.1</ele>
        <time>2015-03-16T20:13:46.393Z</time>
      </trkpt>
      <trkpt lat="48.84594" lon="2.27215">
        <ele>87.2</ele>
        <time>2015-03-16T20:13:47.401Z</time>
      </trkpt>
      <trkpt lat="48.84589" lon="2.2721">
        <ele>86.8</ele>
        <time>2015-03-16T20:13:48.296Z</time>
      </trkpt>
      <trkpt lat="48.84582" lon="2.27205">
        <ele>86.9</ele>
        <time>2015-03-16T20:13:49.327Z</time>
      </trkpt>
      <trkpt lat="48.84574" lon="2.27199">
        <ele>87.3</ele>
        <time>2015-03-16T20:13:50.375Z</time>
      </trkpt>
      <trkpt lat="48.84567" lon="2.27193">
        <ele>87.8</ele>
        <time>2015-03-16T20:13:51.300Z</time>
      </trkpt>
      <trkpt lat="48.84563" lon="2.27187">
        <ele>87.8</ele>
        <time>2015-03-16T20:13:52.322Z</time>
      </trkpt>
      <trkpt lat="48.84559" lon="2.27182">
        <ele>87.8</ele>
        <time>2015-03-16T20:13:53.338Z</time>
      </trkpt>
      <trkpt lat="48.84555" lon="2.27176">
        <ele>87.8</ele>
        <time>2015-03-16T20:13:54.352Z</time>
      </trkpt>
      <trkpt lat="48.84551" lon="2.27172">
        <ele>87.8</ele>
        <time>2015-03-16T20:13:55.399Z</time>
      </trkpt>
      <trkpt lat="48.84545" lon="2.27168">
        <ele>88.2</ele>
        <time>2015-03-16T20:13:56.409Z</time>
      </trkpt>
      <trkpt lat="48.8454" lon="2.27159">
        <ele>88.6</ele>
        <time>2015-03-16T20:13:58.297Z</time>
      </trkpt>
      <trkpt lat="48.84537" lon="2.27156">
        <ele>88.7</ele>
        <time>2015-03-16T20:13:59.334Z</time>
      </trkpt>
      <trkpt lat="48.84532" lon="2.27152">
        <ele>89.1</ele>
        <time>2015-03-16T20:14:00.317Z</time>
      </trkpt>
      <trkpt lat="48.84528" lon="2.27149">
        <ele>89.4</ele>
        <time>2015-03-16T20:14:01.326Z</time>
      </trkpt>
      <trkpt lat="48.8453" lon="2.27162">
        <ele>91.1</ele>
        <time>2015-03-16T20:14:11.312Z</time>
      </trkpt>
      <trkpt lat="48.84532" lon="2.27162">
        <ele>91.5</ele>
        <time>2015-03-16T20:14:12.335Z</time>
      </trkpt>
      <trkpt lat="48.8454" lon="2.27168">
        <ele>92.7</ele>
        <time>2015-03-16T20:14:16.348Z</time>
      </trkpt>
      <trkpt lat="48.84541" lon="2.27168">
        <ele>92.6</ele>
        <time>2015-03-16T20:14:17.363Z</time>
      </trkpt>
      <trkpt lat="48.84548" lon="2.27168">
        <ele>93.7</ele>
        <time>2015-03-16T20:14:21.388Z</time>
      </trkpt>
      <trkpt lat="48.84551" lon="2.27166">
        <ele>93.8</ele>
        <time>2015-03-16T20:14:22.341Z</time>
      </trkpt>
      <trkpt lat="48.84553" lon="2.27163">
        <ele>93.9</ele>
        <time>2015-03-16T20:14:23.310Z</time>
      </trkpt>
      <trkpt lat="48.8456" lon="2.27151">
        <ele>93.8</ele>
        <time>2015-03-16T20:14:25.348Z</time>
      </trkpt>
      <trkpt lat="48.84563" lon="2.27144">
        <ele>93.8</ele>
        <time>2015-03-16T20:14:26.398Z</time>
      </trkpt>
      <trkpt lat="48.84565" lon="2.27138">
        <ele>93.8</ele>
        <time>2015-03-16T20:14:27.331Z</time>
      </trkpt>
      <trkpt lat="48.84568" lon="2.27125">
        <ele>94.2</ele>
        <time>2015-03-16T20:14:30.659Z</time>
      </trkpt>
      <trkpt lat="48.84568" lon="2.27124">
        <ele>94.1</ele>
        <time>2015-03-16T20:14:31.294Z</time>
      </trkpt>
      <trkpt lat="48.84573" lon="2.27115">
        <ele>94.6</ele>
        <time>2015-03-16T20:14:34.328Z</time>
      </trkpt>
      <trkpt lat="48.84575" lon="2.27111">
        <ele>94.7</ele>
        <time>2015-03-16T20:14:35.311Z</time>
      </trkpt>
      <trkpt lat="48.8458" lon="2.27104">
        <ele>95.4</ele>
        <time>2015-03-16T20:14:37.767Z</time>
      </trkpt>
      <trkpt lat="48.84583" lon="2.271">
        <ele>95.6</ele>
        <time>2015-03-16T20:14:38.365Z</time>
      </trkpt>
      <trkpt lat="48.84586" lon="2.27088">
        <ele>97</ele>
        <time>2015-03-16T20:14:42.849Z</time>
      </trkpt>
      <trkpt lat="48.84589" lon="2.27084">
        <ele>97.5</ele>
        <time>2015-03-16T20:14:43.340Z</time>
      </trkpt>
      <trkpt lat="48.84591" lon="2.27075">
        <ele>98.5</ele>
        <time>2015-03-16T20:14:45.348Z</time>
      </trkpt>
      <trkpt lat="48.84594" lon="2.27067">
        <ele>99</ele>
        <time>2015-03-16T20:14:47.366Z</time>
      </trkpt>
      <trkpt lat="48.84598" lon="2.2706">
        <ele>98.8</ele>
        <time>2015-03-16T20:15:00.359Z</time>
      </trkpt>
      <trkpt lat="48.84622" lon="2.27036">
        <ele>96.4</ele>
        <time>2015-03-16T20:15:01.361Z</time>
      </trkpt>
      <trkpt lat="48.8462" lon="2.27024">
        <ele>97.5</ele>
        <time>2015-03-16T20:15:05.407Z</time>
      </trkpt>
      <trkpt lat="48.8462" lon="2.2702">
        <ele>97.7</ele>
        <time>2015-03-16T20:15:06.326Z</time>
      </trkpt>
      <trkpt lat="48.84621" lon="2.27009">
        <ele>98</ele>
        <time>2015-03-16T20:15:08.340Z</time>
      </trkpt>
      <trkpt lat="48.84622" lon="2.27002">
        <ele>98.2</ele>
        <time>2015-03-16T20:15:09.357Z</time>
      </trkpt>
      <trkpt lat="48.84622" lon="2.26996">
        <ele>98.4</ele>
        <time>2015-03-16T20:15:10.362Z</time>
      </trkpt>
      <trkpt lat="48.84625" lon="2.26987">
        <ele>98.4</ele>
        <time>2015-03-16T20:15:11.360Z</time>
      </trkpt>
      <trkpt lat="48.84627" lon="2.26977">
        <ele>98.3</ele>
        <time>2015-03-16T20:15:13.203Z</time>
      </trkpt>
      <trkpt lat="48.84631" lon="2.26969">
        <ele>98.3</ele>
        <time>2015-03-16T20:15:13.380Z</time>
      </trkpt>
      <trkpt lat="48.84635" lon="2.2696">
        <ele>98.1</ele>
        <time>2015-03-16T20:15:14.401Z</time>
      </trkpt>
      <trkpt lat="48.8464" lon="2.26953">
        <ele>97.6</ele>
        <time>2015-03-16T20:15:15.414Z</time>
      </trkpt>
      <trkpt lat="48.84644" lon="2.26947">
        <ele>97.3</ele>
        <time>2015-03-16T20:15:16.295Z</time>
      </trkpt>
      <trkpt lat="48.84647" lon="2.26942">
        <ele>97.9</ele>
        <time>2015-03-16T20:15:17.342Z</time>
      </trkpt>
      <trkpt lat="48.8465" lon="2.26935">
        <ele>98.3</ele>
        <time>2015-03-16T20:15:18.313Z</time>
      </trkpt>
      <trkpt lat="48.84652" lon="2.26929">
        <ele>98.5</ele>
        <time>2015-03-16T20:15:19.347Z</time>
      </trkpt>
      <trkpt lat="48.84654" lon="2.26922">
        <ele>98.6</ele>
        <time>2015-03-16T20:15:20.375Z</time>
      </trkpt>
      <trkpt lat="48.84657" lon="2.26916">
        <ele>98.8</ele>
        <time>2015-03-16T20:15:21.295Z</time>
      </trkpt>
      <trkpt lat="48.84662" lon="2.26912">
        <ele>99.2</ele>
        <time>2015-03-16T20:15:22.302Z</time>
      </trkpt>
      <trkpt lat="48.84666" lon="2.26908">
        <ele>99.3</ele>
        <time>2015-03-16T20:15:23.314Z</time>
      </trkpt>
      <trkpt lat="48.84673" lon="2.26903">
        <ele>99.1</ele>
        <time>2015-03-16T20:15:25.359Z</time>
      </trkpt>
      <trkpt lat="48.84678" lon="2.26901">
        <ele>98.9</ele>
        <time>2015-03-16T20:15:26.403Z</time>
      </trkpt>
      <trkpt lat="48.84686" lon="2.26895">
        <ele>98.7</ele>
        <time>2015-03-16T20:15:28.382Z</time>
      </trkpt>
      <trkpt lat="48.84692" lon="2.26895">
        <ele>99</ele>
        <time>2015-03-16T20:15:29.372Z</time>
      </trkpt>
      <trkpt lat="48.84699" lon="2.26898">
        <ele>98.5</ele>
        <time>2015-03-16T20:15:30.400Z</time>
      </trkpt>
      <trkpt lat="48.84703" lon="2.26901">
        <ele>97.5</ele>
        <time>2015-03-16T20:15:31.408Z</time>
      </trkpt>
      <trkpt lat="48.84711" lon="2.26902">
        <ele>96</ele>
        <time>2015-03-16T20:15:33.341Z</time>
      </trkpt>
      <trkpt lat="48.84715" lon="2.26902">
        <ele>95.2</ele>
        <time>2015-03-16T20:15:34.384Z</time>
      </trkpt>
      <trkpt lat="48.84715" lon="2.26902">
        <ele>95.2</ele>
        <time>2015-03-16T20:15:59.341Z</time>
      </trkpt>
      <trkpt lat="48.84737" lon="2.26877">
        <ele>88.3</ele>
        <time>2015-03-16T20:16:00.364Z</time>
      </trkpt>
      <trkpt lat="48.84732" lon="2.2687">
        <ele>89</ele>
        <time>2015-03-16T20:16:04.384Z</time>
      </trkpt>
      <trkpt lat="48.8473" lon="2.26869">
        <ele>89.2</ele>
        <time>2015-03-16T20:16:05.393Z</time>
      </trkpt>
      <trkpt lat="48.84726" lon="2.26862">
        <ele>89.2</ele>
        <time>2015-03-16T20:16:25.364Z</time>
      </trkpt>
      <trkpt lat="48.84724" lon="2.26848">
        <ele>89.5</ele>
        <time>2015-03-16T20:16:26.362Z</time>
      </trkpt>
      <trkpt lat="48.84722" lon="2.26841">
        <ele>90.7</ele>
        <time>2015-03-16T20:16:37.416Z</time>
      </trkpt>
      <trkpt lat="48.84715" lon="2.26828">
        <ele>90.8</ele>
        <time>2015-03-16T20:16:38.390Z</time>
      </trkpt>
      <trkpt lat="48.84717" lon="2.26817">
        <ele>90.6</ele>
        <time>2015-03-16T20:16:41.373Z</time>
      </trkpt>
      <trkpt lat="48.84718" lon="2.26814">
        <ele>90.7</ele>
        <time>2015-03-16T20:16:42.380Z</time>
      </trkpt>
      <trkpt lat="48.84733" lon="2.26784">
        <ele>90.8</ele>
        <time>2015-03-16T20:16:51.324Z</time>
      </trkpt>
      <trkpt lat="48.84729" lon="2.26773">
        <ele>90.9</ele>
        <time>2015-03-16T20:16:54.319Z</time>
      </trkpt>
      <trkpt lat="48.84727" lon="2.26768">
        <ele>90.9</ele>
        <time>2015-03-16T20:16:55.322Z</time>
      </trkpt>
      <trkpt lat="48.84726" lon="2.26757">
        <ele>91.6</ele>
        <time>2015-03-16T20:16:58.392Z</time>
      </trkpt>
      <trkpt lat="48.84724" lon="2.26754">
        <ele>91.9</ele>
        <time>2015-03-16T20:16:59.388Z</time>
      </trkpt>
      <trkpt lat="48.84726" lon="2.26751">
        <ele>92.4</ele>
        <time>2015-03-16T20:17:12.367Z</time>
      </trkpt>
      <trkpt lat="48.84737" lon="2.26731">
        <ele>93.9</ele>
        <time>2015-03-16T20:17:13.339Z</time>
      </trkpt>
      <trkpt lat="48.84744" lon="2.26724">
        <ele>94.9</ele>
        <time>2015-03-16T20:17:16.399Z</time>
      </trkpt>
      <trkpt lat="48.84747" lon="2.26719">
        <ele>95.1</ele>
        <time>2015-03-16T20:17:17.366Z</time>
      </trkpt>
      <trkpt lat="48.84754" lon="2.26713">
        <ele>95.8</ele>
        <time>2015-03-16T20:17:19.318Z</time>
      </trkpt>
      <trkpt lat="48.84756" lon="2.2671">
        <ele>95.8</ele>
        <time>2015-03-16T20:17:20.412Z</time>
      </trkpt>
      <trkpt lat="48.84758" lon="2.26699">
        <ele>96.4</ele>
        <time>2015-03-16T20:17:24.359Z</time>
      </trkpt>
      <trkpt lat="48.84759" lon="2.26695">
        <ele>96.5</ele>
        <time>2015-03-16T20:17:25.374Z</time>
      </trkpt>
      <trkpt lat="48.84758" lon="2.26683">
        <ele>96.3</ele>
        <time>2015-03-16T20:17:28.389Z</time>
      </trkpt>
      <trkpt lat="48.84756" lon="2.26641">
        <ele>93.7</ele>
        <time>2015-03-16T20:17:37.384Z</time>
      </trkpt>
      <trkpt lat="48.84732" lon="2.26634">
        <ele>94</ele>
        <time>2015-03-16T20:17:38.434Z</time>
      </trkpt>
      <trkpt lat="48.8471" lon="2.26628">
        <ele>94.7</ele>
        <time>2015-03-16T20:17:39.307Z</time>
      </trkpt>
      <trkpt lat="48.84695" lon="2.26622">
        <ele>95.4</ele>
        <time>2015-03-16T20:17:40.342Z</time>
      </trkpt>
      <trkpt lat="48.84686" lon="2.26618">
        <ele>95.5</ele>
        <time>2015-03-16T20:17:41.384Z</time>
      </trkpt>
      <trkpt lat="48.84682" lon="2.2661">
        <ele>95.6</ele>
        <time>2015-03-16T20:17:44.360Z</time>
      </trkpt>
      <trkpt lat="48.84681" lon="2.26605">
        <ele>95.6</ele>
        <time>2015-03-16T20:17:45.366Z</time>
      </trkpt>
      <trkpt lat="48.84684" lon="2.26593">
        <ele>96.4</ele>
        <time>2015-03-16T20:17:49.393Z</time>
      </trkpt>
      <trkpt lat="48.84699" lon="2.26593">
        <ele>96.4</ele>
        <time>2015-03-16T20:17:50.400Z</time>
      </trkpt>
      <trkpt lat="48.84708" lon="2.26591">
        <ele>96.7</ele>
        <time>2015-03-16T20:17:51.405Z</time>
      </trkpt>
      <trkpt lat="48.84721" lon="2.26589">
        <ele>96.8</ele>
        <time>2015-03-16T20:17:52.323Z</time>
      </trkpt>
      <trkpt lat="48.84721" lon="2.26576">
        <ele>96.6</ele>
        <time>2015-03-16T20:17:57.206Z</time>
      </trkpt>
      <trkpt lat="48.8471" lon="2.26548">
        <ele>96</ele>
        <time>2015-03-16T20:18:06.391Z</time>
      </trkpt>
      <trkpt lat="48.84698" lon="2.26546">
        <ele>96.1</ele>
        <time>2015-03-16T20:18:07.306Z</time>
      </trkpt>
      <trkpt lat="48.84682" lon="2.26542">
        <ele>96.1</ele>
        <time>2015-03-16T20:18:08.337Z</time>
      </trkpt>
      <trkpt lat="48.84666" lon="2.26537">
        <ele>96.1</ele>
        <time>2015-03-16T20:18:09.379Z</time>
      </trkpt>
      <trkpt lat="48.84649" lon="2.26533">
        <ele>95.8</ele>
        <time>2015-03-16T20:18:10.303Z</time>
      </trkpt>
      <trkpt lat="48.84637" lon="2.26529">
        <ele>95.9</ele>
        <time>2015-03-16T20:18:11.308Z</time>
      </trkpt>
      <trkpt lat="48.84628" lon="2.26523">
        <ele>95.8</ele>
        <time>2015-03-16T20:18:12.325Z</time>
      </trkpt>
      <trkpt lat="48.84622" lon="2.26514">
        <ele>95.9</ele>
        <time>2015-03-16T20:18:14.375Z</time>
      </trkpt>
      <trkpt lat="48.84618" lon="2.2651">
        <ele>96</ele>
        <time>2015-03-16T20:18:15.308Z</time>
      </trkpt>
      <trkpt lat="48.84611" lon="2.26506">
        <ele>96</ele>
        <time>2015-03-16T20:18:17.328Z</time>
      </trkpt>
      <trkpt lat="48.84602" lon="2.26501">
        <ele>96.2</ele>
        <time>2015-03-16T20:18:18.384Z</time>
      </trkpt>
      <trkpt lat="48.84593" lon="2.26498">
        <ele>96.6</ele>
        <time>2015-03-16T20:18:19.304Z</time>
      </trkpt>
      <trkpt lat="48.84585" lon="2.26493">
        <ele>96.9</ele>
        <time>2015-03-16T20:18:20.411Z</time>
      </trkpt>
      <trkpt lat="48.84574" lon="2.26488">
        <ele>97.4</ele>
        <time>2015-03-16T20:18:21.304Z</time>
      </trkpt>
      <trkpt lat="48.8457" lon="2.26482">
        <ele>97.7</ele>
        <time>2015-03-16T20:18:22.304Z</time>
      </trkpt>
      <trkpt lat="48.84567" lon="2.26476">
        <ele>97.8</ele>
        <time>2015-03-16T20:18:23.323Z</time>
      </trkpt>
      <trkpt lat="48.84568" lon="2.26467">
        <ele>98.1</ele>
        <time>2015-03-16T20:18:26.344Z</time>
      </trkpt>
      <trkpt lat="48.84572" lon="2.26464">
        <ele>98.1</ele>
        <time>2015-03-16T20:18:27.358Z</time>
      </trkpt>
      <trkpt lat="48.84576" lon="2.26453">
        <ele>98.9</ele>
        <time>2015-03-16T20:18:30.330Z</time>
      </trkpt>
      <trkpt lat="48.84572" lon="2.26446">
        <ele>99.2</ele>
        <time>2015-03-16T20:18:31.355Z</time>
      </trkpt>
      <trkpt lat="48.84566" lon="2.26439">
        <ele>99.6</ele>
        <time>2015-03-16T20:18:33.394Z</time>
      </trkpt>
      <trkpt lat="48.84562" lon="2.26437">
        <ele>99.8</ele>
        <time>2015-03-16T20:18:34.298Z</time>
      </trkpt>
      <trkpt lat="48.84558" lon="2.26432">
        <ele>100.4</ele>
        <time>2015-03-16T20:18:35.330Z</time>
      </trkpt>
      <trkpt lat="48.84549" lon="2.26428">
        <ele>100.9</ele>
        <time>2015-03-16T20:18:36.350Z</time>
      </trkpt>
      <trkpt lat="48.84538" lon="2.26425">
        <ele>101.2</ele>
        <time>2015-03-16T20:18:37.376Z</time>
      </trkpt>
      <trkpt lat="48.84528" lon="2.26421">
        <ele>101.6</ele>
        <time>2015-03-16T20:18:38.377Z</time>
      </trkpt>
      <trkpt lat="48.84521" lon="2.26419">
        <ele>101.9</ele>
        <time>2015-03-16T20:18:39.322Z</time>
      </trkpt>
      <trkpt lat="48.84516" lon="2.26416">
        <ele>102.2</ele>
        <time>2015-03-16T20:18:40.350Z</time>
      </trkpt>
      <trkpt lat="48.8451" lon="2.26409">
        <ele>100.9</ele>
        <time>2015-03-16T20:18:44.470Z</time>
      </trkpt>
      <trkpt lat="48.84509" lon="2.26407">
        <ele>100.9</ele>
        <time>2015-03-16T20:18:45.320Z</time>
      </trkpt>
      <trkpt lat="48.84497" lon="2.26386">
        <ele>100.8</ele>
        <time>2015-03-16T20:18:51.318Z</time>
      </trkpt>
      <trkpt lat="48.84492" lon="2.26375">
        <ele>100.9</ele>
        <time>2015-03-16T20:18:55.321Z</time>
      </trkpt>
      <trkpt lat="48.84491" lon="2.26372">
        <ele>101.2</ele>
        <time>2015-03-16T20:18:56.453Z</time>
      </trkpt>
      <trkpt lat="48.84487" lon="2.26368">
        <ele>102</ele>
        <time>2015-03-16T20:18:59.351Z</time>
      </trkpt>
      <trkpt lat="48.84482" lon="2.26367">
        <ele>102.7</ele>
        <time>2015-03-16T20:19:00.370Z</time>
      </trkpt>
      <trkpt lat="48.84475" lon="2.26368">
        <ele>103.5</ele>
        <time>2015-03-16T20:19:01.387Z</time>
      </trkpt>
      <trkpt lat="48.84465" lon="2.26366">
        <ele>104.2</ele>
        <time>2015-03-16T20:19:02.413Z</time>
      </trkpt>
      <trkpt lat="48.84459" lon="2.26365">
        <ele>103.4</ele>
        <time>2015-03-16T20:19:03.302Z</time>
      </trkpt>
      <trkpt lat="48.84454" lon="2.26365">
        <ele>102.6</ele>
        <time>2015-03-16T20:19:04.321Z</time>
      </trkpt>
      <trkpt lat="48.84449" lon="2.26362">
        <ele>102.1</ele>
        <time>2015-03-16T20:19:05.379Z</time>
      </trkpt>
      <trkpt lat="48.84446" lon="2.26358">
        <ele>101.8</ele>
        <time>2015-03-16T20:19:06.319Z</time>
      </trkpt>
      <trkpt lat="48.84437" lon="2.26354">
        <ele>101</ele>
        <time>2015-03-16T20:19:08.363Z</time>
      </trkpt>
      <trkpt lat="48.84434" lon="2.26352">
        <ele>100.4</ele>
        <time>2015-03-16T20:19:09.376Z</time>
      </trkpt>
      <trkpt lat="48.8443" lon="2.26346">
        <ele>99.6</ele>
        <time>2015-03-16T20:19:11.353Z</time>
      </trkpt>
      <trkpt lat="48.84426" lon="2.26343">
        <ele>99.4</ele>
        <time>2015-03-16T20:19:12.319Z</time>
      </trkpt>
      <trkpt lat="48.84418" lon="2.2634">
        <ele>99.6</ele>
        <time>2015-03-16T20:19:14.355Z</time>
      </trkpt>
      <trkpt lat="48.84412" lon="2.26336">
        <ele>100.1</ele>
        <time>2015-03-16T20:19:15.357Z</time>
      </trkpt>
      <trkpt lat="48.84405" lon="2.26332">
        <ele>100.4</ele>
        <time>2015-03-16T20:19:16.390Z</time>
      </trkpt>
      <trkpt lat="48.84397" lon="2.2633">
        <ele>100.6</ele>
        <time>2015-03-16T20:19:17.323Z</time>
      </trkpt>
      <trkpt lat="48.84391" lon="2.26329">
        <ele>100.7</ele>
        <time>2015-03-16T20:19:18.335Z</time>
      </trkpt>
      <trkpt lat="48.84386" lon="2.26327">
        <ele>100.7</ele>
        <time>2015-03-16T20:19:19.393Z</time>
      </trkpt>
      <trkpt lat="48.8438" lon="2.26326">
        <ele>100.5</ele>
        <time>2015-03-16T20:19:20.405Z</time>
      </trkpt>
      <trkpt lat="48.84376" lon="2.26326">
        <ele>100.1</ele>
        <time>2015-03-16T20:19:21.319Z</time>
      </trkpt>
      <trkpt lat="48.84368" lon="2.26322">
        <ele>99.5</ele>
        <time>2015-03-16T20:19:23.337Z</time>
      </trkpt>
      <trkpt lat="48.84365" lon="2.2632">
        <ele>99.6</ele>
        <time>2015-03-16T20:19:24.346Z</time>
      </trkpt>
      <trkpt lat="48.84356" lon="2.26316">
        <ele>99.2</ele>
        <time>2015-03-16T20:19:26.382Z</time>
      </trkpt>
      <trkpt lat="48.84183" lon="2.26271">
        <ele>101.4</ele>
        <time>2015-03-16T20:19:53.307Z</time>
      </trkpt>
      <trkpt lat="48.8419" lon="2.26273">
        <ele>97.9</ele>
        <time>2015-03-16T20:19:58.295Z</time>
      </trkpt>
      <trkpt lat="48.84196" lon="2.26272">
        <ele>97.7</ele>
        <time>2015-03-16T20:20:01.375Z</time>
      </trkpt>
      <trkpt lat="48.84188" lon="2.26277">
        <ele>97.3</ele>
        <time>2015-03-16T20:20:06.295Z</time>
      </trkpt>
      <trkpt lat="48.84182" lon="2.26271">
        <ele>98.6</ele>
        <time>2015-03-16T20:20:09.295Z</time>
      </trkpt>
      <trkpt lat="48.8418" lon="2.26267">
        <ele>101.4</ele>
        <time>2015-03-16T20:20:10.314Z</time>
      </trkpt>
      <trkpt lat="48.84181" lon="2.26258">
        <ele>99.8</ele>
        <time>2015-03-16T20:20:14.478Z</time>
      </trkpt>
      <trkpt lat="48.84181" lon="2.26249">
        <ele>99.5</ele>
        <time>2015-03-16T20:20:15.311Z</time>
      </trkpt>
      <trkpt lat="48.84183" lon="2.26236">
        <ele>99.8</ele>
        <time>2015-03-16T20:20:18.342Z</time>
      </trkpt>
      <trkpt lat="48.84182" lon="2.26232">
        <ele>100.1</ele>
        <time>2015-03-16T20:20:19.354Z</time>
      </trkpt>
      <trkpt lat="48.84188" lon="2.26224">
        <ele>103.3</ele>
        <time>2015-03-16T20:20:21.387Z</time>
      </trkpt>
      <trkpt lat="48.84193" lon="2.26219">
        <ele>104.7</ele>
        <time>2015-03-16T20:20:22.408Z</time>
      </trkpt>
      <trkpt lat="48.84198" lon="2.26214">
        <ele>104.7</ele>
        <time>2015-03-16T20:20:23.344Z</time>
      </trkpt>
      <trkpt lat="48.84203" lon="2.26211">
        <ele>106.6</ele>
        <time>2015-03-16T20:20:24.324Z</time>
      </trkpt>
      <trkpt lat="48.84205" lon="2.26199">
        <ele>108.5</ele>
        <time>2015-03-16T20:20:27.424Z</time>
      </trkpt>
      <trkpt lat="48.84205" lon="2.26195">
        <ele>109.3</ele>
        <time>2015-03-16T20:20:28.321Z</time>
      </trkpt>
      <trkpt lat="48.84207" lon="2.26187">
        <ele>109.5</ele>
        <time>2015-03-16T20:20:30.351Z</time>
      </trkpt>
      <trkpt lat="48.84209" lon="2.26183">
        <ele>109.9</ele>
        <time>2015-03-16T20:20:31.356Z</time>
      </trkpt>
      <trkpt lat="48.84213" lon="2.26174">
        <ele>111</ele>
        <time>2015-03-16T20:20:33.399Z</time>
      </trkpt>
      <trkpt lat="48.84215" lon="2.26169">
        <ele>111.5</ele>
        <time>2015-03-16T20:20:34.306Z</time>
      </trkpt>
      <trkpt lat="48.84217" lon="2.26163">
        <ele>112.4</ele>
        <time>2015-03-16T20:20:35.370Z</time>
      </trkpt>
      <trkpt lat="48.84221" lon="2.26158">
        <ele>113.2</ele>
        <time>2015-03-16T20:20:36.301Z</time>
      </trkpt>
      <trkpt lat="48.84225" lon="2.26146">
        <ele>113.5</ele>
        <time>2015-03-16T20:20:38.357Z</time>
      </trkpt>
      <trkpt lat="48.84228" lon="2.26142">
        <ele>113.7</ele>
        <time>2015-03-16T20:20:39.393Z</time>
      </trkpt>
      <trkpt lat="48.84221" lon="2.26151">
        <ele>111.8</ele>
        <time>2015-03-16T20:20:59.314Z</time>
      </trkpt>
      <trkpt lat="48.84219" lon="2.26155">
        <ele>111.8</ele>
        <time>2015-03-16T20:21:00.332Z</time>
      </trkpt>
      <trkpt lat="48.84214" lon="2.26164">
        <ele>111.2</ele>
        <time>2015-03-16T20:21:02.407Z</time>
      </trkpt>
      <trkpt lat="48.84209" lon="2.2617">
        <ele>108.5</ele>
        <time>2015-03-16T20:21:03.322Z</time>
      </trkpt>
      <trkpt lat="48.84205" lon="2.26175">
        <ele>106.6</ele>
        <time>2015-03-16T20:21:04.324Z</time>
      </trkpt>
      <trkpt lat="48.84201" lon="2.26181">
        <ele>104.8</ele>
        <time>2015-03-16T20:21:05.313Z</time>
      </trkpt>
      <trkpt lat="48.84197" lon="2.26186">
        <ele>103.8</ele>
        <time>2015-03-16T20:21:06.335Z</time>
      </trkpt>
      <trkpt lat="48.84192" lon="2.26193">
        <ele>102.8</ele>
        <time>2015-03-16T20:21:07.348Z</time>
      </trkpt>
      <trkpt lat="48.84189" lon="2.26199">
        <ele>102.1</ele>
        <time>2015-03-16T20:21:08.390Z</time>
      </trkpt>
      <trkpt lat="48.84186" lon="2.26204">
        <ele>101.7</ele>
        <time>2015-03-16T20:21:09.398Z</time>
      </trkpt>
      <trkpt lat="48.84183" lon="2.26214">
        <ele>102.4</ele>
        <time>2015-03-16T20:21:11.319Z</time>
      </trkpt>
      <trkpt lat="48.84181" lon="2.2622">
        <ele>103.3</ele>
        <time>2015-03-16T20:21:12.322Z</time>
      </trkpt>
      <trkpt lat="48.84179" lon="2.26233">
        <ele>104.6</ele>
        <time>2015-03-16T20:21:14.356Z</time>
      </trkpt>
      <trkpt lat="48.84179" lon="2.26238">
        <ele>104.5</ele>
        <time>2015-03-16T20:21:15.384Z</time>
      </trkpt>
      <trkpt lat="48.84178" lon="2.2625">
        <ele>103.7</ele>
        <time>2015-03-16T20:21:17.317Z</time>
      </trkpt>
      <trkpt lat="48.8418" lon="2.26258">
        <ele>103.5</ele>
        <time>2015-03-16T20:21:18.330Z</time>
      </trkpt>
      <trkpt lat="48.84185" lon="2.26266">
        <ele>102.5</ele>
        <time>2015-03-16T20:21:19.357Z</time>
      </trkpt>
      <trkpt lat="48.84184" lon="2.26274">
        <ele>102.8</ele>
        <time>2015-03-16T20:21:20.360Z</time>
      </trkpt>
      <trkpt lat="48.8418" lon="2.26286">
        <ele>103.6</ele>
        <time>2015-03-16T20:21:22.379Z</time>
      </trkpt>
      <trkpt lat="48.84179" lon="2.26291">
        <ele>103.7</ele>
        <time>2015-03-16T20:21:23.394Z</time>
      </trkpt>
      <trkpt lat="48.84181" lon="2.26294">
        <ele>104.2</ele>
        <time>2015-03-16T20:21:26.311Z</time>
      </trkpt>
      <trkpt lat="48.84279" lon="2.26247">
        <ele>103.3</ele>
        <time>2015-03-16T20:21:40.273Z</time>
      </trkpt>
      <trkpt lat="48.84283" lon="2.26252">
        <ele>102.8</ele>
        <time>2015-03-16T20:21:42.308Z</time>
      </trkpt>
      <trkpt lat="48.84001" lon="2.26149">
        <ele>104.9</ele>
        <time>2015-03-16T20:22:07.313Z</time>
      </trkpt>
      <trkpt lat="48.83981" lon="2.26145">
        <ele>103.8</ele>
        <time>2015-03-16T20:22:08.316Z</time>
      </trkpt>
      <trkpt lat="48.83961" lon="2.2614">
        <ele>103.3</ele>
        <time>2015-03-16T20:22:09.347Z</time>
      </trkpt>
      <trkpt lat="48.83946" lon="2.26137">
        <ele>102.8</ele>
        <time>2015-03-16T20:22:10.283Z</time>
      </trkpt>
      <trkpt lat="48.83934" lon="2.26132">
        <ele>103.2</ele>
        <time>2015-03-16T20:22:11.320Z</time>
      </trkpt>
      <trkpt lat="48.8392" lon="2.26129">
        <ele>103.5</ele>
        <time>2015-03-16T20:22:12.337Z</time>
      </trkpt>
      <trkpt lat="48.83911" lon="2.26126">
        <ele>103.9</ele>
        <time>2015-03-16T20:22:13.349Z</time>
      </trkpt>
      <trkpt lat="48.83898" lon="2.26125">
        <ele>103.5</ele>
        <time>2015-03-16T20:22:14.363Z</time>
      </trkpt>
      <trkpt lat="48.83882" lon="2.26127">
        <ele>101.8</ele>
        <time>2015-03-16T20:22:15.380Z</time>
      </trkpt>
      <trkpt lat="48.83872" lon="2.26124">
        <ele>101.3</ele>
        <time>2015-03-16T20:22:16.391Z</time>
      </trkpt>
      <trkpt lat="48.8388" lon="2.26124">
        <ele>97.8</ele>
        <time>2015-03-16T20:22:20.399Z</time>
      </trkpt>
      <trkpt lat="48.83887" lon="2.26126">
        <ele>97</ele>
        <time>2015-03-16T20:22:21.303Z</time>
      </trkpt>
      <trkpt lat="48.83894" lon="2.2613">
        <ele>94.9</ele>
        <time>2015-03-16T20:22:24.373Z</time>
      </trkpt>
      <trkpt lat="48.83898" lon="2.26132">
        <ele>94.5</ele>
        <time>2015-03-16T20:22:25.396Z</time>
      </trkpt>
      <trkpt lat="48.83904" lon="2.26137">
        <ele>94.3</ele>
        <time>2015-03-16T20:22:27.377Z</time>
      </trkpt>
      <trkpt lat="48.83905" lon="2.2614">
        <ele>94.2</ele>
        <time>2015-03-16T20:22:28.478Z</time>
      </trkpt>
      <trkpt lat="48.83898" lon="2.26136">
        <ele>99.6</ele>
        <time>2015-03-16T20:22:45.392Z</time>
      </trkpt>
      <trkpt lat="48.83896" lon="2.26135">
        <ele>100.2</ele>
        <time>2015-03-16T20:22:46.308Z</time>
      </trkpt>
      <trkpt lat="48.83894" lon="2.26147">
        <ele>106.3</ele>
        <time>2015-03-16T20:22:54.315Z</time>
      </trkpt>
      <trkpt lat="48.83894" lon="2.26152">
        <ele>106.9</ele>
        <time>2015-03-16T20:22:55.332Z</time>
      </trkpt>
      <trkpt lat="48.83893" lon="2.26164">
        <ele>107</ele>
        <time>2015-03-16T20:22:57.346Z</time>
      </trkpt>
      <trkpt lat="48.83893" lon="2.26169">
        <ele>107.4</ele>
        <time>2015-03-16T20:22:58.351Z</time>
      </trkpt>
      <trkpt lat="48.83892" lon="2.26179">
        <ele>107.5</ele>
        <time>2015-03-16T20:23:00.367Z</time>
      </trkpt>
      <trkpt lat="48.83891" lon="2.26183">
        <ele>107.5</ele>
        <time>2015-03-16T20:23:01.396Z</time>
      </trkpt>
      <trkpt lat="48.83885" lon="2.26189">
        <ele>107.7</ele>
        <time>2015-03-16T20:23:03.428Z</time>
      </trkpt>
      <trkpt lat="48.83882" lon="2.26192">
        <ele>107.6</ele>
        <time>2015-03-16T20:23:04.315Z</time>
      </trkpt>
      <trkpt lat="48.83876" lon="2.26198">
        <ele>107.8</ele>
        <time>2015-03-16T20:23:06.343Z</time>
      </trkpt>
      <trkpt lat="48.83872" lon="2.262">
        <ele>107.9</ele>
        <time>2015-03-16T20:23:07.354Z</time>
      </trkpt>
      <trkpt lat="48.83867" lon="2.26207">
        <ele>107.7</ele>
        <time>2015-03-16T20:23:09.396Z</time>
      </trkpt>
      <trkpt lat="48.83864" lon="2.2621">
        <ele>107.3</ele>
        <time>2015-03-16T20:23:10.405Z</time>
      </trkpt>
      <trkpt lat="48.83857" lon="2.26218">
        <ele>106.4</ele>
        <time>2015-03-16T20:23:12.407Z</time>
      </trkpt>
      <trkpt lat="48.83852" lon="2.26222">
        <ele>106</ele>
        <time>2015-03-16T20:23:13.335Z</time>
      </trkpt>
      <trkpt lat="48.83847" lon="2.26227">
        <ele>105.8</ele>
        <time>2015-03-16T20:23:14.348Z</time>
      </trkpt>
      <trkpt lat="48.8384" lon="2.26232">
        <ele>105.6</ele>
        <time>2015-03-16T20:23:15.354Z</time>
      </trkpt>
      <trkpt lat="48.83833" lon="2.26235">
        <ele>105.6</ele>
        <time>2015-03-16T20:23:16.359Z</time>
      </trkpt>
      <trkpt lat="48.83826" lon="2.26239">
        <ele>105.5</ele>
        <time>2015-03-16T20:23:17.368Z</time>
      </trkpt>
      <trkpt lat="48.83819" lon="2.26245">
        <ele>105.2</ele>
        <time>2015-03-16T20:23:18.383Z</time>
      </trkpt>
      <trkpt lat="48.83813" lon="2.2625">
        <ele>105.1</ele>
        <time>2015-03-16T20:23:19.406Z</time>
      </trkpt>
      <trkpt lat="48.83788" lon="2.26272">
        <ele>104.9</ele>
        <time>2015-03-16T20:23:24.427Z</time>
      </trkpt>
      <trkpt lat="48.83787" lon="2.26277">
        <ele>105.1</ele>
        <time>2015-03-16T20:23:25.348Z</time>
      </trkpt>
      <trkpt lat="48.83777" lon="2.26301">
        <ele>104.8</ele>
        <time>2015-03-16T20:23:31.349Z</time>
      </trkpt>
      <trkpt lat="48.83772" lon="2.26301">
        <ele>104.2</ele>
        <time>2015-03-16T20:23:37.347Z</time>
      </trkpt>
      <trkpt lat="48.83768" lon="2.26298">
        <ele>104.8</ele>
        <time>2015-03-16T20:23:38.366Z</time>
      </trkpt>
      <trkpt lat="48.83764" lon="2.26287">
        <ele>104.8</ele>
        <time>2015-03-16T20:23:41.305Z</time>
      </trkpt>
      <trkpt lat="48.83762" lon="2.26286">
        <ele>104.6</ele>
        <time>2015-03-16T20:23:42.329Z</time>
      </trkpt>
      <trkpt lat="48.83756" lon="2.26293">
        <ele>102.2</ele>
        <time>2015-03-16T20:23:45.349Z</time>
      </trkpt>
      <trkpt lat="48.83753" lon="2.26298">
        <ele>101.2</ele>
        <time>2015-03-16T20:23:46.383Z</time>
      </trkpt>
      <trkpt lat="48.83751" lon="2.26305">
        <ele>100.6</ele>
        <time>2015-03-16T20:23:47.366Z</time>
      </trkpt>
      <trkpt lat="48.83749" lon="2.26311">
        <ele>99.4</ele>
        <time>2015-03-16T20:23:48.272Z</time>
      </trkpt>
      <trkpt lat="48.83746" lon="2.26323">
        <ele>97.8</ele>
        <time>2015-03-16T20:23:50.358Z</time>
      </trkpt>
      <trkpt lat="48.83743" lon="2.26329">
        <ele>97.6</ele>
        <time>2015-03-16T20:23:51.352Z</time>
      </trkpt>
      <trkpt lat="48.83741" lon="2.26337">
        <ele>97</ele>
        <time>2015-03-16T20:23:52.449Z</time>
      </trkpt>
      <trkpt lat="48.83738" lon="2.26344">
        <ele>96.9</ele>
        <time>2015-03-16T20:23:53.388Z</time>
      </trkpt>
      <trkpt lat="48.83736" lon="2.26352">
        <ele>96.6</ele>
        <time>2015-03-16T20:23:54.394Z</time>
      </trkpt>
      <trkpt lat="48.83735" lon="2.26359">
        <ele>96.4</ele>
        <time>2015-03-16T20:23:55.434Z</time>
      </trkpt>
      <trkpt lat="48.83728" lon="2.26366">
        <ele>95.4</ele>
        <time>2015-03-16T20:23:57.325Z</time>
      </trkpt>
      <trkpt lat="48.83724" lon="2.26363">
        <ele>94.9</ele>
        <time>2015-03-16T20:23:58.323Z</time>
      </trkpt>
      <trkpt lat="48.83719" lon="2.26359">
        <ele>94.6</ele>
        <time>2015-03-16T20:23:59.350Z</time>
      </trkpt>
      <trkpt lat="48.83715" lon="2.26354">
        <ele>94.3</ele>
        <time>2015-03-16T20:24:00.382Z</time>
      </trkpt>
      <trkpt lat="48.83711" lon="2.2635">
        <ele>93.9</ele>
        <time>2015-03-16T20:24:01.474Z</time>
      </trkpt>
      <trkpt lat="48.83706" lon="2.26347">
        <ele>93.6</ele>
        <time>2015-03-16T20:24:02.355Z</time>
      </trkpt>
      <trkpt lat="48.83699" lon="2.2634">
        <ele>92.9</ele>
        <time>2015-03-16T20:24:04.309Z</time>
      </trkpt>
      <trkpt lat="48.83695" lon="2.26336">
        <ele>92.6</ele>
        <time>2015-03-16T20:24:05.289Z</time>
      </trkpt>
      <trkpt lat="48.83691" lon="2.26331">
        <ele>92.4</ele>
        <time>2015-03-16T20:24:06.307Z</time>
      </trkpt>
      <trkpt lat="48.83688" lon="2.26324">
        <ele>92.5</ele>
        <time>2015-03-16T20:24:07.344Z</time>
      </trkpt>
      <trkpt lat="48.83686" lon="2.26316">
        <ele>92.5</ele>
        <time>2015-03-16T20:24:08.356Z</time>
      </trkpt>
      <trkpt lat="48.83683" lon="2.26312">
        <ele>92.4</ele>
        <time>2015-03-16T20:24:09.305Z</time>
      </trkpt>
      <trkpt lat="48.8368" lon="2.26307">
        <ele>92</ele>
        <time>2015-03-16T20:24:10.323Z</time>
      </trkpt>
      <trkpt lat="48.83675" lon="2.26304">
        <ele>91.7</ele>
        <time>2015-03-16T20:24:11.350Z</time>
      </trkpt>
      <trkpt lat="48.83672" lon="2.26297">
        <ele>91.7</ele>
        <time>2015-03-16T20:24:12.379Z</time>
      </trkpt>
      <trkpt lat="48.8367" lon="2.26289">
        <ele>91.3</ele>
        <time>2015-03-16T20:24:13.386Z</time>
      </trkpt>
      <trkpt lat="48.83664" lon="2.26281">
        <ele>90.2</ele>
        <time>2015-03-16T20:24:15.311Z</time>
      </trkpt>
      <trkpt lat="48.83661" lon="2.26279">
        <ele>90.4</ele>
        <time>2015-03-16T20:24:16.309Z</time>
      </trkpt>
      <trkpt lat="48.83655" lon="2.26272">
        <ele>90.8</ele>
        <time>2015-03-16T20:24:19.359Z</time>
      </trkpt>
      <trkpt lat="48.83651" lon="2.26269">
        <ele>90.5</ele>
        <time>2015-03-16T20:24:20.404Z</time>
      </trkpt>
      <trkpt lat="48.83647" lon="2.26264">
        <ele>90.3</ele>
        <time>2015-03-16T20:24:21.280Z</time>
      </trkpt>
      <trkpt lat="48.83642" lon="2.2626">
        <ele>90</ele>
        <time>2015-03-16T20:24:22.301Z</time>
      </trkpt>
      <trkpt lat="48.83638" lon="2.26256">
        <ele>89.8</ele>
        <time>2015-03-16T20:24:23.358Z</time>
      </trkpt>
      <trkpt lat="48.83633" lon="2.26251">
        <ele>89.3</ele>
        <time>2015-03-16T20:24:24.367Z</time>
      </trkpt>
      <trkpt lat="48.83629" lon="2.26245">
        <ele>89</ele>
        <time>2015-03-16T20:24:25.377Z</time>
      </trkpt>
      <trkpt lat="48.83625" lon="2.26239">
        <ele>89</ele>
        <time>2015-03-16T20:24:26.389Z</time>
      </trkpt>
      <trkpt lat="48.83619" lon="2.26234">
        <ele>88.6</ele>
        <time>2015-03-16T20:24:28.051Z</time>
      </trkpt>
      <trkpt lat="48.83615" lon="2.26229">
        <ele>88.3</ele>
        <time>2015-03-16T20:24:28.290Z</time>
      </trkpt>
      <trkpt lat="48.8361" lon="2.26224">
        <ele>87.7</ele>
        <time>2015-03-16T20:24:29.409Z</time>
      </trkpt>
      <trkpt lat="48.83606" lon="2.26219">
        <ele>87.4</ele>
        <time>2015-03-16T20:24:30.310Z</time>
      </trkpt>
      <trkpt lat="48.83602" lon="2.26214">
        <ele>87.3</ele>
        <time>2015-03-16T20:24:31.324Z</time>
      </trkpt>
      <trkpt lat="48.83596" lon="2.2621">
        <ele>87.1</ele>
        <time>2015-03-16T20:24:32.350Z</time>
      </trkpt>
      <trkpt lat="48.8359" lon="2.26205">
        <ele>86.7</ele>
        <time>2015-03-16T20:24:33.370Z</time>
      </trkpt>
      <trkpt lat="48.83582" lon="2.26201">
        <ele>86</ele>
        <time>2015-03-16T20:24:34.379Z</time>
      </trkpt>
      <trkpt lat="48.83576" lon="2.26195">
        <ele>85.7</ele>
        <time>2015-03-16T20:24:35.388Z</time>
      </trkpt>
      <trkpt lat="48.83571" lon="2.2619">
        <ele>85.1</ele>
        <time>2015-03-16T20:24:36.316Z</time>
      </trkpt>
      <trkpt lat="48.83568" lon="2.26184">
        <ele>84.8</ele>
        <time>2015-03-16T20:24:37.308Z</time>
      </trkpt>
      <trkpt lat="48.83564" lon="2.26178">
        <ele>84.8</ele>
        <time>2015-03-16T20:24:38.368Z</time>
      </trkpt>
      <trkpt lat="48.83561" lon="2.26172">
        <ele>84.8</ele>
        <time>2015-03-16T20:24:39.360Z</time>
      </trkpt>
      <trkpt lat="48.83557" lon="2.26166">
        <ele>84.6</ele>
        <time>2015-03-16T20:24:40.370Z</time>
      </trkpt>
      <trkpt lat="48.83555" lon="2.26154">
        <ele>84.5</ele>
        <time>2015-03-16T20:24:42.376Z</time>
      </trkpt>
      <trkpt lat="48.83556" lon="2.26147">
        <ele>84.3</ele>
        <time>2015-03-16T20:24:43.304Z</time>
      </trkpt>
      <trkpt lat="48.83559" lon="2.2614">
        <ele>84.3</ele>
        <time>2015-03-16T20:24:44.375Z</time>
      </trkpt>
      <trkpt lat="48.83564" lon="2.26131">
        <ele>84.1</ele>
        <time>2015-03-16T20:24:45.369Z</time>
      </trkpt>
      <trkpt lat="48.83567" lon="2.26122">
        <ele>83.8</ele>
        <time>2015-03-16T20:24:46.395Z</time>
      </trkpt>
      <trkpt lat="48.8357" lon="2.26114">
        <ele>83.7</ele>
        <time>2015-03-16T20:24:47.283Z</time>
      </trkpt>
      <trkpt lat="48.83574" lon="2.26104">
        <ele>83.5</ele>
        <time>2015-03-16T20:24:48.358Z</time>
      </trkpt>
      <trkpt lat="48.83577" lon="2.26095">
        <ele>83.4</ele>
        <time>2015-03-16T20:24:49.374Z</time>
      </trkpt>
      <trkpt lat="48.8358" lon="2.26089">
        <ele>83.4</ele>
        <time>2015-03-16T20:24:50.385Z</time>
      </trkpt>
      <trkpt lat="48.83583" lon="2.26083">
        <ele>83.5</ele>
        <time>2015-03-16T20:24:51.352Z</time>
      </trkpt>
      <trkpt lat="48.83585" lon="2.26075">
        <ele>83.9</ele>
        <time>2015-03-16T20:24:53.341Z</time>
      </trkpt>
      <trkpt lat="48.83586" lon="2.26069">
        <ele>83.8</ele>
        <time>2015-03-16T20:24:54.410Z</time>
      </trkpt>
      <trkpt lat="48.83589" lon="2.26059">
        <ele>84.1</ele>
        <time>2015-03-16T20:24:56.360Z</time>
      </trkpt>
      <trkpt lat="48.83591" lon="2.26053">
        <ele>84.2</ele>
        <time>2015-03-16T20:24:57.382Z</time>
      </trkpt>
      <trkpt lat="48.83593" lon="2.26044">
        <ele>84</ele>
        <time>2015-03-16T20:24:59.317Z</time>
      </trkpt>
      <trkpt lat="48.83595" lon="2.2604">
        <ele>83.7</ele>
        <time>2015-03-16T20:25:00.378Z</time>
      </trkpt>
      <trkpt lat="48.836" lon="2.26031">
        <ele>83.4</ele>
        <time>2015-03-16T20:25:02.406Z</time>
      </trkpt>
      <trkpt lat="48.83602" lon="2.26026">
        <ele>83.1</ele>
        <time>2015-03-16T20:25:03.353Z</time>
      </trkpt>
      <trkpt lat="48.83607" lon="2.26015">
        <ele>83</ele>
        <time>2015-03-16T20:25:05.307Z</time>
      </trkpt>
      <trkpt lat="48.83607" lon="2.26011">
        <ele>83.1</ele>
        <time>2015-03-16T20:25:06.341Z</time>
      </trkpt>
      <trkpt lat="48.83608" lon="2.26001">
        <ele>83.3</ele>
        <time>2015-03-16T20:25:08.366Z</time>
      </trkpt>
      <trkpt lat="48.83609" lon="2.25994">
        <ele>83.4</ele>
        <time>2015-03-16T20:25:09.390Z</time>
      </trkpt>
      <trkpt lat="48.83609" lon="2.25984">
        <ele>83.7</ele>
        <time>2015-03-16T20:25:11.366Z</time>
      </trkpt>
      <trkpt lat="48.83609" lon="2.2598">
        <ele>83.9</ele>
        <time>2015-03-16T20:25:12.411Z</time>
      </trkpt>
      <trkpt lat="48.83609" lon="2.25973">
        <ele>84</ele>
        <time>2015-03-16T20:25:21.351Z</time>
      </trkpt>
      <trkpt lat="48.83617" lon="2.25939">
        <ele>83.7</ele>
        <time>2015-03-16T20:25:22.349Z</time>
      </trkpt>
      <trkpt lat="48.83618" lon="2.2593">
        <ele>83.9</ele>
        <time>2015-03-16T20:25:23.871Z</time>
      </trkpt>
      <trkpt lat="48.8362" lon="2.25922">
        <ele>84.1</ele>
        <time>2015-03-16T20:25:24.366Z</time>
      </trkpt>
      <trkpt lat="48.83623" lon="2.25915">
        <ele>84.1</ele>
        <time>2015-03-16T20:25:25.380Z</time>
      </trkpt>
      <trkpt lat="48.83625" lon="2.2591">
        <ele>84</ele>
        <time>2015-03-16T20:25:26.400Z</time>
      </trkpt>
      <trkpt lat="48.83627" lon="2.25899">
        <ele>83.8</ele>
        <time>2015-03-16T20:25:30.373Z</time>
      </trkpt>
      <trkpt lat="48.83628" lon="2.25879">
        <ele>83.1</ele>
        <time>2015-03-16T20:25:31.339Z</time>
      </trkpt>
      <trkpt lat="48.83629" lon="2.25865">
        <ele>83.1</ele>
        <time>2015-03-16T20:25:33.400Z</time>
      </trkpt>
      <trkpt lat="48.83629" lon="2.25856">
        <ele>83.1</ele>
        <time>2015-03-16T20:25:34.411Z</time>
      </trkpt>
      <trkpt lat="48.83631" lon="2.25846">
        <ele>83.1</ele>
        <time>2015-03-16T20:25:35.354Z</time>
      </trkpt>
      <trkpt lat="48.83634" lon="2.25836">
        <ele>82.9</ele>
        <time>2015-03-16T20:25:36.334Z</time>
      </trkpt>
      <trkpt lat="48.83639" lon="2.25827">
        <ele>82.9</ele>
        <time>2015-03-16T20:25:37.326Z</time>
      </trkpt>
      <trkpt lat="48.83644" lon="2.25818">
        <ele>82.7</ele>
        <time>2015-03-16T20:25:38.365Z</time>
      </trkpt>
      <trkpt lat="48.83649" lon="2.25807">
        <ele>82.6</ele>
        <time>2015-03-16T20:25:39.420Z</time>
      </trkpt>
      <trkpt lat="48.83653" lon="2.25798">
        <ele>82.5</ele>
        <time>2015-03-16T20:25:40.315Z</time>
      </trkpt>
      <trkpt lat="48.83658" lon="2.25789">
        <ele>82.4</ele>
        <time>2015-03-16T20:25:41.342Z</time>
      </trkpt>
      <trkpt lat="48.83663" lon="2.25779">
        <ele>82.3</ele>
        <time>2015-03-16T20:25:42.349Z</time>
      </trkpt>
      <trkpt lat="48.83667" lon="2.25768">
        <ele>82.2</ele>
        <time>2015-03-16T20:25:43.362Z</time>
      </trkpt>
      <trkpt lat="48.83671" lon="2.25758">
        <ele>82</ele>
        <time>2015-03-16T20:25:44.374Z</time>
      </trkpt>
      <trkpt lat="48.83674" lon="2.2575">
        <ele>81.7</ele>
        <time>2015-03-16T20:25:45.376Z</time>
      </trkpt>
      <trkpt lat="48.83676" lon="2.25742">
        <ele>81.4</ele>
        <time>2015-03-16T20:25:46.384Z</time>
      </trkpt>
      <trkpt lat="48.83679" lon="2.25735">
        <ele>81</ele>
        <time>2015-03-16T20:25:47.414Z</time>
      </trkpt>
      <trkpt lat="48.83681" lon="2.25727">
        <ele>80.7</ele>
        <time>2015-03-16T20:25:48.320Z</time>
      </trkpt>
      <trkpt lat="48.83683" lon="2.25714">
        <ele>80.1</ele>
        <time>2015-03-16T20:25:50.376Z</time>
      </trkpt>
      <trkpt lat="48.83684" lon="2.25709">
        <ele>79.9</ele>
        <time>2015-03-16T20:25:51.369Z</time>
      </trkpt>
      <trkpt lat="48.83684" lon="2.25705">
        <ele>79.9</ele>
        <time>2015-03-16T20:25:54.342Z</time>
      </trkpt>
      <trkpt lat="48.83684" lon="2.2569">
        <ele>79.1</ele>
        <time>2015-03-16T20:25:55.347Z</time>
      </trkpt>
      <trkpt lat="48.83682" lon="2.25677">
        <ele>78.2</ele>
        <time>2015-03-16T20:25:58.381Z</time>
      </trkpt>
      <trkpt lat="48.83681" lon="2.25674">
        <ele>78</ele>
        <time>2015-03-16T20:25:59.401Z</time>
      </trkpt>
      <trkpt lat="48.83681" lon="2.25674">
        <ele>78</ele>
        <time>2015-03-16T20:26:19.396Z</time>
      </trkpt>
      <trkpt lat="48.83674" lon="2.25659">
        <ele>84.2</ele>
        <time>2015-03-16T20:26:20.404Z</time>
      </trkpt>
      <trkpt lat="48.83682" lon="2.25662">
        <ele>83.9</ele>
        <time>2015-03-16T20:26:24.373Z</time>
      </trkpt>
      <trkpt lat="48.83689" lon="2.25663">
        <ele>83.2</ele>
        <time>2015-03-16T20:26:25.384Z</time>
      </trkpt>
      <trkpt lat="48.83697" lon="2.25664">
        <ele>82.4</ele>
        <time>2015-03-16T20:26:26.418Z</time>
      </trkpt>
      <trkpt lat="48.83705" lon="2.25666">
        <ele>81.6</ele>
        <time>2015-03-16T20:26:27.311Z</time>
      </trkpt>
      <trkpt lat="48.83714" lon="2.25669">
        <ele>80</ele>
        <time>2015-03-16T20:26:28.356Z</time>
      </trkpt>
      <trkpt lat="48.8372" lon="2.25671">
        <ele>79.4</ele>
        <time>2015-03-16T20:26:29.395Z</time>
      </trkpt>
      <trkpt lat="48.83726" lon="2.25674">
        <ele>78.9</ele>
        <time>2015-03-16T20:26:30.381Z</time>
      </trkpt>
      <trkpt lat="48.83732" lon="2.25676">
        <ele>78.7</ele>
        <time>2015-03-16T20:26:31.334Z</time>
      </trkpt>
      <trkpt lat="48.83739" lon="2.25677">
        <ele>78.5</ele>
        <time>2015-03-16T20:26:32.346Z</time>
      </trkpt>
      <trkpt lat="48.83742" lon="2.25683">
        <ele>79</ele>
        <time>2015-03-16T20:26:33.357Z</time>
      </trkpt>
      <trkpt lat="48.83744" lon="2.25689">
        <ele>79.3</ele>
        <time>2015-03-16T20:26:34.411Z</time>
      </trkpt>
      <trkpt lat="48.83746" lon="2.25696">
        <ele>79.8</ele>
        <time>2015-03-16T20:26:35.314Z</time>
      </trkpt>
      <trkpt lat="48.83748" lon="2.25702">
        <ele>80.3</ele>
        <time>2015-03-16T20:26:36.328Z</time>
      </trkpt>
      <trkpt lat="48.83751" lon="2.25708">
        <ele>81</ele>
        <time>2015-03-16T20:26:37.344Z</time>
      </trkpt>
      <trkpt lat="48.83753" lon="2.25715">
        <ele>81</ele>
        <time>2015-03-16T20:26:38.368Z</time>
      </trkpt>
      <trkpt lat="48.83756" lon="2.25723">
        <ele>80.8</ele>
        <time>2015-03-16T20:26:39.369Z</time>
      </trkpt>
      <trkpt lat="48.8376" lon="2.25729">
        <ele>81.1</ele>
        <time>2015-03-16T20:26:40.337Z</time>
      </trkpt>
      <trkpt lat="48.83764" lon="2.25735">
        <ele>81.1</ele>
        <time>2015-03-16T20:26:41.367Z</time>
      </trkpt>
      <trkpt lat="48.83768" lon="2.25738">
        <ele>80.9</ele>
        <time>2015-03-16T20:26:42.377Z</time>
      </trkpt>
      <trkpt lat="48.83776" lon="2.25744">
        <ele>81.1</ele>
        <time>2015-03-16T20:26:44.346Z</time>
      </trkpt>
      <trkpt lat="48.83781" lon="2.25746">
        <ele>80.8</ele>
        <time>2015-03-16T20:26:45.368Z</time>
      </trkpt>
      <trkpt lat="48.83787" lon="2.25747">
        <ele>80.5</ele>
        <time>2015-03-16T20:26:46.408Z</time>
      </trkpt>
      <trkpt lat="48.83792" lon="2.25748">
        <ele>80.8</ele>
        <time>2015-03-16T20:26:47.313Z</time>
      </trkpt>
      <trkpt lat="48.838" lon="2.25747">
        <ele>81.1</ele>
        <time>2015-03-16T20:26:49.367Z</time>
      </trkpt>
      <trkpt lat="48.83803" lon="2.25747">
        <ele>81.2</ele>
        <time>2015-03-16T20:26:50.423Z</time>
      </trkpt>
      <trkpt lat="48.8381" lon="2.25748">
        <ele>81</ele>
        <time>2015-03-16T20:26:52.358Z</time>
      </trkpt>
      <trkpt lat="48.83813" lon="2.25749">
        <ele>80.7</ele>
        <time>2015-03-16T20:26:53.369Z</time>
      </trkpt>
      <trkpt lat="48.83819" lon="2.25748">
        <ele>80.1</ele>
        <time>2015-03-16T20:26:55.358Z</time>
      </trkpt>
      <trkpt lat="48.83822" lon="2.25748">
        <ele>80.1</ele>
        <time>2015-03-16T20:26:56.369Z</time>
      </trkpt>
      <trkpt lat="48.83829" lon="2.25749">
        <ele>80.3</ele>
        <time>2015-03-16T20:26:58.299Z</time>
      </trkpt>
      <trkpt lat="48.83849" lon="2.25755">
        <ele>80.8</ele>
        <time>2015-03-16T20:27:03.310Z</time>
      </trkpt>
      <trkpt lat="48.83857" lon="2.25759">
        <ele>81</ele>
        <time>2015-03-16T20:27:05.324Z</time>
      </trkpt>
      <trkpt lat="48.83862" lon="2.25761">
        <ele>81.2</ele>
        <time>2015-03-16T20:27:06.342Z</time>
      </trkpt>
      <trkpt lat="48.84074" lon="2.25819">
        <ele>83.1</ele>
        <time>2015-03-16T20:27:46.363Z</time>
      </trkpt>
      <trkpt lat="48.84077" lon="2.25823">
        <ele>83.1</ele>
        <time>2015-03-16T20:27:47.373Z</time>
      </trkpt>
      <trkpt lat="48.84082" lon="2.25826">
        <ele>83.3</ele>
        <time>2015-03-16T20:27:48.405Z</time>
      </trkpt>
      <trkpt lat="48.8409" lon="2.25831">
        <ele>83.3</ele>
        <time>2015-03-16T20:27:50.356Z</time>
      </trkpt>
      <trkpt lat="48.84095" lon="2.25833">
        <ele>83.9</ele>
        <time>2015-03-16T20:27:51.388Z</time>
      </trkpt>
      <trkpt lat="48.841" lon="2.25835">
        <ele>84.4</ele>
        <time>2015-03-16T20:27:52.308Z</time>
      </trkpt>
      <trkpt lat="48.84105" lon="2.25836">
        <ele>84.6</ele>
        <time>2015-03-16T20:27:53.341Z</time>
      </trkpt>
      <trkpt lat="48.8411" lon="2.25836">
        <ele>84.9</ele>
        <time>2015-03-16T20:27:54.373Z</time>
      </trkpt>
      <trkpt lat="48.84116" lon="2.25836">
        <ele>85.1</ele>
        <time>2015-03-16T20:27:55.387Z</time>
      </trkpt>
      <trkpt lat="48.84122" lon="2.25836">
        <ele>85.3</ele>
        <time>2015-03-16T20:27:56.412Z</time>
      </trkpt>
      <trkpt lat="48.84129" lon="2.2584">
        <ele>85.5</ele>
        <time>2015-03-16T20:27:57.312Z</time>
      </trkpt>
      <trkpt lat="48.84136" lon="2.25843">
        <ele>86.1</ele>
        <time>2015-03-16T20:27:58.342Z</time>
      </trkpt>
      <trkpt lat="48.84142" lon="2.25851">
        <ele>86.8</ele>
        <time>2015-03-16T20:27:59.356Z</time>
      </trkpt>
      <trkpt lat="48.84149" lon="2.25859">
        <ele>87.3</ele>
        <time>2015-03-16T20:28:00.373Z</time>
      </trkpt>
      <trkpt lat="48.84154" lon="2.25865">
        <ele>87.7</ele>
        <time>2015-03-16T20:28:01.397Z</time>
      </trkpt>
      <trkpt lat="48.84159" lon="2.25874">
        <ele>88.1</ele>
        <time>2015-03-16T20:28:02.350Z</time>
      </trkpt>
      <trkpt lat="48.84166" lon="2.2588">
        <ele>88.5</ele>
        <time>2015-03-16T20:28:03.354Z</time>
      </trkpt>
      <trkpt lat="48.84173" lon="2.25887">
        <ele>89.4</ele>
        <time>2015-03-16T20:28:04.383Z</time>
      </trkpt>
      <trkpt lat="48.84181" lon="2.25894">
        <ele>90.3</ele>
        <time>2015-03-16T20:28:05.408Z</time>
      </trkpt>
      <trkpt lat="48.84294" lon="2.26004">
        <ele>91.8</ele>
        <time>2015-03-16T20:28:36.403Z</time>
      </trkpt>
      <trkpt lat="48.84294" lon="2.26004">
        <ele>91.8</ele>
        <time>2015-03-16T20:28:47.331Z</time>
      </trkpt>
      <trkpt lat="48.84306" lon="2.25995">
        <ele>100.9</ele>
        <time>2015-03-16T20:28:48.326Z</time>
      </trkpt>
      <trkpt lat="48.84311" lon="2.26004">
        <ele>102.6</ele>
        <time>2015-03-16T20:28:52.316Z</time>
      </trkpt>
      <trkpt lat="48.84312" lon="2.26005">
        <ele>102.8</ele>
        <time>2015-03-16T20:28:53.352Z</time>
      </trkpt>
      <trkpt lat="48.84318" lon="2.26009">
        <ele>103.4</ele>
        <time>2015-03-16T20:28:55.381Z</time>
      </trkpt>
      <trkpt lat="48.84321" lon="2.2601">
        <ele>103.3</ele>
        <time>2015-03-16T20:28:56.383Z</time>
      </trkpt>
      <trkpt lat="48.84341" lon="2.26028">
        <ele>103.3</ele>
        <time>2015-03-16T20:29:03.319Z</time>
      </trkpt>
      <trkpt lat="48.84346" lon="2.26029">
        <ele>103.3</ele>
        <time>2015-03-16T20:29:04.326Z</time>
      </trkpt>
      <trkpt lat="48.84352" lon="2.26031">
        <ele>103.8</ele>
        <time>2015-03-16T20:29:05.345Z</time>
      </trkpt>
      <trkpt lat="48.84357" lon="2.26033">
        <ele>103.7</ele>
        <time>2015-03-16T20:29:06.367Z</time>
      </trkpt>
      <trkpt lat="48.84362" lon="2.26036">
        <ele>103.8</ele>
        <time>2015-03-16T20:29:07.377Z</time>
      </trkpt>
      <trkpt lat="48.84366" lon="2.26038">
        <ele>103.7</ele>
        <time>2015-03-16T20:29:08.402Z</time>
      </trkpt>
      <trkpt lat="48.84374" lon="2.26041">
        <ele>102.9</ele>
        <time>2015-03-16T20:29:09.431Z</time>
      </trkpt>
      <trkpt lat="48.8438" lon="2.26045">
        <ele>102.2</ele>
        <time>2015-03-16T20:29:10.317Z</time>
      </trkpt>
      <trkpt lat="48.84385" lon="2.26049">
        <ele>101.7</ele>
        <time>2015-03-16T20:29:11.317Z</time>
      </trkpt>
      <trkpt lat="48.84393" lon="2.26054">
        <ele>102</ele>
        <time>2015-03-16T20:29:13.347Z</time>
      </trkpt>
      <trkpt lat="48.84395" lon="2.26058">
        <ele>101.7</ele>
        <time>2015-03-16T20:29:14.351Z</time>
      </trkpt>
      <trkpt lat="48.84399" lon="2.26068">
        <ele>99.7</ele>
        <time>2015-03-16T20:29:16.368Z</time>
      </trkpt>
      <trkpt lat="48.84401" lon="2.26075">
        <ele>98.3</ele>
        <time>2015-03-16T20:29:17.277Z</time>
      </trkpt>
      <trkpt lat="48.84406" lon="2.2608">
        <ele>98.5</ele>
        <time>2015-03-16T20:29:18.311Z</time>
      </trkpt>
      <trkpt lat="48.84409" lon="2.26084">
        <ele>98.6</ele>
        <time>2015-03-16T20:29:19.315Z</time>
      </trkpt>
      <trkpt lat="48.84415" lon="2.26091">
        <ele>99.1</ele>
        <time>2015-03-16T20:29:21.280Z</time>
      </trkpt>
      <trkpt lat="48.84419" lon="2.26094">
        <ele>99.2</ele>
        <time>2015-03-16T20:29:22.336Z</time>
      </trkpt>
      <trkpt lat="48.84424" lon="2.26095">
        <ele>99.4</ele>
        <time>2015-03-16T20:29:23.389Z</time>
      </trkpt>
      <trkpt lat="48.84429" lon="2.26096">
        <ele>99.3</ele>
        <time>2015-03-16T20:29:24.308Z</time>
      </trkpt>
      <trkpt lat="48.84433" lon="2.261">
        <ele>99</ele>
        <time>2015-03-16T20:29:25.286Z</time>
      </trkpt>
      <trkpt lat="48.84437" lon="2.26104">
        <ele>99.1</ele>
        <time>2015-03-16T20:29:26.313Z</time>
      </trkpt>
      <trkpt lat="48.84443" lon="2.26112">
        <ele>99.6</ele>
        <time>2015-03-16T20:29:28.334Z</time>
      </trkpt>
      <trkpt lat="48.84514" lon="2.26143">
        <ele>100.2</ele>
        <time>2015-03-16T20:29:39.384Z</time>
      </trkpt>
      <trkpt lat="48.84517" lon="2.26147">
        <ele>100.3</ele>
        <time>2015-03-16T20:29:40.417Z</time>
      </trkpt>
      <trkpt lat="48.8452" lon="2.26153">
        <ele>100.6</ele>
        <time>2015-03-16T20:29:41.306Z</time>
      </trkpt>
      <trkpt lat="48.84525" lon="2.26163">
        <ele>100.6</ele>
        <time>2015-03-16T20:29:43.327Z</time>
      </trkpt>
      <trkpt lat="48.84527" lon="2.26167">
        <ele>100.6</ele>
        <time>2015-03-16T20:29:44.358Z</time>
      </trkpt>
      <trkpt lat="48.84531" lon="2.26177">
        <ele>100.3</ele>
        <time>2015-03-16T20:29:47.384Z</time>
      </trkpt>
      <trkpt lat="48.84534" lon="2.2618">
        <ele>100.1</ele>
        <time>2015-03-16T20:29:48.413Z</time>
      </trkpt>
      <trkpt lat="48.84538" lon="2.26185">
        <ele>99.5</ele>
        <time>2015-03-16T20:29:49.322Z</time>
      </trkpt>
      <trkpt lat="48.84542" lon="2.26188">
        <ele>99</ele>
        <time>2015-03-16T20:29:50.358Z</time>
      </trkpt>
      <trkpt lat="48.84547" lon="2.2619">
        <ele>99</ele>
        <time>2015-03-16T20:29:51.369Z</time>
      </trkpt>
      <trkpt lat="48.84552" lon="2.26191">
        <ele>98.9</ele>
        <time>2015-03-16T20:29:52.304Z</time>
      </trkpt>
      <trkpt lat="48.84558" lon="2.26193">
        <ele>98.8</ele>
        <time>2015-03-16T20:29:53.340Z</time>
      </trkpt>
      <trkpt lat="48.84562" lon="2.26196">
        <ele>99.1</ele>
        <time>2015-03-16T20:29:54.294Z</time>
      </trkpt>
      <trkpt lat="48.84566" lon="2.26205">
        <ele>99.4</ele>
        <time>2015-03-16T20:29:56.351Z</time>
      </trkpt>
      <trkpt lat="48.8457" lon="2.2621">
        <ele>99.8</ele>
        <time>2015-03-16T20:29:57.384Z</time>
      </trkpt>
      <trkpt lat="48.84577" lon="2.26218">
        <ele>100.1</ele>
        <time>2015-03-16T20:29:59.318Z</time>
      </trkpt>
      <trkpt lat="48.8458" lon="2.26221">
        <ele>100</ele>
        <time>2015-03-16T20:30:00.314Z</time>
      </trkpt>
      <trkpt lat="48.84585" lon="2.26226">
        <ele>100.2</ele>
        <time>2015-03-16T20:30:01.329Z</time>
      </trkpt>
      <trkpt lat="48.84589" lon="2.2623">
        <ele>99.9</ele>
        <time>2015-03-16T20:30:02.374Z</time>
      </trkpt>
      <trkpt lat="48.84595" lon="2.26234">
        <ele>99.7</ele>
        <time>2015-03-16T20:30:03.395Z</time>
      </trkpt>
      <trkpt lat="48.84604" lon="2.26238">
        <ele>99.5</ele>
        <time>2015-03-16T20:30:04.312Z</time>
      </trkpt>
      <trkpt lat="48.84611" lon="2.26243">
        <ele>99.6</ele>
        <time>2015-03-16T20:30:05.311Z</time>
      </trkpt>
      <trkpt lat="48.84617" lon="2.26248">
        <ele>99.7</ele>
        <time>2015-03-16T20:30:06.330Z</time>
      </trkpt>
      <trkpt lat="48.84623" lon="2.26253">
        <ele>99.9</ele>
        <time>2015-03-16T20:30:08.157Z</time>
      </trkpt>
      <trkpt lat="48.84627" lon="2.26259">
        <ele>100</ele>
        <time>2015-03-16T20:30:08.347Z</time>
      </trkpt>
      <trkpt lat="48.84631" lon="2.26265">
        <ele>100.1</ele>
        <time>2015-03-16T20:30:09.365Z</time>
      </trkpt>
      <trkpt lat="48.84635" lon="2.2627">
        <ele>100.2</ele>
        <time>2015-03-16T20:30:10.430Z</time>
      </trkpt>
      <trkpt lat="48.8464" lon="2.26275">
        <ele>100.4</ele>
        <time>2015-03-16T20:30:11.300Z</time>
      </trkpt>
      <trkpt lat="48.84647" lon="2.26279">
        <ele>100.6</ele>
        <time>2015-03-16T20:30:12.302Z</time>
      </trkpt>
      <trkpt lat="48.84654" lon="2.26286">
        <ele>101.3</ele>
        <time>2015-03-16T20:30:13.307Z</time>
      </trkpt>
      <trkpt lat="48.8466" lon="2.26292">
        <ele>101.6</ele>
        <time>2015-03-16T20:30:14.357Z</time>
      </trkpt>
      <trkpt lat="48.84668" lon="2.26298">
        <ele>101.8</ele>
        <time>2015-03-16T20:30:15.394Z</time>
      </trkpt>
      <trkpt lat="48.84676" lon="2.26304">
        <ele>102.1</ele>
        <time>2015-03-16T20:30:16.342Z</time>
      </trkpt>
      <trkpt lat="48.84683" lon="2.2631">
        <ele>102.1</ele>
        <time>2015-03-16T20:30:17.287Z</time>
      </trkpt>
      <trkpt lat="48.84691" lon="2.26315">
        <ele>102.6</ele>
        <time>2015-03-16T20:30:18.301Z</time>
      </trkpt>
      <trkpt lat="48.84698" lon="2.26321">
        <ele>103.1</ele>
        <time>2015-03-16T20:30:19.332Z</time>
      </trkpt>
      <trkpt lat="48.84705" lon="2.26326">
        <ele>103.6</ele>
        <time>2015-03-16T20:30:20.344Z</time>
      </trkpt>
      <trkpt lat="48.84712" lon="2.26333">
        <ele>103.9</ele>
        <time>2015-03-16T20:30:21.355Z</time>
      </trkpt>
      <trkpt lat="48.8472" lon="2.26339">
        <ele>104</ele>
        <time>2015-03-16T20:30:22.363Z</time>
      </trkpt>
      <trkpt lat="48.84726" lon="2.26347">
        <ele>104</ele>
        <time>2015-03-16T20:30:23.313Z</time>
      </trkpt>
      <trkpt lat="48.84733" lon="2.26355">
        <ele>104.2</ele>
        <time>2015-03-16T20:30:24.286Z</time>
      </trkpt>
      <trkpt lat="48.84738" lon="2.2636">
        <ele>104</ele>
        <time>2015-03-16T20:30:25.296Z</time>
      </trkpt>
      <trkpt lat="48.84742" lon="2.26364">
        <ele>104.2</ele>
        <time>2015-03-16T20:30:26.310Z</time>
      </trkpt>
      <trkpt lat="48.84785" lon="2.26393">
        <ele>103.2</ele>
        <time>2015-03-16T20:30:32.357Z</time>
      </trkpt>
      <trkpt lat="48.84791" lon="2.26401">
        <ele>103.8</ele>
        <time>2015-03-16T20:30:33.369Z</time>
      </trkpt>
      <trkpt lat="48.84797" lon="2.26404">
        <ele>104.4</ele>
        <time>2015-03-16T20:30:34.319Z</time>
      </trkpt>
      <trkpt lat="48.84802" lon="2.26408">
        <ele>104.6</ele>
        <time>2015-03-16T20:30:35.283Z</time>
      </trkpt>
      <trkpt lat="48.84806" lon="2.2641">
        <ele>104.4</ele>
        <time>2015-03-16T20:30:36.300Z</time>
      </trkpt>
      <trkpt lat="48.84811" lon="2.26403">
        <ele>100.5</ele>
        <time>2015-03-16T20:31:56.385Z</time>
      </trkpt>
      <trkpt lat="48.8479" lon="2.2644">
        <ele>98.7</ele>
        <time>2015-03-16T20:31:57.274Z</time>
      </trkpt>
      <trkpt lat="48.84795" lon="2.26448">
        <ele>99.4</ele>
        <time>2015-03-16T20:31:59.364Z</time>
      </trkpt>
      <trkpt lat="48.84798" lon="2.26452">
        <ele>99.6</ele>
        <time>2015-03-16T20:32:00.285Z</time>
      </trkpt>
      <trkpt lat="48.84805" lon="2.2646">
        <ele>100</ele>
        <time>2015-03-16T20:32:02.368Z</time>
      </trkpt>
      <trkpt lat="48.84813" lon="2.26469">
        <ele>99.8</ele>
        <time>2015-03-16T20:32:05.288Z</time>
      </trkpt>
      <trkpt lat="48.84817" lon="2.26479">
        <ele>99.5</ele>
        <time>2015-03-16T20:32:07.365Z</time>
      </trkpt>
      <trkpt lat="48.84819" lon="2.26485">
        <ele>99.4</ele>
        <time>2015-03-16T20:32:08.370Z</time>
      </trkpt>
      <trkpt lat="48.84822" lon="2.26493">
        <ele>99.5</ele>
        <time>2015-03-16T20:32:09.268Z</time>
      </trkpt>
      <trkpt lat="48.84825" lon="2.26499">
        <ele>99.5</ele>
        <time>2015-03-16T20:32:10.301Z</time>
      </trkpt>
      <trkpt lat="48.84829" lon="2.26509">
        <ele>99.1</ele>
        <time>2015-03-16T20:32:12.339Z</time>
      </trkpt>
      <trkpt lat="48.8483" lon="2.26514">
        <ele>98.9</ele>
        <time>2015-03-16T20:32:13.348Z</time>
      </trkpt>
      <trkpt lat="48.84835" lon="2.26524">
        <ele>98.9</ele>
        <time>2015-03-16T20:32:15.271Z</time>
      </trkpt>
      <trkpt lat="48.84841" lon="2.2653">
        <ele>98.7</ele>
        <time>2015-03-16T20:32:16.300Z</time>
      </trkpt>
      <trkpt lat="48.84851" lon="2.26537">
        <ele>97.9</ele>
        <time>2015-03-16T20:32:17.306Z</time>
      </trkpt>
      <trkpt lat="48.84857" lon="2.26545">
        <ele>97.2</ele>
        <time>2015-03-16T20:32:18.309Z</time>
      </trkpt>
      <trkpt lat="48.84865" lon="2.26553">
        <ele>96.6</ele>
        <time>2015-03-16T20:32:19.314Z</time>
      </trkpt>
      <trkpt lat="48.8487" lon="2.26561">
        <ele>96.3</ele>
        <time>2015-03-16T20:32:20.329Z</time>
      </trkpt>
      <trkpt lat="48.85067" lon="2.26705">
        <ele>101.5</ele>
        <time>2015-03-16T20:33:18.338Z</time>
      </trkpt>
      <trkpt lat="48.85072" lon="2.26709">
        <ele>100.5</ele>
        <time>2015-03-16T20:33:22.395Z</time>
      </trkpt>
      <trkpt lat="48.85076" lon="2.26711">
        <ele>100.4</ele>
        <time>2015-03-16T20:33:23.326Z</time>
      </trkpt>
      <trkpt lat="48.85082" lon="2.26715">
        <ele>100.2</ele>
        <time>2015-03-16T20:33:25.356Z</time>
      </trkpt>
      <trkpt lat="48.85132" lon="2.26729">
        <ele>100.9</ele>
        <time>2015-03-16T20:33:36.382Z</time>
      </trkpt>
      <trkpt lat="48.85138" lon="2.26731">
        <ele>101.4</ele>
        <time>2015-03-16T20:33:37.304Z</time>
      </trkpt>
      <trkpt lat="48.85145" lon="2.26734">
        <ele>101.8</ele>
        <time>2015-03-16T20:33:38.338Z</time>
      </trkpt>
      <trkpt lat="48.8515" lon="2.26737">
        <ele>102.1</ele>
        <time>2015-03-16T20:33:39.364Z</time>
      </trkpt>
      <trkpt lat="48.85156" lon="2.2674">
        <ele>102.3</ele>
        <time>2015-03-16T20:33:40.383Z</time>
      </trkpt>
      <trkpt lat="48.85164" lon="2.26743">
        <ele>102.4</ele>
        <time>2015-03-16T20:33:41.270Z</time>
      </trkpt>
      <trkpt lat="48.85171" lon="2.26749">
        <ele>102.4</ele>
        <time>2015-03-16T20:33:42.284Z</time>
      </trkpt>
      <trkpt lat="48.85177" lon="2.26752">
        <ele>102.3</ele>
        <time>2015-03-16T20:33:43.351Z</time>
      </trkpt>
      <trkpt lat="48.85182" lon="2.26754">
        <ele>102.4</ele>
        <time>2015-03-16T20:33:44.365Z</time>
      </trkpt>
      <trkpt lat="48.8519" lon="2.26757">
        <ele>102.7</ele>
        <time>2015-03-16T20:33:45.433Z</time>
      </trkpt>
      <trkpt lat="48.85197" lon="2.2676">
        <ele>102.7</ele>
        <time>2015-03-16T20:33:46.304Z</time>
      </trkpt>
      <trkpt lat="48.85203" lon="2.26765">
        <ele>102.7</ele>
        <time>2015-03-16T20:33:47.322Z</time>
      </trkpt>
      <trkpt lat="48.85208" lon="2.2677">
        <ele>102.6</ele>
        <time>2015-03-16T20:33:48.333Z</time>
      </trkpt>
      <trkpt lat="48.85213" lon="2.26775">
        <ele>102.3</ele>
        <time>2015-03-16T20:33:50.182Z</time>
      </trkpt>
      <trkpt lat="48.85219" lon="2.26778">
        <ele>102.2</ele>
        <time>2015-03-16T20:33:50.287Z</time>
      </trkpt>
      <trkpt lat="48.85224" lon="2.2678">
        <ele>102.4</ele>
        <time>2015-03-16T20:33:51.306Z</time>
      </trkpt>
      <trkpt lat="48.8523" lon="2.26787">
        <ele>102.8</ele>
        <time>2015-03-16T20:33:52.307Z</time>
      </trkpt>
      <trkpt lat="48.85234" lon="2.26795">
        <ele>103</ele>
        <time>2015-03-16T20:33:53.311Z</time>
      </trkpt>
      <trkpt lat="48.85239" lon="2.26804">
        <ele>103.3</ele>
        <time>2015-03-16T20:33:54.392Z</time>
      </trkpt>
      <trkpt lat="48.85244" lon="2.2681">
        <ele>103.2</ele>
        <time>2015-03-16T20:33:55.304Z</time>
      </trkpt>
      <trkpt lat="48.8525" lon="2.26817">
        <ele>103.3</ele>
        <time>2015-03-16T20:33:56.290Z</time>
      </trkpt>
      <trkpt lat="48.85256" lon="2.26823">
        <ele>103.2</ele>
        <time>2015-03-16T20:33:57.311Z</time>
      </trkpt>
      <trkpt lat="48.85262" lon="2.26826">
        <ele>103.1</ele>
        <time>2015-03-16T20:33:58.379Z</time>
      </trkpt>
      <trkpt lat="48.8527" lon="2.26828">
        <ele>103.1</ele>
        <time>2015-03-16T20:33:59.263Z</time>
      </trkpt>
      <trkpt lat="48.85278" lon="2.2683">
        <ele>103.1</ele>
        <time>2015-03-16T20:34:00.267Z</time>
      </trkpt>
      <trkpt lat="48.85285" lon="2.26832">
        <ele>103.3</ele>
        <time>2015-03-16T20:34:01.283Z</time>
      </trkpt>
      <trkpt lat="48.85291" lon="2.26838">
        <ele>103.4</ele>
        <time>2015-03-16T20:34:02.310Z</time>
      </trkpt>
      <trkpt lat="48.85297" lon="2.26844">
        <ele>103.4</ele>
        <time>2015-03-16T20:34:03.345Z</time>
      </trkpt>
      <trkpt lat="48.85303" lon="2.26846">
        <ele>103.5</ele>
        <time>2015-03-16T20:34:04.350Z</time>
      </trkpt>
      <trkpt lat="48.85308" lon="2.26847">
        <ele>103.5</ele>
        <time>2015-03-16T20:34:05.356Z</time>
      </trkpt>
      <trkpt lat="48.85314" lon="2.26848">
        <ele>103.6</ele>
        <time>2015-03-16T20:34:06.284Z</time>
      </trkpt>
      <trkpt lat="48.8532" lon="2.26849">
        <ele>103.9</ele>
        <time>2015-03-16T20:34:07.299Z</time>
      </trkpt>
      <trkpt lat="48.85326" lon="2.26848">
        <ele>103.8</ele>
        <time>2015-03-16T20:34:08.320Z</time>
      </trkpt>
      <trkpt lat="48.8533" lon="2.2685">
        <ele>103.8</ele>
        <time>2015-03-16T20:34:09.347Z</time>
      </trkpt>
      <trkpt lat="48.85335" lon="2.26852">
        <ele>103.9</ele>
        <time>2015-03-16T20:34:10.369Z</time>
      </trkpt>
      <trkpt lat="48.85339" lon="2.26857">
        <ele>103.9</ele>
        <time>2015-03-16T20:34:11.291Z</time>
      </trkpt>
      <trkpt lat="48.85345" lon="2.26864">
        <ele>104.2</ele>
        <time>2015-03-16T20:34:12.291Z</time>
      </trkpt>
      <trkpt lat="48.8535" lon="2.26869">
        <ele>104.6</ele>
        <time>2015-03-16T20:34:13.305Z</time>
      </trkpt>
      <trkpt lat="48.85356" lon="2.26872">
        <ele>104.8</ele>
        <time>2015-03-16T20:34:14.312Z</time>
      </trkpt>
      <trkpt lat="48.85363" lon="2.26876">
        <ele>104.8</ele>
        <time>2015-03-16T20:34:15.325Z</time>
      </trkpt>
      <trkpt lat="48.85369" lon="2.2688">
        <ele>105.4</ele>
        <time>2015-03-16T20:34:16.369Z</time>
      </trkpt>
      <trkpt lat="48.85376" lon="2.26881">
        <ele>105.9</ele>
        <time>2015-03-16T20:34:17.279Z</time>
      </trkpt>
      <trkpt lat="48.85383" lon="2.26884">
        <ele>106.3</ele>
        <time>2015-03-16T20:34:18.293Z</time>
      </trkpt>
      <trkpt lat="48.85388" lon="2.26886">
        <ele>107.1</ele>
        <time>2015-03-16T20:34:19.302Z</time>
      </trkpt>
      <trkpt lat="48.85398" lon="2.26889">
        <ele>108.6</ele>
        <time>2015-03-16T20:34:20.329Z</time>
      </trkpt>
      <trkpt lat="48.85406" lon="2.26892">
        <ele>109.4</ele>
        <time>2015-03-16T20:34:21.334Z</time>
      </trkpt>
      <trkpt lat="48.85411" lon="2.26897">
        <ele>109.6</ele>
        <time>2015-03-16T20:34:22.347Z</time>
      </trkpt>
      <trkpt lat="48.85415" lon="2.26903">
        <ele>109.6</ele>
        <time>2015-03-16T20:34:23.364Z</time>
      </trkpt>
      <trkpt lat="48.85419" lon="2.26907">
        <ele>109.3</ele>
        <time>2015-03-16T20:34:24.283Z</time>
      </trkpt>
      <trkpt lat="48.85425" lon="2.26909">
        <ele>108.8</ele>
        <time>2015-03-16T20:34:25.302Z</time>
      </trkpt>
      <trkpt lat="48.85429" lon="2.26913">
        <ele>108.8</ele>
        <time>2015-03-16T20:34:26.320Z</time>
      </trkpt>
      <trkpt lat="48.85434" lon="2.26916">
        <ele>108.6</ele>
        <time>2015-03-16T20:34:27.339Z</time>
      </trkpt>
      <trkpt lat="48.85438" lon="2.2692">
        <ele>108.6</ele>
        <time>2015-03-16T20:34:28.360Z</time>
      </trkpt>
      <trkpt lat="48.85443" lon="2.26922">
        <ele>108.4</ele>
        <time>2015-03-16T20:34:29.284Z</time>
      </trkpt>
      <trkpt lat="48.85451" lon="2.26921">
        <ele>108</ele>
        <time>2015-03-16T20:34:30.292Z</time>
      </trkpt>
      <trkpt lat="48.85457" lon="2.26923">
        <ele>108.2</ele>
        <time>2015-03-16T20:34:31.307Z</time>
      </trkpt>
      <trkpt lat="48.85463" lon="2.26926">
        <ele>108.3</ele>
        <time>2015-03-16T20:34:32.316Z</time>
      </trkpt>
      <trkpt lat="48.85471" lon="2.26931">
        <ele>108.9</ele>
        <time>2015-03-16T20:34:34.345Z</time>
      </trkpt>
      <trkpt lat="48.85472" lon="2.26934">
        <ele>109.1</ele>
        <time>2015-03-16T20:34:35.365Z</time>
      </trkpt>
      <trkpt lat="48.8548" lon="2.26939">
        <ele>108.6</ele>
        <time>2015-03-16T20:34:38.344Z</time>
      </trkpt>
      <trkpt lat="48.85482" lon="2.2694">
        <ele>108.2</ele>
        <time>2015-03-16T20:34:39.382Z</time>
      </trkpt>
      <trkpt lat="48.8549" lon="2.26943">
        <ele>107.4</ele>
        <time>2015-03-16T20:34:43.373Z</time>
      </trkpt>
      <trkpt lat="48.85492" lon="2.26942">
        <ele>107.1</ele>
        <time>2015-03-16T20:34:44.386Z</time>
      </trkpt>
      <trkpt lat="48.85497" lon="2.26942">
        <ele>110.5</ele>
        <time>2015-03-16T20:36:08.381Z</time>
      </trkpt>
      <trkpt lat="48.85507" lon="2.26948">
        <ele>115.3</ele>
        <time>2015-03-16T20:36:09.317Z</time>
      </trkpt>
      <trkpt lat="48.8551" lon="2.26959">
        <ele>115.6</ele>
        <time>2015-03-16T20:36:13.320Z</time>
      </trkpt>
      <trkpt lat="48.85513" lon="2.26961">
        <ele>115.4</ele>
        <time>2015-03-16T20:36:14.331Z</time>
      </trkpt>
      <trkpt lat="48.85518" lon="2.26967">
        <ele>114.7</ele>
        <time>2015-03-16T20:36:16.366Z</time>
      </trkpt>
      <trkpt lat="48.8552" lon="2.26971">
        <ele>114.5</ele>
        <time>2015-03-16T20:36:17.397Z</time>
      </trkpt>
      <trkpt lat="48.85529" lon="2.26973">
        <ele>111.2</ele>
        <time>2015-03-16T20:36:18.295Z</time>
      </trkpt>
      <trkpt lat="48.85535" lon="2.26977">
        <ele>109.6</ele>
        <time>2015-03-16T20:36:19.302Z</time>
      </trkpt>
      <trkpt lat="48.85541" lon="2.2698">
        <ele>108.3</ele>
        <time>2015-03-16T20:36:20.329Z</time>
      </trkpt>
      <trkpt lat="48.85545" lon="2.26984">
        <ele>107.7</ele>
        <time>2015-03-16T20:36:21.337Z</time>
      </trkpt>
      <trkpt lat="48.85549" lon="2.26987">
        <ele>107.5</ele>
        <time>2015-03-16T20:36:22.353Z</time>
      </trkpt>
      <trkpt lat="48.85554" lon="2.26991">
        <ele>107</ele>
        <time>2015-03-16T20:36:23.367Z</time>
      </trkpt>
      <trkpt lat="48.85559" lon="2.26994">
        <ele>106.2</ele>
        <time>2015-03-16T20:36:24.376Z</time>
      </trkpt>
      <trkpt lat="48.85564" lon="2.26998">
        <ele>105.4</ele>
        <time>2015-03-16T20:36:25.299Z</time>
      </trkpt>
      <trkpt lat="48.85568" lon="2.27003">
        <ele>105</ele>
        <time>2015-03-16T20:36:26.336Z</time>
      </trkpt>
      <trkpt lat="48.85572" lon="2.27007">
        <ele>104</ele>
        <time>2015-03-16T20:36:27.345Z</time>
      </trkpt>
      <trkpt lat="48.85576" lon="2.27013">
        <ele>103.4</ele>
        <time>2015-03-16T20:36:28.357Z</time>
      </trkpt>
      <trkpt lat="48.85579" lon="2.27019">
        <ele>103</ele>
        <time>2015-03-16T20:36:29.281Z</time>
      </trkpt>
      <trkpt lat="48.85582" lon="2.27026">
        <ele>102.9</ele>
        <time>2015-03-16T20:36:30.288Z</time>
      </trkpt>
      <trkpt lat="48.85586" lon="2.27031">
        <ele>103.1</ele>
        <time>2015-03-16T20:36:31.300Z</time>
      </trkpt>
      <trkpt lat="48.8559" lon="2.27036">
        <ele>102.9</ele>
        <time>2015-03-16T20:36:32.306Z</time>
      </trkpt>
      <trkpt lat="48.85593" lon="2.27042">
        <ele>102.4</ele>
        <time>2015-03-16T20:36:33.364Z</time>
      </trkpt>
      <trkpt lat="48.85596" lon="2.27049">
        <ele>101.8</ele>
        <time>2015-03-16T20:36:34.375Z</time>
      </trkpt>
      <trkpt lat="48.85599" lon="2.27055">
        <ele>101.7</ele>
        <time>2015-03-16T20:36:35.300Z</time>
      </trkpt>
      <trkpt lat="48.85602" lon="2.27062">
        <ele>101.6</ele>
        <time>2015-03-16T20:36:36.348Z</time>
      </trkpt>
      <trkpt lat="48.85605" lon="2.27069">
        <ele>101.5</ele>
        <time>2015-03-16T20:36:37.380Z</time>
      </trkpt>
      <trkpt lat="48.85608" lon="2.27076">
        <ele>101.6</ele>
        <time>2015-03-16T20:36:38.301Z</time>
      </trkpt>
      <trkpt lat="48.85612" lon="2.27083">
        <ele>101.8</ele>
        <time>2015-03-16T20:36:39.311Z</time>
      </trkpt>
      <trkpt lat="48.85617" lon="2.27088">
        <ele>101.4</ele>
        <time>2015-03-16T20:36:40.336Z</time>
      </trkpt>
      <trkpt lat="48.85622" lon="2.27094">
        <ele>101.4</ele>
        <time>2015-03-16T20:36:41.353Z</time>
      </trkpt>
      <trkpt lat="48.85625" lon="2.27101">
        <ele>101.3</ele>
        <time>2015-03-16T20:36:42.362Z</time>
      </trkpt>
      <trkpt lat="48.8563" lon="2.27106">
        <ele>101.1</ele>
        <time>2015-03-16T20:36:43.374Z</time>
      </trkpt>
      <trkpt lat="48.85634" lon="2.27113">
        <ele>101.3</ele>
        <time>2015-03-16T20:36:44.400Z</time>
      </trkpt>
      <trkpt lat="48.85638" lon="2.27121">
        <ele>101.2</ele>
        <time>2015-03-16T20:36:45.292Z</time>
      </trkpt>
      <trkpt lat="48.85641" lon="2.2713">
        <ele>101.3</ele>
        <time>2015-03-16T20:36:46.306Z</time>
      </trkpt>
      <trkpt lat="48.85644" lon="2.27138">
        <ele>101.3</ele>
        <time>2015-03-16T20:36:47.319Z</time>
      </trkpt>
      <trkpt lat="48.85649" lon="2.27145">
        <ele>101.6</ele>
        <time>2015-03-16T20:36:48.347Z</time>
      </trkpt>
      <trkpt lat="48.85653" lon="2.2715">
        <ele>101.6</ele>
        <time>2015-03-16T20:36:49.364Z</time>
      </trkpt>
      <trkpt lat="48.85658" lon="2.27156">
        <ele>101.5</ele>
        <time>2015-03-16T20:36:50.394Z</time>
      </trkpt>
      <trkpt lat="48.85661" lon="2.27163">
        <ele>101.4</ele>
        <time>2015-03-16T20:36:51.291Z</time>
      </trkpt>
      <trkpt lat="48.85665" lon="2.27168">
        <ele>101.2</ele>
        <time>2015-03-16T20:36:52.309Z</time>
      </trkpt>
      <trkpt lat="48.85669" lon="2.27174">
        <ele>100.8</ele>
        <time>2015-03-16T20:36:53.332Z</time>
      </trkpt>
      <trkpt lat="48.85673" lon="2.2718">
        <ele>100.7</ele>
        <time>2015-03-16T20:36:54.258Z</time>
      </trkpt>
      <trkpt lat="48.85678" lon="2.27185">
        <ele>100.6</ele>
        <time>2015-03-16T20:36:55.280Z</time>
      </trkpt>
      <trkpt lat="48.85682" lon="2.27191">
        <ele>100.9</ele>
        <time>2015-03-16T20:36:56.303Z</time>
      </trkpt>
      <trkpt lat="48.85687" lon="2.27197">
        <ele>101.1</ele>
        <time>2015-03-16T20:36:57.311Z</time>
      </trkpt>
      <trkpt lat="48.85691" lon="2.27203">
        <ele>101</ele>
        <time>2015-03-16T20:36:58.271Z</time>
      </trkpt>
      <trkpt lat="48.85696" lon="2.27209">
        <ele>100.5</ele>
        <time>2015-03-16T20:36:59.283Z</time>
      </trkpt>
      <trkpt lat="48.857" lon="2.27215">
        <ele>100.2</ele>
        <time>2015-03-16T20:37:00.281Z</time>
      </trkpt>
      <trkpt lat="48.85703" lon="2.2722">
        <ele>99.6</ele>
        <time>2015-03-16T20:37:01.291Z</time>
      </trkpt>
      <trkpt lat="48.85706" lon="2.27227">
        <ele>99.4</ele>
        <time>2015-03-16T20:37:02.313Z</time>
      </trkpt>
      <trkpt lat="48.85709" lon="2.27234">
        <ele>99.4</ele>
        <time>2015-03-16T20:37:03.324Z</time>
      </trkpt>
      <trkpt lat="48.85712" lon="2.27242">
        <ele>99</ele>
        <time>2015-03-16T20:37:04.356Z</time>
      </trkpt>
      <trkpt lat="48.85716" lon="2.27248">
        <ele>98.8</ele>
        <time>2015-03-16T20:37:05.361Z</time>
      </trkpt>
      <trkpt lat="48.8572" lon="2.27254">
        <ele>98.5</ele>
        <time>2015-03-16T20:37:06.278Z</time>
      </trkpt>
      <trkpt lat="48.85724" lon="2.27259">
        <ele>98.6</ele>
        <time>2015-03-16T20:37:07.276Z</time>
      </trkpt>
      <trkpt lat="48.85727" lon="2.27265">
        <ele>98.7</ele>
        <time>2015-03-16T20:37:08.326Z</time>
      </trkpt>
      <trkpt lat="48.8573" lon="2.27271">
        <ele>98.9</ele>
        <time>2015-03-16T20:37:09.326Z</time>
      </trkpt>
      <trkpt lat="48.85737" lon="2.27281">
        <ele>99.5</ele>
        <time>2015-03-16T20:37:11.357Z</time>
      </trkpt>
      <trkpt lat="48.85738" lon="2.27286">
        <ele>100</ele>
        <time>2015-03-16T20:37:12.372Z</time>
      </trkpt>
      <trkpt lat="48.85744" lon="2.27296">
        <ele>101.3</ele>
        <time>2015-03-16T20:37:15.372Z</time>
      </trkpt>
      <trkpt lat="48.85745" lon="2.27297">
        <ele>102</ele>
        <time>2015-03-16T20:37:16.294Z</time>
      </trkpt>
      <trkpt lat="48.85745" lon="2.27296">
        <ele>102.4</ele>
        <time>2015-03-16T20:37:35.335Z</time>
      </trkpt>
      <trkpt lat="48.85753" lon="2.27289">
        <ele>104.4</ele>
        <time>2015-03-16T20:37:36.364Z</time>
      </trkpt>
      <trkpt lat="48.85758" lon="2.27294">
        <ele>105</ele>
        <time>2015-03-16T20:37:38.400Z</time>
      </trkpt>
      <trkpt lat="48.85761" lon="2.27297">
        <ele>104.8</ele>
        <time>2015-03-16T20:37:39.311Z</time>
      </trkpt>
      <trkpt lat="48.85766" lon="2.27306">
        <ele>105.4</ele>
        <time>2015-03-16T20:37:41.347Z</time>
      </trkpt>
      <trkpt lat="48.85768" lon="2.2731">
        <ele>106.1</ele>
        <time>2015-03-16T20:37:42.399Z</time>
      </trkpt>
      <trkpt lat="48.85774" lon="2.27318">
        <ele>107.1</ele>
        <time>2015-03-16T20:37:44.346Z</time>
      </trkpt>
      <trkpt lat="48.85777" lon="2.27322">
        <ele>107</ele>
        <time>2015-03-16T20:37:45.370Z</time>
      </trkpt>
      <trkpt lat="48.85781" lon="2.27325">
        <ele>108</ele>
        <time>2015-03-16T20:37:46.381Z</time>
      </trkpt>
      <trkpt lat="48.85786" lon="2.2733">
        <ele>109</ele>
        <time>2015-03-16T20:37:47.300Z</time>
      </trkpt>
      <trkpt lat="48.85791" lon="2.27341">
        <ele>109.8</ele>
        <time>2015-03-16T20:37:49.311Z</time>
      </trkpt>
      <trkpt lat="48.85793" lon="2.27348">
        <ele>110.2</ele>
        <time>2015-03-16T20:37:50.344Z</time>
      </trkpt>
      <trkpt lat="48.85795" lon="2.2736">
        <ele>110.7</ele>
        <time>2015-03-16T20:37:52.371Z</time>
      </trkpt>
      <trkpt lat="48.85797" lon="2.27365">
        <ele>110.9</ele>
        <time>2015-03-16T20:37:53.278Z</time>
      </trkpt>
      <trkpt lat="48.858" lon="2.27371">
        <ele>110.8</ele>
        <time>2015-03-16T20:37:54.368Z</time>
      </trkpt>
      <trkpt lat="48.85804" lon="2.27375">
        <ele>110.7</ele>
        <time>2015-03-16T20:37:55.281Z</time>
      </trkpt>
      <trkpt lat="48.85809" lon="2.27383">
        <ele>111</ele>
        <time>2015-03-16T20:37:57.352Z</time>
      </trkpt>
      <trkpt lat="48.8581" lon="2.27388">
        <ele>111.4</ele>
        <time>2015-03-16T20:37:58.371Z</time>
      </trkpt>
      <trkpt lat="48.85813" lon="2.27396">
        <ele>111.9</ele>
        <time>2015-03-16T20:38:00.605Z</time>
      </trkpt>
      <trkpt lat="48.85816" lon="2.27399">
        <ele>112.3</ele>
        <time>2015-03-16T20:38:01.307Z</time>
      </trkpt>
      <trkpt lat="48.85822" lon="2.27406">
        <ele>114.3</ele>
        <time>2015-03-16T20:38:20.295Z</time>
      </trkpt>
      <trkpt lat="48.85833" lon="2.27407">
        <ele>119.1</ele>
        <time>2015-03-16T20:38:21.279Z</time>
      </trkpt>
      <trkpt lat="48.85833" lon="2.2742">
        <ele>120.8</ele>
        <time>2015-03-16T20:38:24.356Z</time>
      </trkpt>
      <trkpt lat="48.85833" lon="2.27423">
        <ele>121.4</ele>
        <time>2015-03-16T20:38:25.263Z</time>
      </trkpt>
      <trkpt lat="48.85828" lon="2.27433">
        <ele>122.7</ele>
        <time>2015-03-16T20:38:32.335Z</time>
      </trkpt>
      <trkpt lat="48.85826" lon="2.27438">
        <ele>123.1</ele>
        <time>2015-03-16T20:38:33.352Z</time>
      </trkpt>
      <trkpt lat="48.85822" lon="2.27449">
        <ele>124.7</ele>
        <time>2015-03-16T20:38:36.283Z</time>
      </trkpt>
      <trkpt lat="48.85822" lon="2.27454">
        <ele>125.5</ele>
        <time>2015-03-16T20:38:37.295Z</time>
      </trkpt>
      <trkpt lat="48.85824" lon="2.27467">
        <ele>127</ele>
        <time>2015-03-16T20:38:40.337Z</time>
      </trkpt>
      <trkpt lat="48.85825" lon="2.27472">
        <ele>127.2</ele>
        <time>2015-03-16T20:38:41.336Z</time>
      </trkpt>
      <trkpt lat="48.85828" lon="2.27483">
        <ele>127.3</ele>
        <time>2015-03-16T20:38:43.373Z</time>
      </trkpt>
      <trkpt lat="48.8583" lon="2.27487">
        <ele>127.1</ele>
        <time>2015-03-16T20:38:44.389Z</time>
      </trkpt>
      <trkpt lat="48.85831" lon="2.27497">
        <ele>124.4</ele>
        <time>2015-03-16T20:38:46.308Z</time>
      </trkpt>
      <trkpt lat="48.85833" lon="2.27501">
        <ele>124.3</ele>
        <time>2015-03-16T20:38:47.332Z</time>
      </trkpt>
      <trkpt lat="48.85834" lon="2.27511">
        <ele>124.3</ele>
        <time>2015-03-16T20:38:49.324Z</time>
      </trkpt>
      <trkpt lat="48.85835" lon="2.27516">
        <ele>124.3</ele>
        <time>2015-03-16T20:38:50.335Z</time>
      </trkpt>
      <trkpt lat="48.85838" lon="2.27525">
        <ele>123.9</ele>
        <time>2015-03-16T20:38:53.330Z</time>
      </trkpt>
      <trkpt lat="48.8584" lon="2.27529">
        <ele>124</ele>
        <time>2015-03-16T20:38:54.356Z</time>
      </trkpt>
      <trkpt lat="48.85842" lon="2.27534">
        <ele>124</ele>
        <time>2015-03-16T20:38:55.392Z</time>
      </trkpt>
      <trkpt lat="48.85845" lon="2.27541">
        <ele>124.1</ele>
        <time>2015-03-16T20:38:56.404Z</time>
      </trkpt>
      <trkpt lat="48.85847" lon="2.27548">
        <ele>124.1</ele>
        <time>2015-03-16T20:38:57.310Z</time>
      </trkpt>
      <trkpt lat="48.8585" lon="2.27554">
        <ele>123.7</ele>
        <time>2015-03-16T20:38:58.300Z</time>
      </trkpt>
      <trkpt lat="48.85853" lon="2.2756">
        <ele>123.5</ele>
        <time>2015-03-16T20:38:59.321Z</time>
      </trkpt>
      <trkpt lat="48.85857" lon="2.27567">
        <ele>123.5</ele>
        <time>2015-03-16T20:39:00.335Z</time>
      </trkpt>
      <trkpt lat="48.8586" lon="2.27574">
        <ele>123.4</ele>
        <time>2015-03-16T20:39:01.339Z</time>
      </trkpt>
      <trkpt lat="48.85863" lon="2.27581">
        <ele>123.1</ele>
        <time>2015-03-16T20:39:02.357Z</time>
      </trkpt>
      <trkpt lat="48.85866" lon="2.27587">
        <ele>123</ele>
        <time>2015-03-16T20:39:03.355Z</time>
      </trkpt>
      <trkpt lat="48.85869" lon="2.27593">
        <ele>122.9</ele>
        <time>2015-03-16T20:39:04.365Z</time>
      </trkpt>
      <trkpt lat="48.85873" lon="2.27599">
        <ele>122.7</ele>
        <time>2015-03-16T20:39:05.380Z</time>
      </trkpt>
      <trkpt lat="48.85876" lon="2.27606">
        <ele>122.4</ele>
        <time>2015-03-16T20:39:06.389Z</time>
      </trkpt>
      <trkpt lat="48.8588" lon="2.27614">
        <ele>121.6</ele>
        <time>2015-03-16T20:39:07.301Z</time>
      </trkpt>
      <trkpt lat="48.85883" lon="2.27621">
        <ele>120.9</ele>
        <time>2015-03-16T20:39:08.307Z</time>
      </trkpt>
      <trkpt lat="48.8589" lon="2.27631">
        <ele>118.8</ele>
        <time>2015-03-16T20:39:09.316Z</time>
      </trkpt>
      <trkpt lat="48.85896" lon="2.27638">
        <ele>116.7</ele>
        <time>2015-03-16T20:39:10.333Z</time>
      </trkpt>
      <trkpt lat="48.85902" lon="2.27647">
        <ele>115.4</ele>
        <time>2015-03-16T20:39:11.354Z</time>
      </trkpt>
      <trkpt lat="48.85907" lon="2.27655">
        <ele>114.6</ele>
        <time>2015-03-16T20:39:12.299Z</time>
      </trkpt>
      <trkpt lat="48.8591" lon="2.27665">
        <ele>115.1</ele>
        <time>2015-03-16T20:39:13.302Z</time>
      </trkpt>
      <trkpt lat="48.85914" lon="2.27674">
        <ele>116.1</ele>
        <time>2015-03-16T20:39:14.310Z</time>
      </trkpt>
      <trkpt lat="48.85917" lon="2.27683">
        <ele>117.6</ele>
        <time>2015-03-16T20:39:15.344Z</time>
      </trkpt>
      <trkpt lat="48.85918" lon="2.27692">
        <ele>118.9</ele>
        <time>2015-03-16T20:39:16.271Z</time>
      </trkpt>
      <trkpt lat="48.8592" lon="2.27701">
        <ele>120.1</ele>
        <time>2015-03-16T20:39:17.283Z</time>
      </trkpt>
      <trkpt lat="48.85921" lon="2.2771">
        <ele>120.7</ele>
        <time>2015-03-16T20:39:18.292Z</time>
      </trkpt>
      <trkpt lat="48.85923" lon="2.27718">
        <ele>121.3</ele>
        <time>2015-03-16T20:39:19.296Z</time>
      </trkpt>
      <trkpt lat="48.85924" lon="2.27728">
        <ele>121.5</ele>
        <time>2015-03-16T20:39:20.328Z</time>
      </trkpt>
      <trkpt lat="48.85926" lon="2.27737">
        <ele>121.6</ele>
        <time>2015-03-16T20:39:21.328Z</time>
      </trkpt>
      <trkpt lat="48.85929" lon="2.27744">
        <ele>121.7</ele>
        <time>2015-03-16T20:39:22.337Z</time>
      </trkpt>
      <trkpt lat="48.85933" lon="2.27752">
        <ele>121.9</ele>
        <time>2015-03-16T20:39:23.361Z</time>
      </trkpt>
      <trkpt lat="48.85937" lon="2.2776">
        <ele>122</ele>
        <time>2015-03-16T20:39:24.382Z</time>
      </trkpt>
      <trkpt lat="48.8594" lon="2.27768">
        <ele>122.2</ele>
        <time>2015-03-16T20:39:25.442Z</time>
      </trkpt>
      <trkpt lat="48.85944" lon="2.27775">
        <ele>122.3</ele>
        <time>2015-03-16T20:39:26.361Z</time>
      </trkpt>
      <trkpt lat="48.85949" lon="2.27782">
        <ele>122.3</ele>
        <time>2015-03-16T20:39:27.365Z</time>
      </trkpt>
      <trkpt lat="48.85953" lon="2.27791">
        <ele>122.4</ele>
        <time>2015-03-16T20:39:28.385Z</time>
      </trkpt>
      <trkpt lat="48.85957" lon="2.278">
        <ele>122.5</ele>
        <time>2015-03-16T20:39:29.272Z</time>
      </trkpt>
      <trkpt lat="48.8596" lon="2.27809">
        <ele>122.6</ele>
        <time>2015-03-16T20:39:30.309Z</time>
      </trkpt>
      <trkpt lat="48.85963" lon="2.27819">
        <ele>122.8</ele>
        <time>2015-03-16T20:39:31.320Z</time>
      </trkpt>
      <trkpt lat="48.85966" lon="2.27828">
        <ele>123.1</ele>
        <time>2015-03-16T20:39:32.362Z</time>
      </trkpt>
      <trkpt lat="48.85968" lon="2.27837">
        <ele>123.3</ele>
        <time>2015-03-16T20:39:33.381Z</time>
      </trkpt>
      <trkpt lat="48.85968" lon="2.27846">
        <ele>123.4</ele>
        <time>2015-03-16T20:39:34.272Z</time>
      </trkpt>
      <trkpt lat="48.85969" lon="2.27854">
        <ele>123.7</ele>
        <time>2015-03-16T20:39:35.295Z</time>
      </trkpt>
      <trkpt lat="48.85968" lon="2.27861">
        <ele>123.9</ele>
        <time>2015-03-16T20:39:36.299Z</time>
      </trkpt>
      <trkpt lat="48.85968" lon="2.27867">
        <ele>124.3</ele>
        <time>2015-03-16T20:39:37.321Z</time>
      </trkpt>
      <trkpt lat="48.85969" lon="2.2788">
        <ele>124.1</ele>
        <time>2015-03-16T20:39:39.329Z</time>
      </trkpt>
      <trkpt lat="48.85969" lon="2.27885">
        <ele>123.7</ele>
        <time>2015-03-16T20:39:40.346Z</time>
      </trkpt>
      <trkpt lat="48.85974" lon="2.2789">
        <ele>121.7</ele>
        <time>2015-03-16T20:39:41.364Z</time>
      </trkpt>
      <trkpt lat="48.85977" lon="2.27895">
        <ele>121</ele>
        <time>2015-03-16T20:39:42.357Z</time>
      </trkpt>
      <trkpt lat="48.85978" lon="2.27904">
        <ele>120.5</ele>
        <time>2015-03-16T20:39:44.306Z</time>
      </trkpt>
      <trkpt lat="48.85979" lon="2.27908">
        <ele>120.5</ele>
        <time>2015-03-16T20:39:45.311Z</time>
      </trkpt>
      <trkpt lat="48.85983" lon="2.2792">
        <ele>121.2</ele>
        <time>2015-03-16T20:39:49.257Z</time>
      </trkpt>
      <trkpt lat="48.85985" lon="2.27923">
        <ele>121.4</ele>
        <time>2015-03-16T20:39:49.361Z</time>
      </trkpt>
      <trkpt lat="48.85988" lon="2.27932">
        <ele>122.9</ele>
        <time>2015-03-16T20:40:10.337Z</time>
      </trkpt>
      <trkpt lat="48.86001" lon="2.27917">
        <ele>126.7</ele>
        <time>2015-03-16T20:40:11.339Z</time>
      </trkpt>
      <trkpt lat="48.85999" lon="2.27926">
        <ele>127.7</ele>
        <time>2015-03-16T20:40:12.343Z</time>
      </trkpt>
      <trkpt lat="48.85997" lon="2.27935">
        <ele>128.7</ele>
        <time>2015-03-16T20:40:13.357Z</time>
      </trkpt>
      <trkpt lat="48.85994" lon="2.27945">
        <ele>129.2</ele>
        <time>2015-03-16T20:40:14.428Z</time>
      </trkpt>
      <trkpt lat="48.85994" lon="2.27954">
        <ele>129.4</ele>
        <time>2015-03-16T20:40:15.257Z</time>
      </trkpt>
      <trkpt lat="48.85994" lon="2.27963">
        <ele>129.7</ele>
        <time>2015-03-16T20:40:16.340Z</time>
      </trkpt>
      <trkpt lat="48.85995" lon="2.27972">
        <ele>130</ele>
        <time>2015-03-16T20:40:17.331Z</time>
      </trkpt>
      <trkpt lat="48.85996" lon="2.27979">
        <ele>130.2</ele>
        <time>2015-03-16T20:40:18.336Z</time>
      </trkpt>
      <trkpt lat="48.85999" lon="2.27987">
        <ele>130.7</ele>
        <time>2015-03-16T20:40:19.346Z</time>
      </trkpt>
      <trkpt lat="48.86001" lon="2.27997">
        <ele>131</ele>
        <time>2015-03-16T20:40:20.372Z</time>
      </trkpt>
      <trkpt lat="48.8601" lon="2.28032">
        <ele>131.5</ele>
        <time>2015-03-16T20:40:24.356Z</time>
      </trkpt>
      <trkpt lat="48.86014" lon="2.28041">
        <ele>131.7</ele>
        <time>2015-03-16T20:40:25.263Z</time>
      </trkpt>
      <trkpt lat="48.86017" lon="2.2805">
        <ele>131.7</ele>
        <time>2015-03-16T20:40:26.309Z</time>
      </trkpt>
      <trkpt lat="48.86021" lon="2.28059">
        <ele>131.9</ele>
        <time>2015-03-16T20:40:27.312Z</time>
      </trkpt>
      <trkpt lat="48.86024" lon="2.28068">
        <ele>132</ele>
        <time>2015-03-16T20:40:28.350Z</time>
      </trkpt>
      <trkpt lat="48.8603" lon="2.28086">
        <ele>132.3</ele>
        <time>2015-03-16T20:40:30.267Z</time>
      </trkpt>
      <trkpt lat="48.86032" lon="2.28095">
        <ele>132.7</ele>
        <time>2015-03-16T20:40:31.315Z</time>
      </trkpt>
      <trkpt lat="48.86033" lon="2.28104">
        <ele>132.8</ele>
        <time>2015-03-16T20:40:32.329Z</time>
      </trkpt>
      <trkpt lat="48.86035" lon="2.28113">
        <ele>132.9</ele>
        <time>2015-03-16T20:40:33.344Z</time>
      </trkpt>
      <trkpt lat="48.86039" lon="2.28119">
        <ele>132.8</ele>
        <time>2015-03-16T20:40:34.392Z</time>
      </trkpt>
      <trkpt lat="48.86042" lon="2.28127">
        <ele>132.7</ele>
        <time>2015-03-16T20:40:35.278Z</time>
      </trkpt>
      <trkpt lat="48.86044" lon="2.28134">
        <ele>132.6</ele>
        <time>2015-03-16T20:40:36.296Z</time>
      </trkpt>
      <trkpt lat="48.86046" lon="2.28141">
        <ele>132.3</ele>
        <time>2015-03-16T20:40:37.321Z</time>
      </trkpt>
      <trkpt lat="48.86048" lon="2.28148">
        <ele>132</ele>
        <time>2015-03-16T20:40:38.343Z</time>
      </trkpt>
      <trkpt lat="48.8605" lon="2.28157">
        <ele>131.7</ele>
        <time>2015-03-16T20:40:39.359Z</time>
      </trkpt>
      <trkpt lat="48.86056" lon="2.28172">
        <ele>131.6</ele>
        <time>2015-03-16T20:40:41.385Z</time>
      </trkpt>
      <trkpt lat="48.86059" lon="2.2818">
        <ele>131.4</ele>
        <time>2015-03-16T20:40:42.341Z</time>
      </trkpt>
      <trkpt lat="48.86063" lon="2.28187">
        <ele>131.1</ele>
        <time>2015-03-16T20:40:43.359Z</time>
      </trkpt>
      <trkpt lat="48.8607" lon="2.28193">
        <ele>128.4</ele>
        <time>2015-03-16T20:40:44.387Z</time>
      </trkpt>
      <trkpt lat="48.86075" lon="2.28201">
        <ele>127.5</ele>
        <time>2015-03-16T20:40:45.391Z</time>
      </trkpt>
      <trkpt lat="48.8608" lon="2.28207">
        <ele>127.3</ele>
        <time>2015-03-16T20:40:46.341Z</time>
      </trkpt>
      <trkpt lat="48.86085" lon="2.28213">
        <ele>127.4</ele>
        <time>2015-03-16T20:40:47.352Z</time>
      </trkpt>
      <trkpt lat="48.8609" lon="2.28217">
        <ele>127.7</ele>
        <time>2015-03-16T20:40:48.349Z</time>
      </trkpt>
      <trkpt lat="48.86096" lon="2.28221">
        <ele>128.1</ele>
        <time>2015-03-16T20:40:49.361Z</time>
      </trkpt>
      <trkpt lat="48.86101" lon="2.28225">
        <ele>128.1</ele>
        <time>2015-03-16T20:40:50.382Z</time>
      </trkpt>
      <trkpt lat="48.86106" lon="2.28228">
        <ele>128.1</ele>
        <time>2015-03-16T20:40:51.295Z</time>
      </trkpt>
      <trkpt lat="48.8611" lon="2.28234">
        <ele>128.2</ele>
        <time>2015-03-16T20:40:52.327Z</time>
      </trkpt>
      <trkpt lat="48.86115" lon="2.28239">
        <ele>128.2</ele>
        <time>2015-03-16T20:40:53.342Z</time>
      </trkpt>
      <trkpt lat="48.86117" lon="2.28247">
        <ele>128.5</ele>
        <time>2015-03-16T20:40:54.347Z</time>
      </trkpt>
      <trkpt lat="48.8612" lon="2.28253">
        <ele>128.9</ele>
        <time>2015-03-16T20:40:55.354Z</time>
      </trkpt>
      <trkpt lat="48.86123" lon="2.28261">
        <ele>129.6</ele>
        <time>2015-03-16T20:40:56.368Z</time>
      </trkpt>
      <trkpt lat="48.86126" lon="2.28268">
        <ele>129.9</ele>
        <time>2015-03-16T20:40:57.322Z</time>
      </trkpt>
      <trkpt lat="48.86129" lon="2.28272">
        <ele>130</ele>
        <time>2015-03-16T20:40:58.344Z</time>
      </trkpt>
      <trkpt lat="48.86132" lon="2.28278">
        <ele>130.3</ele>
        <time>2015-03-16T20:40:59.341Z</time>
      </trkpt>
      <trkpt lat="48.86133" lon="2.28285">
        <ele>130.7</ele>
        <time>2015-03-16T20:41:00.347Z</time>
      </trkpt>
      <trkpt lat="48.86133" lon="2.28294">
        <ele>131.1</ele>
        <time>2015-03-16T20:41:01.361Z</time>
      </trkpt>
      <trkpt lat="48.86133" lon="2.28306">
        <ele>133.3</ele>
        <time>2015-03-16T20:41:04.372Z</time>
      </trkpt>
      <trkpt lat="48.86133" lon="2.28308">
        <ele>133.8</ele>
        <time>2015-03-16T20:41:05.321Z</time>
      </trkpt>
      <trkpt lat="48.86132" lon="2.2831">
        <ele>134.3</ele>
        <time>2015-03-16T20:41:35.397Z</time>
      </trkpt>
      <trkpt lat="48.86117" lon="2.2834">
        <ele>139.3</ele>
        <time>2015-03-16T20:41:36.302Z</time>
      </trkpt>
      <trkpt lat="48.86118" lon="2.28353">
        <ele>139.7</ele>
        <time>2015-03-16T20:41:41.329Z</time>
      </trkpt>
      <trkpt lat="48.86118" lon="2.28355">
        <ele>139.7</ele>
        <time>2015-03-16T20:41:42.412Z</time>
      </trkpt>
      <trkpt lat="48.86118" lon="2.28367">
        <ele>139.5</ele>
        <time>2015-03-16T20:41:46.293Z</time>
      </trkpt>
      <trkpt lat="48.86121" lon="2.28369">
        <ele>139.5</ele>
        <time>2015-03-16T20:41:47.499Z</time>
      </trkpt>
      <trkpt lat="48.86126" lon="2.28375">
        <ele>139.8</ele>
        <time>2015-03-16T20:41:49.368Z</time>
      </trkpt>
      <trkpt lat="48.86127" lon="2.28378">
        <ele>139.9</ele>
        <time>2015-03-16T20:41:50.446Z</time>
      </trkpt>
      <trkpt lat="48.86132" lon="2.28389">
        <ele>139.7</ele>
        <time>2015-03-16T20:41:53.363Z</time>
      </trkpt>
      <trkpt lat="48.86134" lon="2.28393">
        <ele>139.5</ele>
        <time>2015-03-16T20:41:54.392Z</time>
      </trkpt>
      <trkpt lat="48.86137" lon="2.28402">
        <ele>139.1</ele>
        <time>2015-03-16T20:41:56.351Z</time>
      </trkpt>
      <trkpt lat="48.86139" lon="2.28408">
        <ele>138.9</ele>
        <time>2015-03-16T20:41:57.416Z</time>
      </trkpt>
      <trkpt lat="48.86143" lon="2.28419">
        <ele>138.6</ele>
        <time>2015-03-16T20:41:59.302Z</time>
      </trkpt>
      <trkpt lat="48.86145" lon="2.28425">
        <ele>138.4</ele>
        <time>2015-03-16T20:42:00.321Z</time>
      </trkpt>
      <trkpt lat="48.86147" lon="2.2843">
        <ele>138.1</ele>
        <time>2015-03-16T20:42:01.312Z</time>
      </trkpt>
      <trkpt lat="48.86151" lon="2.28435">
        <ele>137.3</ele>
        <time>2015-03-16T20:42:02.345Z</time>
      </trkpt>
      <trkpt lat="48.86156" lon="2.28441">
        <ele>136.2</ele>
        <time>2015-03-16T20:42:03.455Z</time>
      </trkpt>
      <trkpt lat="48.8616" lon="2.28445">
        <ele>135.4</ele>
        <time>2015-03-16T20:42:04.393Z</time>
      </trkpt>
      <trkpt lat="48.86164" lon="2.28449">
        <ele>134.9</ele>
        <time>2015-03-16T20:42:05.465Z</time>
      </trkpt>
      <trkpt lat="48.86167" lon="2.28454">
        <ele>134.3</ele>
        <time>2015-03-16T20:42:06.264Z</time>
      </trkpt>
      <trkpt lat="48.86171" lon="2.28459">
        <ele>134.2</ele>
        <time>2015-03-16T20:42:07.310Z</time>
      </trkpt>
      <trkpt lat="48.86174" lon="2.28466">
        <ele>134.1</ele>
        <time>2015-03-16T20:42:08.338Z</time>
      </trkpt>
      <trkpt lat="48.86177" lon="2.28472">
        <ele>133.8</ele>
        <time>2015-03-16T20:42:10.119Z</time>
      </trkpt>
      <trkpt lat="48.8618" lon="2.2848">
        <ele>133.2</ele>
        <time>2015-03-16T20:42:10.356Z</time>
      </trkpt>
      <trkpt lat="48.86183" lon="2.28488">
        <ele>132.8</ele>
        <time>2015-03-16T20:42:11.374Z</time>
      </trkpt>
      <trkpt lat="48.86185" lon="2.28495">
        <ele>132.2</ele>
        <time>2015-03-16T20:42:12.292Z</time>
      </trkpt>
      <trkpt lat="48.86187" lon="2.28503">
        <ele>131.9</ele>
        <time>2015-03-16T20:42:13.348Z</time>
      </trkpt>
      <trkpt lat="48.8619" lon="2.28511">
        <ele>131.4</ele>
        <time>2015-03-16T20:42:14.364Z</time>
      </trkpt>
      <trkpt lat="48.86192" lon="2.28519">
        <ele>130.5</ele>
        <time>2015-03-16T20:42:15.379Z</time>
      </trkpt>
      <trkpt lat="48.86195" lon="2.28527">
        <ele>130</ele>
        <time>2015-03-16T20:42:16.333Z</time>
      </trkpt>
      <trkpt lat="48.86197" lon="2.28535">
        <ele>129.6</ele>
        <time>2015-03-16T20:42:17.296Z</time>
      </trkpt>
      <trkpt lat="48.86199" lon="2.28544">
        <ele>129</ele>
        <time>2015-03-16T20:42:18.290Z</time>
      </trkpt>
      <trkpt lat="48.86202" lon="2.28553">
        <ele>128.5</ele>
        <time>2015-03-16T20:42:19.324Z</time>
      </trkpt>
      <trkpt lat="48.86203" lon="2.28565">
        <ele>128.2</ele>
        <time>2015-03-16T20:42:20.328Z</time>
      </trkpt>
      <trkpt lat="48.86205" lon="2.28575">
        <ele>127.9</ele>
        <time>2015-03-16T20:42:21.341Z</time>
      </trkpt>
      <trkpt lat="48.86206" lon="2.28586">
        <ele>127.5</ele>
        <time>2015-03-16T20:42:22.351Z</time>
      </trkpt>
      <trkpt lat="48.86207" lon="2.28594">
        <ele>127.4</ele>
        <time>2015-03-16T20:42:23.443Z</time>
      </trkpt>
      <trkpt lat="48.86208" lon="2.28603">
        <ele>126.4</ele>
        <time>2015-03-16T20:42:24.306Z</time>
      </trkpt>
      <trkpt lat="48.8621" lon="2.28611">
        <ele>125.2</ele>
        <time>2015-03-16T20:42:25.318Z</time>
      </trkpt>
      <trkpt lat="48.8621" lon="2.2862">
        <ele>124.5</ele>
        <time>2015-03-16T20:42:26.348Z</time>
      </trkpt>
      <trkpt lat="48.86212" lon="2.28629">
        <ele>124.4</ele>
        <time>2015-03-16T20:42:27.359Z</time>
      </trkpt>
      <trkpt lat="48.86213" lon="2.28636">
        <ele>123.8</ele>
        <time>2015-03-16T20:42:28.363Z</time>
      </trkpt>
      <trkpt lat="48.86214" lon="2.28644">
        <ele>123.4</ele>
        <time>2015-03-16T20:42:29.387Z</time>
      </trkpt>
      <trkpt lat="48.86215" lon="2.28652">
        <ele>123</ele>
        <time>2015-03-16T20:42:30.390Z</time>
      </trkpt>
      <trkpt lat="48.86215" lon="2.28659">
        <ele>122</ele>
        <time>2015-03-16T20:42:31.319Z</time>
      </trkpt>
      <trkpt lat="48.86216" lon="2.28667">
        <ele>122.1</ele>
        <time>2015-03-16T20:42:32.397Z</time>
      </trkpt>
      <trkpt lat="48.86217" lon="2.28674">
        <ele>122.1</ele>
        <time>2015-03-16T20:42:33.308Z</time>
      </trkpt>
      <trkpt lat="48.86219" lon="2.28681">
        <ele>122</ele>
        <time>2015-03-16T20:42:34.307Z</time>
      </trkpt>
      <trkpt lat="48.86224" lon="2.2869">
        <ele>121.9</ele>
        <time>2015-03-16T20:42:36.336Z</time>
      </trkpt>
      <trkpt lat="48.86225" lon="2.28694">
        <ele>122.2</ele>
        <time>2015-03-16T20:42:37.344Z</time>
      </trkpt>
      <trkpt lat="48.86227" lon="2.28702">
        <ele>122.4</ele>
        <time>2015-03-16T20:42:39.392Z</time>
      </trkpt>
      <trkpt lat="48.86229" lon="2.28706">
        <ele>121.9</ele>
        <time>2015-03-16T20:42:40.311Z</time>
      </trkpt>
      <trkpt lat="48.86233" lon="2.28718">
        <ele>121.3</ele>
        <time>2015-03-16T20:42:43.362Z</time>
      </trkpt>
      <trkpt lat="48.86234" lon="2.28721">
        <ele>120.8</ele>
        <time>2015-03-16T20:42:44.372Z</time>
      </trkpt>
      <trkpt lat="48.86239" lon="2.28731">
        <ele>119.4</ele>
        <time>2015-03-16T20:42:47.317Z</time>
      </trkpt>
      <trkpt lat="48.86241" lon="2.28734">
        <ele>119</ele>
        <time>2015-03-16T20:42:48.326Z</time>
      </trkpt>
      <trkpt lat="48.86244" lon="2.28746">
        <ele>117.9</ele>
        <time>2015-03-16T20:42:51.383Z</time>
      </trkpt>
      <trkpt lat="48.86245" lon="2.2875">
        <ele>116.9</ele>
        <time>2015-03-16T20:42:52.397Z</time>
      </trkpt>
      <trkpt lat="48.86247" lon="2.28759">
        <ele>116.3</ele>
        <time>2015-03-16T20:42:54.321Z</time>
      </trkpt>
      <trkpt lat="48.8625" lon="2.28763">
        <ele>116</ele>
        <time>2015-03-16T20:42:55.324Z</time>
      </trkpt>
      <trkpt lat="48.86255" lon="2.28769">
        <ele>115.9</ele>
        <time>2015-03-16T20:42:57.326Z</time>
      </trkpt>
      <trkpt lat="48.86256" lon="2.28773">
        <ele>115.2</ele>
        <time>2015-03-16T20:42:58.369Z</time>
      </trkpt>
      <trkpt lat="48.86263" lon="2.2878">
        <ele>115.3</ele>
        <time>2015-03-16T20:43:01.398Z</time>
      </trkpt>
      <trkpt lat="48.86266" lon="2.28782">
        <ele>115.4</ele>
        <time>2015-03-16T20:43:02.415Z</time>
      </trkpt>
      <trkpt lat="48.86273" lon="2.2878">
        <ele>115.5</ele>
        <time>2015-03-16T20:43:05.341Z</time>
      </trkpt>
      <trkpt lat="48.86276" lon="2.28782">
        <ele>115.4</ele>
        <time>2015-03-16T20:43:06.346Z</time>
      </trkpt>
      <trkpt lat="48.8628" lon="2.28788">
        <ele>115.3</ele>
        <time>2015-03-16T20:43:08.375Z</time>
      </trkpt>
      <trkpt lat="48.86282" lon="2.28791">
        <ele>115.1</ele>
        <time>2015-03-16T20:43:09.389Z</time>
      </trkpt>
      <trkpt lat="48.86286" lon="2.28802">
        <ele>114.6</ele>
        <time>2015-03-16T20:43:11.318Z</time>
      </trkpt>
      <trkpt lat="48.86287" lon="2.28806">
        <ele>114.5</ele>
        <time>2015-03-16T20:43:12.342Z</time>
      </trkpt>
      <trkpt lat="48.8629" lon="2.28818">
        <ele>114.2</ele>
        <time>2015-03-16T20:43:15.375Z</time>
      </trkpt>
      <trkpt lat="48.86292" lon="2.2882">
        <ele>114.3</ele>
        <time>2015-03-16T20:43:16.386Z</time>
      </trkpt>
      <trkpt lat="48.86298" lon="2.28827">
        <ele>114.7</ele>
        <time>2015-03-16T20:43:19.346Z</time>
      </trkpt>
      <trkpt lat="48.863" lon="2.28828">
        <ele>114.9</ele>
        <time>2015-03-16T20:43:20.393Z</time>
      </trkpt>
      <trkpt lat="48.86308" lon="2.28827">
        <ele>115.3</ele>
        <time>2015-03-16T20:43:23.353Z</time>
      </trkpt>
      <trkpt lat="48.8631" lon="2.28824">
        <ele>115</ele>
        <time>2015-03-16T20:43:24.387Z</time>
      </trkpt>
      <trkpt lat="48.8631" lon="2.28822">
        <ele>114.8</ele>
        <time>2015-03-16T20:44:52.341Z</time>
      </trkpt>
      <trkpt lat="48.86327" lon="2.28789">
        <ele>130.5</ele>
        <time>2015-03-16T20:44:53.392Z</time>
      </trkpt>
      <trkpt lat="48.8633" lon="2.28783">
        <ele>132</ele>
        <time>2015-03-16T20:45:00.289Z</time>
      </trkpt>
      <trkpt lat="48.86338" lon="2.28776">
        <ele>131.6</ele>
        <time>2015-03-16T20:45:01.313Z</time>
      </trkpt>
      <trkpt lat="48.86344" lon="2.2877">
        <ele>131.5</ele>
        <time>2015-03-16T20:45:04.325Z</time>
      </trkpt>
      <trkpt lat="48.86346" lon="2.28767">
        <ele>131.4</ele>
        <time>2015-03-16T20:45:05.299Z</time>
      </trkpt>
      <trkpt lat="48.86352" lon="2.28757">
        <ele>131.3</ele>
        <time>2015-03-16T20:45:08.390Z</time>
      </trkpt>
      <trkpt lat="48.86353" lon="2.28753">
        <ele>130.9</ele>
        <time>2015-03-16T20:45:09.331Z</time>
      </trkpt>
      <trkpt lat="48.86355" lon="2.28748">
        <ele>130.3</ele>
        <time>2015-03-16T20:45:17.349Z</time>
      </trkpt>
      <trkpt lat="48.86355" lon="2.28725">
        <ele>129.7</ele>
        <time>2015-03-16T20:45:18.254Z</time>
      </trkpt>
      <trkpt lat="48.86354" lon="2.28714">
        <ele>130.5</ele>
        <time>2015-03-16T20:45:36.333Z</time>
      </trkpt>
      <trkpt lat="48.86341" lon="2.28671">
        <ele>130.2</ele>
        <time>2015-03-16T20:45:37.344Z</time>
      </trkpt>
      <trkpt lat="48.86341" lon="2.28663">
        <ele>130.6</ele>
        <time>2015-03-16T20:45:50.378Z</time>
      </trkpt>
      <trkpt lat="48.86349" lon="2.28646">
        <ele>130.8</ele>
        <time>2015-03-16T20:45:51.394Z</time>
      </trkpt>
      <trkpt lat="48.86353" lon="2.28642">
        <ele>130.6</ele>
        <time>2015-03-16T20:45:57.356Z</time>
      </trkpt>
      <trkpt lat="48.86359" lon="2.28635">
        <ele>130.2</ele>
        <time>2015-03-16T20:45:58.323Z</time>
      </trkpt>
      <trkpt lat="48.86366" lon="2.28627">
        <ele>130</ele>
        <time>2015-03-16T20:46:03.342Z</time>
      </trkpt>
      <trkpt lat="48.86366" lon="2.28625">
        <ele>130.1</ele>
        <time>2015-03-16T20:46:04.264Z</time>
      </trkpt>
      <trkpt lat="48.86366" lon="2.2862">
        <ele>130</ele>
        <time>2015-03-16T20:46:08.325Z</time>
      </trkpt>
      <trkpt lat="48.86373" lon="2.28609">
        <ele>129.7</ele>
        <time>2015-03-16T20:46:09.335Z</time>
      </trkpt>
      <trkpt lat="48.86379" lon="2.28599">
        <ele>129.1</ele>
        <time>2015-03-16T20:46:11.273Z</time>
      </trkpt>
      <trkpt lat="48.86384" lon="2.28584">
        <ele>128.3</ele>
        <time>2015-03-16T20:46:26.323Z</time>
      </trkpt>
      <trkpt lat="48.86384" lon="2.28584">
        <ele>128.3</ele>
        <time>2015-03-16T20:46:32.333Z</time>
      </trkpt>
      <trkpt lat="48.86395" lon="2.28531">
        <ele>126.3</ele>
        <time>2015-03-16T20:46:33.331Z</time>
      </trkpt>
      <trkpt lat="48.864" lon="2.28523">
        <ele>126</ele>
        <time>2015-03-16T20:46:36.258Z</time>
      </trkpt>
      <trkpt lat="48.86401" lon="2.2852">
        <ele>125.9</ele>
        <time>2015-03-16T20:46:37.294Z</time>
      </trkpt>
      <trkpt lat="48.86401" lon="2.2852">
        <ele>125.9</ele>
        <time>2015-03-16T20:46:37.722Z</time>
      </trkpt>
      <trkpt lat="48.86401" lon="2.28517">
        <ele>125.9</ele>
        <time>2015-03-16T20:46:38.310Z</time>
      </trkpt>
      <trkpt lat="48.86401" lon="2.28515">
        <ele>125.8</ele>
        <time>2015-03-16T20:46:41.311Z</time>
      </trkpt>
      <trkpt lat="48.8641" lon="2.28505">
        <ele>124.6</ele>
        <time>2015-03-16T20:46:42.282Z</time>
      </trkpt>
      <trkpt lat="48.86414" lon="2.28502">
        <ele>124.1</ele>
        <time>2015-03-16T20:46:43.273Z</time>
      </trkpt>
      <trkpt lat="48.86418" lon="2.28499">
        <ele>123.6</ele>
        <time>2015-03-16T20:46:44.311Z</time>
      </trkpt>
      <trkpt lat="48.86423" lon="2.28494">
        <ele>123</ele>
        <time>2015-03-16T20:46:45.345Z</time>
      </trkpt>
      <trkpt lat="48.86428" lon="2.28489">
        <ele>122.5</ele>
        <time>2015-03-16T20:46:46.401Z</time>
      </trkpt>
      <trkpt lat="48.86433" lon="2.28483">
        <ele>122.1</ele>
        <time>2015-03-16T20:46:47.766Z</time>
      </trkpt>
      <trkpt lat="48.86437" lon="2.28476">
        <ele>121.5</ele>
        <time>2015-03-16T20:46:48.324Z</time>
      </trkpt>
      <trkpt lat="48.86445" lon="2.28466">
        <ele>120.2</ele>
        <time>2015-03-16T20:46:50.368Z</time>
      </trkpt>
      <trkpt lat="48.86453" lon="2.2846">
        <ele>119</ele>
        <time>2015-03-16T20:46:51.259Z</time>
      </trkpt>
      <trkpt lat="48.86464" lon="2.28456">
        <ele>117.6</ele>
        <time>2015-03-16T20:46:52.294Z</time>
      </trkpt>
      <trkpt lat="48.86464" lon="2.28456">
        <ele>117.6</ele>
        <time>2015-03-16T20:46:52.842Z</time>
      </trkpt>
      <trkpt lat="48.86478" lon="2.2845">
        <ele>115.5</ele>
        <time>2015-03-16T20:46:53.302Z</time>
      </trkpt>
      <trkpt lat="48.86484" lon="2.28447">
        <ele>114.7</ele>
        <time>2015-03-16T20:46:54.313Z</time>
      </trkpt>
      <trkpt lat="48.8649" lon="2.28444">
        <ele>114</ele>
        <time>2015-03-16T20:46:55.329Z</time>
      </trkpt>
      <trkpt lat="48.86496" lon="2.28439">
        <ele>113.2</ele>
        <time>2015-03-16T20:46:56.346Z</time>
      </trkpt>
      <trkpt lat="48.86506" lon="2.28432">
        <ele>111.4</ele>
        <time>2015-03-16T20:46:57.357Z</time>
      </trkpt>
      <trkpt lat="48.86506" lon="2.28432">
        <ele>111.4</ele>
        <time>2015-03-16T20:46:57.876Z</time>
      </trkpt>
      <trkpt lat="48.86516" lon="2.28425">
        <ele>110</ele>
        <time>2015-03-16T20:46:58.366Z</time>
      </trkpt>
      <trkpt lat="48.86519" lon="2.28419">
        <ele>109.5</ele>
        <time>2015-03-16T20:46:59.306Z</time>
      </trkpt>
      <trkpt lat="48.86521" lon="2.28411">
        <ele>109.1</ele>
        <time>2015-03-16T20:47:00.307Z</time>
      </trkpt>
      <trkpt lat="48.86525" lon="2.28406">
        <ele>109.5</ele>
        <time>2015-03-16T20:47:01.335Z</time>
      </trkpt>
      <trkpt lat="48.86529" lon="2.284">
        <ele>109.9</ele>
        <time>2015-03-16T20:47:02.358Z</time>
      </trkpt>
      <trkpt lat="48.86533" lon="2.28394">
        <ele>110.4</ele>
        <time>2015-03-16T20:47:03.362Z</time>
      </trkpt>
      <trkpt lat="48.86536" lon="2.28387">
        <ele>110.5</ele>
        <time>2015-03-16T20:47:04.376Z</time>
      </trkpt>
      <trkpt lat="48.86539" lon="2.28379">
        <ele>110.9</ele>
        <time>2015-03-16T20:47:05.276Z</time>
      </trkpt>
      <trkpt lat="48.86542" lon="2.28372">
        <ele>111.6</ele>
        <time>2015-03-16T20:47:06.346Z</time>
      </trkpt>
      <trkpt lat="48.86545" lon="2.28367">
        <ele>112</ele>
        <time>2015-03-16T20:47:07.949Z</time>
      </trkpt>
      <trkpt lat="48.86556" lon="2.28358">
        <ele>113.4</ele>
        <time>2015-03-16T20:47:08.351Z</time>
      </trkpt>
      <trkpt lat="48.86563" lon="2.28351">
        <ele>114.1</ele>
        <time>2015-03-16T20:47:09.367Z</time>
      </trkpt>
      <trkpt lat="48.86568" lon="2.28346">
        <ele>113.8</ele>
        <time>2015-03-16T20:47:10.271Z</time>
      </trkpt>
      <trkpt lat="48.86572" lon="2.2834">
        <ele>113.5</ele>
        <time>2015-03-16T20:47:11.282Z</time>
      </trkpt>
      <trkpt lat="48.86576" lon="2.28334">
        <ele>113.4</ele>
        <time>2015-03-16T20:47:12.314Z</time>
      </trkpt>
      <trkpt lat="48.86582" lon="2.28325">
        <ele>112.5</ele>
        <time>2015-03-16T20:47:14.346Z</time>
      </trkpt>
      <trkpt lat="48.86584" lon="2.28321">
        <ele>112.3</ele>
        <time>2015-03-16T20:47:15.350Z</time>
      </trkpt>
      <trkpt lat="48.86587" lon="2.28318">
        <ele>112.3</ele>
        <time>2015-03-16T20:47:16.354Z</time>
      </trkpt>
      <trkpt lat="48.86594" lon="2.28313">
        <ele>112.1</ele>
        <time>2015-03-16T20:47:18.290Z</time>
      </trkpt>
      <trkpt lat="48.86597" lon="2.28309">
        <ele>111.3</ele>
        <time>2015-03-16T20:47:19.311Z</time>
      </trkpt>
      <trkpt lat="48.86607" lon="2.28293">
        <ele>110.4</ele>
        <time>2015-03-16T20:47:23.361Z</time>
      </trkpt>
      <trkpt lat="48.8662" lon="2.28271">
        <ele>107.5</ele>
        <time>2015-03-16T20:47:29.305Z</time>
      </trkpt>
      <trkpt lat="48.86625" lon="2.28265">
        <ele>107</ele>
        <time>2015-03-16T20:47:32.358Z</time>
      </trkpt>
      <trkpt lat="48.86627" lon="2.28263">
        <ele>107</ele>
        <time>2015-03-16T20:47:33.271Z</time>
      </trkpt>
      <trkpt lat="48.86632" lon="2.28254">
        <ele>107.5</ele>
        <time>2015-03-16T20:47:35.279Z</time>
      </trkpt>
      <trkpt lat="48.86634" lon="2.28249">
        <ele>108</ele>
        <time>2015-03-16T20:47:36.290Z</time>
      </trkpt>
      <trkpt lat="48.8664" lon="2.2824">
        <ele>107.6</ele>
        <time>2015-03-16T20:47:38.337Z</time>
      </trkpt>
      <trkpt lat="48.86643" lon="2.28236">
        <ele>107.6</ele>
        <time>2015-03-16T20:47:39.348Z</time>
      </trkpt>
      <trkpt lat="48.86649" lon="2.28229">
        <ele>107.5</ele>
        <time>2015-03-16T20:47:41.277Z</time>
      </trkpt>
      <trkpt lat="48.86652" lon="2.28226">
        <ele>107.4</ele>
        <time>2015-03-16T20:47:42.295Z</time>
      </trkpt>
      <trkpt lat="48.86657" lon="2.28218">
        <ele>107</ele>
        <time>2015-03-16T20:47:44.370Z</time>
      </trkpt>
      <trkpt lat="48.8666" lon="2.28215">
        <ele>106.8</ele>
        <time>2015-03-16T20:47:45.350Z</time>
      </trkpt>
      <trkpt lat="48.86666" lon="2.28211">
        <ele>106.4</ele>
        <time>2015-03-16T20:47:47.835Z</time>
      </trkpt>
      <trkpt lat="48.8667" lon="2.28207">
        <ele>106.2</ele>
        <time>2015-03-16T20:47:48.305Z</time>
      </trkpt>
      <trkpt lat="48.86673" lon="2.28203">
        <ele>106.3</ele>
        <time>2015-03-16T20:47:49.315Z</time>
      </trkpt>
      <trkpt lat="48.86688" lon="2.28182">
        <ele>104.9</ele>
        <time>2015-03-16T20:47:54.272Z</time>
      </trkpt>
      <trkpt lat="48.86695" lon="2.28175">
        <ele>104.3</ele>
        <time>2015-03-16T20:47:56.348Z</time>
      </trkpt>
      <trkpt lat="48.86697" lon="2.2817">
        <ele>103.9</ele>
        <time>2015-03-16T20:47:57.363Z</time>
      </trkpt>
      <trkpt lat="48.86697" lon="2.2817">
        <ele>103.9</ele>
        <time>2015-03-16T20:47:58.036Z</time>
      </trkpt>
      <trkpt lat="48.86731" lon="2.28127">
        <ele>102.5</ele>
        <time>2015-03-16T20:48:08.316Z</time>
      </trkpt>
      <trkpt lat="48.86738" lon="2.28121">
        <ele>103.2</ele>
        <time>2015-03-16T20:48:10.341Z</time>
      </trkpt>
      <trkpt lat="48.86742" lon="2.28119">
        <ele>103.5</ele>
        <time>2015-03-16T20:48:11.345Z</time>
      </trkpt>
      <trkpt lat="48.86746" lon="2.28118">
        <ele>103.5</ele>
        <time>2015-03-16T20:48:12.244Z</time>
      </trkpt>
      <trkpt lat="48.86751" lon="2.28117">
        <ele>103.6</ele>
        <time>2015-03-16T20:48:13.264Z</time>
      </trkpt>
      <trkpt lat="48.86755" lon="2.28117">
        <ele>103.7</ele>
        <time>2015-03-16T20:48:14.281Z</time>
      </trkpt>
      <trkpt lat="48.8676" lon="2.28117">
        <ele>104.1</ele>
        <time>2015-03-16T20:48:15.295Z</time>
      </trkpt>
      <trkpt lat="48.86765" lon="2.2812">
        <ele>105.8</ele>
        <time>2015-03-16T20:48:16.325Z</time>
      </trkpt>
      <trkpt lat="48.86769" lon="2.2812">
        <ele>107.3</ele>
        <time>2015-03-16T20:48:17.334Z</time>
      </trkpt>
      <trkpt lat="48.86772" lon="2.28119">
        <ele>109.9</ele>
        <time>2015-03-16T20:48:35.388Z</time>
      </trkpt>
      <trkpt lat="48.86785" lon="2.28116">
        <ele>116.8</ele>
        <time>2015-03-16T20:48:36.289Z</time>
      </trkpt>
      <trkpt lat="48.86792" lon="2.28123">
        <ele>117.4</ele>
        <time>2015-03-16T20:48:41.341Z</time>
      </trkpt>
      <trkpt lat="48.86793" lon="2.28125">
        <ele>117.5</ele>
        <time>2015-03-16T20:48:42.363Z</time>
      </trkpt>
      <trkpt lat="48.86801" lon="2.28127">
        <ele>118.2</ele>
        <time>2015-03-16T20:48:46.344Z</time>
      </trkpt>
      <trkpt lat="48.86803" lon="2.28127">
        <ele>118.1</ele>
        <time>2015-03-16T20:48:47.367Z</time>
      </trkpt>
      <trkpt lat="48.86811" lon="2.28125">
        <ele>118.6</ele>
        <time>2015-03-16T20:48:50.421Z</time>
      </trkpt>
      <trkpt lat="48.86814" lon="2.28122">
        <ele>118.7</ele>
        <time>2015-03-16T20:48:51.322Z</time>
      </trkpt>
      <trkpt lat="48.86818" lon="2.28119">
        <ele>118.7</ele>
        <time>2015-03-16T20:48:52.325Z</time>
      </trkpt>
      <trkpt lat="48.86856" lon="2.28139">
        <ele>116.2</ele>
        <time>2015-03-16T20:49:02.329Z</time>
      </trkpt>
      <trkpt lat="48.86859" lon="2.28146">
        <ele>115.9</ele>
        <time>2015-03-16T20:49:03.340Z</time>
      </trkpt>
      <trkpt lat="48.86863" lon="2.28152">
        <ele>115.7</ele>
        <time>2015-03-16T20:49:04.362Z</time>
      </trkpt>
      <trkpt lat="48.86871" lon="2.28157">
        <ele>116.5</ele>
        <time>2015-03-16T20:49:05.299Z</time>
      </trkpt>
      <trkpt lat="48.86877" lon="2.28163">
        <ele>116.8</ele>
        <time>2015-03-16T20:49:06.328Z</time>
      </trkpt>
      <trkpt lat="48.86882" lon="2.28168">
        <ele>117</ele>
        <time>2015-03-16T20:49:07.344Z</time>
      </trkpt>
      <trkpt lat="48.86887" lon="2.2817">
        <ele>116.9</ele>
        <time>2015-03-16T20:49:08.357Z</time>
      </trkpt>
      <trkpt lat="48.86891" lon="2.28175">
        <ele>116.7</ele>
        <time>2015-03-16T20:49:09.265Z</time>
      </trkpt>
      <trkpt lat="48.86895" lon="2.28181">
        <ele>116.5</ele>
        <time>2015-03-16T20:49:10.285Z</time>
      </trkpt>
      <trkpt lat="48.869" lon="2.28188">
        <ele>116.5</ele>
        <time>2015-03-16T20:49:11.285Z</time>
      </trkpt>
      <trkpt lat="48.86903" lon="2.28192">
        <ele>116.2</ele>
        <time>2015-03-16T20:49:12.298Z</time>
      </trkpt>
      <trkpt lat="48.86907" lon="2.28201">
        <ele>116.3</ele>
        <time>2015-03-16T20:49:14.322Z</time>
      </trkpt>
      <trkpt lat="48.86909" lon="2.28206">
        <ele>116.6</ele>
        <time>2015-03-16T20:49:15.380Z</time>
      </trkpt>
      <trkpt lat="48.86914" lon="2.28216">
        <ele>117.4</ele>
        <time>2015-03-16T20:49:17.282Z</time>
      </trkpt>
      <trkpt lat="48.86916" lon="2.2822">
        <ele>117.6</ele>
        <time>2015-03-16T20:49:18.324Z</time>
      </trkpt>
      <trkpt lat="48.86923" lon="2.2822">
        <ele>117.7</ele>
        <time>2015-03-16T20:49:20.360Z</time>
      </trkpt>
      <trkpt lat="48.86929" lon="2.2822">
        <ele>117.8</ele>
        <time>2015-03-16T20:49:21.274Z</time>
      </trkpt>
      <trkpt lat="48.86935" lon="2.28227">
        <ele>117.9</ele>
        <time>2015-03-16T20:49:22.276Z</time>
      </trkpt>
      <trkpt lat="48.86943" lon="2.28227">
        <ele>118.1</ele>
        <time>2015-03-16T20:49:23.284Z</time>
      </trkpt>
      <trkpt lat="48.86948" lon="2.2823">
        <ele>118.1</ele>
        <time>2015-03-16T20:49:24.301Z</time>
      </trkpt>
      <trkpt lat="48.86953" lon="2.28232">
        <ele>118</ele>
        <time>2015-03-16T20:49:25.312Z</time>
      </trkpt>
      <trkpt lat="48.86958" lon="2.28235">
        <ele>118.1</ele>
        <time>2015-03-16T20:49:26.317Z</time>
      </trkpt>
      <trkpt lat="48.86964" lon="2.28238">
        <ele>117.9</ele>
        <time>2015-03-16T20:49:27.328Z</time>
      </trkpt>
      <trkpt lat="48.86969" lon="2.28241">
        <ele>118.2</ele>
        <time>2015-03-16T20:49:28.352Z</time>
      </trkpt>
      <trkpt lat="48.86973" lon="2.28243">
        <ele>118.3</ele>
        <time>2015-03-16T20:49:29.366Z</time>
      </trkpt>
      <trkpt lat="48.8698" lon="2.28249">
        <ele>118.2</ele>
        <time>2015-03-16T20:49:32.339Z</time>
      </trkpt>
      <trkpt lat="48.86982" lon="2.2825">
        <ele>118.2</ele>
        <time>2015-03-16T20:49:33.357Z</time>
      </trkpt>
      <trkpt lat="48.86989" lon="2.28258">
        <ele>118.1</ele>
        <time>2015-03-16T20:49:36.333Z</time>
      </trkpt>
      <trkpt lat="48.86993" lon="2.28259">
        <ele>118.4</ele>
        <time>2015-03-16T20:49:37.354Z</time>
      </trkpt>
      <trkpt lat="48.87" lon="2.28263">
        <ele>118.3</ele>
        <time>2015-03-16T20:49:39.263Z</time>
      </trkpt>
      <trkpt lat="48.87003" lon="2.28269">
        <ele>118.1</ele>
        <time>2015-03-16T20:49:40.339Z</time>
      </trkpt>
      <trkpt lat="48.87005" lon="2.28275">
        <ele>117.7</ele>
        <time>2015-03-16T20:49:41.359Z</time>
      </trkpt>
      <trkpt lat="48.87009" lon="2.2828">
        <ele>117.9</ele>
        <time>2015-03-16T20:49:42.369Z</time>
      </trkpt>
      <trkpt lat="48.87017" lon="2.28286">
        <ele>117.3</ele>
        <time>2015-03-16T20:49:45.298Z</time>
      </trkpt>
      <trkpt lat="48.8702" lon="2.28288">
        <ele>117.1</ele>
        <time>2015-03-16T20:49:46.309Z</time>
      </trkpt>
      <trkpt lat="48.87027" lon="2.28295">
        <ele>116.7</ele>
        <time>2015-03-16T20:49:49.354Z</time>
      </trkpt>
      <trkpt lat="48.87032" lon="2.28296">
        <ele>116.5</ele>
        <time>2015-03-16T20:49:50.360Z</time>
      </trkpt>
      <trkpt lat="48.87037" lon="2.28298">
        <ele>116.7</ele>
        <time>2015-03-16T20:49:51.269Z</time>
      </trkpt>
      <trkpt lat="48.87042" lon="2.28299">
        <ele>116.8</ele>
        <time>2015-03-16T20:49:52.297Z</time>
      </trkpt>
      <trkpt lat="48.87047" lon="2.283">
        <ele>116.9</ele>
        <time>2015-03-16T20:49:53.326Z</time>
      </trkpt>
      <trkpt lat="48.87055" lon="2.28302">
        <ele>114.1</ele>
        <time>2015-03-16T20:49:54.351Z</time>
      </trkpt>
      <trkpt lat="48.87064" lon="2.28309">
        <ele>115.2</ele>
        <time>2015-03-16T20:49:56.385Z</time>
      </trkpt>
      <trkpt lat="48.87069" lon="2.28311">
        <ele>115.4</ele>
        <time>2015-03-16T20:49:57.331Z</time>
      </trkpt>
      <trkpt lat="48.87073" lon="2.28316">
        <ele>115.5</ele>
        <time>2015-03-16T20:49:58.301Z</time>
      </trkpt>
      <trkpt lat="48.87078" lon="2.28319">
        <ele>115.5</ele>
        <time>2015-03-16T20:49:59.306Z</time>
      </trkpt>
      <trkpt lat="48.87083" lon="2.28323">
        <ele>115.5</ele>
        <time>2015-03-16T20:50:00.313Z</time>
      </trkpt>
      <trkpt lat="48.8709" lon="2.2833">
        <ele>115.4</ele>
        <time>2015-03-16T20:50:02.398Z</time>
      </trkpt>
      <trkpt lat="48.87093" lon="2.28332">
        <ele>115.3</ele>
        <time>2015-03-16T20:50:03.307Z</time>
      </trkpt>
      <trkpt lat="48.871" lon="2.28333">
        <ele>115.2</ele>
        <time>2015-03-16T20:50:05.269Z</time>
      </trkpt>
      <trkpt lat="48.87104" lon="2.28334">
        <ele>115.1</ele>
        <time>2015-03-16T20:50:06.355Z</time>
      </trkpt>
      <trkpt lat="48.8711" lon="2.28336">
        <ele>115.1</ele>
        <time>2015-03-16T20:50:07.281Z</time>
      </trkpt>
      <trkpt lat="48.87115" lon="2.28339">
        <ele>115</ele>
        <time>2015-03-16T20:50:08.393Z</time>
      </trkpt>
      <trkpt lat="48.87119" lon="2.28343">
        <ele>115.1</ele>
        <time>2015-03-16T20:50:09.352Z</time>
      </trkpt>
      <trkpt lat="48.87124" lon="2.28344">
        <ele>115</ele>
        <time>2015-03-16T20:50:10.275Z</time>
      </trkpt>
      <trkpt lat="48.87128" lon="2.28346">
        <ele>115.2</ele>
        <time>2015-03-16T20:50:11.341Z</time>
      </trkpt>
      <trkpt lat="48.87133" lon="2.28347">
        <ele>115.2</ele>
        <time>2015-03-16T20:50:12.271Z</time>
      </trkpt>
      <trkpt lat="48.8714" lon="2.2835">
        <ele>115</ele>
        <time>2015-03-16T20:50:14.307Z</time>
      </trkpt>
      <trkpt lat="48.87147" lon="2.28354">
        <ele>112.9</ele>
        <time>2015-03-16T20:50:15.314Z</time>
      </trkpt>
      <trkpt lat="48.87153" lon="2.28357">
        <ele>112.1</ele>
        <time>2015-03-16T20:50:16.327Z</time>
      </trkpt>
      <trkpt lat="48.87158" lon="2.28361">
        <ele>112.5</ele>
        <time>2015-03-16T20:50:17.332Z</time>
      </trkpt>
      <trkpt lat="48.87163" lon="2.28363">
        <ele>112.8</ele>
        <time>2015-03-16T20:50:18.339Z</time>
      </trkpt>
      <trkpt lat="48.87168" lon="2.28363">
        <ele>112.8</ele>
        <time>2015-03-16T20:50:19.360Z</time>
      </trkpt>
      <trkpt lat="48.87174" lon="2.28364">
        <ele>113.3</ele>
        <time>2015-03-16T20:50:20.372Z</time>
      </trkpt>
      <trkpt lat="48.87178" lon="2.28365">
        <ele>113.3</ele>
        <time>2015-03-16T20:50:21.277Z</time>
      </trkpt>
      <trkpt lat="48.87185" lon="2.28364">
        <ele>112.6</ele>
        <time>2015-03-16T20:50:23.303Z</time>
      </trkpt>
      <trkpt lat="48.87189" lon="2.28367">
        <ele>110.4</ele>
        <time>2015-03-16T20:50:24.324Z</time>
      </trkpt>
      <trkpt lat="48.87192" lon="2.28372">
        <ele>109.9</ele>
        <time>2015-03-16T20:50:25.272Z</time>
      </trkpt>
      <trkpt lat="48.87194" lon="2.28379">
        <ele>109.6</ele>
        <time>2015-03-16T20:50:26.369Z</time>
      </trkpt>
      <trkpt lat="48.87202" lon="2.28387">
        <ele>107.2</ele>
        <time>2015-03-16T20:50:27.377Z</time>
      </trkpt>
      <trkpt lat="48.87207" lon="2.2839">
        <ele>105.8</ele>
        <time>2015-03-16T20:50:28.396Z</time>
      </trkpt>
      <trkpt lat="48.87214" lon="2.28392">
        <ele>105.3</ele>
        <time>2015-03-16T20:50:29.342Z</time>
      </trkpt>
      <trkpt lat="48.87218" lon="2.28396">
        <ele>105.4</ele>
        <time>2015-03-16T20:50:30.276Z</time>
      </trkpt>
      <trkpt lat="48.8722" lon="2.28403">
        <ele>104.5</ele>
        <time>2015-03-16T20:50:31.300Z</time>
      </trkpt>
      <trkpt lat="48.87221" lon="2.28413">
        <ele>103</ele>
        <time>2015-03-16T20:50:32.359Z</time>
      </trkpt>
      <trkpt lat="48.87222" lon="2.28421">
        <ele>102.3</ele>
        <time>2015-03-16T20:50:33.375Z</time>
      </trkpt>
      <trkpt lat="48.87222" lon="2.28434">
        <ele>102.9</ele>
        <time>2015-03-16T20:50:35.374Z</time>
      </trkpt>
      <trkpt lat="48.87222" lon="2.28439">
        <ele>103.5</ele>
        <time>2015-03-16T20:50:36.380Z</time>
      </trkpt>
      <trkpt lat="48.87223" lon="2.28449">
        <ele>103.5</ele>
        <time>2015-03-16T20:50:38.324Z</time>
      </trkpt>
      <trkpt lat="48.87223" lon="2.28453">
        <ele>103.6</ele>
        <time>2015-03-16T20:50:39.342Z</time>
      </trkpt>
      <trkpt lat="48.87223" lon="2.28466">
        <ele>103.6</ele>
        <time>2015-03-16T20:50:42.328Z</time>
      </trkpt>
      <trkpt lat="48.87224" lon="2.28472">
        <ele>103.1</ele>
        <time>2015-03-16T20:50:43.335Z</time>
      </trkpt>
      <trkpt lat="48.87225" lon="2.28483">
        <ele>102.8</ele>
        <time>2015-03-16T20:50:46.369Z</time>
      </trkpt>
      <trkpt lat="48.87226" lon="2.28486">
        <ele>102.7</ele>
        <time>2015-03-16T20:50:47.298Z</time>
      </trkpt>
      <trkpt lat="48.87226" lon="2.28499">
        <ele>103.4</ele>
        <time>2015-03-16T20:52:57.360Z</time>
      </trkpt>
      <trkpt lat="48.87225" lon="2.28503">
        <ele>103.2</ele>
        <time>2015-03-16T20:52:58.434Z</time>
      </trkpt>
      <trkpt lat="48.87222" lon="2.28515">
        <ele>102.7</ele>
        <time>2015-03-16T20:53:01.342Z</time>
      </trkpt>
      <trkpt lat="48.87221" lon="2.2852">
        <ele>102.3</ele>
        <time>2015-03-16T20:53:02.364Z</time>
      </trkpt>
      <trkpt lat="48.87222" lon="2.28532">
        <ele>101.8</ele>
        <time>2015-03-16T20:53:05.349Z</time>
      </trkpt>
      <trkpt lat="48.87223" lon="2.28538">
        <ele>100.9</ele>
        <time>2015-03-16T20:53:06.276Z</time>
      </trkpt>
      <trkpt lat="48.87225" lon="2.2855">
        <ele>101.3</ele>
        <time>2015-03-16T20:53:08.365Z</time>
      </trkpt>
      <trkpt lat="48.87226" lon="2.28558">
        <ele>101.5</ele>
        <time>2015-03-16T20:53:09.340Z</time>
      </trkpt>
      <trkpt lat="48.87227" lon="2.28566">
        <ele>101.6</ele>
        <time>2015-03-16T20:53:10.314Z</time>
      </trkpt>
      <trkpt lat="48.87228" lon="2.28573">
        <ele>101.9</ele>
        <time>2015-03-16T20:53:11.319Z</time>
      </trkpt>
      <trkpt lat="48.8723" lon="2.28581">
        <ele>101</ele>
        <time>2015-03-16T20:53:12.363Z</time>
      </trkpt>
      <trkpt lat="48.87231" lon="2.2859">
        <ele>100.1</ele>
        <time>2015-03-16T20:53:13.364Z</time>
      </trkpt>
      <trkpt lat="48.87232" lon="2.28599">
        <ele>99.1</ele>
        <time>2015-03-16T20:53:14.380Z</time>
      </trkpt>
      <trkpt lat="48.87233" lon="2.28608">
        <ele>98.9</ele>
        <time>2015-03-16T20:53:15.272Z</time>
      </trkpt>
      <trkpt lat="48.87233" lon="2.28615">
        <ele>98.9</ele>
        <time>2015-03-16T20:53:16.363Z</time>
      </trkpt>
      <trkpt lat="48.87234" lon="2.28624">
        <ele>99.2</ele>
        <time>2015-03-16T20:53:17.381Z</time>
      </trkpt>
      <trkpt lat="48.87236" lon="2.28632">
        <ele>99.4</ele>
        <time>2015-03-16T20:53:18.303Z</time>
      </trkpt>
      <trkpt lat="48.87237" lon="2.28641">
        <ele>99</ele>
        <time>2015-03-16T20:53:19.288Z</time>
      </trkpt>
      <trkpt lat="48.87237" lon="2.28651">
        <ele>98.7</ele>
        <time>2015-03-16T20:53:20.358Z</time>
      </trkpt>
      <trkpt lat="48.87238" lon="2.2866">
        <ele>98.7</ele>
        <time>2015-03-16T20:53:21.368Z</time>
      </trkpt>
      <trkpt lat="48.87238" lon="2.28669">
        <ele>98.3</ele>
        <time>2015-03-16T20:53:22.379Z</time>
      </trkpt>
      <trkpt lat="48.87239" lon="2.2868">
        <ele>98.1</ele>
        <time>2015-03-16T20:53:23.393Z</time>
      </trkpt>
      <trkpt lat="48.87239" lon="2.2869">
        <ele>97.8</ele>
        <time>2015-03-16T20:53:25.038Z</time>
      </trkpt>
      <trkpt lat="48.8724" lon="2.287">
        <ele>97.2</ele>
        <time>2015-03-16T20:53:25.334Z</time>
      </trkpt>
      <trkpt lat="48.87243" lon="2.28709">
        <ele>97.1</ele>
        <time>2015-03-16T20:53:26.356Z</time>
      </trkpt>
      <trkpt lat="48.87245" lon="2.28719">
        <ele>96.7</ele>
        <time>2015-03-16T20:53:27.377Z</time>
      </trkpt>
      <trkpt lat="48.87247" lon="2.2873">
        <ele>96.9</ele>
        <time>2015-03-16T20:53:28.301Z</time>
      </trkpt>
      <trkpt lat="48.87249" lon="2.28739">
        <ele>97.4</ele>
        <time>2015-03-16T20:53:29.304Z</time>
      </trkpt>
      <trkpt lat="48.8725" lon="2.28747">
        <ele>97.6</ele>
        <time>2015-03-16T20:53:30.321Z</time>
      </trkpt>
      <trkpt lat="48.8725" lon="2.28754">
        <ele>98</ele>
        <time>2015-03-16T20:53:31.336Z</time>
      </trkpt>
      <trkpt lat="48.87251" lon="2.28762">
        <ele>98.3</ele>
        <time>2015-03-16T20:53:32.535Z</time>
      </trkpt>
      <trkpt lat="48.87251" lon="2.2877">
        <ele>98.5</ele>
        <time>2015-03-16T20:53:33.291Z</time>
      </trkpt>
      <trkpt lat="48.87251" lon="2.28778">
        <ele>98.8</ele>
        <time>2015-03-16T20:53:34.296Z</time>
      </trkpt>
      <trkpt lat="48.87252" lon="2.28784">
        <ele>99</ele>
        <time>2015-03-16T20:53:35.310Z</time>
      </trkpt>
      <trkpt lat="48.87252" lon="2.28796">
        <ele>99.5</ele>
        <time>2015-03-16T20:53:37.350Z</time>
      </trkpt>
      <trkpt lat="48.87253" lon="2.28803">
        <ele>99.9</ele>
        <time>2015-03-16T20:53:38.502Z</time>
      </trkpt>
      <trkpt lat="48.87253" lon="2.28809">
        <ele>100.1</ele>
        <time>2015-03-16T20:53:39.310Z</time>
      </trkpt>
      <trkpt lat="48.87254" lon="2.28816">
        <ele>100.4</ele>
        <time>2015-03-16T20:53:40.350Z</time>
      </trkpt>
      <trkpt lat="48.87255" lon="2.28824">
        <ele>100.7</ele>
        <time>2015-03-16T20:53:41.359Z</time>
      </trkpt>
      <trkpt lat="48.87255" lon="2.28832">
        <ele>100.9</ele>
        <time>2015-03-16T20:53:42.367Z</time>
      </trkpt>
      <trkpt lat="48.87256" lon="2.28839">
        <ele>101.3</ele>
        <time>2015-03-16T20:53:43.381Z</time>
      </trkpt>
      <trkpt lat="48.87258" lon="2.28848">
        <ele>100.8</ele>
        <time>2015-03-16T20:53:44.387Z</time>
      </trkpt>
      <trkpt lat="48.87259" lon="2.28856">
        <ele>100.5</ele>
        <time>2015-03-16T20:53:45.298Z</time>
      </trkpt>
      <trkpt lat="48.87259" lon="2.28864">
        <ele>100.1</ele>
        <time>2015-03-16T20:53:46.303Z</time>
      </trkpt>
      <trkpt lat="48.87259" lon="2.28874">
        <ele>100.3</ele>
        <time>2015-03-16T20:53:47.321Z</time>
      </trkpt>
      <trkpt lat="48.87262" lon="2.28883">
        <ele>100.2</ele>
        <time>2015-03-16T20:53:48.327Z</time>
      </trkpt>
      <trkpt lat="48.87264" lon="2.28892">
        <ele>100.6</ele>
        <time>2015-03-16T20:53:49.349Z</time>
      </trkpt>
      <trkpt lat="48.87266" lon="2.289">
        <ele>100.7</ele>
        <time>2015-03-16T20:53:50.356Z</time>
      </trkpt>
      <trkpt lat="48.87266" lon="2.28908">
        <ele>101</ele>
        <time>2015-03-16T20:53:51.384Z</time>
      </trkpt>
      <trkpt lat="48.87267" lon="2.28914">
        <ele>101.1</ele>
        <time>2015-03-16T20:53:52.298Z</time>
      </trkpt>
      <trkpt lat="48.87268" lon="2.28926">
        <ele>101.7</ele>
        <time>2015-03-16T20:53:54.362Z</time>
      </trkpt>
      <trkpt lat="48.87268" lon="2.28934">
        <ele>101.9</ele>
        <time>2015-03-16T20:53:55.370Z</time>
      </trkpt>
      <trkpt lat="48.87269" lon="2.28946">
        <ele>102.2</ele>
        <time>2015-03-16T20:53:57.377Z</time>
      </trkpt>
      <trkpt lat="48.87269" lon="2.28954">
        <ele>102.2</ele>
        <time>2015-03-16T20:53:58.354Z</time>
      </trkpt>
      <trkpt lat="48.8727" lon="2.2896">
        <ele>102.6</ele>
        <time>2015-03-16T20:53:59.350Z</time>
      </trkpt>
      <trkpt lat="48.87272" lon="2.28967">
        <ele>102.3</ele>
        <time>2015-03-16T20:54:00.371Z</time>
      </trkpt>
      <trkpt lat="48.87275" lon="2.28979">
        <ele>102.9</ele>
        <time>2015-03-16T20:54:02.416Z</time>
      </trkpt>
      <trkpt lat="48.87277" lon="2.28985">
        <ele>103.4</ele>
        <time>2015-03-16T20:54:03.276Z</time>
      </trkpt>
      <trkpt lat="48.87279" lon="2.28996">
        <ele>104</ele>
        <time>2015-03-16T20:54:05.334Z</time>
      </trkpt>
      <trkpt lat="48.8728" lon="2.29003">
        <ele>104.3</ele>
        <time>2015-03-16T20:54:06.332Z</time>
      </trkpt>
      <trkpt lat="48.8728" lon="2.29009">
        <ele>104.3</ele>
        <time>2015-03-16T20:54:07.343Z</time>
      </trkpt>
      <trkpt lat="48.87281" lon="2.29016">
        <ele>104.5</ele>
        <time>2015-03-16T20:54:08.353Z</time>
      </trkpt>
      <trkpt lat="48.87281" lon="2.29023">
        <ele>104.6</ele>
        <time>2015-03-16T20:54:09.372Z</time>
      </trkpt>
      <trkpt lat="48.87282" lon="2.2903">
        <ele>104.8</ele>
        <time>2015-03-16T20:54:10.308Z</time>
      </trkpt>
      <trkpt lat="48.87283" lon="2.29036">
        <ele>105.2</ele>
        <time>2015-03-16T20:54:11.359Z</time>
      </trkpt>
      <trkpt lat="48.87283" lon="2.29043">
        <ele>105.5</ele>
        <time>2015-03-16T20:54:12.267Z</time>
      </trkpt>
      <trkpt lat="48.87283" lon="2.29051">
        <ele>105.6</ele>
        <time>2015-03-16T20:54:13.316Z</time>
      </trkpt>
      <trkpt lat="48.87284" lon="2.29058">
        <ele>106.4</ele>
        <time>2015-03-16T20:54:14.312Z</time>
      </trkpt>
      <trkpt lat="48.87284" lon="2.29071">
        <ele>107.2</ele>
        <time>2015-03-16T20:54:16.346Z</time>
      </trkpt>
      <trkpt lat="48.87283" lon="2.29078">
        <ele>107.4</ele>
        <time>2015-03-16T20:54:17.311Z</time>
      </trkpt>
      <trkpt lat="48.87283" lon="2.29088">
        <ele>107.9</ele>
        <time>2015-03-16T20:54:19.443Z</time>
      </trkpt>
      <trkpt lat="48.87283" lon="2.29093">
        <ele>108.1</ele>
        <time>2015-03-16T20:54:20.351Z</time>
      </trkpt>
      <trkpt lat="48.87287" lon="2.29102">
        <ele>107.8</ele>
        <time>2015-03-16T20:54:22.297Z</time>
      </trkpt>
      <trkpt lat="48.87288" lon="2.29107">
        <ele>107.6</ele>
        <time>2015-03-16T20:54:23.310Z</time>
      </trkpt>
      <trkpt lat="48.8729" lon="2.29117">
        <ele>108.3</ele>
        <time>2015-03-16T20:54:25.342Z</time>
      </trkpt>
      <trkpt lat="48.87291" lon="2.29121">
        <ele>108.8</ele>
        <time>2015-03-16T20:54:26.378Z</time>
      </trkpt>
      <trkpt lat="48.87292" lon="2.29124">
        <ele>109.5</ele>
        <time>2015-03-16T20:55:08.367Z</time>
      </trkpt>
      <trkpt lat="48.873" lon="2.29132">
        <ele>121.1</ele>
        <time>2015-03-16T20:55:09.344Z</time>
      </trkpt>
      <trkpt lat="48.87304" lon="2.2914">
        <ele>121</ele>
        <time>2015-03-16T20:55:12.291Z</time>
      </trkpt>
      <trkpt lat="48.87305" lon="2.29144">
        <ele>121.1</ele>
        <time>2015-03-16T20:55:13.344Z</time>
      </trkpt>
      <trkpt lat="48.87309" lon="2.2915">
        <ele>121.7</ele>
        <time>2015-03-16T20:55:15.348Z</time>
      </trkpt>
      <trkpt lat="48.87311" lon="2.29154">
        <ele>121.5</ele>
        <time>2015-03-16T20:55:16.348Z</time>
      </trkpt>
      <trkpt lat="48.87318" lon="2.29164">
        <ele>121.8</ele>
        <time>2015-03-16T20:55:18.648Z</time>
      </trkpt>
      <trkpt lat="48.87319" lon="2.29169">
        <ele>121.7</ele>
        <time>2015-03-16T20:55:19.359Z</time>
      </trkpt>
      <trkpt lat="48.87325" lon="2.29176">
        <ele>121.4</ele>
        <time>2015-03-16T20:55:21.286Z</time>
      </trkpt>
      <trkpt lat="48.87327" lon="2.2918">
        <ele>121.3</ele>
        <time>2015-03-16T20:55:22.302Z</time>
      </trkpt>
      <trkpt lat="48.87331" lon="2.29187">
        <ele>121.8</ele>
        <time>2015-03-16T20:55:24.355Z</time>
      </trkpt>
      <trkpt lat="48.87333" lon="2.29191">
        <ele>122.1</ele>
        <time>2015-03-16T20:55:25.366Z</time>
      </trkpt>
      <trkpt lat="48.87338" lon="2.29199">
        <ele>122.4</ele>
        <time>2015-03-16T20:55:27.308Z</time>
      </trkpt>
      <trkpt lat="48.8734" lon="2.29203">
        <ele>122.4</ele>
        <time>2015-03-16T20:55:28.309Z</time>
      </trkpt>
      <trkpt lat="48.87343" lon="2.29215">
        <ele>123.3</ele>
        <time>2015-03-16T20:55:32.355Z</time>
      </trkpt>
      <trkpt lat="48.87343" lon="2.29218">
        <ele>123.4</ele>
        <time>2015-03-16T20:55:33.379Z</time>
      </trkpt>
      <trkpt lat="48.87345" lon="2.29222">
        <ele>124.3</ele>
        <time>2015-03-16T20:56:41.294Z</time>
      </trkpt>
      <trkpt lat="48.8735" lon="2.29239">
        <ele>121.3</ele>
        <time>2015-03-16T20:56:42.299Z</time>
      </trkpt>
      <trkpt lat="48.87347" lon="2.29251">
        <ele>117.7</ele>
        <time>2015-03-16T20:56:45.293Z</time>
      </trkpt>
      <trkpt lat="48.87348" lon="2.29253">
        <ele>117.3</ele>
        <time>2015-03-16T20:56:46.297Z</time>
      </trkpt>
      <trkpt lat="48.87349" lon="2.29256">
        <ele>117.1</ele>
        <time>2015-03-16T20:56:51.328Z</time>
      </trkpt>
      <trkpt lat="48.87353" lon="2.29267">
        <ele>116.3</ele>
        <time>2015-03-16T20:56:52.341Z</time>
      </trkpt>
      <trkpt lat="48.87347" lon="2.29272">
        <ele>115.6</ele>
        <time>2015-03-16T20:56:55.284Z</time>
      </trkpt>
      <trkpt lat="48.87344" lon="2.29274">
        <ele>115.3</ele>
        <time>2015-03-16T20:56:56.326Z</time>
      </trkpt>
      <trkpt lat="48.87337" lon="2.29277">
        <ele>114.6</ele>
        <time>2015-03-16T20:56:58.351Z</time>
      </trkpt>
      <trkpt lat="48.87334" lon="2.29278">
        <ele>114.2</ele>
        <time>2015-03-16T20:56:59.371Z</time>
      </trkpt>
      <trkpt lat="48.87328" lon="2.29281">
        <ele>113.4</ele>
        <time>2015-03-16T20:57:01.288Z</time>
      </trkpt>
      <trkpt lat="48.87324" lon="2.29283">
        <ele>112.9</ele>
        <time>2015-03-16T20:57:02.378Z</time>
      </trkpt>
      <trkpt lat="48.87317" lon="2.29288">
        <ele>112</ele>
        <time>2015-03-16T20:57:04.277Z</time>
      </trkpt>
      <trkpt lat="48.87314" lon="2.29291">
        <ele>111.4</ele>
        <time>2015-03-16T20:57:05.319Z</time>
      </trkpt>
      <trkpt lat="48.87309" lon="2.29297">
        <ele>110.1</ele>
        <time>2015-03-16T20:57:08.109Z</time>
      </trkpt>
      <trkpt lat="48.87306" lon="2.29299">
        <ele>109.4</ele>
        <time>2015-03-16T20:57:08.348Z</time>
      </trkpt>
      <trkpt lat="48.87301" lon="2.29309">
        <ele>108.7</ele>
        <time>2015-03-16T20:57:11.379Z</time>
      </trkpt>
      <trkpt lat="48.87299" lon="2.29311">
        <ele>108.7</ele>
        <time>2015-03-16T20:57:12.294Z</time>
      </trkpt>
      <trkpt lat="48.87294" lon="2.29319">
        <ele>109.8</ele>
        <time>2015-03-16T20:57:15.368Z</time>
      </trkpt>
      <trkpt lat="48.87292" lon="2.29322">
        <ele>109.9</ele>
        <time>2015-03-16T20:57:16.269Z</time>
      </trkpt>
      <trkpt lat="48.87287" lon="2.29329">
        <ele>110.4</ele>
        <time>2015-03-16T20:57:18.299Z</time>
      </trkpt>
      <trkpt lat="48.87284" lon="2.29334">
        <ele>110.5</ele>
        <time>2015-03-16T20:57:19.318Z</time>
      </trkpt>
      <trkpt lat="48.87279" lon="2.29344">
        <ele>111.6</ele>
        <time>2015-03-16T20:57:21.276Z</time>
      </trkpt>
      <trkpt lat="48.87275" lon="2.29349">
        <ele>111.9</ele>
        <time>2015-03-16T20:57:22.277Z</time>
      </trkpt>
      <trkpt lat="48.87268" lon="2.29358">
        <ele>112.5</ele>
        <time>2015-03-16T20:57:24.360Z</time>
      </trkpt>
      <trkpt lat="48.87265" lon="2.29363">
        <ele>112.9</ele>
        <time>2015-03-16T20:57:25.380Z</time>
      </trkpt>
      <trkpt lat="48.87262" lon="2.29368">
        <ele>113</ele>
        <time>2015-03-16T20:57:26.387Z</time>
      </trkpt>
      <trkpt lat="48.87258" lon="2.29372">
        <ele>112.9</ele>
        <time>2015-03-16T20:57:27.298Z</time>
      </trkpt>
      <trkpt lat="48.87254" lon="2.29383">
        <ele>113.3</ele>
        <time>2015-03-16T20:57:30.317Z</time>
      </trkpt>
      <trkpt lat="48.87251" lon="2.29386">
        <ele>113.4</ele>
        <time>2015-03-16T20:57:31.311Z</time>
      </trkpt>
      <trkpt lat="48.87249" lon="2.29397">
        <ele>114.1</ele>
        <time>2015-03-16T20:57:34.353Z</time>
      </trkpt>
      <trkpt lat="48.87249" lon="2.29401">
        <ele>114.2</ele>
        <time>2015-03-16T20:57:35.277Z</time>
      </trkpt>
      <trkpt lat="48.87246" lon="2.29412">
        <ele>110.8</ele>
        <time>2015-03-16T20:58:04.265Z</time>
      </trkpt>
      <trkpt lat="48.87244" lon="2.29416">
        <ele>110.9</ele>
        <time>2015-03-16T20:58:05.266Z</time>
      </trkpt>
      <trkpt lat="48.8724" lon="2.29426">
        <ele>111.3</ele>
        <time>2015-03-16T20:58:07.277Z</time>
      </trkpt>
      <trkpt lat="48.87238" lon="2.29431">
        <ele>111.5</ele>
        <time>2015-03-16T20:58:08.309Z</time>
      </trkpt>
      <trkpt lat="48.87234" lon="2.2944">
        <ele>111.9</ele>
        <time>2015-03-16T20:58:10.342Z</time>
      </trkpt>
      <trkpt lat="48.87234" lon="2.29445">
        <ele>112.4</ele>
        <time>2015-03-16T20:58:11.345Z</time>
      </trkpt>
      <trkpt lat="48.87232" lon="2.29455">
        <ele>112.9</ele>
        <time>2015-03-16T20:58:13.374Z</time>
      </trkpt>
      <trkpt lat="48.87232" lon="2.29461">
        <ele>113</ele>
        <time>2015-03-16T20:58:14.381Z</time>
      </trkpt>
      <trkpt lat="48.8723" lon="2.29474">
        <ele>113.2</ele>
        <time>2015-03-16T20:58:16.261Z</time>
      </trkpt>
      <trkpt lat="48.87227" lon="2.29488">
        <ele>113</ele>
        <time>2015-03-16T20:58:19.276Z</time>
      </trkpt>
      <trkpt lat="48.87224" lon="2.29498">
        <ele>112.6</ele>
        <time>2015-03-16T20:58:22.255Z</time>
      </trkpt>
      <trkpt lat="48.87224" lon="2.29502">
        <ele>112.4</ele>
        <time>2015-03-16T20:58:23.263Z</time>
      </trkpt>
      <trkpt lat="48.87224" lon="2.29516">
        <ele>112.5</ele>
        <time>2015-03-16T20:58:26.299Z</time>
      </trkpt>
      <trkpt lat="48.87224" lon="2.29519">
        <ele>113</ele>
        <time>2015-03-16T20:58:27.305Z</time>
      </trkpt>
      <trkpt lat="48.87226" lon="2.29529">
        <ele>114.1</ele>
        <time>2015-03-16T20:58:30.337Z</time>
      </trkpt>
      <trkpt lat="48.87226" lon="2.29533">
        <ele>114.5</ele>
        <time>2015-03-16T20:58:31.351Z</time>
      </trkpt>
      <trkpt lat="48.87229" lon="2.29541">
        <ele>115</ele>
        <time>2015-03-16T20:58:33.746Z</time>
      </trkpt>
      <trkpt lat="48.8723" lon="2.29546">
        <ele>115.2</ele>
        <time>2015-03-16T20:58:34.272Z</time>
      </trkpt>
      <trkpt lat="48.87233" lon="2.29557">
        <ele>115.7</ele>
        <time>2015-03-16T20:58:36.287Z</time>
      </trkpt>
      <trkpt lat="48.87235" lon="2.29561">
        <ele>115.9</ele>
        <time>2015-03-16T20:58:37.302Z</time>
      </trkpt>
      <trkpt lat="48.87238" lon="2.29573">
        <ele>116.3</ele>
        <time>2015-03-16T20:58:39.337Z</time>
      </trkpt>
      <trkpt lat="48.87239" lon="2.29579">
        <ele>116.3</ele>
        <time>2015-03-16T20:58:40.276Z</time>
      </trkpt>
      <trkpt lat="48.87241" lon="2.29592">
        <ele>116.8</ele>
        <time>2015-03-16T20:58:43.157Z</time>
      </trkpt>
      <trkpt lat="48.87243" lon="2.29597">
        <ele>116.9</ele>
        <time>2015-03-16T20:58:43.262Z</time>
      </trkpt>
      <trkpt lat="48.87246" lon="2.29606">
        <ele>117.7</ele>
        <time>2015-03-16T20:58:45.311Z</time>
      </trkpt>
      <trkpt lat="48.87247" lon="2.29611">
        <ele>118.5</ele>
        <time>2015-03-16T20:58:46.316Z</time>
      </trkpt>
      <trkpt lat="48.87248" lon="2.29624">
        <ele>119.8</ele>
        <time>2015-03-16T20:58:49.338Z</time>
      </trkpt>
      <trkpt lat="48.87249" lon="2.29629">
        <ele>119.6</ele>
        <time>2015-03-16T20:58:50.336Z</time>
      </trkpt>
      <trkpt lat="48.87254" lon="2.29639">
        <ele>121.4</ele>
        <time>2015-03-16T20:58:55.255Z</time>
      </trkpt>
      <trkpt lat="48.87256" lon="2.29642">
        <ele>122.1</ele>
        <time>2015-03-16T20:58:56.303Z</time>
      </trkpt>
      <trkpt lat="48.87262" lon="2.29651">
        <ele>124</ele>
        <time>2015-03-16T21:00:01.251Z</time>
      </trkpt>
      <trkpt lat="48.87268" lon="2.29649">
        <ele>151.3</ele>
        <time>2015-03-16T21:00:02.405Z</time>
      </trkpt>
      <trkpt lat="48.87274" lon="2.29658">
        <ele>151</ele>
        <time>2015-03-16T21:00:05.336Z</time>
      </trkpt>
      <trkpt lat="48.87275" lon="2.2966">
        <ele>150.9</ele>
        <time>2015-03-16T21:00:06.316Z</time>
      </trkpt>
      <trkpt lat="48.87281" lon="2.29666">
        <ele>151.2</ele>
        <time>2015-03-16T21:00:10.901Z</time>
      </trkpt>
      <trkpt lat="48.87282" lon="2.29671">
        <ele>151.2</ele>
        <time>2015-03-16T21:00:11.342Z</time>
      </trkpt>
      <trkpt lat="48.87288" lon="2.2968">
        <ele>150.1</ele>
        <time>2015-03-16T21:00:14.348Z</time>
      </trkpt>
      <trkpt lat="48.87294" lon="2.29679">
        <ele>147.6</ele>
        <time>2015-03-16T21:00:15.271Z</time>
      </trkpt>
      <trkpt lat="48.87301" lon="2.29686">
        <ele>142.6</ele>
        <time>2015-03-16T21:00:19.021Z</time>
      </trkpt>
      <trkpt lat="48.87301" lon="2.29691">
        <ele>141.4</ele>
        <time>2015-03-16T21:00:19.351Z</time>
      </trkpt>
      <trkpt lat="48.87297" lon="2.29702">
        <ele>136.7</ele>
        <time>2015-03-16T21:00:31.335Z</time>
      </trkpt>
      <trkpt lat="48.87291" lon="2.29716">
        <ele>132.3</ele>
        <time>2015-03-16T21:00:32.426Z</time>
      </trkpt>
      <trkpt lat="48.87288" lon="2.29724">
        <ele>130</ele>
        <time>2015-03-16T21:00:35.313Z</time>
      </trkpt>
      <trkpt lat="48.87286" lon="2.29728">
        <ele>129.2</ele>
        <time>2015-03-16T21:00:36.339Z</time>
      </trkpt>
      <trkpt lat="48.87282" lon="2.29736">
        <ele>127.9</ele>
        <time>2015-03-16T21:00:38.351Z</time>
      </trkpt>
      <trkpt lat="48.87281" lon="2.2974">
        <ele>128</ele>
        <time>2015-03-16T21:00:39.265Z</time>
      </trkpt>
      <trkpt lat="48.87285" lon="2.29749">
        <ele>124.7</ele>
        <time>2015-03-16T21:00:43.322Z</time>
      </trkpt>
      <trkpt lat="48.87285" lon="2.29752">
        <ele>124</ele>
        <time>2015-03-16T21:00:44.444Z</time>
      </trkpt>
      <trkpt lat="48.87284" lon="2.29757">
        <ele>124</ele>
        <time>2015-03-16T21:00:45.322Z</time>
      </trkpt>
      <trkpt lat="48.87282" lon="2.29765">
        <ele>123.3</ele>
        <time>2015-03-16T21:00:46.367Z</time>
      </trkpt>
      <trkpt lat="48.8728" lon="2.29772">
        <ele>122.3</ele>
        <time>2015-03-16T21:00:47.386Z</time>
      </trkpt>
      <trkpt lat="48.87278" lon="2.29778">
        <ele>121.6</ele>
        <time>2015-03-16T21:00:48.286Z</time>
      </trkpt>
      <trkpt lat="48.87275" lon="2.2979">
        <ele>119.9</ele>
        <time>2015-03-16T21:00:50.321Z</time>
      </trkpt>
      <trkpt lat="48.87273" lon="2.29794">
        <ele>119.3</ele>
        <time>2015-03-16T21:00:51.325Z</time>
      </trkpt>
      <trkpt lat="48.87269" lon="2.29802">
        <ele>118.1</ele>
        <time>2015-03-16T21:00:53.492Z</time>
      </trkpt>
      <trkpt lat="48.87267" lon="2.29807">
        <ele>117.6</ele>
        <time>2015-03-16T21:00:54.313Z</time>
      </trkpt>
      <trkpt lat="48.87264" lon="2.29812">
        <ele>117</ele>
        <time>2015-03-16T21:00:55.309Z</time>
      </trkpt>
      <trkpt lat="48.87261" lon="2.29817">
        <ele>116.9</ele>
        <time>2015-03-16T21:00:56.381Z</time>
      </trkpt>
      <trkpt lat="48.87259" lon="2.29828">
        <ele>117.5</ele>
        <time>2015-03-16T21:00:59.297Z</time>
      </trkpt>
      <trkpt lat="48.8726" lon="2.29831">
        <ele>117.5</ele>
        <time>2015-03-16T21:01:00.303Z</time>
      </trkpt>
      <trkpt lat="48.87265" lon="2.2984">
        <ele>118.8</ele>
        <time>2015-03-16T21:01:05.308Z</time>
      </trkpt>
      <trkpt lat="48.87264" lon="2.29846">
        <ele>118.8</ele>
        <time>2015-03-16T21:01:06.300Z</time>
      </trkpt>
      <trkpt lat="48.87262" lon="2.29853">
        <ele>118.4</ele>
        <time>2015-03-16T21:01:07.306Z</time>
      </trkpt>
      <trkpt lat="48.87259" lon="2.29862">
        <ele>117.9</ele>
        <time>2015-03-16T21:01:08.347Z</time>
      </trkpt>
      <trkpt lat="48.87258" lon="2.29869">
        <ele>117.5</ele>
        <time>2015-03-16T21:01:09.399Z</time>
      </trkpt>
      <trkpt lat="48.87253" lon="2.29877">
        <ele>116.4</ele>
        <time>2015-03-16T21:01:10.310Z</time>
      </trkpt>
      <trkpt lat="48.8725" lon="2.29884">
        <ele>115.6</ele>
        <time>2015-03-16T21:01:11.313Z</time>
      </trkpt>
      <trkpt lat="48.87247" lon="2.29891">
        <ele>115.1</ele>
        <time>2015-03-16T21:01:12.319Z</time>
      </trkpt>
      <trkpt lat="48.87244" lon="2.29898">
        <ele>114.6</ele>
        <time>2015-03-16T21:01:13.345Z</time>
      </trkpt>
      <trkpt lat="48.87241" lon="2.29905">
        <ele>113.8</ele>
        <time>2015-03-16T21:01:14.364Z</time>
      </trkpt>
      <trkpt lat="48.87237" lon="2.29911">
        <ele>113.4</ele>
        <time>2015-03-16T21:01:15.921Z</time>
      </trkpt>
      <trkpt lat="48.87234" lon="2.29916">
        <ele>113.1</ele>
        <time>2015-03-16T21:01:16.380Z</time>
      </trkpt>
      <trkpt lat="48.8723" lon="2.29926">
        <ele>112.7</ele>
        <time>2015-03-16T21:01:18.828Z</time>
      </trkpt>
      <trkpt lat="48.87228" lon="2.29932">
        <ele>112.4</ele>
        <time>2015-03-16T21:01:19.335Z</time>
      </trkpt>
      <trkpt lat="48.87223" lon="2.29943">
        <ele>112</ele>
        <time>2015-03-16T21:01:21.356Z</time>
      </trkpt>
      <trkpt lat="48.87219" lon="2.29948">
        <ele>111.4</ele>
        <time>2015-03-16T21:01:22.374Z</time>
      </trkpt>
      <trkpt lat="48.87214" lon="2.29958">
        <ele>111.1</ele>
        <time>2015-03-16T21:01:24.289Z</time>
      </trkpt>
      <trkpt lat="48.87211" lon="2.29963">
        <ele>110.7</ele>
        <time>2015-03-16T21:01:25.292Z</time>
      </trkpt>
      <trkpt lat="48.87206" lon="2.29973">
        <ele>110.2</ele>
        <time>2015-03-16T21:01:27.345Z</time>
      </trkpt>
      <trkpt lat="48.87203" lon="2.29978">
        <ele>110</ele>
        <time>2015-03-16T21:01:28.362Z</time>
      </trkpt>
      <trkpt lat="48.87198" lon="2.29987">
        <ele>109.5</ele>
        <time>2015-03-16T21:01:30.297Z</time>
      </trkpt>
      <trkpt lat="48.87195" lon="2.29991">
        <ele>109.2</ele>
        <time>2015-03-16T21:01:31.308Z</time>
      </trkpt>
      <trkpt lat="48.8719" lon="2.29998">
        <ele>108.5</ele>
        <time>2015-03-16T21:01:33.287Z</time>
      </trkpt>
      <trkpt lat="48.87187" lon="2.30002">
        <ele>108.2</ele>
        <time>2015-03-16T21:01:34.296Z</time>
      </trkpt>
      <trkpt lat="48.87184" lon="2.30012">
        <ele>107.7</ele>
        <time>2015-03-16T21:01:36.330Z</time>
      </trkpt>
      <trkpt lat="48.87182" lon="2.30018">
        <ele>107.6</ele>
        <time>2015-03-16T21:01:37.281Z</time>
      </trkpt>
      <trkpt lat="48.87181" lon="2.3003">
        <ele>107.5</ele>
        <time>2015-03-16T21:01:39.346Z</time>
      </trkpt>
      <trkpt lat="48.87183" lon="2.3004">
        <ele>107.4</ele>
        <time>2015-03-16T21:01:40.379Z</time>
      </trkpt>
      <trkpt lat="48.87184" lon="2.30048">
        <ele>107.1</ele>
        <time>2015-03-16T21:01:41.274Z</time>
      </trkpt>
      <trkpt lat="48.87185" lon="2.30055">
        <ele>106.7</ele>
        <time>2015-03-16T21:01:42.283Z</time>
      </trkpt>
      <trkpt lat="48.87186" lon="2.30067">
        <ele>106.5</ele>
        <time>2015-03-16T21:01:44.307Z</time>
      </trkpt>
      <trkpt lat="48.87185" lon="2.30072">
        <ele>106.8</ele>
        <time>2015-03-16T21:01:45.319Z</time>
      </trkpt>
      <trkpt lat="48.87181" lon="2.3008">
        <ele>107</ele>
        <time>2015-03-16T21:01:47.266Z</time>
      </trkpt>
      <trkpt lat="48.87179" lon="2.30085">
        <ele>107.2</ele>
        <time>2015-03-16T21:01:48.298Z</time>
      </trkpt>
      <trkpt lat="48.87175" lon="2.30094">
        <ele>107.7</ele>
        <time>2015-03-16T21:01:50.306Z</time>
      </trkpt>
      <trkpt lat="48.87174" lon="2.30098">
        <ele>107.7</ele>
        <time>2015-03-16T21:01:51.316Z</time>
      </trkpt>
      <trkpt lat="48.87169" lon="2.30107">
        <ele>107.4</ele>
        <time>2015-03-16T21:01:54.284Z</time>
      </trkpt>
      <trkpt lat="48.87167" lon="2.3011">
        <ele>107.3</ele>
        <time>2015-03-16T21:01:55.289Z</time>
      </trkpt>
      <trkpt lat="48.87163" lon="2.30122">
        <ele>107.1</ele>
        <time>2015-03-16T21:01:58.353Z</time>
      </trkpt>
      <trkpt lat="48.87161" lon="2.30126">
        <ele>107.4</ele>
        <time>2015-03-16T21:01:59.359Z</time>
      </trkpt>
      <trkpt lat="48.87156" lon="2.30136">
        <ele>107.7</ele>
        <time>2015-03-16T21:02:01.293Z</time>
      </trkpt>
      <trkpt lat="48.87154" lon="2.30141">
        <ele>107.8</ele>
        <time>2015-03-16T21:02:02.338Z</time>
      </trkpt>
      <trkpt lat="48.87151" lon="2.30151">
        <ele>108.1</ele>
        <time>2015-03-16T21:02:04.357Z</time>
      </trkpt>
      <trkpt lat="48.87149" lon="2.30157">
        <ele>108.1</ele>
        <time>2015-03-16T21:02:05.361Z</time>
      </trkpt>
      <trkpt lat="48.87147" lon="2.30169">
        <ele>107.6</ele>
        <time>2015-03-16T21:02:07.352Z</time>
      </trkpt>
      <trkpt lat="48.87146" lon="2.30174">
        <ele>106.8</ele>
        <time>2015-03-16T21:02:08.479Z</time>
      </trkpt>
      <trkpt lat="48.8715" lon="2.30184">
        <ele>100.2</ele>
        <time>2015-03-16T21:02:12.344Z</time>
      </trkpt>
      <trkpt lat="48.87148" lon="2.3019">
        <ele>100.4</ele>
        <time>2015-03-16T21:02:13.360Z</time>
      </trkpt>
      <trkpt lat="48.87147" lon="2.30198">
        <ele>100.5</ele>
        <time>2015-03-16T21:02:14.412Z</time>
      </trkpt>
      <trkpt lat="48.87145" lon="2.30203">
        <ele>100.3</ele>
        <time>2015-03-16T21:02:15.291Z</time>
      </trkpt>
      <trkpt lat="48.8714" lon="2.30212">
        <ele>99.8</ele>
        <time>2015-03-16T21:02:17.317Z</time>
      </trkpt>
      <trkpt lat="48.87137" lon="2.30216">
        <ele>99.6</ele>
        <time>2015-03-16T21:02:18.338Z</time>
      </trkpt>
      <trkpt lat="48.87135" lon="2.3023">
        <ele>98.8</ele>
        <time>2015-03-16T21:02:21.374Z</time>
      </trkpt>
      <trkpt lat="48.87134" lon="2.30232">
        <ele>98.5</ele>
        <time>2015-03-16T21:02:22.263Z</time>
      </trkpt>
      <trkpt lat="48.87134" lon="2.30234">
        <ele>98.7</ele>
        <time>2015-03-16T21:02:53.315Z</time>
      </trkpt>
      <trkpt lat="48.87127" lon="2.30251">
        <ele>106.2</ele>
        <time>2015-03-16T21:02:54.344Z</time>
      </trkpt>
      <trkpt lat="48.87124" lon="2.30264">
        <ele>105.8</ele>
        <time>2015-03-16T21:02:59.365Z</time>
      </trkpt>
      <trkpt lat="48.87124" lon="2.30265">
        <ele>106</ele>
        <time>2015-03-16T21:03:00.275Z</time>
      </trkpt>
      <trkpt lat="48.87129" lon="2.30276">
        <ele>108.5</ele>
        <time>2015-03-16T21:03:05.321Z</time>
      </trkpt>
      <trkpt lat="48.8713" lon="2.3028">
        <ele>109</ele>
        <time>2015-03-16T21:03:06.284Z</time>
      </trkpt>
      <trkpt lat="48.87133" lon="2.30289">
        <ele>110.2</ele>
        <time>2015-03-16T21:03:08.344Z</time>
      </trkpt>
      <trkpt lat="48.87133" lon="2.30298">
        <ele>111.5</ele>
        <time>2015-03-16T21:03:09.363Z</time>
      </trkpt>
      <trkpt lat="48.87133" lon="2.30304">
        <ele>111.7</ele>
        <time>2015-03-16T21:03:10.288Z</time>
      </trkpt>
      <trkpt lat="48.87131" lon="2.30312">
        <ele>111.5</ele>
        <time>2015-03-16T21:03:11.295Z</time>
      </trkpt>
      <trkpt lat="48.87128" lon="2.30321">
        <ele>110.3</ele>
        <time>2015-03-16T21:03:12.389Z</time>
      </trkpt>
      <trkpt lat="48.87124" lon="2.30329">
        <ele>109.2</ele>
        <time>2015-03-16T21:03:13.324Z</time>
      </trkpt>
      <trkpt lat="48.87121" lon="2.30334">
        <ele>109.3</ele>
        <time>2015-03-16T21:03:14.335Z</time>
      </trkpt>
      <trkpt lat="48.87118" lon="2.3034">
        <ele>108.8</ele>
        <time>2015-03-16T21:03:15.344Z</time>
      </trkpt>
      <trkpt lat="48.87115" lon="2.30347">
        <ele>108.2</ele>
        <time>2015-03-16T21:03:16.297Z</time>
      </trkpt>
      <trkpt lat="48.87112" lon="2.30353">
        <ele>107.8</ele>
        <time>2015-03-16T21:03:17.288Z</time>
      </trkpt>
      <trkpt lat="48.87108" lon="2.30358">
        <ele>107.5</ele>
        <time>2015-03-16T21:03:18.287Z</time>
      </trkpt>
      <trkpt lat="48.87104" lon="2.3036">
        <ele>107.3</ele>
        <time>2015-03-16T21:03:19.322Z</time>
      </trkpt>
      <trkpt lat="48.871" lon="2.30364">
        <ele>107.1</ele>
        <time>2015-03-16T21:03:20.376Z</time>
      </trkpt>
      <trkpt lat="48.87096" lon="2.30368">
        <ele>106.8</ele>
        <time>2015-03-16T21:03:21.292Z</time>
      </trkpt>
      <trkpt lat="48.8709" lon="2.30378">
        <ele>106.5</ele>
        <time>2015-03-16T21:03:23.298Z</time>
      </trkpt>
      <trkpt lat="48.87089" lon="2.30383">
        <ele>106.4</ele>
        <time>2015-03-16T21:03:24.297Z</time>
      </trkpt>
      <trkpt lat="48.87092" lon="2.30393">
        <ele>106.5</ele>
        <time>2015-03-16T21:03:31.292Z</time>
      </trkpt>
      <trkpt lat="48.87093" lon="2.30395">
        <ele>106.8</ele>
        <time>2015-03-16T21:03:32.338Z</time>
      </trkpt>
      <trkpt lat="48.87093" lon="2.30402">
        <ele>107.6</ele>
        <time>2015-03-16T21:03:33.343Z</time>
      </trkpt>
      <trkpt lat="48.87093" lon="2.30412">
        <ele>108.8</ele>
        <time>2015-03-16T21:03:34.366Z</time>
      </trkpt>
      <trkpt lat="48.87092" lon="2.3042">
        <ele>109.1</ele>
        <time>2015-03-16T21:03:35.289Z</time>
      </trkpt>
      <trkpt lat="48.87089" lon="2.30426">
        <ele>108.7</ele>
        <time>2015-03-16T21:03:36.298Z</time>
      </trkpt>
      <trkpt lat="48.87084" lon="2.30431">
        <ele>108.2</ele>
        <time>2015-03-16T21:03:37.295Z</time>
      </trkpt>
      <trkpt lat="48.87081" lon="2.30436">
        <ele>107.4</ele>
        <time>2015-03-16T21:03:38.338Z</time>
      </trkpt>
      <trkpt lat="48.87078" lon="2.30445">
        <ele>106.1</ele>
        <time>2015-03-16T21:03:40.263Z</time>
      </trkpt>
      <trkpt lat="48.87077" lon="2.3045">
        <ele>106</ele>
        <time>2015-03-16T21:03:41.295Z</time>
      </trkpt>
      <trkpt lat="48.87073" lon="2.30456">
        <ele>105.1</ele>
        <time>2015-03-16T21:03:42.297Z</time>
      </trkpt>
      <trkpt lat="48.87069" lon="2.30461">
        <ele>104.1</ele>
        <time>2015-03-16T21:03:43.339Z</time>
      </trkpt>
      <trkpt lat="48.87065" lon="2.30467">
        <ele>103.4</ele>
        <time>2015-03-16T21:03:44.363Z</time>
      </trkpt>
      <trkpt lat="48.87062" lon="2.30473">
        <ele>102.3</ele>
        <time>2015-03-16T21:03:45.257Z</time>
      </trkpt>
      <trkpt lat="48.87057" lon="2.30483">
        <ele>101.1</ele>
        <time>2015-03-16T21:03:47.301Z</time>
      </trkpt>
      <trkpt lat="48.87056" lon="2.30485">
        <ele>100.7</ele>
        <time>2015-03-16T21:03:48.318Z</time>
      </trkpt>
      <trkpt lat="48.87052" lon="2.30483">
        <ele>101.9</ele>
        <time>2015-03-16T21:03:53.344Z</time>
      </trkpt>
      <trkpt lat="48.87046" lon="2.30489">
        <ele>101.3</ele>
        <time>2015-03-16T21:03:54.361Z</time>
      </trkpt>
      <trkpt lat="48.87043" lon="2.30499">
        <ele>101.2</ele>
        <time>2015-03-16T21:03:57.294Z</time>
      </trkpt>
      <trkpt lat="48.87041" lon="2.30503">
        <ele>101.2</ele>
        <time>2015-03-16T21:03:58.291Z</time>
      </trkpt>
      <trkpt lat="48.87037" lon="2.30511">
        <ele>101.3</ele>
        <time>2015-03-16T21:04:00.357Z</time>
      </trkpt>
      <trkpt lat="48.87035" lon="2.30515">
        <ele>101.1</ele>
        <time>2015-03-16T21:04:01.356Z</time>
      </trkpt>
      <trkpt lat="48.87031" lon="2.30526">
        <ele>101.7</ele>
        <time>2015-03-16T21:04:06.303Z</time>
      </trkpt>
      <trkpt lat="48.8703" lon="2.30527">
        <ele>102</ele>
        <time>2015-03-16T21:04:07.388Z</time>
      </trkpt>
      <trkpt lat="48.8703" lon="2.30537">
        <ele>103.4</ele>
        <time>2015-03-16T21:04:11.264Z</time>
      </trkpt>
      <trkpt lat="48.87029" lon="2.30544">
        <ele>103.1</ele>
        <time>2015-03-16T21:04:12.290Z</time>
      </trkpt>
      <trkpt lat="48.87027" lon="2.30552">
        <ele>103.1</ele>
        <time>2015-03-16T21:04:13.423Z</time>
      </trkpt>
      <trkpt lat="48.87026" lon="2.30561">
        <ele>102.9</ele>
        <time>2015-03-16T21:04:14.340Z</time>
      </trkpt>
      <trkpt lat="48.87025" lon="2.30568">
        <ele>102.9</ele>
        <time>2015-03-16T21:04:15.344Z</time>
      </trkpt>
      <trkpt lat="48.87022" lon="2.30578">
        <ele>102.6</ele>
        <time>2015-03-16T21:04:16.348Z</time>
      </trkpt>
      <trkpt lat="48.87019" lon="2.30585">
        <ele>102.5</ele>
        <time>2015-03-16T21:04:17.295Z</time>
      </trkpt>
      <trkpt lat="48.87016" lon="2.30594">
        <ele>102.3</ele>
        <time>2015-03-16T21:04:18.285Z</time>
      </trkpt>
      <trkpt lat="48.87014" lon="2.30604">
        <ele>102</ele>
        <time>2015-03-16T21:04:19.300Z</time>
      </trkpt>
      <trkpt lat="48.87012" lon="2.30613">
        <ele>101.3</ele>
        <time>2015-03-16T21:04:20.338Z</time>
      </trkpt>
      <trkpt lat="48.8701" lon="2.30619">
        <ele>100.8</ele>
        <time>2015-03-16T21:04:21.356Z</time>
      </trkpt>
      <trkpt lat="48.87007" lon="2.30625">
        <ele>100.8</ele>
        <time>2015-03-16T21:04:22.373Z</time>
      </trkpt>
      <trkpt lat="48.87004" lon="2.30637">
        <ele>100.6</ele>
        <time>2015-03-16T21:04:24.299Z</time>
      </trkpt>
      <trkpt lat="48.87003" lon="2.30642">
        <ele>100.7</ele>
        <time>2015-03-16T21:04:25.321Z</time>
      </trkpt>
      <trkpt lat="48.86998" lon="2.30653">
        <ele>100.7</ele>
        <time>2015-03-16T21:04:27.285Z</time>
      </trkpt>
      <trkpt lat="48.86996" lon="2.30659">
        <ele>100.7</ele>
        <time>2015-03-16T21:04:28.252Z</time>
      </trkpt>
      <trkpt lat="48.86993" lon="2.30669">
        <ele>100.6</ele>
        <time>2015-03-16T21:04:30.281Z</time>
      </trkpt>
      <trkpt lat="48.86992" lon="2.30675">
        <ele>100.8</ele>
        <time>2015-03-16T21:04:31.297Z</time>
      </trkpt>
      <trkpt lat="48.8699" lon="2.30684">
        <ele>101.2</ele>
        <time>2015-03-16T21:04:33.360Z</time>
      </trkpt>
      <trkpt lat="48.86988" lon="2.30689">
        <ele>101.3</ele>
        <time>2015-03-16T21:04:34.304Z</time>
      </trkpt>
      <trkpt lat="48.86984" lon="2.30697">
        <ele>101.3</ele>
        <time>2015-03-16T21:04:36.309Z</time>
      </trkpt>
      <trkpt lat="48.86982" lon="2.30701">
        <ele>101.4</ele>
        <time>2015-03-16T21:04:37.336Z</time>
      </trkpt>
      <trkpt lat="48.86978" lon="2.3071">
        <ele>101</ele>
        <time>2015-03-16T21:04:39.276Z</time>
      </trkpt>
      <trkpt lat="48.86976" lon="2.30715">
        <ele>100.8</ele>
        <time>2015-03-16T21:04:40.278Z</time>
      </trkpt>
      <trkpt lat="48.86972" lon="2.30727">
        <ele>100.5</ele>
        <time>2015-03-16T21:04:42.318Z</time>
      </trkpt>
      <trkpt lat="48.86971" lon="2.30732">
        <ele>100.4</ele>
        <time>2015-03-16T21:04:43.328Z</time>
      </trkpt>
      <trkpt lat="48.86967" lon="2.30742">
        <ele>100.3</ele>
        <time>2015-03-16T21:04:45.280Z</time>
      </trkpt>
      <trkpt lat="48.86965" lon="2.30747">
        <ele>100.1</ele>
        <time>2015-03-16T21:04:46.284Z</time>
      </trkpt>
      <trkpt lat="48.86962" lon="2.30758">
        <ele>99.9</ele>
        <time>2015-03-16T21:04:48.301Z</time>
      </trkpt>
      <trkpt lat="48.8696" lon="2.30762">
        <ele>100</ele>
        <time>2015-03-16T21:04:49.327Z</time>
      </trkpt>
      <trkpt lat="48.86958" lon="2.30772">
        <ele>100.1</ele>
        <time>2015-03-16T21:04:51.368Z</time>
      </trkpt>
      <trkpt lat="48.86957" lon="2.30777">
        <ele>100.5</ele>
        <time>2015-03-16T21:04:52.256Z</time>
      </trkpt>
      <trkpt lat="48.86954" lon="2.30785">
        <ele>100.1</ele>
        <time>2015-03-16T21:04:54.320Z</time>
      </trkpt>
      <trkpt lat="48.86952" lon="2.3079">
        <ele>100.1</ele>
        <time>2015-03-16T21:04:55.340Z</time>
      </trkpt>
      <trkpt lat="48.86948" lon="2.308">
        <ele>99.9</ele>
        <time>2015-03-16T21:04:57.344Z</time>
      </trkpt>
      <trkpt lat="48.86946" lon="2.30806">
        <ele>99.7</ele>
        <time>2015-03-16T21:04:58.274Z</time>
      </trkpt>
      <trkpt lat="48.86942" lon="2.30817">
        <ele>98.4</ele>
        <time>2015-03-16T21:05:01.249Z</time>
      </trkpt>
      <trkpt lat="48.86941" lon="2.30819">
        <ele>98.1</ele>
        <time>2015-03-16T21:05:02.312Z</time>
      </trkpt>
      <trkpt lat="48.86942" lon="2.30829">
        <ele>97.3</ele>
        <time>2015-03-16T21:05:05.288Z</time>
      </trkpt>
      <trkpt lat="48.86944" lon="2.30833">
        <ele>96.7</ele>
        <time>2015-03-16T21:05:06.268Z</time>
      </trkpt>
      <trkpt lat="48.86946" lon="2.30845">
        <ele>96.2</ele>
        <time>2015-03-16T21:05:07.279Z</time>
      </trkpt>
      <trkpt lat="48.86943" lon="2.30854">
        <ele>95.8</ele>
        <time>2015-03-16T21:05:08.342Z</time>
      </trkpt>
      <trkpt lat="48.86935" lon="2.30862">
        <ele>94.7</ele>
        <time>2015-03-16T21:05:11.322Z</time>
      </trkpt>
      <trkpt lat="48.86934" lon="2.30862">
        <ele>94.5</ele>
        <time>2015-03-16T21:05:12.335Z</time>
      </trkpt>
      <trkpt lat="48.86934" lon="2.30862">
        <ele>94.5</ele>
        <time>2015-03-16T21:05:46.369Z</time>
      </trkpt>
      <trkpt lat="48.86925" lon="2.30872">
        <ele>94.6</ele>
        <time>2015-03-16T21:05:47.322Z</time>
      </trkpt>
      <trkpt lat="48.86921" lon="2.30882">
        <ele>94.4</ele>
        <time>2015-03-16T21:05:55.318Z</time>
      </trkpt>
      <trkpt lat="48.86922" lon="2.30901">
        <ele>94.7</ele>
        <time>2015-03-16T21:05:56.351Z</time>
      </trkpt>
      <trkpt lat="48.86925" lon="2.30908">
        <ele>95.4</ele>
        <time>2015-03-16T21:07:07.328Z</time>
      </trkpt>
      <trkpt lat="48.86954" lon="2.30941">
        <ele>95.3</ele>
        <time>2015-03-16T21:07:08.380Z</time>
      </trkpt>
      <trkpt lat="48.86958" lon="2.3095">
        <ele>96.9</ele>
        <time>2015-03-16T21:07:11.330Z</time>
      </trkpt>
      <trkpt lat="48.86959" lon="2.30953">
        <ele>97</ele>
        <time>2015-03-16T21:07:12.366Z</time>
      </trkpt>
      <trkpt lat="48.86959" lon="2.30963">
        <ele>97.2</ele>
        <time>2015-03-16T21:07:15.324Z</time>
      </trkpt>
      <trkpt lat="48.8696" lon="2.30967">
        <ele>97.2</ele>
        <time>2015-03-16T21:07:16.329Z</time>
      </trkpt>
      <trkpt lat="48.86964" lon="2.30979">
        <ele>97.8</ele>
        <time>2015-03-16T21:07:19.335Z</time>
      </trkpt>
      <trkpt lat="48.86966" lon="2.30984">
        <ele>98</ele>
        <time>2015-03-16T21:07:20.277Z</time>
      </trkpt>
      <trkpt lat="48.86967" lon="2.30994">
        <ele>98</ele>
        <time>2015-03-16T21:07:22.312Z</time>
      </trkpt>
      <trkpt lat="48.86967" lon="2.30999">
        <ele>98.1</ele>
        <time>2015-03-16T21:07:23.332Z</time>
      </trkpt>
      <trkpt lat="48.86965" lon="2.31009">
        <ele>98</ele>
        <time>2015-03-16T21:07:26.313Z</time>
      </trkpt>
      <trkpt lat="48.86953" lon="2.31071">
        <ele>96.6</ele>
        <time>2015-03-16T21:07:43.252Z</time>
      </trkpt>
      <trkpt lat="48.86953" lon="2.31076">
        <ele>96.4</ele>
        <time>2015-03-16T21:07:45.326Z</time>
      </trkpt>
      <trkpt lat="48.86993" lon="2.31162">
        <ele>89.8</ele>
        <time>2015-03-16T21:08:13.289Z</time>
      </trkpt>
      <trkpt lat="48.86998" lon="2.31172">
        <ele>89.7</ele>
        <time>2015-03-16T21:08:15.319Z</time>
      </trkpt>
      <trkpt lat="48.86999" lon="2.31179">
        <ele>89.3</ele>
        <time>2015-03-16T21:08:16.259Z</time>
      </trkpt>
      <trkpt lat="48.86996" lon="2.31188">
        <ele>88.4</ele>
        <time>2015-03-16T21:08:20.330Z</time>
      </trkpt>
      <trkpt lat="48.87022" lon="2.31232">
        <ele>92.3</ele>
        <time>2015-03-16T21:08:39.355Z</time>
      </trkpt>
      <trkpt lat="48.87026" lon="2.31236">
        <ele>92.6</ele>
        <time>2015-03-16T21:08:40.248Z</time>
      </trkpt>
      <trkpt lat="48.8703" lon="2.3124">
        <ele>92.8</ele>
        <time>2015-03-16T21:08:41.255Z</time>
      </trkpt>
      <trkpt lat="48.87036" lon="2.31249">
        <ele>93.1</ele>
        <time>2015-03-16T21:08:43.289Z</time>
      </trkpt>
      <trkpt lat="48.87039" lon="2.31254">
        <ele>93.4</ele>
        <time>2015-03-16T21:08:44.319Z</time>
      </trkpt>
      <trkpt lat="48.87042" lon="2.31258">
        <ele>93.6</ele>
        <time>2015-03-16T21:08:45.261Z</time>
      </trkpt>
      <trkpt lat="48.87046" lon="2.31263">
        <ele>94</ele>
        <time>2015-03-16T21:08:46.251Z</time>
      </trkpt>
      <trkpt lat="48.87051" lon="2.31265">
        <ele>94.3</ele>
        <time>2015-03-16T21:08:47.314Z</time>
      </trkpt>
      <trkpt lat="48.87055" lon="2.31269">
        <ele>94.5</ele>
        <time>2015-03-16T21:08:48.402Z</time>
      </trkpt>
      <trkpt lat="48.8706" lon="2.31272">
        <ele>94.7</ele>
        <time>2015-03-16T21:08:49.254Z</time>
      </trkpt>
      <trkpt lat="48.87064" lon="2.31277">
        <ele>94.9</ele>
        <time>2015-03-16T21:08:50.362Z</time>
      </trkpt>
      <trkpt lat="48.87069" lon="2.31284">
        <ele>95.1</ele>
        <time>2015-03-16T21:08:51.263Z</time>
      </trkpt>
      <trkpt lat="48.87078" lon="2.31294">
        <ele>94.9</ele>
        <time>2015-03-16T21:08:53.291Z</time>
      </trkpt>
      <trkpt lat="48.87082" lon="2.31299">
        <ele>94.9</ele>
        <time>2015-03-16T21:08:54.318Z</time>
      </trkpt>
      <trkpt lat="48.87086" lon="2.31304">
        <ele>94.9</ele>
        <time>2015-03-16T21:08:55.326Z</time>
      </trkpt>
      <trkpt lat="48.8709" lon="2.31311">
        <ele>94.9</ele>
        <time>2015-03-16T21:08:56.343Z</time>
      </trkpt>
      <trkpt lat="48.87093" lon="2.31315">
        <ele>94.9</ele>
        <time>2015-03-16T21:08:57.261Z</time>
      </trkpt>
      <trkpt lat="48.87097" lon="2.31318">
        <ele>95</ele>
        <time>2015-03-16T21:08:58.365Z</time>
      </trkpt>
      <trkpt lat="48.87102" lon="2.3132">
        <ele>95</ele>
        <time>2015-03-16T21:08:59.304Z</time>
      </trkpt>
      <trkpt lat="48.87108" lon="2.3133">
        <ele>95</ele>
        <time>2015-03-16T21:09:01.262Z</time>
      </trkpt>
      <trkpt lat="48.87113" lon="2.31334">
        <ele>95.2</ele>
        <time>2015-03-16T21:09:02.325Z</time>
      </trkpt>
      <trkpt lat="48.87117" lon="2.31337">
        <ele>95.6</ele>
        <time>2015-03-16T21:09:03.336Z</time>
      </trkpt>
      <trkpt lat="48.87121" lon="2.3134">
        <ele>96.1</ele>
        <time>2015-03-16T21:09:04.356Z</time>
      </trkpt>
      <trkpt lat="48.87125" lon="2.31343">
        <ele>96.8</ele>
        <time>2015-03-16T21:09:05.269Z</time>
      </trkpt>
      <trkpt lat="48.87129" lon="2.31347">
        <ele>97.3</ele>
        <time>2015-03-16T21:09:06.307Z</time>
      </trkpt>
      <trkpt lat="48.87132" lon="2.31353">
        <ele>98.2</ele>
        <time>2015-03-16T21:09:07.321Z</time>
      </trkpt>
      <trkpt lat="48.87136" lon="2.31359">
        <ele>98.8</ele>
        <time>2015-03-16T21:09:08.355Z</time>
      </trkpt>
      <trkpt lat="48.8714" lon="2.31364">
        <ele>99.6</ele>
        <time>2015-03-16T21:09:09.267Z</time>
      </trkpt>
      <trkpt lat="48.87145" lon="2.31368">
        <ele>100</ele>
        <time>2015-03-16T21:09:10.268Z</time>
      </trkpt>
      <trkpt lat="48.8715" lon="2.31372">
        <ele>100.3</ele>
        <time>2015-03-16T21:09:11.275Z</time>
      </trkpt>
      <trkpt lat="48.87153" lon="2.31379">
        <ele>100.8</ele>
        <time>2015-03-16T21:09:12.292Z</time>
      </trkpt>
      <trkpt lat="48.87157" lon="2.31382">
        <ele>101.2</ele>
        <time>2015-03-16T21:09:13.320Z</time>
      </trkpt>
      <trkpt lat="48.87165" lon="2.31386">
        <ele>101</ele>
        <time>2015-03-16T21:09:15.258Z</time>
      </trkpt>
      <trkpt lat="48.87169" lon="2.3139">
        <ele>101.1</ele>
        <time>2015-03-16T21:09:16.324Z</time>
      </trkpt>
      <trkpt lat="48.87176" lon="2.31396">
        <ele>101.5</ele>
        <time>2015-03-16T21:09:18.249Z</time>
      </trkpt>
      <trkpt lat="48.87179" lon="2.31399">
        <ele>101.5</ele>
        <time>2015-03-16T21:09:19.272Z</time>
      </trkpt>
      <trkpt lat="48.87184" lon="2.31406">
        <ele>101.6</ele>
        <time>2015-03-16T21:09:21.352Z</time>
      </trkpt>
      <trkpt lat="48.87187" lon="2.31408">
        <ele>101.4</ele>
        <time>2015-03-16T21:09:22.363Z</time>
      </trkpt>
      <trkpt lat="48.87193" lon="2.31415">
        <ele>101.1</ele>
        <time>2015-03-16T21:09:25.322Z</time>
      </trkpt>
      <trkpt lat="48.87195" lon="2.31419">
        <ele>101.4</ele>
        <time>2015-03-16T21:09:26.339Z</time>
      </trkpt>
      <trkpt lat="48.87198" lon="2.31429">
        <ele>102.5</ele>
        <time>2015-03-16T21:09:29.278Z</time>
      </trkpt>
      <trkpt lat="48.87199" lon="2.31432">
        <ele>103.1</ele>
        <time>2015-03-16T21:09:30.274Z</time>
      </trkpt>
      <trkpt lat="48.87206" lon="2.3144">
        <ele>103.9</ele>
        <time>2015-03-16T21:09:33.329Z</time>
      </trkpt>
      <trkpt lat="48.87207" lon="2.31445">
        <ele>104.4</ele>
        <time>2015-03-16T21:09:34.341Z</time>
      </trkpt>
      <trkpt lat="48.8721" lon="2.31455">
        <ele>105</ele>
        <time>2015-03-16T21:09:36.263Z</time>
      </trkpt>
      <trkpt lat="48.87213" lon="2.31458">
        <ele>105.4</ele>
        <time>2015-03-16T21:09:37.300Z</time>
      </trkpt>
      <trkpt lat="48.87219" lon="2.31462">
        <ele>106.1</ele>
        <time>2015-03-16T21:09:39.299Z</time>
      </trkpt>
      <trkpt lat="48.87225" lon="2.31464">
        <ele>106.5</ele>
        <time>2015-03-16T21:09:40.308Z</time>
      </trkpt>
      <trkpt lat="48.87246" lon="2.31477">
        <ele>105.8</ele>
        <time>2015-03-16T21:09:43.349Z</time>
      </trkpt>
      <trkpt lat="48.87253" lon="2.31484">
        <ele>103.8</ele>
        <time>2015-03-16T21:09:44.290Z</time>
      </trkpt>
      <trkpt lat="48.8726" lon="2.31487">
        <ele>104</ele>
        <time>2015-03-16T21:09:45.288Z</time>
      </trkpt>
      <trkpt lat="48.87265" lon="2.3149">
        <ele>104</ele>
        <time>2015-03-16T21:09:46.317Z</time>
      </trkpt>
      <trkpt lat="48.8727" lon="2.31493">
        <ele>104</ele>
        <time>2015-03-16T21:09:47.323Z</time>
      </trkpt>
      <trkpt lat="48.87275" lon="2.31502">
        <ele>103.6</ele>
        <time>2015-03-16T21:09:49.231Z</time>
      </trkpt>
      <trkpt lat="48.87277" lon="2.31507">
        <ele>103.4</ele>
        <time>2015-03-16T21:09:50.324Z</time>
      </trkpt>
      <trkpt lat="48.87281" lon="2.31516">
        <ele>103.3</ele>
        <time>2015-03-16T21:09:52.257Z</time>
      </trkpt>
      <trkpt lat="48.87281" lon="2.31522">
        <ele>103.2</ele>
        <time>2015-03-16T21:09:53.303Z</time>
      </trkpt>
      <trkpt lat="48.87285" lon="2.31531">
        <ele>102.9</ele>
        <time>2015-03-16T21:09:55.266Z</time>
      </trkpt>
      <trkpt lat="48.87288" lon="2.31535">
        <ele>102.8</ele>
        <time>2015-03-16T21:09:56.272Z</time>
      </trkpt>
      <trkpt lat="48.87291" lon="2.31544">
        <ele>102.6</ele>
        <time>2015-03-16T21:09:58.309Z</time>
      </trkpt>
      <trkpt lat="48.87291" lon="2.31549">
        <ele>102.3</ele>
        <time>2015-03-16T21:09:59.325Z</time>
      </trkpt>
      <trkpt lat="48.87292" lon="2.31559">
        <ele>101.7</ele>
        <time>2015-03-16T21:10:01.279Z</time>
      </trkpt>
      <trkpt lat="48.87294" lon="2.31562">
        <ele>101.4</ele>
        <time>2015-03-16T21:10:02.307Z</time>
      </trkpt>
      <trkpt lat="48.87298" lon="2.31572">
        <ele>98.3</ele>
        <time>2015-03-16T21:10:04.255Z</time>
      </trkpt>
      <trkpt lat="48.873" lon="2.31578">
        <ele>96.9</ele>
        <time>2015-03-16T21:10:05.268Z</time>
      </trkpt>
      <trkpt lat="48.87302" lon="2.31589">
        <ele>94.5</ele>
        <time>2015-03-16T21:10:07.289Z</time>
      </trkpt>
      <trkpt lat="48.87304" lon="2.31593">
        <ele>93.2</ele>
        <time>2015-03-16T21:10:08.325Z</time>
      </trkpt>
      <trkpt lat="48.87305" lon="2.31605">
        <ele>91.8</ele>
        <time>2015-03-16T21:10:10.238Z</time>
      </trkpt>
      <trkpt lat="48.87305" lon="2.31612">
        <ele>90.6</ele>
        <time>2015-03-16T21:10:11.258Z</time>
      </trkpt>
      <trkpt lat="48.87307" lon="2.31621">
        <ele>90.6</ele>
        <time>2015-03-16T21:10:13.316Z</time>
      </trkpt>
      <trkpt lat="48.87308" lon="2.31626">
        <ele>90.6</ele>
        <time>2015-03-16T21:10:14.339Z</time>
      </trkpt>
      <trkpt lat="48.87311" lon="2.31635">
        <ele>90.5</ele>
        <time>2015-03-16T21:10:16.250Z</time>
      </trkpt>
      <trkpt lat="48.87313" lon="2.31641">
        <ele>90.6</ele>
        <time>2015-03-16T21:10:17.321Z</time>
      </trkpt>
      <trkpt lat="48.87313" lon="2.3165">
        <ele>90.6</ele>
        <time>2015-03-16T21:10:18.248Z</time>
      </trkpt>
      <trkpt lat="48.87314" lon="2.31658">
        <ele>90.6</ele>
        <time>2015-03-16T21:10:19.246Z</time>
      </trkpt>
      <trkpt lat="48.87315" lon="2.31665">
        <ele>90.5</ele>
        <time>2015-03-16T21:10:20.377Z</time>
      </trkpt>
      <trkpt lat="48.87317" lon="2.31672">
        <ele>90.6</ele>
        <time>2015-03-16T21:10:21.295Z</time>
      </trkpt>
      <trkpt lat="48.8732" lon="2.31683">
        <ele>90.9</ele>
        <time>2015-03-16T21:10:23.264Z</time>
      </trkpt>
      <trkpt lat="48.87322" lon="2.31688">
        <ele>91.1</ele>
        <time>2015-03-16T21:10:24.291Z</time>
      </trkpt>
      <trkpt lat="48.87323" lon="2.31695">
        <ele>91.3</ele>
        <time>2015-03-16T21:10:25.211Z</time>
      </trkpt>
      <trkpt lat="48.87323" lon="2.31702">
        <ele>91.5</ele>
        <time>2015-03-16T21:10:26.270Z</time>
      </trkpt>
      <trkpt lat="48.87323" lon="2.3171">
        <ele>91.7</ele>
        <time>2015-03-16T21:10:27.376Z</time>
      </trkpt>
      <trkpt lat="48.87325" lon="2.31724">
        <ele>92.3</ele>
        <time>2015-03-16T21:10:29.250Z</time>
      </trkpt>
      <trkpt lat="48.87327" lon="2.3173">
        <ele>92.6</ele>
        <time>2015-03-16T21:10:30.255Z</time>
      </trkpt>
      <trkpt lat="48.87332" lon="2.31742">
        <ele>93</ele>
        <time>2015-03-16T21:10:33.272Z</time>
      </trkpt>
      <trkpt lat="48.87333" lon="2.31751">
        <ele>93.5</ele>
        <time>2015-03-16T21:10:35.268Z</time>
      </trkpt>
      <trkpt lat="48.87334" lon="2.31756">
        <ele>93.8</ele>
        <time>2015-03-16T21:10:36.244Z</time>
      </trkpt>
      <trkpt lat="48.87337" lon="2.31762">
        <ele>94.1</ele>
        <time>2015-03-16T21:10:40.296Z</time>
      </trkpt>
      <trkpt lat="48.87339" lon="2.31769">
        <ele>94.2</ele>
        <time>2015-03-16T21:10:41.304Z</time>
      </trkpt>
      <trkpt lat="48.87342" lon="2.3178">
        <ele>94.4</ele>
        <time>2015-03-16T21:10:44.273Z</time>
      </trkpt>
      <trkpt lat="48.87344" lon="2.31783">
        <ele>94.4</ele>
        <time>2015-03-16T21:10:45.283Z</time>
      </trkpt>
      <trkpt lat="48.87344" lon="2.31794">
        <ele>94.9</ele>
        <time>2015-03-16T21:10:47.342Z</time>
      </trkpt>
      <trkpt lat="48.87344" lon="2.318">
        <ele>95.4</ele>
        <time>2015-03-16T21:10:48.283Z</time>
      </trkpt>
      <trkpt lat="48.87342" lon="2.31812">
        <ele>95.2</ele>
        <time>2015-03-16T21:10:50.304Z</time>
      </trkpt>
      <trkpt lat="48.87342" lon="2.31819">
        <ele>95.1</ele>
        <time>2015-03-16T21:10:51.324Z</time>
      </trkpt>
      <trkpt lat="48.87342" lon="2.31832">
        <ele>94.5</ele>
        <time>2015-03-16T21:10:53.255Z</time>
      </trkpt>
      <trkpt lat="48.87342" lon="2.31839">
        <ele>94.3</ele>
        <time>2015-03-16T21:10:54.291Z</time>
      </trkpt>
      <trkpt lat="48.87343" lon="2.31846">
        <ele>94.1</ele>
        <time>2015-03-16T21:10:55.344Z</time>
      </trkpt>
      <trkpt lat="48.87344" lon="2.31852">
        <ele>93.9</ele>
        <time>2015-03-16T21:10:56.352Z</time>
      </trkpt>
      <trkpt lat="48.87346" lon="2.31865">
        <ele>93.5</ele>
        <time>2015-03-16T21:10:58.254Z</time>
      </trkpt>
      <trkpt lat="48.87346" lon="2.31872">
        <ele>93.3</ele>
        <time>2015-03-16T21:10:59.278Z</time>
      </trkpt>
      <trkpt lat="48.87346" lon="2.31878">
        <ele>93.3</ele>
        <time>2015-03-16T21:11:00.227Z</time>
      </trkpt>
      <trkpt lat="48.87351" lon="2.31986">
        <ele>94.1</ele>
        <time>2015-03-16T21:11:19.280Z</time>
      </trkpt>
      <trkpt lat="48.87351" lon="2.31994">
        <ele>94.4</ele>
        <time>2015-03-16T21:11:20.294Z</time>
      </trkpt>
      <trkpt lat="48.87352" lon="2.32">
        <ele>94.7</ele>
        <time>2015-03-16T21:11:21.310Z</time>
      </trkpt>
      <trkpt lat="48.87353" lon="2.32007">
        <ele>94.9</ele>
        <time>2015-03-16T21:11:22.273Z</time>
      </trkpt>
      <trkpt lat="48.87352" lon="2.32014">
        <ele>95.1</ele>
        <time>2015-03-16T21:11:23.238Z</time>
      </trkpt>
      <trkpt lat="48.87352" lon="2.32022">
        <ele>95.2</ele>
        <time>2015-03-16T21:11:24.254Z</time>
      </trkpt>
      <trkpt lat="48.87353" lon="2.32028">
        <ele>95.2</ele>
        <time>2015-03-16T21:11:25.270Z</time>
      </trkpt>
      <trkpt lat="48.87353" lon="2.32041">
        <ele>95.2</ele>
        <time>2015-03-16T21:11:33.229Z</time>
      </trkpt>
      <trkpt lat="48.8735" lon="2.32069">
        <ele>98.3</ele>
        <time>2015-03-16T21:11:34.273Z</time>
      </trkpt>
      <trkpt lat="48.8735" lon="2.32079">
        <ele>100.4</ele>
        <time>2015-03-16T21:11:36.333Z</time>
      </trkpt>
      <trkpt lat="48.87349" lon="2.32084">
        <ele>100.9</ele>
        <time>2015-03-16T21:11:37.260Z</time>
      </trkpt>
      <trkpt lat="48.8735" lon="2.32096">
        <ele>101.2</ele>
        <time>2015-03-16T21:11:40.343Z</time>
      </trkpt>
      <trkpt lat="48.8735" lon="2.32105">
        <ele>101</ele>
        <time>2015-03-16T21:11:41.292Z</time>
      </trkpt>
      <trkpt lat="48.87349" lon="2.32112">
        <ele>100.9</ele>
        <time>2015-03-16T21:11:42.262Z</time>
      </trkpt>
      <trkpt lat="48.87348" lon="2.32119">
        <ele>101.1</ele>
        <time>2015-03-16T21:11:43.255Z</time>
      </trkpt>
      <trkpt lat="48.87347" lon="2.32127">
        <ele>101</ele>
        <time>2015-03-16T21:11:44.341Z</time>
      </trkpt>
      <trkpt lat="48.87346" lon="2.32134">
        <ele>101</ele>
        <time>2015-03-16T21:11:45.282Z</time>
      </trkpt>
      <trkpt lat="48.87346" lon="2.32142">
        <ele>100.9</ele>
        <time>2015-03-16T21:11:46.262Z</time>
      </trkpt>
      <trkpt lat="48.87346" lon="2.3215">
        <ele>100.8</ele>
        <time>2015-03-16T21:11:47.280Z</time>
      </trkpt>
      <trkpt lat="48.87346" lon="2.3216">
        <ele>100.7</ele>
        <time>2015-03-16T21:11:48.295Z</time>
      </trkpt>
      <trkpt lat="48.87347" lon="2.32167">
        <ele>100.6</ele>
        <time>2015-03-16T21:11:49.329Z</time>
      </trkpt>
      <trkpt lat="48.87347" lon="2.32174">
        <ele>100.4</ele>
        <time>2015-03-16T21:11:50.344Z</time>
      </trkpt>
      <trkpt lat="48.87347" lon="2.32182">
        <ele>100.1</ele>
        <time>2015-03-16T21:11:51.271Z</time>
      </trkpt>
      <trkpt lat="48.87347" lon="2.32191">
        <ele>99.8</ele>
        <time>2015-03-16T21:11:52.269Z</time>
      </trkpt>
      <trkpt lat="48.87346" lon="2.32199">
        <ele>99.6</ele>
        <time>2015-03-16T21:11:53.256Z</time>
      </trkpt>
      <trkpt lat="48.87346" lon="2.32207">
        <ele>99.2</ele>
        <time>2015-03-16T21:11:54.268Z</time>
      </trkpt>
      <trkpt lat="48.87347" lon="2.32214">
        <ele>99.4</ele>
        <time>2015-03-16T21:11:55.282Z</time>
      </trkpt>
      <trkpt lat="48.87349" lon="2.32222">
        <ele>99.5</ele>
        <time>2015-03-16T21:11:56.308Z</time>
      </trkpt>
      <trkpt lat="48.87349" lon="2.32229">
        <ele>99.3</ele>
        <time>2015-03-16T21:11:57.351Z</time>
      </trkpt>
      <trkpt lat="48.87349" lon="2.32236">
        <ele>99.1</ele>
        <time>2015-03-16T21:11:58.253Z</time>
      </trkpt>
      <trkpt lat="48.87349" lon="2.32243">
        <ele>99.2</ele>
        <time>2015-03-16T21:11:59.270Z</time>
      </trkpt>
      <trkpt lat="48.87348" lon="2.3225">
        <ele>99.3</ele>
        <time>2015-03-16T21:12:00.266Z</time>
      </trkpt>
      <trkpt lat="48.87346" lon="2.32258">
        <ele>99.5</ele>
        <time>2015-03-16T21:12:01.295Z</time>
      </trkpt>
      <trkpt lat="48.87343" lon="2.32265">
        <ele>99.5</ele>
        <time>2015-03-16T21:12:02.304Z</time>
      </trkpt>
      <trkpt lat="48.8734" lon="2.32271">
        <ele>99.4</ele>
        <time>2015-03-16T21:12:03.350Z</time>
      </trkpt>
      <trkpt lat="48.87338" lon="2.32276">
        <ele>99.3</ele>
        <time>2015-03-16T21:12:04.245Z</time>
      </trkpt>
      <trkpt lat="48.87335" lon="2.32284">
        <ele>99.4</ele>
        <time>2015-03-16T21:12:05.246Z</time>
      </trkpt>
      <trkpt lat="48.87333" lon="2.32296">
        <ele>100.4</ele>
        <time>2015-03-16T21:12:07.261Z</time>
      </trkpt>
      <trkpt lat="48.87331" lon="2.32301">
        <ele>100.1</ele>
        <time>2015-03-16T21:12:08.322Z</time>
      </trkpt>
      <trkpt lat="48.87332" lon="2.32314">
        <ele>100.5</ele>
        <time>2015-03-16T21:12:11.316Z</time>
      </trkpt>
      <trkpt lat="48.87333" lon="2.32318">
        <ele>101</ele>
        <time>2015-03-16T21:12:12.264Z</time>
      </trkpt>
      <trkpt lat="48.87333" lon="2.32322">
        <ele>101.5</ele>
        <time>2015-03-16T21:12:15.507Z</time>
      </trkpt>
      <trkpt lat="48.8733" lon="2.32339">
        <ele>102</ele>
        <time>2015-03-16T21:12:16.326Z</time>
      </trkpt>
      <trkpt lat="48.87329" lon="2.32351">
        <ele>102.3</ele>
        <time>2015-03-16T21:12:18.354Z</time>
      </trkpt>
      <trkpt lat="48.87328" lon="2.32356">
        <ele>102.3</ele>
        <time>2015-03-16T21:12:19.298Z</time>
      </trkpt>
      <trkpt lat="48.87327" lon="2.32363">
        <ele>102.2</ele>
        <time>2015-03-16T21:12:20.334Z</time>
      </trkpt>
      <trkpt lat="48.87306" lon="2.32614">
        <ele>93.7</ele>
        <time>2015-03-16T21:13:09.300Z</time>
      </trkpt>
      <trkpt lat="48.87311" lon="2.32622">
        <ele>93.7</ele>
        <time>2015-03-16T21:13:11.233Z</time>
      </trkpt>
      <trkpt lat="48.87315" lon="2.32627">
        <ele>93.6</ele>
        <time>2015-03-16T21:13:12.268Z</time>
      </trkpt>
      <trkpt lat="48.87319" lon="2.32638">
        <ele>93.6</ele>
        <time>2015-03-16T21:13:14.290Z</time>
      </trkpt>
      <trkpt lat="48.87319" lon="2.32645">
        <ele>93.9</ele>
        <time>2015-03-16T21:13:15.296Z</time>
      </trkpt>
      <trkpt lat="48.87317" lon="2.32655">
        <ele>93.9</ele>
        <time>2015-03-16T21:13:17.265Z</time>
      </trkpt>
      <trkpt lat="48.87314" lon="2.32662">
        <ele>94</ele>
        <time>2015-03-16T21:13:18.270Z</time>
      </trkpt>
      <trkpt lat="48.87312" lon="2.32668">
        <ele>94</ele>
        <time>2015-03-16T21:13:19.307Z</time>
      </trkpt>
      <trkpt lat="48.87311" lon="2.32675">
        <ele>94</ele>
        <time>2015-03-16T21:13:20.339Z</time>
      </trkpt>
      <trkpt lat="48.87302" lon="2.32699">
        <ele>95.3</ele>
        <time>2015-03-16T21:13:23.264Z</time>
      </trkpt>
      <trkpt lat="48.873" lon="2.32708">
        <ele>95.5</ele>
        <time>2015-03-16T21:13:24.290Z</time>
      </trkpt>
      <trkpt lat="48.87298" lon="2.32713">
        <ele>95.5</ele>
        <time>2015-03-16T21:13:25.301Z</time>
      </trkpt>
      <trkpt lat="48.87299" lon="2.32727">
        <ele>95.4</ele>
        <time>2015-03-16T21:13:28.284Z</time>
      </trkpt>
      <trkpt lat="48.87302" lon="2.3274">
        <ele>95.7</ele>
        <time>2015-03-16T21:13:30.240Z</time>
      </trkpt>
      <trkpt lat="48.87303" lon="2.32746">
        <ele>95.8</ele>
        <time>2015-03-16T21:13:31.242Z</time>
      </trkpt>
      <trkpt lat="48.87303" lon="2.32756">
        <ele>95.7</ele>
        <time>2015-03-16T21:13:33.281Z</time>
      </trkpt>
      <trkpt lat="48.87301" lon="2.32761">
        <ele>95.3</ele>
        <time>2015-03-16T21:13:34.308Z</time>
      </trkpt>
      <trkpt lat="48.87296" lon="2.32768">
        <ele>94.6</ele>
        <time>2015-03-16T21:13:36.241Z</time>
      </trkpt>
      <trkpt lat="48.87294" lon="2.32772">
        <ele>94.3</ele>
        <time>2015-03-16T21:13:37.281Z</time>
      </trkpt>
      <trkpt lat="48.87292" lon="2.32777">
        <ele>94.7</ele>
        <time>2015-03-16T21:13:38.331Z</time>
      </trkpt>
      <trkpt lat="48.87292" lon="2.32785">
        <ele>94.8</ele>
        <time>2015-03-16T21:13:39.341Z</time>
      </trkpt>
      <trkpt lat="48.87293" lon="2.32795">
        <ele>94.4</ele>
        <time>2015-03-16T21:13:40.241Z</time>
      </trkpt>
      <trkpt lat="48.87292" lon="2.32802">
        <ele>94.8</ele>
        <time>2015-03-16T21:13:41.249Z</time>
      </trkpt>
      <trkpt lat="48.8729" lon="2.32811">
        <ele>94.8</ele>
        <time>2015-03-16T21:13:43.292Z</time>
      </trkpt>
      <trkpt lat="48.87289" lon="2.32817">
        <ele>95.9</ele>
        <time>2015-03-16T21:13:44.308Z</time>
      </trkpt>
      <trkpt lat="48.87287" lon="2.3283">
        <ele>94.3</ele>
        <time>2015-03-16T21:13:47.305Z</time>
      </trkpt>
      <trkpt lat="48.87286" lon="2.32832">
        <ele>93.8</ele>
        <time>2015-03-16T21:13:48.222Z</time>
      </trkpt>
      <trkpt lat="48.87279" lon="2.32825">
        <ele>88.1</ele>
        <time>2015-03-16T21:14:06.245Z</time>
      </trkpt>
      <trkpt lat="48.87276" lon="2.32825">
        <ele>87.9</ele>
        <time>2015-03-16T21:14:07.273Z</time>
      </trkpt>
      <trkpt lat="48.87268" lon="2.32827">
        <ele>87.5</ele>
        <time>2015-03-16T21:14:10.348Z</time>
      </trkpt>
      <trkpt lat="48.87045" lon="2.32921">
        <ele>91.3</ele>
        <time>2015-03-16T21:15:40.237Z</time>
      </trkpt>
      <trkpt lat="48.87045" lon="2.32921">
        <ele>91.3</ele>
        <time>2015-03-16T21:15:45.336Z</time>
      </trkpt>
      <trkpt lat="48.8702" lon="2.32914">
        <ele>106.6</ele>
        <time>2015-03-16T21:15:46.240Z</time>
      </trkpt>
      <trkpt lat="48.87018" lon="2.32901">
        <ele>112.2</ele>
        <time>2015-03-16T21:15:50.290Z</time>
      </trkpt>
      <trkpt lat="48.87016" lon="2.32895">
        <ele>113.2</ele>
        <time>2015-03-16T21:15:51.281Z</time>
      </trkpt>
      <trkpt lat="48.87012" lon="2.32884">
        <ele>114.7</ele>
        <time>2015-03-16T21:15:54.319Z</time>
      </trkpt>
      <trkpt lat="48.87011" lon="2.32881">
        <ele>115.2</ele>
        <time>2015-03-16T21:15:55.261Z</time>
      </trkpt>
      <trkpt lat="48.87005" lon="2.32871">
        <ele>117.8</ele>
        <time>2015-03-16T21:15:58.335Z</time>
      </trkpt>
      <trkpt lat="48.87004" lon="2.32868">
        <ele>118.6</ele>
        <time>2015-03-16T21:15:59.257Z</time>
      </trkpt>
      <trkpt lat="48.86998" lon="2.32859">
        <ele>119.5</ele>
        <time>2015-03-16T21:16:02.291Z</time>
      </trkpt>
      <trkpt lat="48.86997" lon="2.32855">
        <ele>120</ele>
        <time>2015-03-16T21:16:03.298Z</time>
      </trkpt>
      <trkpt lat="48.86992" lon="2.32845">
        <ele>120.9</ele>
        <time>2015-03-16T21:16:06.242Z</time>
      </trkpt>
      <trkpt lat="48.86991" lon="2.32842">
        <ele>120.5</ele>
        <time>2015-03-16T21:16:07.265Z</time>
      </trkpt>
      <trkpt lat="48.8699" lon="2.32831">
        <ele>115.4</ele>
        <time>2015-03-16T21:16:09.303Z</time>
      </trkpt>
      <trkpt lat="48.86988" lon="2.32828">
        <ele>115.3</ele>
        <time>2015-03-16T21:16:10.329Z</time>
      </trkpt>
      <trkpt lat="48.86982" lon="2.32819">
        <ele>116.2</ele>
        <time>2015-03-16T21:16:13.532Z</time>
      </trkpt>
      <trkpt lat="48.8698" lon="2.32816">
        <ele>116.4</ele>
        <time>2015-03-16T21:16:14.261Z</time>
      </trkpt>
      <trkpt lat="48.86975" lon="2.32805">
        <ele>115.9</ele>
        <time>2015-03-16T21:16:17.281Z</time>
      </trkpt>
      <trkpt lat="48.86972" lon="2.328">
        <ele>115.7</ele>
        <time>2015-03-16T21:16:18.286Z</time>
      </trkpt>
      <trkpt lat="48.86972" lon="2.328">
        <ele>115.7</ele>
        <time>2015-03-16T21:16:18.561Z</time>
      </trkpt>
      <trkpt lat="48.86743" lon="2.32619">
        <ele>112.7</ele>
        <time>2015-03-16T21:17:13.290Z</time>
      </trkpt>
      <trkpt lat="48.86739" lon="2.32612">
        <ele>112</ele>
        <time>2015-03-16T21:17:15.259Z</time>
      </trkpt>
      <trkpt lat="48.86729" lon="2.326">
        <ele>113</ele>
        <time>2015-03-16T21:17:21.290Z</time>
      </trkpt>
      <trkpt lat="48.86681" lon="2.32568">
        <ele>112.3</ele>
        <time>2015-03-16T21:17:35.336Z</time>
      </trkpt>
      <trkpt lat="48.86675" lon="2.32576">
        <ele>110.1</ele>
        <time>2015-03-16T21:17:37.277Z</time>
      </trkpt>
      <trkpt lat="48.86673" lon="2.3258">
        <ele>109.2</ele>
        <time>2015-03-16T21:17:38.350Z</time>
      </trkpt>
      <trkpt lat="48.86669" lon="2.3259">
        <ele>108</ele>
        <time>2015-03-16T21:17:40.257Z</time>
      </trkpt>
      <trkpt lat="48.86667" lon="2.32596">
        <ele>107.4</ele>
        <time>2015-03-16T21:17:41.269Z</time>
      </trkpt>
      <trkpt lat="48.86663" lon="2.32607">
        <ele>106</ele>
        <time>2015-03-16T21:17:43.260Z</time>
      </trkpt>
      <trkpt lat="48.8666" lon="2.32612">
        <ele>105.6</ele>
        <time>2015-03-16T21:17:44.364Z</time>
      </trkpt>
      <trkpt lat="48.86658" lon="2.32619">
        <ele>105.3</ele>
        <time>2015-03-16T21:17:45.228Z</time>
      </trkpt>
      <trkpt lat="48.86656" lon="2.32625">
        <ele>105</ele>
        <time>2015-03-16T21:17:46.252Z</time>
      </trkpt>
      <trkpt lat="48.86654" lon="2.32631">
        <ele>104.6</ele>
        <time>2015-03-16T21:17:47.262Z</time>
      </trkpt>
      <trkpt lat="48.86651" lon="2.32637">
        <ele>104.2</ele>
        <time>2015-03-16T21:17:48.276Z</time>
      </trkpt>
      <trkpt lat="48.86648" lon="2.32643">
        <ele>103.9</ele>
        <time>2015-03-16T21:17:49.336Z</time>
      </trkpt>
      <trkpt lat="48.86646" lon="2.3265">
        <ele>103.5</ele>
        <time>2015-03-16T21:17:50.356Z</time>
      </trkpt>
      <trkpt lat="48.86644" lon="2.32656">
        <ele>103.3</ele>
        <time>2015-03-16T21:17:51.268Z</time>
      </trkpt>
      <trkpt lat="48.86642" lon="2.32662">
        <ele>103.3</ele>
        <time>2015-03-16T21:17:52.280Z</time>
      </trkpt>
      <trkpt lat="48.86638" lon="2.32675">
        <ele>102.7</ele>
        <time>2015-03-16T21:17:54.233Z</time>
      </trkpt>
      <trkpt lat="48.86636" lon="2.32682">
        <ele>102.4</ele>
        <time>2015-03-16T21:17:55.332Z</time>
      </trkpt>
      <trkpt lat="48.86634" lon="2.32688">
        <ele>102.1</ele>
        <time>2015-03-16T21:17:56.330Z</time>
      </trkpt>
      <trkpt lat="48.86631" lon="2.32694">
        <ele>102</ele>
        <time>2015-03-16T21:17:57.230Z</time>
      </trkpt>
      <trkpt lat="48.86629" lon="2.32701">
        <ele>101.7</ele>
        <time>2015-03-16T21:17:58.230Z</time>
      </trkpt>
      <trkpt lat="48.86628" lon="2.32707">
        <ele>101.6</ele>
        <time>2015-03-16T21:17:59.253Z</time>
      </trkpt>
      <trkpt lat="48.86624" lon="2.32719">
        <ele>101.3</ele>
        <time>2015-03-16T21:18:01.280Z</time>
      </trkpt>
      <trkpt lat="48.86621" lon="2.32724">
        <ele>101.2</ele>
        <time>2015-03-16T21:18:02.355Z</time>
      </trkpt>
      <trkpt lat="48.86618" lon="2.32729">
        <ele>101</ele>
        <time>2015-03-16T21:18:03.238Z</time>
      </trkpt>
      <trkpt lat="48.86614" lon="2.32733">
        <ele>100.7</ele>
        <time>2015-03-16T21:18:04.255Z</time>
      </trkpt>
      <trkpt lat="48.86607" lon="2.32741">
        <ele>99.9</ele>
        <time>2015-03-16T21:18:06.326Z</time>
      </trkpt>
      <trkpt lat="48.86604" lon="2.32745">
        <ele>99.6</ele>
        <time>2015-03-16T21:18:07.350Z</time>
      </trkpt>
      <trkpt lat="48.86602" lon="2.32754">
        <ele>99</ele>
        <time>2015-03-16T21:18:09.225Z</time>
      </trkpt>
      <trkpt lat="48.86603" lon="2.32759">
        <ele>98.4</ele>
        <time>2015-03-16T21:18:10.219Z</time>
      </trkpt>
      <trkpt lat="48.866" lon="2.32771">
        <ele>97.4</ele>
        <time>2015-03-16T21:18:12.293Z</time>
      </trkpt>
      <trkpt lat="48.86598" lon="2.32777">
        <ele>96.7</ele>
        <time>2015-03-16T21:18:13.310Z</time>
      </trkpt>
      <trkpt lat="48.86594" lon="2.32786">
        <ele>95.4</ele>
        <time>2015-03-16T21:18:15.233Z</time>
      </trkpt>
      <trkpt lat="48.86591" lon="2.32791">
        <ele>94.9</ele>
        <time>2015-03-16T21:18:16.234Z</time>
      </trkpt>
      <trkpt lat="48.86586" lon="2.32798">
        <ele>94.6</ele>
        <time>2015-03-16T21:18:18.252Z</time>
      </trkpt>
      <trkpt lat="48.86583" lon="2.32803">
        <ele>94.6</ele>
        <time>2015-03-16T21:18:19.254Z</time>
      </trkpt>
      <trkpt lat="48.86579" lon="2.32814">
        <ele>94.3</ele>
        <time>2015-03-16T21:18:21.315Z</time>
      </trkpt>
      <trkpt lat="48.86577" lon="2.3282">
        <ele>94.1</ele>
        <time>2015-03-16T21:18:22.240Z</time>
      </trkpt>
      <trkpt lat="48.86574" lon="2.32832">
        <ele>93.7</ele>
        <time>2015-03-16T21:18:24.260Z</time>
      </trkpt>
      <trkpt lat="48.86572" lon="2.32838">
        <ele>93.3</ele>
        <time>2015-03-16T21:18:25.259Z</time>
      </trkpt>
      <trkpt lat="48.86569" lon="2.3285">
        <ele>92.8</ele>
        <time>2015-03-16T21:18:27.219Z</time>
      </trkpt>
      <trkpt lat="48.86567" lon="2.32855">
        <ele>92.7</ele>
        <time>2015-03-16T21:18:28.227Z</time>
      </trkpt>
      <trkpt lat="48.86563" lon="2.32866">
        <ele>92.5</ele>
        <time>2015-03-16T21:18:30.280Z</time>
      </trkpt>
      <trkpt lat="48.86561" lon="2.32872">
        <ele>92.3</ele>
        <time>2015-03-16T21:18:31.298Z</time>
      </trkpt>
      <trkpt lat="48.86557" lon="2.32883">
        <ele>91.9</ele>
        <time>2015-03-16T21:18:33.234Z</time>
      </trkpt>
      <trkpt lat="48.86555" lon="2.32888">
        <ele>91.6</ele>
        <time>2015-03-16T21:18:34.219Z</time>
      </trkpt>
      <trkpt lat="48.86553" lon="2.32899">
        <ele>90.9</ele>
        <time>2015-03-16T21:18:36.232Z</time>
      </trkpt>
      <trkpt lat="48.86552" lon="2.32904">
        <ele>90.5</ele>
        <time>2015-03-16T21:18:37.246Z</time>
      </trkpt>
      <trkpt lat="48.86548" lon="2.32915">
        <ele>90.3</ele>
        <time>2015-03-16T21:18:39.274Z</time>
      </trkpt>
      <trkpt lat="48.86545" lon="2.3292">
        <ele>90.6</ele>
        <time>2015-03-16T21:18:40.301Z</time>
      </trkpt>
      <trkpt lat="48.86542" lon="2.32931">
        <ele>90.6</ele>
        <time>2015-03-16T21:18:42.344Z</time>
      </trkpt>
      <trkpt lat="48.86541" lon="2.32937">
        <ele>90.4</ele>
        <time>2015-03-16T21:18:43.220Z</time>
      </trkpt>
      <trkpt lat="48.86538" lon="2.32946">
        <ele>91.4</ele>
        <time>2015-03-16T21:18:45.288Z</time>
      </trkpt>
      <trkpt lat="48.86535" lon="2.3295">
        <ele>92.1</ele>
        <time>2015-03-16T21:18:46.337Z</time>
      </trkpt>
      <trkpt lat="48.86544" lon="2.33014">
        <ele>95.4</ele>
        <time>2015-03-16T21:19:01.229Z</time>
      </trkpt>
      <trkpt lat="48.86544" lon="2.33018">
        <ele>95.1</ele>
        <time>2015-03-16T21:19:02.277Z</time>
      </trkpt>
      <trkpt lat="48.86555" lon="2.33034">
        <ele>95.3</ele>
        <time>2015-03-16T21:19:06.253Z</time>
      </trkpt>
      <trkpt lat="48.86557" lon="2.33042">
        <ele>94.9</ele>
        <time>2015-03-16T21:19:08.272Z</time>
      </trkpt>
      <trkpt lat="48.86556" lon="2.33049">
        <ele>94.8</ele>
        <time>2015-03-16T21:19:09.279Z</time>
      </trkpt>
      <trkpt lat="48.86555" lon="2.33056">
        <ele>94.8</ele>
        <time>2015-03-16T21:19:10.473Z</time>
      </trkpt>
      <trkpt lat="48.86553" lon="2.33062">
        <ele>94.8</ele>
        <time>2015-03-16T21:19:11.197Z</time>
      </trkpt>
      <trkpt lat="48.86549" lon="2.33073">
        <ele>94.6</ele>
        <time>2015-03-16T21:19:13.504Z</time>
      </trkpt>
      <trkpt lat="48.86549" lon="2.33078">
        <ele>94.4</ele>
        <time>2015-03-16T21:19:14.229Z</time>
      </trkpt>
      <trkpt lat="48.86548" lon="2.33083">
        <ele>94.4</ele>
        <time>2015-03-16T21:19:15.236Z</time>
      </trkpt>
      <trkpt lat="48.86546" lon="2.33093">
        <ele>94</ele>
        <time>2015-03-16T21:19:17.252Z</time>
      </trkpt>
      <trkpt lat="48.86543" lon="2.33099">
        <ele>93.9</ele>
        <time>2015-03-16T21:19:18.263Z</time>
      </trkpt>
      <trkpt lat="48.8654" lon="2.33105">
        <ele>93.7</ele>
        <time>2015-03-16T21:19:19.272Z</time>
      </trkpt>
      <trkpt lat="48.86538" lon="2.3311">
        <ele>93.5</ele>
        <time>2015-03-16T21:19:20.291Z</time>
      </trkpt>
      <trkpt lat="48.86536" lon="2.33117">
        <ele>93.3</ele>
        <time>2015-03-16T21:19:21.314Z</time>
      </trkpt>
      <trkpt lat="48.86531" lon="2.33129">
        <ele>93.3</ele>
        <time>2015-03-16T21:19:23.231Z</time>
      </trkpt>
      <trkpt lat="48.86527" lon="2.33135">
        <ele>93.4</ele>
        <time>2015-03-16T21:19:24.274Z</time>
      </trkpt>
      <trkpt lat="48.86524" lon="2.33141">
        <ele>93.4</ele>
        <time>2015-03-16T21:19:25.317Z</time>
      </trkpt>
      <trkpt lat="48.8652" lon="2.33146">
        <ele>93.7</ele>
        <time>2015-03-16T21:19:26.330Z</time>
      </trkpt>
      <trkpt lat="48.86517" lon="2.33152">
        <ele>93.6</ele>
        <time>2015-03-16T21:19:27.234Z</time>
      </trkpt>
      <trkpt lat="48.86514" lon="2.33159">
        <ele>93.7</ele>
        <time>2015-03-16T21:19:28.239Z</time>
      </trkpt>
      <trkpt lat="48.8651" lon="2.33171">
        <ele>93.5</ele>
        <time>2015-03-16T21:19:30.281Z</time>
      </trkpt>
      <trkpt lat="48.86507" lon="2.33177">
        <ele>93.3</ele>
        <time>2015-03-16T21:19:31.294Z</time>
      </trkpt>
      <trkpt lat="48.86502" lon="2.33186">
        <ele>93.1</ele>
        <time>2015-03-16T21:19:33.321Z</time>
      </trkpt>
      <trkpt lat="48.865" lon="2.33191">
        <ele>93</ele>
        <time>2015-03-16T21:19:34.242Z</time>
      </trkpt>
      <trkpt lat="48.86496" lon="2.33202">
        <ele>92.9</ele>
        <time>2015-03-16T21:19:36.267Z</time>
      </trkpt>
      <trkpt lat="48.86467" lon="2.33261">
        <ele>92.3</ele>
        <time>2015-03-16T21:19:48.259Z</time>
      </trkpt>
      <trkpt lat="48.86461" lon="2.33268">
        <ele>92</ele>
        <time>2015-03-16T21:19:51.240Z</time>
      </trkpt>
      <trkpt lat="48.86459" lon="2.3327">
        <ele>92</ele>
        <time>2015-03-16T21:19:52.322Z</time>
      </trkpt>
      <trkpt lat="48.86454" lon="2.33278">
        <ele>91.7</ele>
        <time>2015-03-16T21:19:55.264Z</time>
      </trkpt>
      <trkpt lat="48.86452" lon="2.33282">
        <ele>91.7</ele>
        <time>2015-03-16T21:19:56.274Z</time>
      </trkpt>
      <trkpt lat="48.86448" lon="2.3329">
        <ele>91.4</ele>
        <time>2015-03-16T21:19:58.292Z</time>
      </trkpt>
      <trkpt lat="48.86446" lon="2.33295">
        <ele>91.1</ele>
        <time>2015-03-16T21:19:59.348Z</time>
      </trkpt>
      <trkpt lat="48.86443" lon="2.33304">
        <ele>90.1</ele>
        <time>2015-03-16T21:20:01.232Z</time>
      </trkpt>
      <trkpt lat="48.86441" lon="2.33308">
        <ele>89.6</ele>
        <time>2015-03-16T21:20:02.320Z</time>
      </trkpt>
      <trkpt lat="48.86438" lon="2.33317">
        <ele>88.9</ele>
        <time>2015-03-16T21:20:04.238Z</time>
      </trkpt>
      <trkpt lat="48.86436" lon="2.33322">
        <ele>88.7</ele>
        <time>2015-03-16T21:20:05.253Z</time>
      </trkpt>
      <trkpt lat="48.86432" lon="2.33334">
        <ele>88.7</ele>
        <time>2015-03-16T21:20:07.296Z</time>
      </trkpt>
      <trkpt lat="48.86429" lon="2.33338">
        <ele>88.6</ele>
        <time>2015-03-16T21:20:08.331Z</time>
      </trkpt>
      <trkpt lat="48.86425" lon="2.33345">
        <ele>88.4</ele>
        <time>2015-03-16T21:20:10.229Z</time>
      </trkpt>
      <trkpt lat="48.86423" lon="2.33347">
        <ele>88.3</ele>
        <time>2015-03-16T21:20:11.242Z</time>
      </trkpt>
      <trkpt lat="48.86417" lon="2.33355">
        <ele>87.9</ele>
        <time>2015-03-16T21:20:14.284Z</time>
      </trkpt>
      <trkpt lat="48.86415" lon="2.33358">
        <ele>87.7</ele>
        <time>2015-03-16T21:20:15.287Z</time>
      </trkpt>
      <trkpt lat="48.86412" lon="2.33364">
        <ele>87.4</ele>
        <time>2015-03-16T21:20:16.198Z</time>
      </trkpt>
      <trkpt lat="48.86409" lon="2.33371">
        <ele>87.1</ele>
        <time>2015-03-16T21:20:17.228Z</time>
      </trkpt>
      <trkpt lat="48.86403" lon="2.3338">
        <ele>86.7</ele>
        <time>2015-03-16T21:20:19.255Z</time>
      </trkpt>
      <trkpt lat="48.864" lon="2.33384">
        <ele>86.2</ele>
        <time>2015-03-16T21:20:20.282Z</time>
      </trkpt>
      <trkpt lat="48.86395" lon="2.33393">
        <ele>85.1</ele>
        <time>2015-03-16T21:20:22.313Z</time>
      </trkpt>
      <trkpt lat="48.86394" lon="2.33399">
        <ele>84.5</ele>
        <time>2015-03-16T21:20:23.262Z</time>
      </trkpt>
      <trkpt lat="48.8639" lon="2.33409">
        <ele>84</ele>
        <time>2015-03-16T21:20:25.243Z</time>
      </trkpt>
      <trkpt lat="48.8639" lon="2.33415">
        <ele>84.3</ele>
        <time>2015-03-16T21:20:26.267Z</time>
      </trkpt>
      <trkpt lat="48.86386" lon="2.33425">
        <ele>84.6</ele>
        <time>2015-03-16T21:20:28.295Z</time>
      </trkpt>
      <trkpt lat="48.86384" lon="2.3343">
        <ele>84.6</ele>
        <time>2015-03-16T21:20:29.306Z</time>
      </trkpt>
      <trkpt lat="48.8638" lon="2.33437">
        <ele>84.6</ele>
        <time>2015-03-16T21:20:31.243Z</time>
      </trkpt>
      <trkpt lat="48.86379" lon="2.33441">
        <ele>84.4</ele>
        <time>2015-03-16T21:20:32.359Z</time>
      </trkpt>
      <trkpt lat="48.86376" lon="2.33452">
        <ele>84.2</ele>
        <time>2015-03-16T21:20:34.230Z</time>
      </trkpt>
      <trkpt lat="48.86374" lon="2.33456">
        <ele>84.2</ele>
        <time>2015-03-16T21:20:35.270Z</time>
      </trkpt>
      <trkpt lat="48.86372" lon="2.33465">
        <ele>84.5</ele>
        <time>2015-03-16T21:20:37.323Z</time>
      </trkpt>
      <trkpt lat="48.8637" lon="2.33469">
        <ele>84.6</ele>
        <time>2015-03-16T21:20:38.381Z</time>
      </trkpt>
      <trkpt lat="48.86366" lon="2.33476">
        <ele>84.7</ele>
        <time>2015-03-16T21:20:40.269Z</time>
      </trkpt>
      <trkpt lat="48.86365" lon="2.33481">
        <ele>85.2</ele>
        <time>2015-03-16T21:20:41.282Z</time>
      </trkpt>
      <trkpt lat="48.86361" lon="2.33487">
        <ele>85.5</ele>
        <time>2015-03-16T21:20:42.327Z</time>
      </trkpt>
      <trkpt lat="48.86358" lon="2.33492">
        <ele>85.8</ele>
        <time>2015-03-16T21:20:43.349Z</time>
      </trkpt>
      <trkpt lat="48.86355" lon="2.33498">
        <ele>86.2</ele>
        <time>2015-03-16T21:20:44.349Z</time>
      </trkpt>
      <trkpt lat="48.86352" lon="2.33505">
        <ele>86.7</ele>
        <time>2015-03-16T21:20:45.235Z</time>
      </trkpt>
      <trkpt lat="48.86348" lon="2.33515">
        <ele>87.6</ele>
        <time>2015-03-16T21:20:47.268Z</time>
      </trkpt>
      <trkpt lat="48.86346" lon="2.33521">
        <ele>88.6</ele>
        <time>2015-03-16T21:20:48.276Z</time>
      </trkpt>
      <trkpt lat="48.86342" lon="2.33531">
        <ele>89.5</ele>
        <time>2015-03-16T21:20:50.317Z</time>
      </trkpt>
      <trkpt lat="48.8634" lon="2.33535">
        <ele>90.1</ele>
        <time>2015-03-16T21:20:51.243Z</time>
      </trkpt>
      <trkpt lat="48.86336" lon="2.33543">
        <ele>90.9</ele>
        <time>2015-03-16T21:20:53.291Z</time>
      </trkpt>
      <trkpt lat="48.86332" lon="2.33546">
        <ele>91.5</ele>
        <time>2015-03-16T21:20:54.310Z</time>
      </trkpt>
      <trkpt lat="48.86327" lon="2.33554">
        <ele>92</ele>
        <time>2015-03-16T21:20:56.351Z</time>
      </trkpt>
      <trkpt lat="48.86325" lon="2.33558">
        <ele>92.8</ele>
        <time>2015-03-16T21:20:57.279Z</time>
      </trkpt>
      <trkpt lat="48.86319" lon="2.33565">
        <ele>93.7</ele>
        <time>2015-03-16T21:20:59.277Z</time>
      </trkpt>
      <trkpt lat="48.86317" lon="2.3357">
        <ele>94</ele>
        <time>2015-03-16T21:21:00.290Z</time>
      </trkpt>
      <trkpt lat="48.86312" lon="2.33578">
        <ele>94.4</ele>
        <time>2015-03-16T21:21:02.419Z</time>
      </trkpt>
      <trkpt lat="48.8631" lon="2.33582">
        <ele>94.7</ele>
        <time>2015-03-16T21:21:03.280Z</time>
      </trkpt>
      <trkpt lat="48.86307" lon="2.33591">
        <ele>94.4</ele>
        <time>2015-03-16T21:21:05.248Z</time>
      </trkpt>
      <trkpt lat="48.86306" lon="2.33595">
        <ele>94.2</ele>
        <time>2015-03-16T21:21:06.304Z</time>
      </trkpt>
      <trkpt lat="48.86302" lon="2.33602">
        <ele>93.5</ele>
        <time>2015-03-16T21:21:08.343Z</time>
      </trkpt>
      <trkpt lat="48.863" lon="2.33607">
        <ele>93.4</ele>
        <time>2015-03-16T21:21:09.341Z</time>
      </trkpt>
      <trkpt lat="48.86298" lon="2.33613">
        <ele>93.8</ele>
        <time>2015-03-16T21:21:10.236Z</time>
      </trkpt>
      <trkpt lat="48.86297" lon="2.3362">
        <ele>94.5</ele>
        <time>2015-03-16T21:21:11.238Z</time>
      </trkpt>
      <trkpt lat="48.86294" lon="2.33632">
        <ele>94.5</ele>
        <time>2015-03-16T21:21:13.284Z</time>
      </trkpt>
      <trkpt lat="48.86293" lon="2.33636">
        <ele>94.1</ele>
        <time>2015-03-16T21:21:14.287Z</time>
      </trkpt>
      <trkpt lat="48.8629" lon="2.33644">
        <ele>93.4</ele>
        <time>2015-03-16T21:21:16.252Z</time>
      </trkpt>
      <trkpt lat="48.86289" lon="2.33649">
        <ele>92.9</ele>
        <time>2015-03-16T21:21:17.287Z</time>
      </trkpt>
      <trkpt lat="48.86287" lon="2.33659">
        <ele>92</ele>
        <time>2015-03-16T21:21:19.311Z</time>
      </trkpt>
      <trkpt lat="48.86286" lon="2.33663">
        <ele>91.8</ele>
        <time>2015-03-16T21:21:20.332Z</time>
      </trkpt>
      <trkpt lat="48.86285" lon="2.33673">
        <ele>91.2</ele>
        <time>2015-03-16T21:21:22.235Z</time>
      </trkpt>
      <trkpt lat="48.86283" lon="2.33677">
        <ele>91.2</ele>
        <time>2015-03-16T21:21:23.265Z</time>
      </trkpt>
      <trkpt lat="48.86281" lon="2.33686">
        <ele>91</ele>
        <time>2015-03-16T21:21:25.278Z</time>
      </trkpt>
      <trkpt lat="48.8628" lon="2.33691">
        <ele>90.7</ele>
        <time>2015-03-16T21:21:26.282Z</time>
      </trkpt>
      <trkpt lat="48.86277" lon="2.33699">
        <ele>90.3</ele>
        <time>2015-03-16T21:21:28.206Z</time>
      </trkpt>
      <trkpt lat="48.86276" lon="2.33703">
        <ele>90</ele>
        <time>2015-03-16T21:21:29.249Z</time>
      </trkpt>
      <trkpt lat="48.86273" lon="2.33713">
        <ele>90</ele>
        <time>2015-03-16T21:21:31.260Z</time>
      </trkpt>
      <trkpt lat="48.86271" lon="2.33719">
        <ele>89.8</ele>
        <time>2015-03-16T21:21:32.301Z</time>
      </trkpt>
      <trkpt lat="48.8627" lon="2.3373">
        <ele>89</ele>
        <time>2015-03-16T21:21:34.339Z</time>
      </trkpt>
      <trkpt lat="48.86268" lon="2.33735">
        <ele>88.9</ele>
        <time>2015-03-16T21:21:35.243Z</time>
      </trkpt>
      <trkpt lat="48.86264" lon="2.33745">
        <ele>88.5</ele>
        <time>2015-03-16T21:21:38.088Z</time>
      </trkpt>
      <trkpt lat="48.86262" lon="2.3375">
        <ele>88.5</ele>
        <time>2015-03-16T21:21:38.275Z</time>
      </trkpt>
      <trkpt lat="48.86257" lon="2.33762">
        <ele>87.7</ele>
        <time>2015-03-16T21:21:40.242Z</time>
      </trkpt>
      <trkpt lat="48.86255" lon="2.33768">
        <ele>87.7</ele>
        <time>2015-03-16T21:21:41.249Z</time>
      </trkpt>
      <trkpt lat="48.8625" lon="2.3378">
        <ele>87.3</ele>
        <time>2015-03-16T21:21:43.256Z</time>
      </trkpt>
      <trkpt lat="48.86248" lon="2.33786">
        <ele>87.3</ele>
        <time>2015-03-16T21:21:44.263Z</time>
      </trkpt>
      <trkpt lat="48.86245" lon="2.33792">
        <ele>87.3</ele>
        <time>2015-03-16T21:21:45.324Z</time>
      </trkpt>
      <trkpt lat="48.86243" lon="2.33797">
        <ele>87</ele>
        <time>2015-03-16T21:21:46.280Z</time>
      </trkpt>
      <trkpt lat="48.86238" lon="2.33807">
        <ele>86.6</ele>
        <time>2015-03-16T21:21:48.296Z</time>
      </trkpt>
      <trkpt lat="48.86236" lon="2.33812">
        <ele>86.4</ele>
        <time>2015-03-16T21:21:49.323Z</time>
      </trkpt>
      <trkpt lat="48.86234" lon="2.33818">
        <ele>86.1</ele>
        <time>2015-03-16T21:21:50.251Z</time>
      </trkpt>
      <trkpt lat="48.86231" lon="2.33825">
        <ele>85.8</ele>
        <time>2015-03-16T21:21:51.256Z</time>
      </trkpt>
      <trkpt lat="48.86229" lon="2.33832">
        <ele>85.6</ele>
        <time>2015-03-16T21:21:52.266Z</time>
      </trkpt>
      <trkpt lat="48.86228" lon="2.33838">
        <ele>85.2</ele>
        <time>2015-03-16T21:21:53.279Z</time>
      </trkpt>
      <trkpt lat="48.86226" lon="2.33851">
        <ele>84.6</ele>
        <time>2015-03-16T21:21:55.307Z</time>
      </trkpt>
      <trkpt lat="48.86225" lon="2.33858">
        <ele>84.3</ele>
        <time>2015-03-16T21:21:56.337Z</time>
      </trkpt>
      <trkpt lat="48.86224" lon="2.33864">
        <ele>84.2</ele>
        <time>2015-03-16T21:21:57.255Z</time>
      </trkpt>
      <trkpt lat="48.86223" lon="2.33871">
        <ele>84.5</ele>
        <time>2015-03-16T21:21:58.254Z</time>
      </trkpt>
      <trkpt lat="48.86222" lon="2.33879">
        <ele>84.6</ele>
        <time>2015-03-16T21:21:59.271Z</time>
      </trkpt>
      <trkpt lat="48.86221" lon="2.33886">
        <ele>84.6</ele>
        <time>2015-03-16T21:22:00.273Z</time>
      </trkpt>
      <trkpt lat="48.86219" lon="2.33892">
        <ele>84.6</ele>
        <time>2015-03-16T21:22:01.276Z</time>
      </trkpt>
      <trkpt lat="48.86218" lon="2.33899">
        <ele>84.4</ele>
        <time>2015-03-16T21:22:02.325Z</time>
      </trkpt>
      <trkpt lat="48.86215" lon="2.33906">
        <ele>84.2</ele>
        <time>2015-03-16T21:22:03.340Z</time>
      </trkpt>
      <trkpt lat="48.86213" lon="2.33914">
        <ele>84.1</ele>
        <time>2015-03-16T21:22:04.232Z</time>
      </trkpt>
      <trkpt lat="48.86212" lon="2.33922">
        <ele>83.8</ele>
        <time>2015-03-16T21:22:05.601Z</time>
      </trkpt>
      <trkpt lat="48.86211" lon="2.33929">
        <ele>83.5</ele>
        <time>2015-03-16T21:22:06.285Z</time>
      </trkpt>
      <trkpt lat="48.86212" lon="2.33937">
        <ele>83.5</ele>
        <time>2015-03-16T21:22:07.299Z</time>
      </trkpt>
      <trkpt lat="48.86211" lon="2.33945">
        <ele>83.4</ele>
        <time>2015-03-16T21:22:08.305Z</time>
      </trkpt>
      <trkpt lat="48.86209" lon="2.33952">
        <ele>83.6</ele>
        <time>2015-03-16T21:22:09.304Z</time>
      </trkpt>
      <trkpt lat="48.86207" lon="2.33959">
        <ele>83.7</ele>
        <time>2015-03-16T21:22:10.315Z</time>
      </trkpt>
      <trkpt lat="48.86205" lon="2.33967">
        <ele>83.9</ele>
        <time>2015-03-16T21:22:11.218Z</time>
      </trkpt>
      <trkpt lat="48.86204" lon="2.33974">
        <ele>83.8</ele>
        <time>2015-03-16T21:22:12.232Z</time>
      </trkpt>
      <trkpt lat="48.86203" lon="2.33986">
        <ele>83.5</ele>
        <time>2015-03-16T21:22:14.277Z</time>
      </trkpt>
      <trkpt lat="48.86203" lon="2.33992">
        <ele>83.3</ele>
        <time>2015-03-16T21:22:15.288Z</time>
      </trkpt>
      <trkpt lat="48.86201" lon="2.34004">
        <ele>82.9</ele>
        <time>2015-03-16T21:22:17.308Z</time>
      </trkpt>
      <trkpt lat="48.86199" lon="2.34009">
        <ele>82.4</ele>
        <time>2015-03-16T21:22:18.380Z</time>
      </trkpt>
      <trkpt lat="48.86194" lon="2.34018">
        <ele>81.4</ele>
        <time>2015-03-16T21:22:20.278Z</time>
      </trkpt>
      <trkpt lat="48.86192" lon="2.34023">
        <ele>81.1</ele>
        <time>2015-03-16T21:22:21.267Z</time>
      </trkpt>
      <trkpt lat="48.86189" lon="2.34034">
        <ele>80.9</ele>
        <time>2015-03-16T21:22:24.044Z</time>
      </trkpt>
      <trkpt lat="48.86189" lon="2.3404">
        <ele>81</ele>
        <time>2015-03-16T21:22:24.296Z</time>
      </trkpt>
      <trkpt lat="48.86188" lon="2.3405">
        <ele>81</ele>
        <time>2015-03-16T21:22:26.242Z</time>
      </trkpt>
      <trkpt lat="48.86187" lon="2.34056">
        <ele>80.9</ele>
        <time>2015-03-16T21:22:27.251Z</time>
      </trkpt>
      <trkpt lat="48.86184" lon="2.34068">
        <ele>80.5</ele>
        <time>2015-03-16T21:22:29.358Z</time>
      </trkpt>
      <trkpt lat="48.86182" lon="2.34074">
        <ele>80.4</ele>
        <time>2015-03-16T21:22:30.315Z</time>
      </trkpt>
      <trkpt lat="48.86178" lon="2.34084">
        <ele>79.8</ele>
        <time>2015-03-16T21:22:32.277Z</time>
      </trkpt>
      <trkpt lat="48.86177" lon="2.3409">
        <ele>80</ele>
        <time>2015-03-16T21:22:33.280Z</time>
      </trkpt>
      <trkpt lat="48.86176" lon="2.34102">
        <ele>80.1</ele>
        <time>2015-03-16T21:22:36.224Z</time>
      </trkpt>
      <trkpt lat="48.86177" lon="2.34105">
        <ele>80.5</ele>
        <time>2015-03-16T21:22:37.234Z</time>
      </trkpt>
      <trkpt lat="48.86176" lon="2.34107">
        <ele>80.5</ele>
        <time>2015-03-16T21:23:07.265Z</time>
      </trkpt>
      <trkpt lat="48.86175" lon="2.34127">
        <ele>79.7</ele>
        <time>2015-03-16T21:23:08.244Z</time>
      </trkpt>
      <trkpt lat="48.86171" lon="2.34134">
        <ele>78.3</ele>
        <time>2015-03-16T21:23:10.293Z</time>
      </trkpt>
      <trkpt lat="48.86169" lon="2.34138">
        <ele>77.7</ele>
        <time>2015-03-16T21:23:11.313Z</time>
      </trkpt>
      <trkpt lat="48.86164" lon="2.34149">
        <ele>76.5</ele>
        <time>2015-03-16T21:23:13.224Z</time>
      </trkpt>
      <trkpt lat="48.86162" lon="2.34156">
        <ele>75.5</ele>
        <time>2015-03-16T21:23:14.233Z</time>
      </trkpt>
      <trkpt lat="48.86157" lon="2.34166">
        <ele>74.4</ele>
        <time>2015-03-16T21:23:16.249Z</time>
      </trkpt>
      <trkpt lat="48.86156" lon="2.34172">
        <ele>73.9</ele>
        <time>2015-03-16T21:23:17.201Z</time>
      </trkpt>
      <trkpt lat="48.86154" lon="2.34185">
        <ele>73</ele>
        <time>2015-03-16T21:23:20.275Z</time>
      </trkpt>
      <trkpt lat="48.86153" lon="2.34189">
        <ele>72.9</ele>
        <time>2015-03-16T21:23:21.313Z</time>
      </trkpt>
      <trkpt lat="48.86151" lon="2.34198">
        <ele>72.7</ele>
        <time>2015-03-16T21:23:23.245Z</time>
      </trkpt>
      <trkpt lat="48.8615" lon="2.34202">
        <ele>72.5</ele>
        <time>2015-03-16T21:23:24.342Z</time>
      </trkpt>
      <trkpt lat="48.8615" lon="2.34216">
        <ele>73.2</ele>
        <time>2015-03-16T21:23:27.253Z</time>
      </trkpt>
      <trkpt lat="48.86149" lon="2.34219">
        <ele>73.4</ele>
        <time>2015-03-16T21:23:28.252Z</time>
      </trkpt>
      <trkpt lat="48.86144" lon="2.3423">
        <ele>73.9</ele>
        <time>2015-03-16T21:23:31.303Z</time>
      </trkpt>
      <trkpt lat="48.86145" lon="2.34234">
        <ele>73.9</ele>
        <time>2015-03-16T21:23:32.275Z</time>
      </trkpt>
      <trkpt lat="48.86144" lon="2.34243">
        <ele>74.3</ele>
        <time>2015-03-16T21:23:34.284Z</time>
      </trkpt>
      <trkpt lat="48.86144" lon="2.34249">
        <ele>74.4</ele>
        <time>2015-03-16T21:23:35.295Z</time>
      </trkpt>
      <trkpt lat="48.8614" lon="2.3426">
        <ele>74.5</ele>
        <time>2015-03-16T21:23:37.229Z</time>
      </trkpt>
      <trkpt lat="48.86139" lon="2.34264">
        <ele>74.7</ele>
        <time>2015-03-16T21:23:38.258Z</time>
      </trkpt>
      <trkpt lat="48.86141" lon="2.34276">
        <ele>75.6</ele>
        <time>2015-03-16T21:23:40.280Z</time>
      </trkpt>
      <trkpt lat="48.8614" lon="2.3428">
        <ele>75.7</ele>
        <time>2015-03-16T21:23:41.315Z</time>
      </trkpt>
      <trkpt lat="48.86139" lon="2.3429">
        <ele>75.6</ele>
        <time>2015-03-16T21:23:44.283Z</time>
      </trkpt>
      <trkpt lat="48.86137" lon="2.34294">
        <ele>75.4</ele>
        <time>2015-03-16T21:23:45.262Z</time>
      </trkpt>
      <trkpt lat="48.86134" lon="2.34305">
        <ele>74.6</ele>
        <time>2015-03-16T21:23:47.228Z</time>
      </trkpt>
      <trkpt lat="48.86132" lon="2.34312">
        <ele>74.2</ele>
        <time>2015-03-16T21:23:48.344Z</time>
      </trkpt>
      <trkpt lat="48.8613" lon="2.34319">
        <ele>73.7</ele>
        <time>2015-03-16T21:23:49.228Z</time>
      </trkpt>
      <trkpt lat="48.86129" lon="2.34326">
        <ele>73.5</ele>
        <time>2015-03-16T21:23:50.256Z</time>
      </trkpt>
      <trkpt lat="48.86128" lon="2.34338">
        <ele>72.9</ele>
        <time>2015-03-16T21:23:52.253Z</time>
      </trkpt>
      <trkpt lat="48.86128" lon="2.34341">
        <ele>72.5</ele>
        <time>2015-03-16T21:23:53.266Z</time>
      </trkpt>
      <trkpt lat="48.86131" lon="2.34353">
        <ele>71.5</ele>
        <time>2015-03-16T21:23:56.233Z</time>
      </trkpt>
      <trkpt lat="48.86133" lon="2.34355">
        <ele>71.1</ele>
        <time>2015-03-16T21:23:57.246Z</time>
      </trkpt>
      <trkpt lat="48.86134" lon="2.3436">
        <ele>70.4</ele>
        <time>2015-03-16T21:24:03.301Z</time>
      </trkpt>
      <trkpt lat="48.86129" lon="2.34383">
        <ele>67</ele>
        <time>2015-03-16T21:24:04.234Z</time>
      </trkpt>
      <trkpt lat="48.86126" lon="2.34391">
        <ele>66.2</ele>
        <time>2015-03-16T21:24:05.227Z</time>
      </trkpt>
      <trkpt lat="48.86123" lon="2.34398">
        <ele>65.5</ele>
        <time>2015-03-16T21:24:06.274Z</time>
      </trkpt>
      <trkpt lat="48.86121" lon="2.34406">
        <ele>64.8</ele>
        <time>2015-03-16T21:24:07.247Z</time>
      </trkpt>
      <trkpt lat="48.8612" lon="2.34416">
        <ele>63.6</ele>
        <time>2015-03-16T21:24:08.262Z</time>
      </trkpt>
      <trkpt lat="48.86119" lon="2.34426">
        <ele>62.6</ele>
        <time>2015-03-16T21:24:09.285Z</time>
      </trkpt>
      <trkpt lat="48.86118" lon="2.34435">
        <ele>61.9</ele>
        <time>2015-03-16T21:24:10.296Z</time>
      </trkpt>
      <trkpt lat="48.86115" lon="2.34444">
        <ele>62</ele>
        <time>2015-03-16T21:24:11.200Z</time>
      </trkpt>
      <trkpt lat="48.86113" lon="2.34453">
        <ele>61.9</ele>
        <time>2015-03-16T21:24:12.226Z</time>
      </trkpt>
      <trkpt lat="48.86112" lon="2.34464">
        <ele>61</ele>
        <time>2015-03-16T21:24:13.234Z</time>
      </trkpt>
      <trkpt lat="48.8611" lon="2.34476">
        <ele>60.2</ele>
        <time>2015-03-16T21:24:14.288Z</time>
      </trkpt>
      <trkpt lat="48.86107" lon="2.34488">
        <ele>59.4</ele>
        <time>2015-03-16T21:24:15.197Z</time>
      </trkpt>
      <trkpt lat="48.86105" lon="2.34499">
        <ele>58.3</ele>
        <time>2015-03-16T21:24:16.227Z</time>
      </trkpt>
      <trkpt lat="48.86103" lon="2.3451">
        <ele>57.4</ele>
        <time>2015-03-16T21:24:17.215Z</time>
      </trkpt>
      <trkpt lat="48.861" lon="2.34524">
        <ele>57.1</ele>
        <time>2015-03-16T21:24:18.215Z</time>
      </trkpt>
      <trkpt lat="48.86096" lon="2.34539">
        <ele>58.9</ele>
        <time>2015-03-16T21:24:19.227Z</time>
      </trkpt>
      <trkpt lat="48.86094" lon="2.34551">
        <ele>59.8</ele>
        <time>2015-03-16T21:24:20.246Z</time>
      </trkpt>
      <trkpt lat="48.86087" lon="2.34565">
        <ele>59.4</ele>
        <time>2015-03-16T21:24:22.324Z</time>
      </trkpt>
      <trkpt lat="48.86084" lon="2.34572">
        <ele>59.4</ele>
        <time>2015-03-16T21:24:23.215Z</time>
      </trkpt>
      <trkpt lat="48.86081" lon="2.34579">
        <ele>59.4</ele>
        <time>2015-03-16T21:24:24.222Z</time>
      </trkpt>
      <trkpt lat="48.86078" lon="2.34591">
        <ele>59.8</ele>
        <time>2015-03-16T21:24:26.446Z</time>
      </trkpt>
      <trkpt lat="48.86075" lon="2.34596">
        <ele>60.5</ele>
        <time>2015-03-16T21:24:27.251Z</time>
      </trkpt>
      <trkpt lat="48.8607" lon="2.34599">
        <ele>61.7</ele>
        <time>2015-03-16T21:24:28.262Z</time>
      </trkpt>
      <trkpt lat="48.86065" lon="2.34602">
        <ele>62.9</ele>
        <time>2015-03-16T21:24:29.245Z</time>
      </trkpt>
      <trkpt lat="48.8606" lon="2.34604">
        <ele>64.2</ele>
        <time>2015-03-16T21:24:30.241Z</time>
      </trkpt>
      <trkpt lat="48.86056" lon="2.34607">
        <ele>65.1</ele>
        <time>2015-03-16T21:24:31.248Z</time>
      </trkpt>
      <trkpt lat="48.86051" lon="2.3461">
        <ele>65.5</ele>
        <time>2015-03-16T21:24:32.296Z</time>
      </trkpt>
      <trkpt lat="48.86048" lon="2.34613">
        <ele>65.6</ele>
        <time>2015-03-16T21:24:33.309Z</time>
      </trkpt>
      <trkpt lat="48.86044" lon="2.34618">
        <ele>66.1</ele>
        <time>2015-03-16T21:24:34.360Z</time>
      </trkpt>
      <trkpt lat="48.86039" lon="2.34622">
        <ele>66.8</ele>
        <time>2015-03-16T21:24:35.207Z</time>
      </trkpt>
      <trkpt lat="48.86035" lon="2.34625">
        <ele>67.4</ele>
        <time>2015-03-16T21:24:36.265Z</time>
      </trkpt>
      <trkpt lat="48.8603" lon="2.34628">
        <ele>68.1</ele>
        <time>2015-03-16T21:24:37.276Z</time>
      </trkpt>
      <trkpt lat="48.86022" lon="2.34632">
        <ele>69.4</ele>
        <time>2015-03-16T21:24:39.311Z</time>
      </trkpt>
      <trkpt lat="48.86019" lon="2.34635">
        <ele>70</ele>
        <time>2015-03-16T21:24:40.232Z</time>
      </trkpt>
      <trkpt lat="48.86013" lon="2.34643">
        <ele>70.7</ele>
        <time>2015-03-16T21:24:42.267Z</time>
      </trkpt>
      <trkpt lat="48.8601" lon="2.34648">
        <ele>71.5</ele>
        <time>2015-03-16T21:24:43.281Z</time>
      </trkpt>
      <trkpt lat="48.86003" lon="2.34654">
        <ele>72.6</ele>
        <time>2015-03-16T21:24:46.239Z</time>
      </trkpt>
      <trkpt lat="48.86" lon="2.34657">
        <ele>72.8</ele>
        <time>2015-03-16T21:24:47.243Z</time>
      </trkpt>
      <trkpt lat="48.85994" lon="2.34662">
        <ele>73.4</ele>
        <time>2015-03-16T21:24:49.324Z</time>
      </trkpt>
      <trkpt lat="48.8599" lon="2.34666">
        <ele>73.6</ele>
        <time>2015-03-16T21:24:50.407Z</time>
      </trkpt>
      <trkpt lat="48.85983" lon="2.34673">
        <ele>74.2</ele>
        <time>2015-03-16T21:24:52.310Z</time>
      </trkpt>
      <trkpt lat="48.85979" lon="2.34677">
        <ele>74.8</ele>
        <time>2015-03-16T21:24:53.340Z</time>
      </trkpt>
      <trkpt lat="48.85973" lon="2.34681">
        <ele>75.1</ele>
        <time>2015-03-16T21:24:55.214Z</time>
      </trkpt>
      <trkpt lat="48.85969" lon="2.34685">
        <ele>75.1</ele>
        <time>2015-03-16T21:24:56.262Z</time>
      </trkpt>
      <trkpt lat="48.85962" lon="2.3469">
        <ele>75.2</ele>
        <time>2015-03-16T21:24:59.345Z</time>
      </trkpt>
      <trkpt lat="48.85959" lon="2.34692">
        <ele>75.1</ele>
        <time>2015-03-16T21:25:00.240Z</time>
      </trkpt>
    </trkseg>
  </trk>
</gpx>